<?xml version="1.0" encoding="UTF-8" standalone="no" ?>
<gpx xmlns="http://www.topografix.com/GPX/1/1" xmlns:xsi="http://www.w3.org/2001/XMLSchema-instance" xsi:schemaLocation="http://www.topografix.com/GPX/1/1 http://www.topografix.com/GPX/1/1/gpx.xsd" version="1.1" creator="VisuGPX - https://www.visugpx.com">
  <metadata>
    <name>Pic des Trois Seigneurs (par l'Étang d'Arbu) </name>
    <desc><![CDATA[Boucle Sud par le sentier de l'Étang d'Arbu, retour par les crêtes vers le Port de Lers. Temps de cinéma et température incroyable pour un 28 décembre (9° au départ, 15° au niveau du Lac à 1700m !).

Crêtes un peu trop exposées avec la neige transformée et glacée. Crampons-Piolet recommandés en hiver. Versants Sud glacés en partie. Très peu de neige.

Rien à signaler pour la belle saison sinon que d'être vigilant sur les crêtes. Pas de difficultés.

https://www.strava.com/activities/813771039]]></desc>
  </metadata>
  <trk>
    <name><![CDATA[Pic des 3 Seigneurs en short et T-shirt...]]></name>
    <trkseg>
      <trkpt lat="42.80788" lon="1.42802">
        <ele>1423.1</ele>
        <time>2016-12-28T08:49:32Z</time>
      </trkpt>
      <trkpt lat="42.8079" lon="1.42807">
        <ele>1422.3</ele>
        <time>2016-12-28T08:49:40Z</time>
      </trkpt>
      <trkpt lat="42.80792" lon="1.4281">
        <ele>1422.4</ele>
        <time>2016-12-28T08:49:42Z</time>
      </trkpt>
      <trkpt lat="42.80797" lon="1.42811">
        <ele>1422.4</ele>
        <time>2016-12-28T08:49:44Z</time>
      </trkpt>
      <trkpt lat="42.808" lon="1.42815">
        <ele>1422.5</ele>
        <time>2016-12-28T08:49:50Z</time>
      </trkpt>
      <trkpt lat="42.80804" lon="1.42815">
        <ele>1422.6</ele>
        <time>2016-12-28T08:49:52Z</time>
      </trkpt>
      <trkpt lat="42.80807" lon="1.42816">
        <ele>1422.6</ele>
        <time>2016-12-28T08:49:54Z</time>
      </trkpt>
      <trkpt lat="42.8081" lon="1.42819">
        <ele>1422.6</ele>
        <time>2016-12-28T08:49:57Z</time>
      </trkpt>
      <trkpt lat="42.80813" lon="1.42818">
        <ele>1422.7</ele>
        <time>2016-12-28T08:49:59Z</time>
      </trkpt>
      <trkpt lat="42.80816" lon="1.42818">
        <ele>1422.7</ele>
        <time>2016-12-28T08:50:01Z</time>
      </trkpt>
      <trkpt lat="42.80821" lon="1.42821">
        <ele>1422.8</ele>
        <time>2016-12-28T08:50:05Z</time>
      </trkpt>
      <trkpt lat="42.80824" lon="1.42822">
        <ele>1422.8</ele>
        <time>2016-12-28T08:50:06Z</time>
      </trkpt>
      <trkpt lat="42.80827" lon="1.42825">
        <ele>1422.9</ele>
        <time>2016-12-28T08:50:09Z</time>
      </trkpt>
      <trkpt lat="42.8083" lon="1.42825">
        <ele>1422.9</ele>
        <time>2016-12-28T08:50:12Z</time>
      </trkpt>
      <trkpt lat="42.80833" lon="1.42823">
        <ele>1423</ele>
        <time>2016-12-28T08:50:14Z</time>
      </trkpt>
      <trkpt lat="42.80835" lon="1.42819">
        <ele>1423</ele>
        <time>2016-12-28T08:50:16Z</time>
      </trkpt>
      <trkpt lat="42.80836" lon="1.42813">
        <ele>1423.1</ele>
        <time>2016-12-28T08:50:17Z</time>
      </trkpt>
      <trkpt lat="42.80839" lon="1.42813">
        <ele>1423.1</ele>
        <time>2016-12-28T08:50:19Z</time>
      </trkpt>
      <trkpt lat="42.80844" lon="1.42814">
        <ele>1423.2</ele>
        <time>2016-12-28T08:50:22Z</time>
      </trkpt>
      <trkpt lat="42.80848" lon="1.42815">
        <ele>1423.2</ele>
        <time>2016-12-28T08:50:25Z</time>
      </trkpt>
      <trkpt lat="42.8085" lon="1.42817">
        <ele>1423.3</ele>
        <time>2016-12-28T08:50:27Z</time>
      </trkpt>
      <trkpt lat="42.80851" lon="1.42813">
        <ele>1423.3</ele>
        <time>2016-12-28T08:50:29Z</time>
      </trkpt>
      <trkpt lat="42.80854" lon="1.42809">
        <ele>1423.4</ele>
        <time>2016-12-28T08:50:32Z</time>
      </trkpt>
      <trkpt lat="42.80857" lon="1.42808">
        <ele>1423.4</ele>
        <time>2016-12-28T08:50:35Z</time>
      </trkpt>
      <trkpt lat="42.8086" lon="1.42808">
        <ele>1423.4</ele>
        <time>2016-12-28T08:50:38Z</time>
      </trkpt>
      <trkpt lat="42.80864" lon="1.42811">
        <ele>1423.5</ele>
        <time>2016-12-28T08:50:41Z</time>
      </trkpt>
      <trkpt lat="42.80866" lon="1.42815">
        <ele>1423.6</ele>
        <time>2016-12-28T08:50:43Z</time>
      </trkpt>
      <trkpt lat="42.80869" lon="1.42814">
        <ele>1423.6</ele>
        <time>2016-12-28T08:50:44Z</time>
      </trkpt>
      <trkpt lat="42.80872" lon="1.42813">
        <ele>1423.6</ele>
        <time>2016-12-28T08:50:46Z</time>
      </trkpt>
      <trkpt lat="42.80876" lon="1.42814">
        <ele>1423.7</ele>
        <time>2016-12-28T08:50:49Z</time>
      </trkpt>
      <trkpt lat="42.8088" lon="1.42814">
        <ele>1423.7</ele>
        <time>2016-12-28T08:50:52Z</time>
      </trkpt>
      <trkpt lat="42.80883" lon="1.42812">
        <ele>1423.8</ele>
        <time>2016-12-28T08:50:56Z</time>
      </trkpt>
      <trkpt lat="42.80886" lon="1.42811">
        <ele>1423.8</ele>
        <time>2016-12-28T08:50:58Z</time>
      </trkpt>
      <trkpt lat="42.80889" lon="1.42811">
        <ele>1423.9</ele>
        <time>2016-12-28T08:51:00Z</time>
      </trkpt>
      <trkpt lat="42.80893" lon="1.42813">
        <ele>1423.9</ele>
        <time>2016-12-28T08:51:03Z</time>
      </trkpt>
      <trkpt lat="42.80895" lon="1.42813">
        <ele>1424</ele>
        <time>2016-12-28T08:51:07Z</time>
      </trkpt>
      <trkpt lat="42.80899" lon="1.42813">
        <ele>1424</ele>
        <time>2016-12-28T08:51:10Z</time>
      </trkpt>
      <trkpt lat="42.80901" lon="1.42812">
        <ele>1424</ele>
        <time>2016-12-28T08:51:12Z</time>
      </trkpt>
      <trkpt lat="42.80904" lon="1.4281">
        <ele>1424.1</ele>
        <time>2016-12-28T08:51:16Z</time>
      </trkpt>
      <trkpt lat="42.80906" lon="1.42806">
        <ele>1424.1</ele>
        <time>2016-12-28T08:51:21Z</time>
      </trkpt>
      <trkpt lat="42.8091" lon="1.42805">
        <ele>1424.2</ele>
        <time>2016-12-28T08:51:24Z</time>
      </trkpt>
      <trkpt lat="42.80913" lon="1.42805">
        <ele>1424.2</ele>
        <time>2016-12-28T08:51:28Z</time>
      </trkpt>
      <trkpt lat="42.80915" lon="1.42801">
        <ele>1424.3</ele>
        <time>2016-12-28T08:51:36Z</time>
      </trkpt>
      <trkpt lat="42.80918" lon="1.42801">
        <ele>1424.3</ele>
        <time>2016-12-28T08:51:40Z</time>
      </trkpt>
      <trkpt lat="42.80922" lon="1.42798">
        <ele>1424.4</ele>
        <time>2016-12-28T08:51:43Z</time>
      </trkpt>
      <trkpt lat="42.80924" lon="1.42797">
        <ele>1424.4</ele>
        <time>2016-12-28T08:51:55Z</time>
      </trkpt>
      <trkpt lat="42.80928" lon="1.42797">
        <ele>1424.5</ele>
        <time>2016-12-28T08:52:07Z</time>
      </trkpt>
      <trkpt lat="42.80931" lon="1.42794">
        <ele>1424.5</ele>
        <time>2016-12-28T08:52:09Z</time>
      </trkpt>
      <trkpt lat="42.80935" lon="1.42793">
        <ele>1424.6</ele>
        <time>2016-12-28T08:52:11Z</time>
      </trkpt>
      <trkpt lat="42.80938" lon="1.42793">
        <ele>1424.6</ele>
        <time>2016-12-28T08:52:13Z</time>
      </trkpt>
      <trkpt lat="42.80941" lon="1.42794">
        <ele>1424.6</ele>
        <time>2016-12-28T08:52:15Z</time>
      </trkpt>
      <trkpt lat="42.80946" lon="1.42793">
        <ele>1424.7</ele>
        <time>2016-12-28T08:52:18Z</time>
      </trkpt>
      <trkpt lat="42.80949" lon="1.42794">
        <ele>1424.7</ele>
        <time>2016-12-28T08:52:19Z</time>
      </trkpt>
      <trkpt lat="42.80952" lon="1.42794">
        <ele>1424.8</ele>
        <time>2016-12-28T08:52:22Z</time>
      </trkpt>
      <trkpt lat="42.80955" lon="1.42791">
        <ele>1424.8</ele>
        <time>2016-12-28T08:52:25Z</time>
      </trkpt>
      <trkpt lat="42.8096" lon="1.4279">
        <ele>1424.9</ele>
        <time>2016-12-28T08:52:29Z</time>
      </trkpt>
      <trkpt lat="42.80964" lon="1.4279">
        <ele>1424.9</ele>
        <time>2016-12-28T08:52:33Z</time>
      </trkpt>
      <trkpt lat="42.80966" lon="1.42788">
        <ele>1425</ele>
        <time>2016-12-28T08:52:37Z</time>
      </trkpt>
      <trkpt lat="42.8097" lon="1.42786">
        <ele>1425</ele>
        <time>2016-12-28T08:52:39Z</time>
      </trkpt>
      <trkpt lat="42.80973" lon="1.42784">
        <ele>1425.1</ele>
        <time>2016-12-28T08:52:43Z</time>
      </trkpt>
      <trkpt lat="42.80977" lon="1.42784">
        <ele>1425.1</ele>
        <time>2016-12-28T08:52:46Z</time>
      </trkpt>
      <trkpt lat="42.8098" lon="1.42784">
        <ele>1425.2</ele>
        <time>2016-12-28T08:52:50Z</time>
      </trkpt>
      <trkpt lat="42.80983" lon="1.42784">
        <ele>1425.2</ele>
        <time>2016-12-28T08:52:53Z</time>
      </trkpt>
      <trkpt lat="42.80987" lon="1.42787">
        <ele>1425.3</ele>
        <time>2016-12-28T08:52:57Z</time>
      </trkpt>
      <trkpt lat="42.8099" lon="1.42788">
        <ele>1425.3</ele>
        <time>2016-12-28T08:53:01Z</time>
      </trkpt>
      <trkpt lat="42.80993" lon="1.4279">
        <ele>1425.4</ele>
        <time>2016-12-28T08:53:04Z</time>
      </trkpt>
      <trkpt lat="42.80993" lon="1.42794">
        <ele>1425.4</ele>
        <time>2016-12-28T08:53:06Z</time>
      </trkpt>
      <trkpt lat="42.80996" lon="1.42799">
        <ele>1425.5</ele>
        <time>2016-12-28T08:53:07Z</time>
      </trkpt>
      <trkpt lat="42.80998" lon="1.42795">
        <ele>1425.5</ele>
        <time>2016-12-28T08:53:09Z</time>
      </trkpt>
      <trkpt lat="42.81001" lon="1.42799">
        <ele>1425.6</ele>
        <time>2016-12-28T08:53:11Z</time>
      </trkpt>
      <trkpt lat="42.81003" lon="1.42796">
        <ele>1425.6</ele>
        <time>2016-12-28T08:53:14Z</time>
      </trkpt>
      <trkpt lat="42.81008" lon="1.42796">
        <ele>1425.7</ele>
        <time>2016-12-28T08:53:18Z</time>
      </trkpt>
      <trkpt lat="42.81004" lon="1.42795">
        <ele>1425.7</ele>
        <time>2016-12-28T08:53:19Z</time>
      </trkpt>
      <trkpt lat="42.81007" lon="1.42795">
        <ele>1425.8</ele>
        <time>2016-12-28T08:53:20Z</time>
      </trkpt>
      <trkpt lat="42.81009" lon="1.42792">
        <ele>1425.8</ele>
        <time>2016-12-28T08:53:22Z</time>
      </trkpt>
      <trkpt lat="42.81012" lon="1.42793">
        <ele>1425.9</ele>
        <time>2016-12-28T08:53:26Z</time>
      </trkpt>
      <trkpt lat="42.81015" lon="1.42794">
        <ele>1425.9</ele>
        <time>2016-12-28T08:53:39Z</time>
      </trkpt>
      <trkpt lat="42.81017" lon="1.42796">
        <ele>1425.9</ele>
        <time>2016-12-28T08:53:40Z</time>
      </trkpt>
      <trkpt lat="42.81019" lon="1.42799">
        <ele>1426</ele>
        <time>2016-12-28T08:53:42Z</time>
      </trkpt>
      <trkpt lat="42.81021" lon="1.42802">
        <ele>1426</ele>
        <time>2016-12-28T08:53:45Z</time>
      </trkpt>
      <trkpt lat="42.81023" lon="1.42806">
        <ele>1426</ele>
        <time>2016-12-28T08:53:49Z</time>
      </trkpt>
      <trkpt lat="42.81022" lon="1.42811">
        <ele>1426.1</ele>
        <time>2016-12-28T08:53:52Z</time>
      </trkpt>
      <trkpt lat="42.81024" lon="1.42815">
        <ele>1426.1</ele>
        <time>2016-12-28T08:53:54Z</time>
      </trkpt>
      <trkpt lat="42.81027" lon="1.42818">
        <ele>1426.2</ele>
        <time>2016-12-28T08:53:55Z</time>
      </trkpt>
      <trkpt lat="42.81029" lon="1.42821">
        <ele>1426.2</ele>
        <time>2016-12-28T08:54:00Z</time>
      </trkpt>
      <trkpt lat="42.81032" lon="1.42822">
        <ele>1426.3</ele>
        <time>2016-12-28T08:54:03Z</time>
      </trkpt>
      <trkpt lat="42.81035" lon="1.42823">
        <ele>1426.3</ele>
        <time>2016-12-28T08:54:10Z</time>
      </trkpt>
      <trkpt lat="42.81037" lon="1.42826">
        <ele>1426.4</ele>
        <time>2016-12-28T08:54:14Z</time>
      </trkpt>
      <trkpt lat="42.8104" lon="1.42827">
        <ele>1426.4</ele>
        <time>2016-12-28T08:54:18Z</time>
      </trkpt>
      <trkpt lat="42.81043" lon="1.42827">
        <ele>1426.4</ele>
        <time>2016-12-28T08:54:22Z</time>
      </trkpt>
      <trkpt lat="42.81042" lon="1.42834">
        <ele>1426.5</ele>
        <time>2016-12-28T08:54:25Z</time>
      </trkpt>
      <trkpt lat="42.81045" lon="1.42832">
        <ele>1426.5</ele>
        <time>2016-12-28T08:54:36Z</time>
      </trkpt>
      <trkpt lat="42.81045" lon="1.42836">
        <ele>1426.6</ele>
        <time>2016-12-28T08:54:40Z</time>
      </trkpt>
      <trkpt lat="42.81047" lon="1.4284">
        <ele>1426.6</ele>
        <time>2016-12-28T08:54:44Z</time>
      </trkpt>
      <trkpt lat="42.81049" lon="1.42842">
        <ele>1426.7</ele>
        <time>2016-12-28T08:54:46Z</time>
      </trkpt>
      <trkpt lat="42.81051" lon="1.42846">
        <ele>1426.7</ele>
        <time>2016-12-28T08:54:49Z</time>
      </trkpt>
      <trkpt lat="42.81052" lon="1.4285">
        <ele>1426.7</ele>
        <time>2016-12-28T08:54:52Z</time>
      </trkpt>
      <trkpt lat="42.81052" lon="1.42854">
        <ele>1426.8</ele>
        <time>2016-12-28T08:54:55Z</time>
      </trkpt>
      <trkpt lat="42.81053" lon="1.42858">
        <ele>1426.8</ele>
        <time>2016-12-28T08:54:58Z</time>
      </trkpt>
      <trkpt lat="42.81055" lon="1.42862">
        <ele>1426.9</ele>
        <time>2016-12-28T08:55:02Z</time>
      </trkpt>
      <trkpt lat="42.81056" lon="1.42866">
        <ele>1426.9</ele>
        <time>2016-12-28T08:55:05Z</time>
      </trkpt>
      <trkpt lat="42.81057" lon="1.42872">
        <ele>1427</ele>
        <time>2016-12-28T08:55:07Z</time>
      </trkpt>
      <trkpt lat="42.81058" lon="1.42875">
        <ele>1427</ele>
        <time>2016-12-28T08:55:10Z</time>
      </trkpt>
      <trkpt lat="42.8106" lon="1.42879">
        <ele>1427.1</ele>
        <time>2016-12-28T08:55:13Z</time>
      </trkpt>
      <trkpt lat="42.81059" lon="1.42884">
        <ele>1427.1</ele>
        <time>2016-12-28T08:55:16Z</time>
      </trkpt>
      <trkpt lat="42.81061" lon="1.42888">
        <ele>1427.2</ele>
        <time>2016-12-28T08:55:22Z</time>
      </trkpt>
      <trkpt lat="42.81062" lon="1.42892">
        <ele>1427.2</ele>
        <time>2016-12-28T08:55:26Z</time>
      </trkpt>
      <trkpt lat="42.81061" lon="1.42897">
        <ele>1427.2</ele>
        <time>2016-12-28T08:55:30Z</time>
      </trkpt>
      <trkpt lat="42.8106" lon="1.42901">
        <ele>1427.3</ele>
        <time>2016-12-28T08:55:34Z</time>
      </trkpt>
      <trkpt lat="42.81062" lon="1.42906">
        <ele>1427.3</ele>
        <time>2016-12-28T08:55:37Z</time>
      </trkpt>
      <trkpt lat="42.81062" lon="1.42911">
        <ele>1427.4</ele>
        <time>2016-12-28T08:55:40Z</time>
      </trkpt>
      <trkpt lat="42.81062" lon="1.42916">
        <ele>1427.4</ele>
        <time>2016-12-28T08:55:43Z</time>
      </trkpt>
      <trkpt lat="42.81064" lon="1.42919">
        <ele>1427.5</ele>
        <time>2016-12-28T08:55:45Z</time>
      </trkpt>
      <trkpt lat="42.81066" lon="1.42926">
        <ele>1427.5</ele>
        <time>2016-12-28T08:55:51Z</time>
      </trkpt>
      <trkpt lat="42.81068" lon="1.42929">
        <ele>1427.6</ele>
        <time>2016-12-28T08:55:53Z</time>
      </trkpt>
      <trkpt lat="42.81065" lon="1.42931">
        <ele>1427.6</ele>
        <time>2016-12-28T08:55:56Z</time>
      </trkpt>
      <trkpt lat="42.81067" lon="1.42935">
        <ele>1427.7</ele>
        <time>2016-12-28T08:55:59Z</time>
      </trkpt>
      <trkpt lat="42.81069" lon="1.42938">
        <ele>1427.7</ele>
        <time>2016-12-28T08:56:03Z</time>
      </trkpt>
      <trkpt lat="42.81072" lon="1.4294">
        <ele>1427.8</ele>
        <time>2016-12-28T08:56:20Z</time>
      </trkpt>
      <trkpt lat="42.81073" lon="1.42945">
        <ele>1427.8</ele>
        <time>2016-12-28T08:56:22Z</time>
      </trkpt>
      <trkpt lat="42.81073" lon="1.42951">
        <ele>1427.9</ele>
        <time>2016-12-28T08:56:24Z</time>
      </trkpt>
      <trkpt lat="42.81076" lon="1.42954">
        <ele>1427.9</ele>
        <time>2016-12-28T08:56:26Z</time>
      </trkpt>
      <trkpt lat="42.8108" lon="1.42956">
        <ele>1428</ele>
        <time>2016-12-28T08:56:30Z</time>
      </trkpt>
      <trkpt lat="42.81081" lon="1.4296">
        <ele>1428</ele>
        <time>2016-12-28T08:56:32Z</time>
      </trkpt>
      <trkpt lat="42.81082" lon="1.42964">
        <ele>1428.1</ele>
        <time>2016-12-28T08:56:34Z</time>
      </trkpt>
      <trkpt lat="42.81081" lon="1.42968">
        <ele>1428.1</ele>
        <time>2016-12-28T08:56:37Z</time>
      </trkpt>
      <trkpt lat="42.81082" lon="1.42973">
        <ele>1428.1</ele>
        <time>2016-12-28T08:56:41Z</time>
      </trkpt>
      <trkpt lat="42.81084" lon="1.42976">
        <ele>1428.2</ele>
        <time>2016-12-28T08:56:42Z</time>
      </trkpt>
      <trkpt lat="42.81086" lon="1.4298">
        <ele>1428.2</ele>
        <time>2016-12-28T08:56:44Z</time>
      </trkpt>
      <trkpt lat="42.81088" lon="1.42984">
        <ele>1428.3</ele>
        <time>2016-12-28T08:56:46Z</time>
      </trkpt>
      <trkpt lat="42.8109" lon="1.42988">
        <ele>1428.3</ele>
        <time>2016-12-28T08:56:49Z</time>
      </trkpt>
      <trkpt lat="42.81091" lon="1.42993">
        <ele>1428.4</ele>
        <time>2016-12-28T08:56:52Z</time>
      </trkpt>
      <trkpt lat="42.81092" lon="1.42997">
        <ele>1428.4</ele>
        <time>2016-12-28T08:56:54Z</time>
      </trkpt>
      <trkpt lat="42.81094" lon="1.43">
        <ele>1428.5</ele>
        <time>2016-12-28T08:56:55Z</time>
      </trkpt>
      <trkpt lat="42.81094" lon="1.43005">
        <ele>1428.5</ele>
        <time>2016-12-28T08:57:00Z</time>
      </trkpt>
      <trkpt lat="42.81097" lon="1.43004">
        <ele>1428.5</ele>
        <time>2016-12-28T08:57:04Z</time>
      </trkpt>
      <trkpt lat="42.81097" lon="1.43009">
        <ele>1428.6</ele>
        <time>2016-12-28T08:57:07Z</time>
      </trkpt>
      <trkpt lat="42.81098" lon="1.43013">
        <ele>1428.6</ele>
        <time>2016-12-28T08:57:11Z</time>
      </trkpt>
      <trkpt lat="42.81097" lon="1.43017">
        <ele>1428.7</ele>
        <time>2016-12-28T08:57:13Z</time>
      </trkpt>
      <trkpt lat="42.81098" lon="1.43021">
        <ele>1428.7</ele>
        <time>2016-12-28T08:57:17Z</time>
      </trkpt>
      <trkpt lat="42.81098" lon="1.43025">
        <ele>1428.7</ele>
        <time>2016-12-28T08:57:21Z</time>
      </trkpt>
      <trkpt lat="42.81096" lon="1.43028">
        <ele>1428.8</ele>
        <time>2016-12-28T08:57:31Z</time>
      </trkpt>
      <trkpt lat="42.81097" lon="1.43033">
        <ele>1428.8</ele>
        <time>2016-12-28T08:57:33Z</time>
      </trkpt>
      <trkpt lat="42.81095" lon="1.43037">
        <ele>1428.9</ele>
        <time>2016-12-28T08:57:35Z</time>
      </trkpt>
      <trkpt lat="42.81096" lon="1.43042">
        <ele>1428.9</ele>
        <time>2016-12-28T08:57:39Z</time>
      </trkpt>
      <trkpt lat="42.81097" lon="1.43045">
        <ele>1429</ele>
        <time>2016-12-28T08:57:43Z</time>
      </trkpt>
      <trkpt lat="42.81099" lon="1.43049">
        <ele>1429</ele>
        <time>2016-12-28T08:57:46Z</time>
      </trkpt>
      <trkpt lat="42.811" lon="1.43053">
        <ele>1429</ele>
        <time>2016-12-28T08:57:48Z</time>
      </trkpt>
      <trkpt lat="42.811" lon="1.43058">
        <ele>1429.1</ele>
        <time>2016-12-28T08:57:51Z</time>
      </trkpt>
      <trkpt lat="42.811" lon="1.43063">
        <ele>1429.1</ele>
        <time>2016-12-28T08:57:53Z</time>
      </trkpt>
      <trkpt lat="42.81101" lon="1.43068">
        <ele>1429.2</ele>
        <time>2016-12-28T08:57:56Z</time>
      </trkpt>
      <trkpt lat="42.811" lon="1.43073">
        <ele>1429.2</ele>
        <time>2016-12-28T08:57:59Z</time>
      </trkpt>
      <trkpt lat="42.811" lon="1.43079">
        <ele>1429.3</ele>
        <time>2016-12-28T08:58:02Z</time>
      </trkpt>
      <trkpt lat="42.811" lon="1.43084">
        <ele>1429.3</ele>
        <time>2016-12-28T08:58:05Z</time>
      </trkpt>
      <trkpt lat="42.811" lon="1.43088">
        <ele>1429.4</ele>
        <time>2016-12-28T08:58:09Z</time>
      </trkpt>
      <trkpt lat="42.811" lon="1.43092">
        <ele>1429.4</ele>
        <time>2016-12-28T08:58:11Z</time>
      </trkpt>
      <trkpt lat="42.81102" lon="1.43096">
        <ele>1429.5</ele>
        <time>2016-12-28T08:58:14Z</time>
      </trkpt>
      <trkpt lat="42.81103" lon="1.43101">
        <ele>1429.5</ele>
        <time>2016-12-28T08:58:28Z</time>
      </trkpt>
      <trkpt lat="42.81104" lon="1.43105">
        <ele>1429.6</ele>
        <time>2016-12-28T08:58:34Z</time>
      </trkpt>
      <trkpt lat="42.81105" lon="1.43109">
        <ele>1429.6</ele>
        <time>2016-12-28T08:58:39Z</time>
      </trkpt>
      <trkpt lat="42.81106" lon="1.43112">
        <ele>1429.6</ele>
        <time>2016-12-28T08:58:43Z</time>
      </trkpt>
      <trkpt lat="42.81106" lon="1.43116">
        <ele>1429.7</ele>
        <time>2016-12-28T08:58:48Z</time>
      </trkpt>
      <trkpt lat="42.81107" lon="1.43121">
        <ele>1429.7</ele>
        <time>2016-12-28T08:58:50Z</time>
      </trkpt>
      <trkpt lat="42.8111" lon="1.43124">
        <ele>1429.8</ele>
        <time>2016-12-28T08:58:53Z</time>
      </trkpt>
      <trkpt lat="42.81112" lon="1.4313">
        <ele>1429.8</ele>
        <time>2016-12-28T08:58:57Z</time>
      </trkpt>
      <trkpt lat="42.81115" lon="1.43134">
        <ele>1429.9</ele>
        <time>2016-12-28T08:59:00Z</time>
      </trkpt>
      <trkpt lat="42.81116" lon="1.43138">
        <ele>1429.9</ele>
        <time>2016-12-28T08:59:03Z</time>
      </trkpt>
      <trkpt lat="42.81118" lon="1.43142">
        <ele>1430</ele>
        <time>2016-12-28T08:59:06Z</time>
      </trkpt>
      <trkpt lat="42.81118" lon="1.43146">
        <ele>1430</ele>
        <time>2016-12-28T08:59:08Z</time>
      </trkpt>
      <trkpt lat="42.81117" lon="1.4315">
        <ele>1430.1</ele>
        <time>2016-12-28T08:59:09Z</time>
      </trkpt>
      <trkpt lat="42.81117" lon="1.43154">
        <ele>1430.1</ele>
        <time>2016-12-28T08:59:12Z</time>
      </trkpt>
      <trkpt lat="42.81116" lon="1.43157">
        <ele>1430.1</ele>
        <time>2016-12-28T08:59:17Z</time>
      </trkpt>
      <trkpt lat="42.81117" lon="1.43162">
        <ele>1430.2</ele>
        <time>2016-12-28T08:59:19Z</time>
      </trkpt>
      <trkpt lat="42.81119" lon="1.43166">
        <ele>1430.2</ele>
        <time>2016-12-28T08:59:21Z</time>
      </trkpt>
      <trkpt lat="42.81118" lon="1.4317">
        <ele>1430.3</ele>
        <time>2016-12-28T08:59:27Z</time>
      </trkpt>
      <trkpt lat="42.81118" lon="1.43174">
        <ele>1430.3</ele>
        <time>2016-12-28T08:59:30Z</time>
      </trkpt>
      <trkpt lat="42.8112" lon="1.43179">
        <ele>1430.4</ele>
        <time>2016-12-28T08:59:33Z</time>
      </trkpt>
      <trkpt lat="42.81122" lon="1.43182">
        <ele>1430.4</ele>
        <time>2016-12-28T08:59:36Z</time>
      </trkpt>
      <trkpt lat="42.81123" lon="1.4319">
        <ele>1430.5</ele>
        <time>2016-12-28T08:59:40Z</time>
      </trkpt>
      <trkpt lat="42.81124" lon="1.43195">
        <ele>1430.5</ele>
        <time>2016-12-28T08:59:43Z</time>
      </trkpt>
      <trkpt lat="42.81125" lon="1.43199">
        <ele>1430.6</ele>
        <time>2016-12-28T08:59:45Z</time>
      </trkpt>
      <trkpt lat="42.81127" lon="1.43202">
        <ele>1430.6</ele>
        <time>2016-12-28T08:59:47Z</time>
      </trkpt>
      <trkpt lat="42.81127" lon="1.43206">
        <ele>1430.6</ele>
        <time>2016-12-28T08:59:51Z</time>
      </trkpt>
      <trkpt lat="42.81129" lon="1.43211">
        <ele>1430.7</ele>
        <time>2016-12-28T08:59:53Z</time>
      </trkpt>
      <trkpt lat="42.81131" lon="1.43214">
        <ele>1430.7</ele>
        <time>2016-12-28T08:59:56Z</time>
      </trkpt>
      <trkpt lat="42.81134" lon="1.43217">
        <ele>1430.8</ele>
        <time>2016-12-28T08:59:57Z</time>
      </trkpt>
      <trkpt lat="42.81137" lon="1.4322">
        <ele>1430.8</ele>
        <time>2016-12-28T09:00:00Z</time>
      </trkpt>
      <trkpt lat="42.81139" lon="1.43224">
        <ele>1430.9</ele>
        <time>2016-12-28T09:00:02Z</time>
      </trkpt>
      <trkpt lat="42.8114" lon="1.43229">
        <ele>1430.9</ele>
        <time>2016-12-28T09:00:05Z</time>
      </trkpt>
      <trkpt lat="42.81136" lon="1.4323">
        <ele>1431</ele>
        <time>2016-12-28T09:00:06Z</time>
      </trkpt>
      <trkpt lat="42.81138" lon="1.43234">
        <ele>1431</ele>
        <time>2016-12-28T09:00:10Z</time>
      </trkpt>
      <trkpt lat="42.81141" lon="1.43236">
        <ele>1431.1</ele>
        <time>2016-12-28T09:00:12Z</time>
      </trkpt>
      <trkpt lat="42.81142" lon="1.4324">
        <ele>1431.1</ele>
        <time>2016-12-28T09:00:15Z</time>
      </trkpt>
      <trkpt lat="42.81144" lon="1.43245">
        <ele>1431.2</ele>
        <time>2016-12-28T09:00:18Z</time>
      </trkpt>
      <trkpt lat="42.81146" lon="1.43248">
        <ele>1431.2</ele>
        <time>2016-12-28T09:00:20Z</time>
      </trkpt>
      <trkpt lat="42.81146" lon="1.43252">
        <ele>1431.2</ele>
        <time>2016-12-28T09:00:25Z</time>
      </trkpt>
      <trkpt lat="42.81148" lon="1.43255">
        <ele>1431.3</ele>
        <time>2016-12-28T09:00:29Z</time>
      </trkpt>
      <trkpt lat="42.8115" lon="1.43259">
        <ele>1431.3</ele>
        <time>2016-12-28T09:00:34Z</time>
      </trkpt>
      <trkpt lat="42.81153" lon="1.43263">
        <ele>1431.4</ele>
        <time>2016-12-28T09:00:39Z</time>
      </trkpt>
      <trkpt lat="42.81153" lon="1.43267">
        <ele>1431.4</ele>
        <time>2016-12-28T09:00:47Z</time>
      </trkpt>
      <trkpt lat="42.81152" lon="1.43271">
        <ele>1431.5</ele>
        <time>2016-12-28T09:01:02Z</time>
      </trkpt>
      <trkpt lat="42.81154" lon="1.43275">
        <ele>1431.5</ele>
        <time>2016-12-28T09:01:04Z</time>
      </trkpt>
      <trkpt lat="42.81153" lon="1.43279">
        <ele>1431.5</ele>
        <time>2016-12-28T09:01:07Z</time>
      </trkpt>
      <trkpt lat="42.81155" lon="1.43284">
        <ele>1431.6</ele>
        <time>2016-12-28T09:01:10Z</time>
      </trkpt>
      <trkpt lat="42.81156" lon="1.43287">
        <ele>1431.6</ele>
        <time>2016-12-28T09:01:13Z</time>
      </trkpt>
      <trkpt lat="42.81158" lon="1.4329">
        <ele>1431.7</ele>
        <time>2016-12-28T09:01:19Z</time>
      </trkpt>
      <trkpt lat="42.81159" lon="1.43294">
        <ele>1431.7</ele>
        <time>2016-12-28T09:01:23Z</time>
      </trkpt>
      <trkpt lat="42.81162" lon="1.43296">
        <ele>1431.7</ele>
        <time>2016-12-28T09:01:26Z</time>
      </trkpt>
      <trkpt lat="42.81165" lon="1.43298">
        <ele>1431.8</ele>
        <time>2016-12-28T09:01:29Z</time>
      </trkpt>
      <trkpt lat="42.81167" lon="1.43301">
        <ele>1431.8</ele>
        <time>2016-12-28T09:01:32Z</time>
      </trkpt>
      <trkpt lat="42.81168" lon="1.43306">
        <ele>1431.9</ele>
        <time>2016-12-28T09:01:35Z</time>
      </trkpt>
      <trkpt lat="42.81167" lon="1.4331">
        <ele>1431.9</ele>
        <time>2016-12-28T09:01:51Z</time>
      </trkpt>
      <trkpt lat="42.81169" lon="1.43313">
        <ele>1432</ele>
        <time>2016-12-28T09:02:00Z</time>
      </trkpt>
      <trkpt lat="42.81171" lon="1.43316">
        <ele>1432</ele>
        <time>2016-12-28T09:02:09Z</time>
      </trkpt>
      <trkpt lat="42.81168" lon="1.43317">
        <ele>1432</ele>
        <time>2016-12-28T09:06:11Z</time>
      </trkpt>
      <trkpt lat="42.81166" lon="1.43321">
        <ele>1418.2</ele>
        <time>2016-12-28T09:06:14Z</time>
      </trkpt>
      <trkpt lat="42.81164" lon="1.43325">
        <ele>1405.7</ele>
        <time>2016-12-28T09:06:17Z</time>
      </trkpt>
      <trkpt lat="42.81163" lon="1.43329">
        <ele>1402.5</ele>
        <time>2016-12-28T09:06:22Z</time>
      </trkpt>
      <trkpt lat="42.81162" lon="1.43333">
        <ele>1403.3</ele>
        <time>2016-12-28T09:06:27Z</time>
      </trkpt>
      <trkpt lat="42.81164" lon="1.43336">
        <ele>1404.1</ele>
        <time>2016-12-28T09:06:30Z</time>
      </trkpt>
      <trkpt lat="42.81166" lon="1.43339">
        <ele>1404.8</ele>
        <time>2016-12-28T09:06:43Z</time>
      </trkpt>
      <trkpt lat="42.81165" lon="1.43343">
        <ele>1405.5</ele>
        <time>2016-12-28T09:06:47Z</time>
      </trkpt>
      <trkpt lat="42.81166" lon="1.43347">
        <ele>1406.2</ele>
        <time>2016-12-28T09:06:49Z</time>
      </trkpt>
      <trkpt lat="42.81166" lon="1.4335">
        <ele>1406.9</ele>
        <time>2016-12-28T09:06:54Z</time>
      </trkpt>
      <trkpt lat="42.81166" lon="1.43354">
        <ele>1407.7</ele>
        <time>2016-12-28T09:06:58Z</time>
      </trkpt>
      <trkpt lat="42.81169" lon="1.43357">
        <ele>1408.6</ele>
        <time>2016-12-28T09:07:00Z</time>
      </trkpt>
      <trkpt lat="42.81172" lon="1.43359">
        <ele>1409.3</ele>
        <time>2016-12-28T09:07:08Z</time>
      </trkpt>
      <trkpt lat="42.81175" lon="1.43362">
        <ele>1410.4</ele>
        <time>2016-12-28T09:07:16Z</time>
      </trkpt>
      <trkpt lat="42.81177" lon="1.43367">
        <ele>1411.4</ele>
        <time>2016-12-28T09:07:18Z</time>
      </trkpt>
      <trkpt lat="42.81177" lon="1.43371">
        <ele>1412.1</ele>
        <time>2016-12-28T09:07:23Z</time>
      </trkpt>
      <trkpt lat="42.81179" lon="1.43373">
        <ele>1412.9</ele>
        <time>2016-12-28T09:07:28Z</time>
      </trkpt>
      <trkpt lat="42.81182" lon="1.43374">
        <ele>1413.6</ele>
        <time>2016-12-28T09:07:30Z</time>
      </trkpt>
      <trkpt lat="42.81184" lon="1.43377">
        <ele>1414.3</ele>
        <time>2016-12-28T09:07:33Z</time>
      </trkpt>
      <trkpt lat="42.81186" lon="1.4338">
        <ele>1415.1</ele>
        <time>2016-12-28T09:07:35Z</time>
      </trkpt>
      <trkpt lat="42.81188" lon="1.43384">
        <ele>1416</ele>
        <time>2016-12-28T09:07:40Z</time>
      </trkpt>
      <trkpt lat="42.8119" lon="1.43387">
        <ele>1416.8</ele>
        <time>2016-12-28T09:07:44Z</time>
      </trkpt>
      <trkpt lat="42.81194" lon="1.43388">
        <ele>1417.7</ele>
        <time>2016-12-28T09:07:49Z</time>
      </trkpt>
      <trkpt lat="42.81197" lon="1.43391">
        <ele>1418.7</ele>
        <time>2016-12-28T09:07:52Z</time>
      </trkpt>
      <trkpt lat="42.812" lon="1.43393">
        <ele>1419.4</ele>
        <time>2016-12-28T09:07:56Z</time>
      </trkpt>
      <trkpt lat="42.81203" lon="1.43395">
        <ele>1420.2</ele>
        <time>2016-12-28T09:07:59Z</time>
      </trkpt>
      <trkpt lat="42.81205" lon="1.43397">
        <ele>1421</ele>
        <time>2016-12-28T09:08:00Z</time>
      </trkpt>
      <trkpt lat="42.81208" lon="1.43402">
        <ele>1422.1</ele>
        <time>2016-12-28T09:08:03Z</time>
      </trkpt>
      <trkpt lat="42.8121" lon="1.43407">
        <ele>1423.1</ele>
        <time>2016-12-28T09:08:08Z</time>
      </trkpt>
      <trkpt lat="42.81211" lon="1.4341">
        <ele>1423.8</ele>
        <time>2016-12-28T09:08:13Z</time>
      </trkpt>
      <trkpt lat="42.81211" lon="1.43414">
        <ele>1424.5</ele>
        <time>2016-12-28T09:08:17Z</time>
      </trkpt>
      <trkpt lat="42.8121" lon="1.43418">
        <ele>1425.3</ele>
        <time>2016-12-28T09:08:21Z</time>
      </trkpt>
      <trkpt lat="42.81209" lon="1.43421">
        <ele>1426</ele>
        <time>2016-12-28T09:08:31Z</time>
      </trkpt>
      <trkpt lat="42.81211" lon="1.43425">
        <ele>1426.8</ele>
        <time>2016-12-28T09:08:39Z</time>
      </trkpt>
      <trkpt lat="42.81215" lon="1.43427">
        <ele>1427.7</ele>
        <time>2016-12-28T09:08:49Z</time>
      </trkpt>
      <trkpt lat="42.81217" lon="1.43426">
        <ele>1428.4</ele>
        <time>2016-12-28T09:08:54Z</time>
      </trkpt>
      <trkpt lat="42.8122" lon="1.43429">
        <ele>1429.4</ele>
        <time>2016-12-28T09:08:57Z</time>
      </trkpt>
      <trkpt lat="42.81223" lon="1.43429">
        <ele>1430</ele>
        <time>2016-12-28T09:09:11Z</time>
      </trkpt>
      <trkpt lat="42.81227" lon="1.43431">
        <ele>1431.1</ele>
        <time>2016-12-28T09:09:17Z</time>
      </trkpt>
      <trkpt lat="42.81226" lon="1.43427">
        <ele>1431.8</ele>
        <time>2016-12-28T09:09:26Z</time>
      </trkpt>
      <trkpt lat="42.81228" lon="1.43424">
        <ele>1432.5</ele>
        <time>2016-12-28T09:09:31Z</time>
      </trkpt>
      <trkpt lat="42.81231" lon="1.43424">
        <ele>1433.3</ele>
        <time>2016-12-28T09:09:34Z</time>
      </trkpt>
      <trkpt lat="42.81234" lon="1.43421">
        <ele>1434.2</ele>
        <time>2016-12-28T09:09:37Z</time>
      </trkpt>
      <trkpt lat="42.81235" lon="1.43418">
        <ele>1434.9</ele>
        <time>2016-12-28T09:09:40Z</time>
      </trkpt>
      <trkpt lat="42.81237" lon="1.43421">
        <ele>1435.6</ele>
        <time>2016-12-28T09:09:47Z</time>
      </trkpt>
      <trkpt lat="42.81239" lon="1.43424">
        <ele>1436.3</ele>
        <time>2016-12-28T09:09:51Z</time>
      </trkpt>
      <trkpt lat="42.8124" lon="1.43428">
        <ele>1437</ele>
        <time>2016-12-28T09:10:02Z</time>
      </trkpt>
      <trkpt lat="42.81242" lon="1.4343">
        <ele>1437.7</ele>
        <time>2016-12-28T09:10:04Z</time>
      </trkpt>
      <trkpt lat="42.81241" lon="1.43434">
        <ele>1438.5</ele>
        <time>2016-12-28T09:10:12Z</time>
      </trkpt>
      <trkpt lat="42.8124" lon="1.43438">
        <ele>1439.3</ele>
        <time>2016-12-28T09:10:20Z</time>
      </trkpt>
      <trkpt lat="42.81241" lon="1.43442">
        <ele>1440</ele>
        <time>2016-12-28T09:10:22Z</time>
      </trkpt>
      <trkpt lat="42.81243" lon="1.43444">
        <ele>1440.8</ele>
        <time>2016-12-28T09:10:24Z</time>
      </trkpt>
      <trkpt lat="42.81243" lon="1.43448">
        <ele>1441.5</ele>
        <time>2016-12-28T09:10:27Z</time>
      </trkpt>
      <trkpt lat="42.81242" lon="1.43452">
        <ele>1442.2</ele>
        <time>2016-12-28T09:10:41Z</time>
      </trkpt>
      <trkpt lat="42.81241" lon="1.43455">
        <ele>1442.9</ele>
        <time>2016-12-28T09:10:45Z</time>
      </trkpt>
      <trkpt lat="42.81241" lon="1.43459">
        <ele>1443.8</ele>
        <time>2016-12-28T09:10:49Z</time>
      </trkpt>
      <trkpt lat="42.81239" lon="1.43464">
        <ele>1444.7</ele>
        <time>2016-12-28T09:11:02Z</time>
      </trkpt>
      <trkpt lat="42.81238" lon="1.43468">
        <ele>1445.5</ele>
        <time>2016-12-28T09:11:05Z</time>
      </trkpt>
      <trkpt lat="42.81236" lon="1.43471">
        <ele>1446.3</ele>
        <time>2016-12-28T09:11:10Z</time>
      </trkpt>
      <trkpt lat="42.81236" lon="1.43475">
        <ele>1447</ele>
        <time>2016-12-28T09:11:24Z</time>
      </trkpt>
      <trkpt lat="42.81237" lon="1.43479">
        <ele>1447.8</ele>
        <time>2016-12-28T09:11:26Z</time>
      </trkpt>
      <trkpt lat="42.81237" lon="1.43484">
        <ele>1448.7</ele>
        <time>2016-12-28T09:11:30Z</time>
      </trkpt>
      <trkpt lat="42.81238" lon="1.43489">
        <ele>1449.6</ele>
        <time>2016-12-28T09:11:34Z</time>
      </trkpt>
      <trkpt lat="42.81239" lon="1.43493">
        <ele>1450.5</ele>
        <time>2016-12-28T09:11:37Z</time>
      </trkpt>
      <trkpt lat="42.81238" lon="1.43497">
        <ele>1451.3</ele>
        <time>2016-12-28T09:11:41Z</time>
      </trkpt>
      <trkpt lat="42.81237" lon="1.435">
        <ele>1452</ele>
        <time>2016-12-28T09:12:58Z</time>
      </trkpt>
      <trkpt lat="42.81236" lon="1.43505">
        <ele>1452.9</ele>
        <time>2016-12-28T09:14:23Z</time>
      </trkpt>
      <trkpt lat="42.81237" lon="1.43509">
        <ele>1453.7</ele>
        <time>2016-12-28T09:14:26Z</time>
      </trkpt>
      <trkpt lat="42.81237" lon="1.43514">
        <ele>1454.5</ele>
        <time>2016-12-28T09:14:30Z</time>
      </trkpt>
      <trkpt lat="42.81236" lon="1.43517">
        <ele>1455.2</ele>
        <time>2016-12-28T09:14:34Z</time>
      </trkpt>
      <trkpt lat="42.81234" lon="1.43521">
        <ele>1456.2</ele>
        <time>2016-12-28T09:14:39Z</time>
      </trkpt>
      <trkpt lat="42.81232" lon="1.43527">
        <ele>1457.3</ele>
        <time>2016-12-28T09:14:46Z</time>
      </trkpt>
      <trkpt lat="42.8123" lon="1.43528">
        <ele>1457.9</ele>
        <time>2016-12-28T09:14:53Z</time>
      </trkpt>
      <trkpt lat="42.81227" lon="1.4353">
        <ele>1458.7</ele>
        <time>2016-12-28T09:14:58Z</time>
      </trkpt>
      <trkpt lat="42.81224" lon="1.43531">
        <ele>1459.4</ele>
        <time>2016-12-28T09:15:03Z</time>
      </trkpt>
      <trkpt lat="42.81223" lon="1.43537">
        <ele>1460.4</ele>
        <time>2016-12-28T09:15:07Z</time>
      </trkpt>
      <trkpt lat="42.81222" lon="1.4354">
        <ele>1461.2</ele>
        <time>2016-12-28T09:15:11Z</time>
      </trkpt>
      <trkpt lat="42.8122" lon="1.43543">
        <ele>1462</ele>
        <time>2016-12-28T09:15:16Z</time>
      </trkpt>
      <trkpt lat="42.81216" lon="1.43544">
        <ele>1462.8</ele>
        <time>2016-12-28T09:15:19Z</time>
      </trkpt>
      <trkpt lat="42.81213" lon="1.43546">
        <ele>1463.7</ele>
        <time>2016-12-28T09:15:22Z</time>
      </trkpt>
      <trkpt lat="42.8121" lon="1.43549">
        <ele>1464.6</ele>
        <time>2016-12-28T09:15:34Z</time>
      </trkpt>
      <trkpt lat="42.81208" lon="1.43552">
        <ele>1465.5</ele>
        <time>2016-12-28T09:15:37Z</time>
      </trkpt>
      <trkpt lat="42.81206" lon="1.43555">
        <ele>1466.2</ele>
        <time>2016-12-28T09:15:41Z</time>
      </trkpt>
      <trkpt lat="42.81205" lon="1.4356">
        <ele>1467.2</ele>
        <time>2016-12-28T09:15:53Z</time>
      </trkpt>
      <trkpt lat="42.81206" lon="1.43564">
        <ele>1467.9</ele>
        <time>2016-12-28T09:16:16Z</time>
      </trkpt>
      <trkpt lat="42.81208" lon="1.43566">
        <ele>1468.6</ele>
        <time>2016-12-28T09:16:22Z</time>
      </trkpt>
      <trkpt lat="42.81208" lon="1.4357">
        <ele>1469.4</ele>
        <time>2016-12-28T09:16:34Z</time>
      </trkpt>
      <trkpt lat="42.81209" lon="1.43575">
        <ele>1470.2</ele>
        <time>2016-12-28T09:16:44Z</time>
      </trkpt>
      <trkpt lat="42.81211" lon="1.43578">
        <ele>1471</ele>
        <time>2016-12-28T09:16:54Z</time>
      </trkpt>
      <trkpt lat="42.81212" lon="1.43582">
        <ele>1471.8</ele>
        <time>2016-12-28T09:17:01Z</time>
      </trkpt>
      <trkpt lat="42.81213" lon="1.43586">
        <ele>1472.5</ele>
        <time>2016-12-28T09:17:05Z</time>
      </trkpt>
      <trkpt lat="42.81215" lon="1.4359">
        <ele>1473.4</ele>
        <time>2016-12-28T09:17:22Z</time>
      </trkpt>
      <trkpt lat="42.81216" lon="1.43593">
        <ele>1474.1</ele>
        <time>2016-12-28T09:17:30Z</time>
      </trkpt>
      <trkpt lat="42.81218" lon="1.43596">
        <ele>1474.9</ele>
        <time>2016-12-28T09:18:05Z</time>
      </trkpt>
      <trkpt lat="42.8122" lon="1.43601">
        <ele>1475.7</ele>
        <time>2016-12-28T09:18:26Z</time>
      </trkpt>
      <trkpt lat="42.81218" lon="1.43604">
        <ele>1476.5</ele>
        <time>2016-12-28T09:19:05Z</time>
      </trkpt>
      <trkpt lat="42.81218" lon="1.43609">
        <ele>1477.3</ele>
        <time>2016-12-28T09:19:34Z</time>
      </trkpt>
      <trkpt lat="42.81218" lon="1.43613">
        <ele>1478</ele>
        <time>2016-12-28T09:19:38Z</time>
      </trkpt>
      <trkpt lat="42.81215" lon="1.43616">
        <ele>1478.8</ele>
        <time>2016-12-28T09:19:41Z</time>
      </trkpt>
      <trkpt lat="42.81214" lon="1.43619">
        <ele>1479.5</ele>
        <time>2016-12-28T09:19:54Z</time>
      </trkpt>
      <trkpt lat="42.81213" lon="1.43623">
        <ele>1480.3</ele>
        <time>2016-12-28T09:19:56Z</time>
      </trkpt>
      <trkpt lat="42.81213" lon="1.43627">
        <ele>1481</ele>
        <time>2016-12-28T09:20:10Z</time>
      </trkpt>
      <trkpt lat="42.81214" lon="1.43632">
        <ele>1482</ele>
        <time>2016-12-28T09:20:12Z</time>
      </trkpt>
      <trkpt lat="42.81216" lon="1.43634">
        <ele>1482.6</ele>
        <time>2016-12-28T09:20:22Z</time>
      </trkpt>
      <trkpt lat="42.8122" lon="1.43634">
        <ele>1483.5</ele>
        <time>2016-12-28T09:20:29Z</time>
      </trkpt>
      <trkpt lat="42.81221" lon="1.43638">
        <ele>1484.2</ele>
        <time>2016-12-28T09:20:33Z</time>
      </trkpt>
      <trkpt lat="42.81223" lon="1.4364">
        <ele>1484.9</ele>
        <time>2016-12-28T09:22:30Z</time>
      </trkpt>
      <trkpt lat="42.81225" lon="1.43643">
        <ele>1485.6</ele>
        <time>2016-12-28T09:24:48Z</time>
      </trkpt>
      <trkpt lat="42.81222" lon="1.43645">
        <ele>1486.3</ele>
        <time>2016-12-28T09:24:54Z</time>
      </trkpt>
      <trkpt lat="42.81224" lon="1.43649">
        <ele>1487.1</ele>
        <time>2016-12-28T09:25:31Z</time>
      </trkpt>
      <trkpt lat="42.81227" lon="1.43651">
        <ele>1488</ele>
        <time>2016-12-28T09:27:41Z</time>
      </trkpt>
      <trkpt lat="42.8123" lon="1.43651">
        <ele>1488.8</ele>
        <time>2016-12-28T09:27:53Z</time>
      </trkpt>
      <trkpt lat="42.81232" lon="1.43654">
        <ele>1489.6</ele>
        <time>2016-12-28T09:28:11Z</time>
      </trkpt>
      <trkpt lat="42.81231" lon="1.43657">
        <ele>1490.3</ele>
        <time>2016-12-28T09:28:28Z</time>
      </trkpt>
      <trkpt lat="42.81233" lon="1.4366">
        <ele>1491</ele>
        <time>2016-12-28T09:28:59Z</time>
      </trkpt>
      <trkpt lat="42.81235" lon="1.43664">
        <ele>1491.7</ele>
        <time>2016-12-28T09:29:03Z</time>
      </trkpt>
      <trkpt lat="42.81236" lon="1.43667">
        <ele>1492.4</ele>
        <time>2016-12-28T09:29:13Z</time>
      </trkpt>
      <trkpt lat="42.81235" lon="1.43671">
        <ele>1493.2</ele>
        <time>2016-12-28T09:29:21Z</time>
      </trkpt>
      <trkpt lat="42.81235" lon="1.43676">
        <ele>1494</ele>
        <time>2016-12-28T09:29:35Z</time>
      </trkpt>
      <trkpt lat="42.81236" lon="1.43679">
        <ele>1494.7</ele>
        <time>2016-12-28T09:29:55Z</time>
      </trkpt>
      <trkpt lat="42.81236" lon="1.43684">
        <ele>1495.7</ele>
        <time>2016-12-28T09:30:13Z</time>
      </trkpt>
      <trkpt lat="42.81236" lon="1.43688">
        <ele>1496.4</ele>
        <time>2016-12-28T09:30:24Z</time>
      </trkpt>
      <trkpt lat="42.81238" lon="1.43691">
        <ele>1497.2</ele>
        <time>2016-12-28T09:30:35Z</time>
      </trkpt>
      <trkpt lat="42.81241" lon="1.43694">
        <ele>1497.9</ele>
        <time>2016-12-28T09:30:43Z</time>
      </trkpt>
      <trkpt lat="42.81243" lon="1.43695">
        <ele>1498.6</ele>
        <time>2016-12-28T09:30:52Z</time>
      </trkpt>
      <trkpt lat="42.81247" lon="1.43696">
        <ele>1499.7</ele>
        <time>2016-12-28T09:31:03Z</time>
      </trkpt>
      <trkpt lat="42.8125" lon="1.43698">
        <ele>1500.5</ele>
        <time>2016-12-28T09:31:18Z</time>
      </trkpt>
      <trkpt lat="42.81249" lon="1.43701">
        <ele>1501.2</ele>
        <time>2016-12-28T09:31:24Z</time>
      </trkpt>
      <trkpt lat="42.81246" lon="1.43703">
        <ele>1501.8</ele>
        <time>2016-12-28T09:31:35Z</time>
      </trkpt>
      <trkpt lat="42.81244" lon="1.43705">
        <ele>1502.5</ele>
        <time>2016-12-28T09:31:38Z</time>
      </trkpt>
      <trkpt lat="42.81243" lon="1.43709">
        <ele>1503.2</ele>
        <time>2016-12-28T09:32:04Z</time>
      </trkpt>
      <trkpt lat="42.81244" lon="1.43712">
        <ele>1503.9</ele>
        <time>2016-12-28T09:32:20Z</time>
      </trkpt>
      <trkpt lat="42.81245" lon="1.43715">
        <ele>1504.6</ele>
        <time>2016-12-28T09:32:45Z</time>
      </trkpt>
      <trkpt lat="42.81246" lon="1.43719">
        <ele>1505.3</ele>
        <time>2016-12-28T09:32:55Z</time>
      </trkpt>
      <trkpt lat="42.81249" lon="1.43721">
        <ele>1506.2</ele>
        <time>2016-12-28T09:33:05Z</time>
      </trkpt>
      <trkpt lat="42.81251" lon="1.43724">
        <ele>1506.9</ele>
        <time>2016-12-28T09:33:17Z</time>
      </trkpt>
      <trkpt lat="42.81253" lon="1.43727">
        <ele>1507.6</ele>
        <time>2016-12-28T09:33:27Z</time>
      </trkpt>
      <trkpt lat="42.81256" lon="1.43728">
        <ele>1508.4</ele>
        <time>2016-12-28T09:33:43Z</time>
      </trkpt>
      <trkpt lat="42.81259" lon="1.43727">
        <ele>1509.1</ele>
        <time>2016-12-28T09:33:48Z</time>
      </trkpt>
      <trkpt lat="42.81262" lon="1.4373">
        <ele>1510</ele>
        <time>2016-12-28T09:33:57Z</time>
      </trkpt>
      <trkpt lat="42.81264" lon="1.43728">
        <ele>1510.7</ele>
        <time>2016-12-28T09:34:39Z</time>
      </trkpt>
      <trkpt lat="42.81267" lon="1.43728">
        <ele>1511.4</ele>
        <time>2016-12-28T09:34:51Z</time>
      </trkpt>
      <trkpt lat="42.8127" lon="1.43728">
        <ele>1512.1</ele>
        <time>2016-12-28T09:34:59Z</time>
      </trkpt>
      <trkpt lat="42.81273" lon="1.43729">
        <ele>1512.9</ele>
        <time>2016-12-28T09:36:00Z</time>
      </trkpt>
      <trkpt lat="42.81276" lon="1.43728">
        <ele>1513.7</ele>
        <time>2016-12-28T09:36:14Z</time>
      </trkpt>
      <trkpt lat="42.81278" lon="1.43725">
        <ele>1514.4</ele>
        <time>2016-12-28T09:36:20Z</time>
      </trkpt>
      <trkpt lat="42.8128" lon="1.43721">
        <ele>1515.4</ele>
        <time>2016-12-28T09:36:34Z</time>
      </trkpt>
      <trkpt lat="42.81283" lon="1.43719">
        <ele>1516.2</ele>
        <time>2016-12-28T09:36:40Z</time>
      </trkpt>
      <trkpt lat="42.81285" lon="1.43722">
        <ele>1516.9</ele>
        <time>2016-12-28T09:36:49Z</time>
      </trkpt>
      <trkpt lat="42.81287" lon="1.43725">
        <ele>1517.7</ele>
        <time>2016-12-28T09:41:45Z</time>
      </trkpt>
      <trkpt lat="42.81289" lon="1.43729">
        <ele>1518.5</ele>
        <time>2016-12-28T09:41:48Z</time>
      </trkpt>
      <trkpt lat="42.81292" lon="1.43731">
        <ele>1519.3</ele>
        <time>2016-12-28T09:41:51Z</time>
      </trkpt>
      <trkpt lat="42.81292" lon="1.43735">
        <ele>1520.1</ele>
        <time>2016-12-28T09:41:56Z</time>
      </trkpt>
      <trkpt lat="42.81293" lon="1.43739">
        <ele>1520.8</ele>
        <time>2016-12-28T09:42:02Z</time>
      </trkpt>
      <trkpt lat="42.81294" lon="1.43744">
        <ele>1521.8</ele>
        <time>2016-12-28T09:42:05Z</time>
      </trkpt>
      <trkpt lat="42.81294" lon="1.43749">
        <ele>1522.6</ele>
        <time>2016-12-28T09:42:12Z</time>
      </trkpt>
      <trkpt lat="42.81297" lon="1.4375">
        <ele>1523.5</ele>
        <time>2016-12-28T09:42:17Z</time>
      </trkpt>
      <trkpt lat="42.81299" lon="1.43753">
        <ele>1524.2</ele>
        <time>2016-12-28T09:42:21Z</time>
      </trkpt>
      <trkpt lat="42.81297" lon="1.43757">
        <ele>1525.1</ele>
        <time>2016-12-28T09:42:26Z</time>
      </trkpt>
      <trkpt lat="42.81299" lon="1.4376">
        <ele>1525.9</ele>
        <time>2016-12-28T09:42:30Z</time>
      </trkpt>
      <trkpt lat="42.813" lon="1.43756">
        <ele>1526.6</ele>
        <time>2016-12-28T09:42:33Z</time>
      </trkpt>
      <trkpt lat="42.81298" lon="1.4376">
        <ele>1527.4</ele>
        <time>2016-12-28T09:42:39Z</time>
      </trkpt>
      <trkpt lat="42.81297" lon="1.43763">
        <ele>1528.2</ele>
        <time>2016-12-28T09:42:48Z</time>
      </trkpt>
      <trkpt lat="42.81294" lon="1.43766">
        <ele>1529</ele>
        <time>2016-12-28T09:42:52Z</time>
      </trkpt>
      <trkpt lat="42.81297" lon="1.43768">
        <ele>1529.8</ele>
        <time>2016-12-28T09:43:09Z</time>
      </trkpt>
      <trkpt lat="42.81299" lon="1.43768">
        <ele>1530.5</ele>
        <time>2016-12-28T09:43:13Z</time>
      </trkpt>
      <trkpt lat="42.81301" lon="1.43772">
        <ele>1531.2</ele>
        <time>2016-12-28T09:43:18Z</time>
      </trkpt>
      <trkpt lat="42.81304" lon="1.43773">
        <ele>1531.9</ele>
        <time>2016-12-28T09:43:26Z</time>
      </trkpt>
      <trkpt lat="42.81307" lon="1.43775">
        <ele>1532.7</ele>
        <time>2016-12-28T09:43:39Z</time>
      </trkpt>
      <trkpt lat="42.8131" lon="1.43776">
        <ele>1533.5</ele>
        <time>2016-12-28T09:43:44Z</time>
      </trkpt>
      <trkpt lat="42.81312" lon="1.43779">
        <ele>1534.2</ele>
        <time>2016-12-28T09:43:49Z</time>
      </trkpt>
      <trkpt lat="42.81315" lon="1.43779">
        <ele>1535.2</ele>
        <time>2016-12-28T09:43:55Z</time>
      </trkpt>
      <trkpt lat="42.81317" lon="1.43782">
        <ele>1535.9</ele>
        <time>2016-12-28T09:44:01Z</time>
      </trkpt>
      <trkpt lat="42.81319" lon="1.43785">
        <ele>1536.7</ele>
        <time>2016-12-28T09:44:10Z</time>
      </trkpt>
      <trkpt lat="42.81322" lon="1.43787">
        <ele>1537.4</ele>
        <time>2016-12-28T09:44:16Z</time>
      </trkpt>
      <trkpt lat="42.81325" lon="1.43788">
        <ele>1538.2</ele>
        <time>2016-12-28T09:44:20Z</time>
      </trkpt>
      <trkpt lat="42.81328" lon="1.4379">
        <ele>1539</ele>
        <time>2016-12-28T09:44:25Z</time>
      </trkpt>
      <trkpt lat="42.81328" lon="1.43794">
        <ele>1539.8</ele>
        <time>2016-12-28T09:44:37Z</time>
      </trkpt>
      <trkpt lat="42.81329" lon="1.43798">
        <ele>1540.6</ele>
        <time>2016-12-28T09:44:48Z</time>
      </trkpt>
      <trkpt lat="42.81332" lon="1.43802">
        <ele>1541.4</ele>
        <time>2016-12-28T09:44:57Z</time>
      </trkpt>
      <trkpt lat="42.81334" lon="1.43803">
        <ele>1542.2</ele>
        <time>2016-12-28T09:45:07Z</time>
      </trkpt>
      <trkpt lat="42.81338" lon="1.43803">
        <ele>1543</ele>
        <time>2016-12-28T09:45:10Z</time>
      </trkpt>
      <trkpt lat="42.8134" lon="1.43802">
        <ele>1543.7</ele>
        <time>2016-12-28T09:45:17Z</time>
      </trkpt>
      <trkpt lat="42.81343" lon="1.43801">
        <ele>1548.8</ele>
        <time>2016-12-28T09:45:23Z</time>
      </trkpt>
      <trkpt lat="42.81344" lon="1.43805">
        <ele>1548.4</ele>
        <time>2016-12-28T09:45:27Z</time>
      </trkpt>
      <trkpt lat="42.81345" lon="1.43809">
        <ele>1548.1</ele>
        <time>2016-12-28T09:45:38Z</time>
      </trkpt>
      <trkpt lat="42.81347" lon="1.43813">
        <ele>1547.7</ele>
        <time>2016-12-28T09:45:43Z</time>
      </trkpt>
      <trkpt lat="42.81348" lon="1.43816">
        <ele>1547.4</ele>
        <time>2016-12-28T09:45:52Z</time>
      </trkpt>
      <trkpt lat="42.8135" lon="1.43818">
        <ele>1547.3</ele>
        <time>2016-12-28T09:46:00Z</time>
      </trkpt>
      <trkpt lat="42.8135" lon="1.43814">
        <ele>1547.9</ele>
        <time>2016-12-28T09:46:06Z</time>
      </trkpt>
      <trkpt lat="42.81352" lon="1.43811">
        <ele>1548.6</ele>
        <time>2016-12-28T09:46:09Z</time>
      </trkpt>
      <trkpt lat="42.81354" lon="1.43808">
        <ele>1549.2</ele>
        <time>2016-12-28T09:46:13Z</time>
      </trkpt>
      <trkpt lat="42.81357" lon="1.43805">
        <ele>1550.2</ele>
        <time>2016-12-28T09:46:18Z</time>
      </trkpt>
      <trkpt lat="42.81361" lon="1.43803">
        <ele>1551</ele>
        <time>2016-12-28T09:46:20Z</time>
      </trkpt>
      <trkpt lat="42.81366" lon="1.43801">
        <ele>1552.2</ele>
        <time>2016-12-28T09:46:23Z</time>
      </trkpt>
      <trkpt lat="42.8137" lon="1.43799">
        <ele>1553</ele>
        <time>2016-12-28T09:46:26Z</time>
      </trkpt>
      <trkpt lat="42.81372" lon="1.43797">
        <ele>1553.7</ele>
        <time>2016-12-28T09:46:30Z</time>
      </trkpt>
      <trkpt lat="42.81375" lon="1.43797">
        <ele>1554.4</ele>
        <time>2016-12-28T09:46:37Z</time>
      </trkpt>
      <trkpt lat="42.81379" lon="1.43797">
        <ele>1555.1</ele>
        <time>2016-12-28T09:46:42Z</time>
      </trkpt>
      <trkpt lat="42.81381" lon="1.43793">
        <ele>1555.9</ele>
        <time>2016-12-28T09:46:47Z</time>
      </trkpt>
      <trkpt lat="42.81384" lon="1.43793">
        <ele>1556.5</ele>
        <time>2016-12-28T09:46:49Z</time>
      </trkpt>
      <trkpt lat="42.81387" lon="1.43792">
        <ele>1557.2</ele>
        <time>2016-12-28T09:46:52Z</time>
      </trkpt>
      <trkpt lat="42.81389" lon="1.43789">
        <ele>1557.9</ele>
        <time>2016-12-28T09:46:54Z</time>
      </trkpt>
      <trkpt lat="42.81392" lon="1.43788">
        <ele>1558.5</ele>
        <time>2016-12-28T09:46:56Z</time>
      </trkpt>
      <trkpt lat="42.81395" lon="1.43786">
        <ele>1559.2</ele>
        <time>2016-12-28T09:46:58Z</time>
      </trkpt>
      <trkpt lat="42.81397" lon="1.43785">
        <ele>1559.8</ele>
        <time>2016-12-28T09:47:00Z</time>
      </trkpt>
      <trkpt lat="42.814" lon="1.43786">
        <ele>1560.5</ele>
        <time>2016-12-28T09:47:02Z</time>
      </trkpt>
      <trkpt lat="42.81403" lon="1.43786">
        <ele>1561.1</ele>
        <time>2016-12-28T09:47:04Z</time>
      </trkpt>
      <trkpt lat="42.81407" lon="1.43784">
        <ele>1562.1</ele>
        <time>2016-12-28T09:47:09Z</time>
      </trkpt>
      <trkpt lat="42.8141" lon="1.43782">
        <ele>1562.7</ele>
        <time>2016-12-28T09:47:13Z</time>
      </trkpt>
      <trkpt lat="42.81414" lon="1.4378">
        <ele>1563.5</ele>
        <time>2016-12-28T09:47:17Z</time>
      </trkpt>
      <trkpt lat="42.81416" lon="1.43782">
        <ele>1564.1</ele>
        <time>2016-12-28T09:47:19Z</time>
      </trkpt>
      <trkpt lat="42.81418" lon="1.43779">
        <ele>1564.8</ele>
        <time>2016-12-28T09:47:23Z</time>
      </trkpt>
      <trkpt lat="42.81421" lon="1.43778">
        <ele>1565.5</ele>
        <time>2016-12-28T09:47:28Z</time>
      </trkpt>
      <trkpt lat="42.81423" lon="1.43774">
        <ele>1566.3</ele>
        <time>2016-12-28T09:47:33Z</time>
      </trkpt>
      <trkpt lat="42.81425" lon="1.43771">
        <ele>1567</ele>
        <time>2016-12-28T09:47:38Z</time>
      </trkpt>
      <trkpt lat="42.81428" lon="1.4377">
        <ele>1567.7</ele>
        <time>2016-12-28T09:47:43Z</time>
      </trkpt>
      <trkpt lat="42.81431" lon="1.43773">
        <ele>1568.5</ele>
        <time>2016-12-28T09:47:46Z</time>
      </trkpt>
      <trkpt lat="42.81433" lon="1.4377">
        <ele>1569.1</ele>
        <time>2016-12-28T09:47:50Z</time>
      </trkpt>
      <trkpt lat="42.81435" lon="1.43767">
        <ele>1569.7</ele>
        <time>2016-12-28T09:47:54Z</time>
      </trkpt>
      <trkpt lat="42.81438" lon="1.43763">
        <ele>1570.7</ele>
        <time>2016-12-28T09:47:58Z</time>
      </trkpt>
      <trkpt lat="42.81441" lon="1.4376">
        <ele>1571.5</ele>
        <time>2016-12-28T09:48:02Z</time>
      </trkpt>
      <trkpt lat="42.81441" lon="1.43764">
        <ele>1572.1</ele>
        <time>2016-12-28T09:48:10Z</time>
      </trkpt>
      <trkpt lat="42.81445" lon="1.43764">
        <ele>1573</ele>
        <time>2016-12-28T09:48:15Z</time>
      </trkpt>
      <trkpt lat="42.81449" lon="1.43763">
        <ele>1573.8</ele>
        <time>2016-12-28T09:48:21Z</time>
      </trkpt>
      <trkpt lat="42.8145" lon="1.43767">
        <ele>1574.4</ele>
        <time>2016-12-28T09:48:29Z</time>
      </trkpt>
      <trkpt lat="42.81453" lon="1.43768">
        <ele>1575.1</ele>
        <time>2016-12-28T09:48:37Z</time>
      </trkpt>
      <trkpt lat="42.81456" lon="1.43769">
        <ele>1575.7</ele>
        <time>2016-12-28T09:48:42Z</time>
      </trkpt>
      <trkpt lat="42.81459" lon="1.43768">
        <ele>1576.4</ele>
        <time>2016-12-28T09:48:45Z</time>
      </trkpt>
      <trkpt lat="42.81462" lon="1.43768">
        <ele>1577</ele>
        <time>2016-12-28T09:48:48Z</time>
      </trkpt>
      <trkpt lat="42.81465" lon="1.43768">
        <ele>1577.8</ele>
        <time>2016-12-28T09:48:53Z</time>
      </trkpt>
      <trkpt lat="42.81468" lon="1.43768">
        <ele>1578.5</ele>
        <time>2016-12-28T09:48:57Z</time>
      </trkpt>
      <trkpt lat="42.81472" lon="1.43767">
        <ele>1579.2</ele>
        <time>2016-12-28T09:49:02Z</time>
      </trkpt>
      <trkpt lat="42.81474" lon="1.43769">
        <ele>1579.9</ele>
        <time>2016-12-28T09:49:08Z</time>
      </trkpt>
      <trkpt lat="42.81474" lon="1.43773">
        <ele>1580.5</ele>
        <time>2016-12-28T09:49:19Z</time>
      </trkpt>
      <trkpt lat="42.81473" lon="1.43777">
        <ele>1581.1</ele>
        <time>2016-12-28T09:49:23Z</time>
      </trkpt>
      <trkpt lat="42.81472" lon="1.4378">
        <ele>1581.8</ele>
        <time>2016-12-28T09:49:27Z</time>
      </trkpt>
      <trkpt lat="42.8147" lon="1.43786">
        <ele>1582.7</ele>
        <time>2016-12-28T09:49:32Z</time>
      </trkpt>
      <trkpt lat="42.81474" lon="1.43785">
        <ele>1583.5</ele>
        <time>2016-12-28T09:49:38Z</time>
      </trkpt>
      <trkpt lat="42.81478" lon="1.43786">
        <ele>1584.5</ele>
        <time>2016-12-28T09:49:42Z</time>
      </trkpt>
      <trkpt lat="42.8148" lon="1.43789">
        <ele>1585</ele>
        <time>2016-12-28T09:49:53Z</time>
      </trkpt>
      <trkpt lat="42.81483" lon="1.43787">
        <ele>1585.8</ele>
        <time>2016-12-28T09:50:00Z</time>
      </trkpt>
      <trkpt lat="42.81486" lon="1.43788">
        <ele>1586.4</ele>
        <time>2016-12-28T09:50:04Z</time>
      </trkpt>
      <trkpt lat="42.81489" lon="1.43788">
        <ele>1587</ele>
        <time>2016-12-28T09:50:10Z</time>
      </trkpt>
      <trkpt lat="42.81492" lon="1.43786">
        <ele>1587.7</ele>
        <time>2016-12-28T09:50:21Z</time>
      </trkpt>
      <trkpt lat="42.81494" lon="1.43784">
        <ele>1588.4</ele>
        <time>2016-12-28T09:50:24Z</time>
      </trkpt>
      <trkpt lat="42.81496" lon="1.4378">
        <ele>1589.1</ele>
        <time>2016-12-28T09:50:28Z</time>
      </trkpt>
      <trkpt lat="42.81497" lon="1.43776">
        <ele>1589.8</ele>
        <time>2016-12-28T09:50:31Z</time>
      </trkpt>
      <trkpt lat="42.81496" lon="1.43772">
        <ele>1590.5</ele>
        <time>2016-12-28T09:50:34Z</time>
      </trkpt>
      <trkpt lat="42.815" lon="1.43772">
        <ele>1591.3</ele>
        <time>2016-12-28T09:50:35Z</time>
      </trkpt>
      <trkpt lat="42.81503" lon="1.43772">
        <ele>1592</ele>
        <time>2016-12-28T09:50:38Z</time>
      </trkpt>
      <trkpt lat="42.81505" lon="1.43774">
        <ele>1592.7</ele>
        <time>2016-12-28T09:50:43Z</time>
      </trkpt>
      <trkpt lat="42.81507" lon="1.43771">
        <ele>1593.3</ele>
        <time>2016-12-28T09:50:51Z</time>
      </trkpt>
      <trkpt lat="42.8151" lon="1.43772">
        <ele>1593.9</ele>
        <time>2016-12-28T09:50:59Z</time>
      </trkpt>
      <trkpt lat="42.81511" lon="1.43776">
        <ele>1594.7</ele>
        <time>2016-12-28T09:51:02Z</time>
      </trkpt>
      <trkpt lat="42.81513" lon="1.43773">
        <ele>1595.3</ele>
        <time>2016-12-28T09:52:20Z</time>
      </trkpt>
      <trkpt lat="42.81514" lon="1.43769">
        <ele>1595.9</ele>
        <time>2016-12-28T09:59:29Z</time>
      </trkpt>
      <trkpt lat="42.81518" lon="1.43767">
        <ele>1596.8</ele>
        <time>2016-12-28T09:59:33Z</time>
      </trkpt>
      <trkpt lat="42.81521" lon="1.43767">
        <ele>1597.5</ele>
        <time>2016-12-28T09:59:37Z</time>
      </trkpt>
      <trkpt lat="42.81524" lon="1.43769">
        <ele>1598.2</ele>
        <time>2016-12-28T09:59:41Z</time>
      </trkpt>
      <trkpt lat="42.81526" lon="1.43772">
        <ele>1598.9</ele>
        <time>2016-12-28T09:59:46Z</time>
      </trkpt>
      <trkpt lat="42.81527" lon="1.43775">
        <ele>1599.5</ele>
        <time>2016-12-28T09:59:49Z</time>
      </trkpt>
      <trkpt lat="42.8153" lon="1.43776">
        <ele>1600.3</ele>
        <time>2016-12-28T09:59:53Z</time>
      </trkpt>
      <trkpt lat="42.81533" lon="1.43778">
        <ele>1601.1</ele>
        <time>2016-12-28T09:59:58Z</time>
      </trkpt>
      <trkpt lat="42.81536" lon="1.43779">
        <ele>1601.7</ele>
        <time>2016-12-28T10:00:04Z</time>
      </trkpt>
      <trkpt lat="42.81536" lon="1.43784">
        <ele>1602.5</ele>
        <time>2016-12-28T10:00:07Z</time>
      </trkpt>
      <trkpt lat="42.81539" lon="1.43783">
        <ele>1603.2</ele>
        <time>2016-12-28T10:00:10Z</time>
      </trkpt>
      <trkpt lat="42.81541" lon="1.43786">
        <ele>1603.9</ele>
        <time>2016-12-28T10:00:13Z</time>
      </trkpt>
      <trkpt lat="42.81545" lon="1.43785">
        <ele>1604.7</ele>
        <time>2016-12-28T10:00:16Z</time>
      </trkpt>
      <trkpt lat="42.81547" lon="1.43783">
        <ele>1605.3</ele>
        <time>2016-12-28T10:00:22Z</time>
      </trkpt>
      <trkpt lat="42.8155" lon="1.43783">
        <ele>1606.1</ele>
        <time>2016-12-28T10:00:26Z</time>
      </trkpt>
      <trkpt lat="42.81553" lon="1.43786">
        <ele>1606.7</ele>
        <time>2016-12-28T10:00:31Z</time>
      </trkpt>
      <trkpt lat="42.81554" lon="1.4379">
        <ele>1607.4</ele>
        <time>2016-12-28T10:00:34Z</time>
      </trkpt>
      <trkpt lat="42.81556" lon="1.43791">
        <ele>1608</ele>
        <time>2016-12-28T10:00:38Z</time>
      </trkpt>
      <trkpt lat="42.8156" lon="1.43791">
        <ele>1608.7</ele>
        <time>2016-12-28T10:00:43Z</time>
      </trkpt>
      <trkpt lat="42.81562" lon="1.43789">
        <ele>1609.3</ele>
        <time>2016-12-28T10:00:49Z</time>
      </trkpt>
      <trkpt lat="42.81566" lon="1.43788">
        <ele>1610.1</ele>
        <time>2016-12-28T10:00:55Z</time>
      </trkpt>
      <trkpt lat="42.81568" lon="1.43784">
        <ele>1610.9</ele>
        <time>2016-12-28T10:00:59Z</time>
      </trkpt>
      <trkpt lat="42.81571" lon="1.43784">
        <ele>1611.7</ele>
        <time>2016-12-28T10:01:02Z</time>
      </trkpt>
      <trkpt lat="42.81575" lon="1.43784">
        <ele>1612.4</ele>
        <time>2016-12-28T10:01:07Z</time>
      </trkpt>
      <trkpt lat="42.81577" lon="1.43788">
        <ele>1613.3</ele>
        <time>2016-12-28T10:01:09Z</time>
      </trkpt>
      <trkpt lat="42.8158" lon="1.43786">
        <ele>1614</ele>
        <time>2016-12-28T10:01:16Z</time>
      </trkpt>
      <trkpt lat="42.81583" lon="1.43783">
        <ele>1614.8</ele>
        <time>2016-12-28T10:01:21Z</time>
      </trkpt>
      <trkpt lat="42.81585" lon="1.43781">
        <ele>1615.5</ele>
        <time>2016-12-28T10:01:25Z</time>
      </trkpt>
      <trkpt lat="42.81588" lon="1.43778">
        <ele>1616.3</ele>
        <time>2016-12-28T10:01:28Z</time>
      </trkpt>
      <trkpt lat="42.81591" lon="1.43777">
        <ele>1616.8</ele>
        <time>2016-12-28T10:01:38Z</time>
      </trkpt>
      <trkpt lat="42.81593" lon="1.43775">
        <ele>1617.5</ele>
        <time>2016-12-28T10:01:47Z</time>
      </trkpt>
      <trkpt lat="42.81595" lon="1.43772">
        <ele>1618.1</ele>
        <time>2016-12-28T10:01:50Z</time>
      </trkpt>
      <trkpt lat="42.81598" lon="1.43772">
        <ele>1618.8</ele>
        <time>2016-12-28T10:01:58Z</time>
      </trkpt>
      <trkpt lat="42.816" lon="1.43774">
        <ele>1619.4</ele>
        <time>2016-12-28T10:02:04Z</time>
      </trkpt>
      <trkpt lat="42.81603" lon="1.43775">
        <ele>1620.1</ele>
        <time>2016-12-28T10:02:09Z</time>
      </trkpt>
      <trkpt lat="42.81606" lon="1.43774">
        <ele>1620.8</ele>
        <time>2016-12-28T10:02:11Z</time>
      </trkpt>
      <trkpt lat="42.8161" lon="1.43772">
        <ele>1621.5</ele>
        <time>2016-12-28T10:02:20Z</time>
      </trkpt>
      <trkpt lat="42.81612" lon="1.43774">
        <ele>1622.1</ele>
        <time>2016-12-28T10:02:23Z</time>
      </trkpt>
      <trkpt lat="42.81615" lon="1.43776">
        <ele>1622.8</ele>
        <time>2016-12-28T10:02:30Z</time>
      </trkpt>
      <trkpt lat="42.81613" lon="1.43771">
        <ele>1623.6</ele>
        <time>2016-12-28T10:02:33Z</time>
      </trkpt>
      <trkpt lat="42.81616" lon="1.4377">
        <ele>1624.2</ele>
        <time>2016-12-28T10:02:39Z</time>
      </trkpt>
      <trkpt lat="42.8162" lon="1.43769">
        <ele>1625</ele>
        <time>2016-12-28T10:02:47Z</time>
      </trkpt>
      <trkpt lat="42.81623" lon="1.4377">
        <ele>1625.7</ele>
        <time>2016-12-28T10:02:57Z</time>
      </trkpt>
      <trkpt lat="42.81625" lon="1.43769">
        <ele>1626.3</ele>
        <time>2016-12-28T10:03:01Z</time>
      </trkpt>
      <trkpt lat="42.81627" lon="1.43774">
        <ele>1627.2</ele>
        <time>2016-12-28T10:03:05Z</time>
      </trkpt>
      <trkpt lat="42.81626" lon="1.43778">
        <ele>1627.9</ele>
        <time>2016-12-28T10:03:09Z</time>
      </trkpt>
      <trkpt lat="42.81627" lon="1.43781">
        <ele>1628.5</ele>
        <time>2016-12-28T10:03:12Z</time>
      </trkpt>
      <trkpt lat="42.8163" lon="1.43784">
        <ele>1629.2</ele>
        <time>2016-12-28T10:03:14Z</time>
      </trkpt>
      <trkpt lat="42.81632" lon="1.43786">
        <ele>1629.8</ele>
        <time>2016-12-28T10:03:18Z</time>
      </trkpt>
      <trkpt lat="42.81634" lon="1.43789">
        <ele>1630.4</ele>
        <time>2016-12-28T10:03:23Z</time>
      </trkpt>
      <trkpt lat="42.81636" lon="1.43793">
        <ele>1631.1</ele>
        <time>2016-12-28T10:03:27Z</time>
      </trkpt>
      <trkpt lat="42.81636" lon="1.43797">
        <ele>1631.9</ele>
        <time>2016-12-28T10:03:32Z</time>
      </trkpt>
      <trkpt lat="42.81639" lon="1.43798">
        <ele>1632.5</ele>
        <time>2016-12-28T10:03:36Z</time>
      </trkpt>
      <trkpt lat="42.8164" lon="1.43802">
        <ele>1633.2</ele>
        <time>2016-12-28T10:03:41Z</time>
      </trkpt>
      <trkpt lat="42.81643" lon="1.43805">
        <ele>1634</ele>
        <time>2016-12-28T10:03:48Z</time>
      </trkpt>
      <trkpt lat="42.81646" lon="1.43807">
        <ele>1634.7</ele>
        <time>2016-12-28T10:04:02Z</time>
      </trkpt>
      <trkpt lat="42.81647" lon="1.4381">
        <ele>1635.3</ele>
        <time>2016-12-28T10:04:09Z</time>
      </trkpt>
      <trkpt lat="42.81649" lon="1.43807">
        <ele>1635.9</ele>
        <time>2016-12-28T10:04:15Z</time>
      </trkpt>
      <trkpt lat="42.81651" lon="1.43804">
        <ele>1636.6</ele>
        <time>2016-12-28T10:04:21Z</time>
      </trkpt>
      <trkpt lat="42.81653" lon="1.43805">
        <ele>1637.2</ele>
        <time>2016-12-28T10:04:34Z</time>
      </trkpt>
      <trkpt lat="42.81657" lon="1.43806">
        <ele>1637.9</ele>
        <time>2016-12-28T10:04:39Z</time>
      </trkpt>
      <trkpt lat="42.81659" lon="1.43803">
        <ele>1638.6</ele>
        <time>2016-12-28T10:04:43Z</time>
      </trkpt>
      <trkpt lat="42.81662" lon="1.43803">
        <ele>1639.2</ele>
        <time>2016-12-28T10:04:49Z</time>
      </trkpt>
      <trkpt lat="42.81663" lon="1.438">
        <ele>1639.8</ele>
        <time>2016-12-28T10:04:55Z</time>
      </trkpt>
      <trkpt lat="42.81664" lon="1.43795">
        <ele>1640.7</ele>
        <time>2016-12-28T10:04:58Z</time>
      </trkpt>
      <trkpt lat="42.81668" lon="1.43796">
        <ele>1641.6</ele>
        <time>2016-12-28T10:05:04Z</time>
      </trkpt>
      <trkpt lat="42.81669" lon="1.438">
        <ele>1642.2</ele>
        <time>2016-12-28T10:05:09Z</time>
      </trkpt>
      <trkpt lat="42.81671" lon="1.43802">
        <ele>1642.8</ele>
        <time>2016-12-28T10:05:12Z</time>
      </trkpt>
      <trkpt lat="42.81674" lon="1.43804">
        <ele>1643.6</ele>
        <time>2016-12-28T10:05:17Z</time>
      </trkpt>
      <trkpt lat="42.81677" lon="1.43806">
        <ele>1644.2</ele>
        <time>2016-12-28T10:05:21Z</time>
      </trkpt>
      <trkpt lat="42.8168" lon="1.43805">
        <ele>1644.9</ele>
        <time>2016-12-28T10:05:23Z</time>
      </trkpt>
      <trkpt lat="42.81683" lon="1.43808">
        <ele>1645.7</ele>
        <time>2016-12-28T10:05:26Z</time>
      </trkpt>
      <trkpt lat="42.81686" lon="1.43806">
        <ele>1646.4</ele>
        <time>2016-12-28T10:05:29Z</time>
      </trkpt>
      <trkpt lat="42.81689" lon="1.43804">
        <ele>1647</ele>
        <time>2016-12-28T10:05:33Z</time>
      </trkpt>
      <trkpt lat="42.81691" lon="1.43804">
        <ele>1647.6</ele>
        <time>2016-12-28T10:05:36Z</time>
      </trkpt>
      <trkpt lat="42.81694" lon="1.43803">
        <ele>1648.3</ele>
        <time>2016-12-28T10:05:38Z</time>
      </trkpt>
      <trkpt lat="42.81698" lon="1.43804">
        <ele>1649.2</ele>
        <time>2016-12-28T10:05:42Z</time>
      </trkpt>
      <trkpt lat="42.81701" lon="1.43807">
        <ele>1649.9</ele>
        <time>2016-12-28T10:05:46Z</time>
      </trkpt>
      <trkpt lat="42.81703" lon="1.43809">
        <ele>1650.5</ele>
        <time>2016-12-28T10:05:49Z</time>
      </trkpt>
      <trkpt lat="42.81706" lon="1.4381">
        <ele>1651.1</ele>
        <time>2016-12-28T10:05:52Z</time>
      </trkpt>
      <trkpt lat="42.8171" lon="1.43811">
        <ele>1651.9</ele>
        <time>2016-12-28T10:06:04Z</time>
      </trkpt>
      <trkpt lat="42.81713" lon="1.43812">
        <ele>1652.7</ele>
        <time>2016-12-28T10:06:08Z</time>
      </trkpt>
      <trkpt lat="42.81718" lon="1.43816">
        <ele>1654</ele>
        <time>2016-12-28T10:06:21Z</time>
      </trkpt>
      <trkpt lat="42.8172" lon="1.43819">
        <ele>1654.7</ele>
        <time>2016-12-28T10:06:23Z</time>
      </trkpt>
      <trkpt lat="42.81724" lon="1.43819">
        <ele>1655.5</ele>
        <time>2016-12-28T10:06:25Z</time>
      </trkpt>
      <trkpt lat="42.81727" lon="1.43818">
        <ele>1656.2</ele>
        <time>2016-12-28T10:06:27Z</time>
      </trkpt>
      <trkpt lat="42.8173" lon="1.43818">
        <ele>1656.9</ele>
        <time>2016-12-28T10:06:30Z</time>
      </trkpt>
      <trkpt lat="42.81734" lon="1.43821">
        <ele>1657.8</ele>
        <time>2016-12-28T10:06:34Z</time>
      </trkpt>
      <trkpt lat="42.81737" lon="1.43823">
        <ele>1658.5</ele>
        <time>2016-12-28T10:06:39Z</time>
      </trkpt>
      <trkpt lat="42.81739" lon="1.43825">
        <ele>1659.2</ele>
        <time>2016-12-28T10:06:47Z</time>
      </trkpt>
      <trkpt lat="42.81741" lon="1.43829">
        <ele>1659.9</ele>
        <time>2016-12-28T10:06:49Z</time>
      </trkpt>
      <trkpt lat="42.81745" lon="1.43828">
        <ele>1660.7</ele>
        <time>2016-12-28T10:06:51Z</time>
      </trkpt>
      <trkpt lat="42.81747" lon="1.43827">
        <ele>1661.3</ele>
        <time>2016-12-28T10:06:54Z</time>
      </trkpt>
      <trkpt lat="42.8175" lon="1.43829">
        <ele>1662</ele>
        <time>2016-12-28T10:06:57Z</time>
      </trkpt>
      <trkpt lat="42.81753" lon="1.4383">
        <ele>1662.7</ele>
        <time>2016-12-28T10:07:00Z</time>
      </trkpt>
      <trkpt lat="42.81756" lon="1.43828">
        <ele>1663.4</ele>
        <time>2016-12-28T10:07:02Z</time>
      </trkpt>
      <trkpt lat="42.81758" lon="1.43825">
        <ele>1664.1</ele>
        <time>2016-12-28T10:07:05Z</time>
      </trkpt>
      <trkpt lat="42.81762" lon="1.43827">
        <ele>1664.9</ele>
        <time>2016-12-28T10:07:09Z</time>
      </trkpt>
      <trkpt lat="42.81764" lon="1.43829">
        <ele>1665.6</ele>
        <time>2016-12-28T10:07:13Z</time>
      </trkpt>
      <trkpt lat="42.81768" lon="1.4383">
        <ele>1666.4</ele>
        <time>2016-12-28T10:07:16Z</time>
      </trkpt>
      <trkpt lat="42.81772" lon="1.43829">
        <ele>1667.2</ele>
        <time>2016-12-28T10:07:19Z</time>
      </trkpt>
      <trkpt lat="42.81775" lon="1.43827">
        <ele>1667.9</ele>
        <time>2016-12-28T10:07:22Z</time>
      </trkpt>
      <trkpt lat="42.81778" lon="1.43826">
        <ele>1668.7</ele>
        <time>2016-12-28T10:07:25Z</time>
      </trkpt>
      <trkpt lat="42.8178" lon="1.43823">
        <ele>1669.4</ele>
        <time>2016-12-28T10:07:29Z</time>
      </trkpt>
      <trkpt lat="42.81784" lon="1.43824">
        <ele>1670.1</ele>
        <time>2016-12-28T10:07:34Z</time>
      </trkpt>
      <trkpt lat="42.81787" lon="1.43827">
        <ele>1671</ele>
        <time>2016-12-28T10:07:42Z</time>
      </trkpt>
      <trkpt lat="42.8179" lon="1.43823">
        <ele>1671.9</ele>
        <time>2016-12-28T10:07:47Z</time>
      </trkpt>
      <trkpt lat="42.81792" lon="1.4382">
        <ele>1672.5</ele>
        <time>2016-12-28T10:07:51Z</time>
      </trkpt>
      <trkpt lat="42.81792" lon="1.43815">
        <ele>1673.4</ele>
        <time>2016-12-28T10:08:03Z</time>
      </trkpt>
      <trkpt lat="42.81795" lon="1.43813">
        <ele>1674.1</ele>
        <time>2016-12-28T10:08:10Z</time>
      </trkpt>
      <trkpt lat="42.81798" lon="1.43813">
        <ele>1674.7</ele>
        <time>2016-12-28T10:08:14Z</time>
      </trkpt>
      <trkpt lat="42.818" lon="1.4381">
        <ele>1675.3</ele>
        <time>2016-12-28T10:08:16Z</time>
      </trkpt>
      <trkpt lat="42.81802" lon="1.43808">
        <ele>1676</ele>
        <time>2016-12-28T10:08:19Z</time>
      </trkpt>
      <trkpt lat="42.81804" lon="1.43805">
        <ele>1676.7</ele>
        <time>2016-12-28T10:08:22Z</time>
      </trkpt>
      <trkpt lat="42.81808" lon="1.43806">
        <ele>1677.4</ele>
        <time>2016-12-28T10:08:25Z</time>
      </trkpt>
      <trkpt lat="42.81811" lon="1.43803">
        <ele>1678.4</ele>
        <time>2016-12-28T10:08:28Z</time>
      </trkpt>
      <trkpt lat="42.81814" lon="1.43802">
        <ele>1679.1</ele>
        <time>2016-12-28T10:08:30Z</time>
      </trkpt>
      <trkpt lat="42.81817" lon="1.43801">
        <ele>1679.8</ele>
        <time>2016-12-28T10:08:33Z</time>
      </trkpt>
      <trkpt lat="42.81822" lon="1.43804">
        <ele>1680.8</ele>
        <time>2016-12-28T10:08:38Z</time>
      </trkpt>
      <trkpt lat="42.81824" lon="1.43803">
        <ele>1681.4</ele>
        <time>2016-12-28T10:08:42Z</time>
      </trkpt>
      <trkpt lat="42.81827" lon="1.43804">
        <ele>1682.1</ele>
        <time>2016-12-28T10:08:48Z</time>
      </trkpt>
      <trkpt lat="42.81829" lon="1.43808">
        <ele>1682.8</ele>
        <time>2016-12-28T10:08:53Z</time>
      </trkpt>
      <trkpt lat="42.81832" lon="1.43808">
        <ele>1683.4</ele>
        <time>2016-12-28T10:08:56Z</time>
      </trkpt>
      <trkpt lat="42.81835" lon="1.4381">
        <ele>1684.2</ele>
        <time>2016-12-28T10:09:00Z</time>
      </trkpt>
      <trkpt lat="42.81838" lon="1.43808">
        <ele>1684.9</ele>
        <time>2016-12-28T10:09:03Z</time>
      </trkpt>
      <trkpt lat="42.8184" lon="1.4381">
        <ele>1685.6</ele>
        <time>2016-12-28T10:09:07Z</time>
      </trkpt>
      <trkpt lat="42.81843" lon="1.43813">
        <ele>1686.3</ele>
        <time>2016-12-28T10:09:09Z</time>
      </trkpt>
      <trkpt lat="42.81847" lon="1.43814">
        <ele>1687.2</ele>
        <time>2016-12-28T10:09:12Z</time>
      </trkpt>
      <trkpt lat="42.81849" lon="1.43817">
        <ele>1687.8</ele>
        <time>2016-12-28T10:09:15Z</time>
      </trkpt>
      <trkpt lat="42.8185" lon="1.43822">
        <ele>1688.7</ele>
        <time>2016-12-28T10:09:18Z</time>
      </trkpt>
      <trkpt lat="42.81852" lon="1.43824">
        <ele>1689.3</ele>
        <time>2016-12-28T10:09:21Z</time>
      </trkpt>
      <trkpt lat="42.81855" lon="1.43824">
        <ele>1690</ele>
        <time>2016-12-28T10:09:24Z</time>
      </trkpt>
      <trkpt lat="42.81858" lon="1.43822">
        <ele>1690.6</ele>
        <time>2016-12-28T10:09:27Z</time>
      </trkpt>
      <trkpt lat="42.81859" lon="1.43819">
        <ele>1691.3</ele>
        <time>2016-12-28T10:09:29Z</time>
      </trkpt>
      <trkpt lat="42.81861" lon="1.43816">
        <ele>1691.9</ele>
        <time>2016-12-28T10:09:35Z</time>
      </trkpt>
      <trkpt lat="42.81863" lon="1.43814">
        <ele>1692.5</ele>
        <time>2016-12-28T10:09:37Z</time>
      </trkpt>
      <trkpt lat="42.81866" lon="1.43814">
        <ele>1693.1</ele>
        <time>2016-12-28T10:09:38Z</time>
      </trkpt>
      <trkpt lat="42.81866" lon="1.4381">
        <ele>1693.8</ele>
        <time>2016-12-28T10:09:44Z</time>
      </trkpt>
      <trkpt lat="42.81868" lon="1.43807">
        <ele>1694.5</ele>
        <time>2016-12-28T10:09:48Z</time>
      </trkpt>
      <trkpt lat="42.81869" lon="1.43812">
        <ele>1695.3</ele>
        <time>2016-12-28T10:10:03Z</time>
      </trkpt>
      <trkpt lat="42.81872" lon="1.4381">
        <ele>1696.1</ele>
        <time>2016-12-28T10:10:12Z</time>
      </trkpt>
      <trkpt lat="42.81875" lon="1.43808">
        <ele>1696.7</ele>
        <time>2016-12-28T10:10:17Z</time>
      </trkpt>
      <trkpt lat="42.81878" lon="1.43808">
        <ele>1697.5</ele>
        <time>2016-12-28T10:10:20Z</time>
      </trkpt>
      <trkpt lat="42.81881" lon="1.43808">
        <ele>1698.2</ele>
        <time>2016-12-28T10:10:24Z</time>
      </trkpt>
      <trkpt lat="42.81883" lon="1.43805">
        <ele>1698.8</ele>
        <time>2016-12-28T10:10:27Z</time>
      </trkpt>
      <trkpt lat="42.81886" lon="1.43804">
        <ele>1699.5</ele>
        <time>2016-12-28T10:10:31Z</time>
      </trkpt>
      <trkpt lat="42.81888" lon="1.43801">
        <ele>1700.1</ele>
        <time>2016-12-28T10:10:35Z</time>
      </trkpt>
      <trkpt lat="42.81889" lon="1.43798">
        <ele>1700.7</ele>
        <time>2016-12-28T10:10:41Z</time>
      </trkpt>
      <trkpt lat="42.81892" lon="1.43795">
        <ele>1701.4</ele>
        <time>2016-12-28T10:10:44Z</time>
      </trkpt>
      <trkpt lat="42.81896" lon="1.43795">
        <ele>1702.5</ele>
        <time>2016-12-28T10:10:50Z</time>
      </trkpt>
      <trkpt lat="42.819" lon="1.43796">
        <ele>1703.2</ele>
        <time>2016-12-28T10:10:55Z</time>
      </trkpt>
      <trkpt lat="42.81903" lon="1.43796">
        <ele>1703.9</ele>
        <time>2016-12-28T10:10:57Z</time>
      </trkpt>
      <trkpt lat="42.81905" lon="1.43798">
        <ele>1703.6</ele>
        <time>2016-12-28T10:10:59Z</time>
      </trkpt>
      <trkpt lat="42.81907" lon="1.438">
        <ele>1703.4</ele>
        <time>2016-12-28T10:11:02Z</time>
      </trkpt>
      <trkpt lat="42.8191" lon="1.43801">
        <ele>1703.1</ele>
        <time>2016-12-28T10:11:07Z</time>
      </trkpt>
      <trkpt lat="42.81913" lon="1.43803">
        <ele>1702.9</ele>
        <time>2016-12-28T10:11:12Z</time>
      </trkpt>
      <trkpt lat="42.81915" lon="1.43806">
        <ele>1702.7</ele>
        <time>2016-12-28T10:11:16Z</time>
      </trkpt>
      <trkpt lat="42.81917" lon="1.43809">
        <ele>1702.4</ele>
        <time>2016-12-28T10:11:19Z</time>
      </trkpt>
      <trkpt lat="42.8192" lon="1.4381">
        <ele>1702.2</ele>
        <time>2016-12-28T10:11:21Z</time>
      </trkpt>
      <trkpt lat="42.81923" lon="1.43808">
        <ele>1702.1</ele>
        <time>2016-12-28T10:11:24Z</time>
      </trkpt>
      <trkpt lat="42.81926" lon="1.43805">
        <ele>1703.1</ele>
        <time>2016-12-28T10:11:26Z</time>
      </trkpt>
      <trkpt lat="42.81927" lon="1.43802">
        <ele>1702.5</ele>
        <time>2016-12-28T10:11:28Z</time>
      </trkpt>
      <trkpt lat="42.81927" lon="1.43798">
        <ele>1701.9</ele>
        <time>2016-12-28T10:11:31Z</time>
      </trkpt>
      <trkpt lat="42.81929" lon="1.43794">
        <ele>1701.4</ele>
        <time>2016-12-28T10:11:35Z</time>
      </trkpt>
      <trkpt lat="42.81927" lon="1.4379">
        <ele>1700.9</ele>
        <time>2016-12-28T10:12:39Z</time>
      </trkpt>
      <trkpt lat="42.81927" lon="1.43794">
        <ele>1702.8</ele>
        <time>2016-12-28T10:12:47Z</time>
      </trkpt>
      <trkpt lat="42.81925" lon="1.43798">
        <ele>1704.9</ele>
        <time>2016-12-28T10:12:52Z</time>
      </trkpt>
      <trkpt lat="42.81926" lon="1.43803">
        <ele>1707</ele>
        <time>2016-12-28T10:12:56Z</time>
      </trkpt>
      <trkpt lat="42.81928" lon="1.43806">
        <ele>1709.1</ele>
        <time>2016-12-28T10:13:00Z</time>
      </trkpt>
      <trkpt lat="42.81926" lon="1.4381">
        <ele>1711.1</ele>
        <time>2016-12-28T10:13:05Z</time>
      </trkpt>
      <trkpt lat="42.81924" lon="1.4381">
        <ele>1711.9</ele>
        <time>2016-12-28T10:13:07Z</time>
      </trkpt>
      <trkpt lat="42.81921" lon="1.4381">
        <ele>1712.3</ele>
        <time>2016-12-28T10:13:10Z</time>
      </trkpt>
      <trkpt lat="42.81918" lon="1.4381">
        <ele>1712.6</ele>
        <time>2016-12-28T10:13:19Z</time>
      </trkpt>
      <trkpt lat="42.8192" lon="1.43807">
        <ele>1712.1</ele>
        <time>2016-12-28T10:13:26Z</time>
      </trkpt>
      <trkpt lat="42.81922" lon="1.43806">
        <ele>1713.3</ele>
        <time>2016-12-28T10:13:29Z</time>
      </trkpt>
      <trkpt lat="42.81925" lon="1.43803">
        <ele>1712.9</ele>
        <time>2016-12-28T10:13:33Z</time>
      </trkpt>
      <trkpt lat="42.81925" lon="1.43799">
        <ele>1712.3</ele>
        <time>2016-12-28T10:13:37Z</time>
      </trkpt>
      <trkpt lat="42.81926" lon="1.43795">
        <ele>1711.7</ele>
        <time>2016-12-28T10:13:42Z</time>
      </trkpt>
      <trkpt lat="42.81924" lon="1.43792">
        <ele>1711.3</ele>
        <time>2016-12-28T10:13:47Z</time>
      </trkpt>
      <trkpt lat="42.81923" lon="1.43789">
        <ele>1711.9</ele>
        <time>2016-12-28T10:13:58Z</time>
      </trkpt>
      <trkpt lat="42.81922" lon="1.43785">
        <ele>1711.6</ele>
        <time>2016-12-28T10:14:06Z</time>
      </trkpt>
      <trkpt lat="42.81925" lon="1.43783">
        <ele>1711.8</ele>
        <time>2016-12-28T10:14:09Z</time>
      </trkpt>
      <trkpt lat="42.81928" lon="1.43782">
        <ele>1712.8</ele>
        <time>2016-12-28T10:14:12Z</time>
      </trkpt>
      <trkpt lat="42.8193" lon="1.43779">
        <ele>1713.5</ele>
        <time>2016-12-28T10:14:14Z</time>
      </trkpt>
      <trkpt lat="42.81933" lon="1.4378">
        <ele>1714.7</ele>
        <time>2016-12-28T10:14:17Z</time>
      </trkpt>
      <trkpt lat="42.81931" lon="1.43778">
        <ele>1715</ele>
        <time>2016-12-28T10:14:41Z</time>
      </trkpt>
      <trkpt lat="42.81928" lon="1.43775">
        <ele>1715.3</ele>
        <time>2016-12-28T10:15:01Z</time>
      </trkpt>
      <trkpt lat="42.81929" lon="1.43778">
        <ele>1716.2</ele>
        <time>2016-12-28T10:15:04Z</time>
      </trkpt>
      <trkpt lat="42.81932" lon="1.43779">
        <ele>1717.5</ele>
        <time>2016-12-28T10:15:05Z</time>
      </trkpt>
      <trkpt lat="42.81938" lon="1.43784">
        <ele>1718.9</ele>
        <time>2016-12-28T10:15:14Z</time>
      </trkpt>
      <trkpt lat="42.81939" lon="1.43779">
        <ele>1719.3</ele>
        <time>2016-12-28T10:15:16Z</time>
      </trkpt>
      <trkpt lat="42.81935" lon="1.43778">
        <ele>1719.8</ele>
        <time>2016-12-28T10:15:17Z</time>
      </trkpt>
      <trkpt lat="42.81933" lon="1.4378">
        <ele>1720.5</ele>
        <time>2016-12-28T10:15:28Z</time>
      </trkpt>
      <trkpt lat="42.8193" lon="1.43777">
        <ele>1721</ele>
        <time>2016-12-28T10:15:40Z</time>
      </trkpt>
      <trkpt lat="42.81927" lon="1.43775">
        <ele>1721.1</ele>
        <time>2016-12-28T10:16:23Z</time>
      </trkpt>
      <trkpt lat="42.81928" lon="1.43779">
        <ele>1722.2</ele>
        <time>2016-12-28T10:17:13Z</time>
      </trkpt>
      <trkpt lat="42.81931" lon="1.43776">
        <ele>1723.2</ele>
        <time>2016-12-28T10:17:37Z</time>
      </trkpt>
      <trkpt lat="42.81928" lon="1.43776">
        <ele>1723.7</ele>
        <time>2016-12-28T10:19:02Z</time>
      </trkpt>
      <trkpt lat="42.81996" lon="1.43645">
        <ele>1744.2</ele>
        <time>2016-12-28T10:40:48Z</time>
      </trkpt>
      <trkpt lat="42.81999" lon="1.43647">
        <ele>1744.7</ele>
        <time>2016-12-28T10:40:51Z</time>
      </trkpt>
      <trkpt lat="42.81999" lon="1.43642">
        <ele>1745.4</ele>
        <time>2016-12-28T10:40:54Z</time>
      </trkpt>
      <trkpt lat="42.82" lon="1.43638">
        <ele>1746</ele>
        <time>2016-12-28T10:40:58Z</time>
      </trkpt>
      <trkpt lat="42.82001" lon="1.43635">
        <ele>1746.5</ele>
        <time>2016-12-28T10:41:01Z</time>
      </trkpt>
      <trkpt lat="42.82" lon="1.43631">
        <ele>1747.1</ele>
        <time>2016-12-28T10:41:04Z</time>
      </trkpt>
      <trkpt lat="42.81999" lon="1.43627">
        <ele>1747.7</ele>
        <time>2016-12-28T10:41:07Z</time>
      </trkpt>
      <trkpt lat="42.81998" lon="1.43621">
        <ele>1748.6</ele>
        <time>2016-12-28T10:41:11Z</time>
      </trkpt>
      <trkpt lat="42.82" lon="1.43618">
        <ele>1749.2</ele>
        <time>2016-12-28T10:41:15Z</time>
      </trkpt>
      <trkpt lat="42.82" lon="1.43613">
        <ele>1749.8</ele>
        <time>2016-12-28T10:41:18Z</time>
      </trkpt>
      <trkpt lat="42.82" lon="1.43609">
        <ele>1750.4</ele>
        <time>2016-12-28T10:41:20Z</time>
      </trkpt>
      <trkpt lat="42.82001" lon="1.43602">
        <ele>1751.4</ele>
        <time>2016-12-28T10:41:22Z</time>
      </trkpt>
      <trkpt lat="42.82002" lon="1.43598">
        <ele>1752.1</ele>
        <time>2016-12-28T10:41:25Z</time>
      </trkpt>
      <trkpt lat="42.82002" lon="1.43593">
        <ele>1752.7</ele>
        <time>2016-12-28T10:41:28Z</time>
      </trkpt>
      <trkpt lat="42.82003" lon="1.43589">
        <ele>1753.4</ele>
        <time>2016-12-28T10:41:33Z</time>
      </trkpt>
      <trkpt lat="42.82004" lon="1.43585">
        <ele>1754</ele>
        <time>2016-12-28T10:41:43Z</time>
      </trkpt>
      <trkpt lat="42.82007" lon="1.43584">
        <ele>1754.5</ele>
        <time>2016-12-28T10:41:49Z</time>
      </trkpt>
      <trkpt lat="42.8201" lon="1.4358">
        <ele>1755.4</ele>
        <time>2016-12-28T10:41:52Z</time>
      </trkpt>
      <trkpt lat="42.82013" lon="1.43576">
        <ele>1756.1</ele>
        <time>2016-12-28T10:41:55Z</time>
      </trkpt>
      <trkpt lat="42.82014" lon="1.43572">
        <ele>1756.7</ele>
        <time>2016-12-28T10:41:58Z</time>
      </trkpt>
      <trkpt lat="42.82012" lon="1.43569">
        <ele>1757.4</ele>
        <time>2016-12-28T10:42:01Z</time>
      </trkpt>
      <trkpt lat="42.82011" lon="1.43564">
        <ele>1758.1</ele>
        <time>2016-12-28T10:42:04Z</time>
      </trkpt>
      <trkpt lat="42.82011" lon="1.43559">
        <ele>1758.9</ele>
        <time>2016-12-28T10:42:07Z</time>
      </trkpt>
      <trkpt lat="42.8201" lon="1.43554">
        <ele>1759.5</ele>
        <time>2016-12-28T10:42:09Z</time>
      </trkpt>
      <trkpt lat="42.82011" lon="1.43551">
        <ele>1760.1</ele>
        <time>2016-12-28T10:42:12Z</time>
      </trkpt>
      <trkpt lat="42.82013" lon="1.43547">
        <ele>1760.7</ele>
        <time>2016-12-28T10:42:14Z</time>
      </trkpt>
      <trkpt lat="42.82014" lon="1.43543">
        <ele>1760.1</ele>
        <time>2016-12-28T10:42:17Z</time>
      </trkpt>
      <trkpt lat="42.82016" lon="1.43539">
        <ele>1759.9</ele>
        <time>2016-12-28T10:42:21Z</time>
      </trkpt>
      <trkpt lat="42.82019" lon="1.43536">
        <ele>1760.8</ele>
        <time>2016-12-28T10:42:25Z</time>
      </trkpt>
      <trkpt lat="42.82018" lon="1.43531">
        <ele>1759.4</ele>
        <time>2016-12-28T10:42:28Z</time>
      </trkpt>
      <trkpt lat="42.82018" lon="1.43527">
        <ele>1758.6</ele>
        <time>2016-12-28T10:42:30Z</time>
      </trkpt>
      <trkpt lat="42.82015" lon="1.43522">
        <ele>1757.6</ele>
        <time>2016-12-28T10:42:32Z</time>
      </trkpt>
      <trkpt lat="42.82014" lon="1.43517">
        <ele>1756.4</ele>
        <time>2016-12-28T10:42:37Z</time>
      </trkpt>
      <trkpt lat="42.82014" lon="1.43513">
        <ele>1756.2</ele>
        <time>2016-12-28T10:42:39Z</time>
      </trkpt>
      <trkpt lat="42.82015" lon="1.43508">
        <ele>1756.1</ele>
        <time>2016-12-28T10:42:41Z</time>
      </trkpt>
      <trkpt lat="42.82014" lon="1.43502">
        <ele>1756.2</ele>
        <time>2016-12-28T10:42:43Z</time>
      </trkpt>
      <trkpt lat="42.82016" lon="1.43499">
        <ele>1756.8</ele>
        <time>2016-12-28T10:42:45Z</time>
      </trkpt>
      <trkpt lat="42.82016" lon="1.43494">
        <ele>1757.1</ele>
        <time>2016-12-28T10:42:50Z</time>
      </trkpt>
      <trkpt lat="42.82015" lon="1.4349">
        <ele>1757.4</ele>
        <time>2016-12-28T10:42:52Z</time>
      </trkpt>
      <trkpt lat="42.82017" lon="1.43487">
        <ele>1757.9</ele>
        <time>2016-12-28T10:42:58Z</time>
      </trkpt>
      <trkpt lat="42.82016" lon="1.43482">
        <ele>1758.5</ele>
        <time>2016-12-28T10:43:01Z</time>
      </trkpt>
      <trkpt lat="42.82014" lon="1.43477">
        <ele>1758.8</ele>
        <time>2016-12-28T10:43:06Z</time>
      </trkpt>
      <trkpt lat="42.82013" lon="1.43472">
        <ele>1759.6</ele>
        <time>2016-12-28T10:43:09Z</time>
      </trkpt>
      <trkpt lat="42.82011" lon="1.43467">
        <ele>1760.3</ele>
        <time>2016-12-28T10:43:13Z</time>
      </trkpt>
      <trkpt lat="42.82009" lon="1.43463">
        <ele>1761.1</ele>
        <time>2016-12-28T10:43:16Z</time>
      </trkpt>
      <trkpt lat="42.8201" lon="1.43459">
        <ele>1762</ele>
        <time>2016-12-28T10:43:19Z</time>
      </trkpt>
      <trkpt lat="42.82012" lon="1.43457">
        <ele>1763</ele>
        <time>2016-12-28T10:43:31Z</time>
      </trkpt>
      <trkpt lat="42.82014" lon="1.43454">
        <ele>1763.4</ele>
        <time>2016-12-28T10:43:35Z</time>
      </trkpt>
      <trkpt lat="42.82015" lon="1.43449">
        <ele>1764.4</ele>
        <time>2016-12-28T10:43:37Z</time>
      </trkpt>
      <trkpt lat="42.82018" lon="1.43448">
        <ele>1765.3</ele>
        <time>2016-12-28T10:43:41Z</time>
      </trkpt>
      <trkpt lat="42.8202" lon="1.43445">
        <ele>1765.7</ele>
        <time>2016-12-28T10:43:46Z</time>
      </trkpt>
      <trkpt lat="42.8202" lon="1.43439">
        <ele>1766.2</ele>
        <time>2016-12-28T10:43:48Z</time>
      </trkpt>
      <trkpt lat="42.82022" lon="1.43441">
        <ele>1766.8</ele>
        <time>2016-12-28T10:43:52Z</time>
      </trkpt>
      <trkpt lat="42.82024" lon="1.43438">
        <ele>1767.1</ele>
        <time>2016-12-28T10:44:00Z</time>
      </trkpt>
      <trkpt lat="42.82025" lon="1.43434">
        <ele>1767.6</ele>
        <time>2016-12-28T10:44:06Z</time>
      </trkpt>
      <trkpt lat="42.82026" lon="1.4343">
        <ele>1767.7</ele>
        <time>2016-12-28T10:44:08Z</time>
      </trkpt>
      <trkpt lat="42.82029" lon="1.4343">
        <ele>1768.3</ele>
        <time>2016-12-28T10:44:11Z</time>
      </trkpt>
      <trkpt lat="42.82031" lon="1.43426">
        <ele>1768.8</ele>
        <time>2016-12-28T10:44:13Z</time>
      </trkpt>
      <trkpt lat="42.82035" lon="1.43425">
        <ele>1769.7</ele>
        <time>2016-12-28T10:44:17Z</time>
      </trkpt>
      <trkpt lat="42.82038" lon="1.43422">
        <ele>1770.5</ele>
        <time>2016-12-28T10:44:19Z</time>
      </trkpt>
      <trkpt lat="42.8204" lon="1.43419">
        <ele>1771.7</ele>
        <time>2016-12-28T10:44:21Z</time>
      </trkpt>
      <trkpt lat="42.82044" lon="1.4342">
        <ele>1773</ele>
        <time>2016-12-28T10:44:24Z</time>
      </trkpt>
      <trkpt lat="42.82047" lon="1.43417">
        <ele>1774.4</ele>
        <time>2016-12-28T10:44:27Z</time>
      </trkpt>
      <trkpt lat="42.82049" lon="1.43414">
        <ele>1774.8</ele>
        <time>2016-12-28T10:44:30Z</time>
      </trkpt>
      <trkpt lat="42.82051" lon="1.43417">
        <ele>1776.1</ele>
        <time>2016-12-28T10:44:36Z</time>
      </trkpt>
      <trkpt lat="42.82054" lon="1.43419">
        <ele>1777.5</ele>
        <time>2016-12-28T10:44:39Z</time>
      </trkpt>
      <trkpt lat="42.82056" lon="1.43416">
        <ele>1778.8</ele>
        <time>2016-12-28T10:44:44Z</time>
      </trkpt>
      <trkpt lat="42.8206" lon="1.43416">
        <ele>1780.2</ele>
        <time>2016-12-28T10:44:49Z</time>
      </trkpt>
      <trkpt lat="42.82064" lon="1.43419">
        <ele>1781.5</ele>
        <time>2016-12-28T10:45:06Z</time>
      </trkpt>
      <trkpt lat="42.82066" lon="1.43423">
        <ele>1782.5</ele>
        <time>2016-12-28T10:45:10Z</time>
      </trkpt>
      <trkpt lat="42.82069" lon="1.43426">
        <ele>1783.4</ele>
        <time>2016-12-28T10:45:13Z</time>
      </trkpt>
      <trkpt lat="42.82072" lon="1.43428">
        <ele>1784.2</ele>
        <time>2016-12-28T10:45:15Z</time>
      </trkpt>
      <trkpt lat="42.82075" lon="1.4343">
        <ele>1785.3</ele>
        <time>2016-12-28T10:45:19Z</time>
      </trkpt>
      <trkpt lat="42.82078" lon="1.4343">
        <ele>1786.3</ele>
        <time>2016-12-28T10:45:21Z</time>
      </trkpt>
      <trkpt lat="42.82082" lon="1.43431">
        <ele>1787.1</ele>
        <time>2016-12-28T10:45:23Z</time>
      </trkpt>
      <trkpt lat="42.82084" lon="1.43432">
        <ele>1787.5</ele>
        <time>2016-12-28T10:45:25Z</time>
      </trkpt>
      <trkpt lat="42.82087" lon="1.43437">
        <ele>1787.9</ele>
        <time>2016-12-28T10:45:26Z</time>
      </trkpt>
      <trkpt lat="42.8209" lon="1.43437">
        <ele>1788.2</ele>
        <time>2016-12-28T10:45:29Z</time>
      </trkpt>
      <trkpt lat="42.82093" lon="1.43439">
        <ele>1788.9</ele>
        <time>2016-12-28T10:45:32Z</time>
      </trkpt>
      <trkpt lat="42.82096" lon="1.43439">
        <ele>1789.5</ele>
        <time>2016-12-28T10:45:35Z</time>
      </trkpt>
      <trkpt lat="42.82098" lon="1.43435">
        <ele>1790.4</ele>
        <time>2016-12-28T10:45:38Z</time>
      </trkpt>
      <trkpt lat="42.821" lon="1.43432">
        <ele>1791.3</ele>
        <time>2016-12-28T10:45:42Z</time>
      </trkpt>
      <trkpt lat="42.82101" lon="1.43428">
        <ele>1791.7</ele>
        <time>2016-12-28T10:45:46Z</time>
      </trkpt>
      <trkpt lat="42.82104" lon="1.43427">
        <ele>1792.6</ele>
        <time>2016-12-28T10:45:50Z</time>
      </trkpt>
      <trkpt lat="42.82106" lon="1.43431">
        <ele>1792.9</ele>
        <time>2016-12-28T10:45:55Z</time>
      </trkpt>
      <trkpt lat="42.82104" lon="1.43434">
        <ele>1792.7</ele>
        <time>2016-12-28T10:46:01Z</time>
      </trkpt>
      <trkpt lat="42.82103" lon="1.43437">
        <ele>1792.5</ele>
        <time>2016-12-28T10:46:09Z</time>
      </trkpt>
      <trkpt lat="42.82104" lon="1.43441">
        <ele>1793</ele>
        <time>2016-12-28T10:46:14Z</time>
      </trkpt>
      <trkpt lat="42.82108" lon="1.43444">
        <ele>1793.7</ele>
        <time>2016-12-28T10:46:19Z</time>
      </trkpt>
      <trkpt lat="42.8211" lon="1.43447">
        <ele>1794.5</ele>
        <time>2016-12-28T10:46:24Z</time>
      </trkpt>
      <trkpt lat="42.82112" lon="1.43447">
        <ele>1795.1</ele>
        <time>2016-12-28T10:46:33Z</time>
      </trkpt>
      <trkpt lat="42.82115" lon="1.43448">
        <ele>1795.7</ele>
        <time>2016-12-28T10:46:37Z</time>
      </trkpt>
      <trkpt lat="42.82119" lon="1.43448">
        <ele>1796.5</ele>
        <time>2016-12-28T10:46:40Z</time>
      </trkpt>
      <trkpt lat="42.82121" lon="1.43445">
        <ele>1797.2</ele>
        <time>2016-12-28T10:46:43Z</time>
      </trkpt>
      <trkpt lat="42.82124" lon="1.43442">
        <ele>1797.8</ele>
        <time>2016-12-28T10:46:47Z</time>
      </trkpt>
      <trkpt lat="42.82127" lon="1.4344">
        <ele>1798.6</ele>
        <time>2016-12-28T10:46:49Z</time>
      </trkpt>
      <trkpt lat="42.82128" lon="1.43435">
        <ele>1799.4</ele>
        <time>2016-12-28T10:46:52Z</time>
      </trkpt>
      <trkpt lat="42.8213" lon="1.43431">
        <ele>1800.2</ele>
        <time>2016-12-28T10:46:56Z</time>
      </trkpt>
      <trkpt lat="42.82133" lon="1.43428">
        <ele>1800.9</ele>
        <time>2016-12-28T10:47:01Z</time>
      </trkpt>
      <trkpt lat="42.82134" lon="1.43424">
        <ele>1801.5</ele>
        <time>2016-12-28T10:47:05Z</time>
      </trkpt>
      <trkpt lat="42.82137" lon="1.43422">
        <ele>1802.1</ele>
        <time>2016-12-28T10:47:08Z</time>
      </trkpt>
      <trkpt lat="42.82141" lon="1.4342">
        <ele>1803</ele>
        <time>2016-12-28T10:47:15Z</time>
      </trkpt>
      <trkpt lat="42.82144" lon="1.43417">
        <ele>1803.8</ele>
        <time>2016-12-28T10:47:19Z</time>
      </trkpt>
      <trkpt lat="42.82146" lon="1.43419">
        <ele>1804.4</ele>
        <time>2016-12-28T10:47:27Z</time>
      </trkpt>
      <trkpt lat="42.82149" lon="1.43416">
        <ele>1805.1</ele>
        <time>2016-12-28T10:47:31Z</time>
      </trkpt>
      <trkpt lat="42.82149" lon="1.43412">
        <ele>1805.7</ele>
        <time>2016-12-28T10:47:41Z</time>
      </trkpt>
      <trkpt lat="42.82151" lon="1.4341">
        <ele>1806.2</ele>
        <time>2016-12-28T10:47:49Z</time>
      </trkpt>
      <trkpt lat="42.8215" lon="1.43406">
        <ele>1806.9</ele>
        <time>2016-12-28T10:47:53Z</time>
      </trkpt>
      <trkpt lat="42.82151" lon="1.43403">
        <ele>1807.5</ele>
        <time>2016-12-28T10:47:56Z</time>
      </trkpt>
      <trkpt lat="42.82154" lon="1.43401">
        <ele>1808.2</ele>
        <time>2016-12-28T10:47:59Z</time>
      </trkpt>
      <trkpt lat="42.82154" lon="1.43397">
        <ele>1808.8</ele>
        <time>2016-12-28T10:48:08Z</time>
      </trkpt>
      <trkpt lat="42.82157" lon="1.43395">
        <ele>1809.4</ele>
        <time>2016-12-28T10:48:27Z</time>
      </trkpt>
      <trkpt lat="42.82159" lon="1.43391">
        <ele>1810.1</ele>
        <time>2016-12-28T10:48:33Z</time>
      </trkpt>
      <trkpt lat="42.82158" lon="1.43388">
        <ele>1810.7</ele>
        <time>2016-12-28T10:48:37Z</time>
      </trkpt>
      <trkpt lat="42.82158" lon="1.43383">
        <ele>1811.4</ele>
        <time>2016-12-28T10:48:46Z</time>
      </trkpt>
      <trkpt lat="42.82158" lon="1.43379">
        <ele>1812.1</ele>
        <time>2016-12-28T10:48:59Z</time>
      </trkpt>
      <trkpt lat="42.8216" lon="1.43375">
        <ele>1812.8</ele>
        <time>2016-12-28T10:49:04Z</time>
      </trkpt>
      <trkpt lat="42.82161" lon="1.4337">
        <ele>1813.6</ele>
        <time>2016-12-28T10:49:23Z</time>
      </trkpt>
      <trkpt lat="42.82164" lon="1.43367">
        <ele>1814.3</ele>
        <time>2016-12-28T10:49:35Z</time>
      </trkpt>
      <trkpt lat="42.82164" lon="1.43363">
        <ele>1814.9</ele>
        <time>2016-12-28T10:49:40Z</time>
      </trkpt>
      <trkpt lat="42.82162" lon="1.4336">
        <ele>1815.5</ele>
        <time>2016-12-28T10:49:45Z</time>
      </trkpt>
      <trkpt lat="42.82162" lon="1.43356">
        <ele>1816.1</ele>
        <time>2016-12-28T10:49:48Z</time>
      </trkpt>
      <trkpt lat="42.82162" lon="1.43352">
        <ele>1816.7</ele>
        <time>2016-12-28T10:49:58Z</time>
      </trkpt>
      <trkpt lat="42.82161" lon="1.43349">
        <ele>1817.3</ele>
        <time>2016-12-28T10:50:04Z</time>
      </trkpt>
      <trkpt lat="42.82164" lon="1.43348">
        <ele>1818</ele>
        <time>2016-12-28T10:50:34Z</time>
      </trkpt>
      <trkpt lat="42.82167" lon="1.43348">
        <ele>1818.5</ele>
        <time>2016-12-28T10:50:39Z</time>
      </trkpt>
      <trkpt lat="42.8217" lon="1.43346">
        <ele>1819.2</ele>
        <time>2016-12-28T10:50:43Z</time>
      </trkpt>
      <trkpt lat="42.82173" lon="1.43348">
        <ele>1819.9</ele>
        <time>2016-12-28T10:50:48Z</time>
      </trkpt>
      <trkpt lat="42.82176" lon="1.43349">
        <ele>1820.5</ele>
        <time>2016-12-28T10:50:55Z</time>
      </trkpt>
      <trkpt lat="42.82179" lon="1.43349">
        <ele>1821.2</ele>
        <time>2016-12-28T10:51:01Z</time>
      </trkpt>
      <trkpt lat="42.82181" lon="1.43346">
        <ele>1821.8</ele>
        <time>2016-12-28T10:51:08Z</time>
      </trkpt>
      <trkpt lat="42.82182" lon="1.43343">
        <ele>1822.4</ele>
        <time>2016-12-28T10:51:21Z</time>
      </trkpt>
      <trkpt lat="42.82185" lon="1.43341">
        <ele>1823</ele>
        <time>2016-12-28T10:51:24Z</time>
      </trkpt>
      <trkpt lat="42.82188" lon="1.43341">
        <ele>1823.7</ele>
        <time>2016-12-28T10:51:28Z</time>
      </trkpt>
      <trkpt lat="42.8219" lon="1.43344">
        <ele>1824.3</ele>
        <time>2016-12-28T10:51:42Z</time>
      </trkpt>
      <trkpt lat="42.82193" lon="1.43345">
        <ele>1825</ele>
        <time>2016-12-28T10:51:45Z</time>
      </trkpt>
      <trkpt lat="42.82195" lon="1.43343">
        <ele>1825.6</ele>
        <time>2016-12-28T10:51:51Z</time>
      </trkpt>
      <trkpt lat="42.82199" lon="1.43344">
        <ele>1826.3</ele>
        <time>2016-12-28T10:51:57Z</time>
      </trkpt>
      <trkpt lat="42.82202" lon="1.43345">
        <ele>1827</ele>
        <time>2016-12-28T10:52:02Z</time>
      </trkpt>
      <trkpt lat="42.82205" lon="1.43343">
        <ele>1827.6</ele>
        <time>2016-12-28T10:52:05Z</time>
      </trkpt>
      <trkpt lat="42.82208" lon="1.43342">
        <ele>1828.2</ele>
        <time>2016-12-28T10:52:15Z</time>
      </trkpt>
      <trkpt lat="42.82209" lon="1.43338">
        <ele>1828.9</ele>
        <time>2016-12-28T10:52:21Z</time>
      </trkpt>
      <trkpt lat="42.82211" lon="1.43338">
        <ele>1829.4</ele>
        <time>2016-12-28T10:52:27Z</time>
      </trkpt>
      <trkpt lat="42.82215" lon="1.43338">
        <ele>1830.3</ele>
        <time>2016-12-28T10:52:37Z</time>
      </trkpt>
      <trkpt lat="42.82219" lon="1.43339">
        <ele>1831</ele>
        <time>2016-12-28T10:52:40Z</time>
      </trkpt>
      <trkpt lat="42.82222" lon="1.43337">
        <ele>1831.8</ele>
        <time>2016-12-28T10:52:45Z</time>
      </trkpt>
      <trkpt lat="42.82225" lon="1.43337">
        <ele>1832.4</ele>
        <time>2016-12-28T10:52:49Z</time>
      </trkpt>
      <trkpt lat="42.82228" lon="1.43337">
        <ele>1833</ele>
        <time>2016-12-28T10:52:53Z</time>
      </trkpt>
      <trkpt lat="42.82231" lon="1.43337">
        <ele>1833.6</ele>
        <time>2016-12-28T10:52:56Z</time>
      </trkpt>
      <trkpt lat="42.82234" lon="1.43337">
        <ele>1834.3</ele>
        <time>2016-12-28T10:52:59Z</time>
      </trkpt>
      <trkpt lat="42.82237" lon="1.43338">
        <ele>1834.9</ele>
        <time>2016-12-28T10:53:01Z</time>
      </trkpt>
      <trkpt lat="42.82241" lon="1.43337">
        <ele>1835.7</ele>
        <time>2016-12-28T10:53:03Z</time>
      </trkpt>
      <trkpt lat="42.82243" lon="1.43335">
        <ele>1836.3</ele>
        <time>2016-12-28T10:53:05Z</time>
      </trkpt>
      <trkpt lat="42.82246" lon="1.43336">
        <ele>1836.8</ele>
        <time>2016-12-28T10:53:10Z</time>
      </trkpt>
      <trkpt lat="42.8225" lon="1.43334">
        <ele>1837.7</ele>
        <time>2016-12-28T10:53:18Z</time>
      </trkpt>
      <trkpt lat="42.82252" lon="1.43332">
        <ele>1838.3</ele>
        <time>2016-12-28T10:53:32Z</time>
      </trkpt>
      <trkpt lat="42.82255" lon="1.43331">
        <ele>1838.9</ele>
        <time>2016-12-28T10:53:35Z</time>
      </trkpt>
      <trkpt lat="42.82258" lon="1.43329">
        <ele>1839.6</ele>
        <time>2016-12-28T10:53:40Z</time>
      </trkpt>
      <trkpt lat="42.8226" lon="1.43327">
        <ele>1840.2</ele>
        <time>2016-12-28T10:53:42Z</time>
      </trkpt>
      <trkpt lat="42.82261" lon="1.43323">
        <ele>1840.8</ele>
        <time>2016-12-28T10:53:50Z</time>
      </trkpt>
      <trkpt lat="42.82263" lon="1.43319">
        <ele>1841.5</ele>
        <time>2016-12-28T10:53:53Z</time>
      </trkpt>
      <trkpt lat="42.82265" lon="1.43315">
        <ele>1842.4</ele>
        <time>2016-12-28T10:53:56Z</time>
      </trkpt>
      <trkpt lat="42.82267" lon="1.43312">
        <ele>1842.9</ele>
        <time>2016-12-28T10:54:00Z</time>
      </trkpt>
      <trkpt lat="42.8227" lon="1.4331">
        <ele>1843.7</ele>
        <time>2016-12-28T10:54:02Z</time>
      </trkpt>
      <trkpt lat="42.82273" lon="1.43311">
        <ele>1844.3</ele>
        <time>2016-12-28T10:54:04Z</time>
      </trkpt>
      <trkpt lat="42.82277" lon="1.43311">
        <ele>1845.2</ele>
        <time>2016-12-28T10:54:06Z</time>
      </trkpt>
      <trkpt lat="42.82281" lon="1.43313">
        <ele>1846</ele>
        <time>2016-12-28T10:54:16Z</time>
      </trkpt>
      <trkpt lat="42.82283" lon="1.43315">
        <ele>1846.6</ele>
        <time>2016-12-28T10:54:26Z</time>
      </trkpt>
      <trkpt lat="42.82285" lon="1.43318">
        <ele>1847.2</ele>
        <time>2016-12-28T10:54:29Z</time>
      </trkpt>
      <trkpt lat="42.82287" lon="1.43321">
        <ele>1847.8</ele>
        <time>2016-12-28T10:54:37Z</time>
      </trkpt>
      <trkpt lat="42.82289" lon="1.43317">
        <ele>1848.5</ele>
        <time>2016-12-28T10:54:42Z</time>
      </trkpt>
      <trkpt lat="42.82292" lon="1.43317">
        <ele>1849.2</ele>
        <time>2016-12-28T10:54:45Z</time>
      </trkpt>
      <trkpt lat="42.82294" lon="1.43319">
        <ele>1849.8</ele>
        <time>2016-12-28T10:54:49Z</time>
      </trkpt>
      <trkpt lat="42.82296" lon="1.43322">
        <ele>1850.3</ele>
        <time>2016-12-28T10:54:57Z</time>
      </trkpt>
      <trkpt lat="42.82299" lon="1.43325">
        <ele>1851.1</ele>
        <time>2016-12-28T10:55:00Z</time>
      </trkpt>
      <trkpt lat="42.82301" lon="1.43327">
        <ele>1851.7</ele>
        <time>2016-12-28T10:55:06Z</time>
      </trkpt>
      <trkpt lat="42.82304" lon="1.4333">
        <ele>1852.3</ele>
        <time>2016-12-28T10:55:11Z</time>
      </trkpt>
      <trkpt lat="42.82306" lon="1.43333">
        <ele>1852.9</ele>
        <time>2016-12-28T10:55:16Z</time>
      </trkpt>
      <trkpt lat="42.82306" lon="1.43337">
        <ele>1853.5</ele>
        <time>2016-12-28T10:55:22Z</time>
      </trkpt>
      <trkpt lat="42.82308" lon="1.43339">
        <ele>1854.2</ele>
        <time>2016-12-28T10:55:29Z</time>
      </trkpt>
      <trkpt lat="42.82311" lon="1.43341">
        <ele>1854.8</ele>
        <time>2016-12-28T10:55:33Z</time>
      </trkpt>
      <trkpt lat="42.82314" lon="1.43343">
        <ele>1855.6</ele>
        <time>2016-12-28T10:55:51Z</time>
      </trkpt>
      <trkpt lat="42.82317" lon="1.43344">
        <ele>1856.2</ele>
        <time>2016-12-28T10:55:56Z</time>
      </trkpt>
      <trkpt lat="42.82319" lon="1.43349">
        <ele>1857</ele>
        <time>2016-12-28T10:56:01Z</time>
      </trkpt>
      <trkpt lat="42.82321" lon="1.43352">
        <ele>1857.7</ele>
        <time>2016-12-28T10:56:07Z</time>
      </trkpt>
      <trkpt lat="42.82324" lon="1.43354">
        <ele>1858.4</ele>
        <time>2016-12-28T10:56:10Z</time>
      </trkpt>
      <trkpt lat="42.82324" lon="1.43358">
        <ele>1859</ele>
        <time>2016-12-28T10:56:35Z</time>
      </trkpt>
      <trkpt lat="42.82327" lon="1.43363">
        <ele>1860</ele>
        <time>2016-12-28T10:56:56Z</time>
      </trkpt>
      <trkpt lat="42.82325" lon="1.43367">
        <ele>1860.7</ele>
        <time>2016-12-28T10:57:05Z</time>
      </trkpt>
      <trkpt lat="42.82326" lon="1.43371">
        <ele>1861.4</ele>
        <time>2016-12-28T10:57:20Z</time>
      </trkpt>
      <trkpt lat="42.82328" lon="1.43374">
        <ele>1862</ele>
        <time>2016-12-28T10:57:24Z</time>
      </trkpt>
      <trkpt lat="42.82331" lon="1.43376">
        <ele>1862.6</ele>
        <time>2016-12-28T10:57:32Z</time>
      </trkpt>
      <trkpt lat="42.82334" lon="1.43377">
        <ele>1863.3</ele>
        <time>2016-12-28T10:57:39Z</time>
      </trkpt>
      <trkpt lat="42.82337" lon="1.43376">
        <ele>1863.9</ele>
        <time>2016-12-28T10:57:45Z</time>
      </trkpt>
      <trkpt lat="42.8234" lon="1.43378">
        <ele>1864.5</ele>
        <time>2016-12-28T10:57:50Z</time>
      </trkpt>
      <trkpt lat="42.8234" lon="1.43383">
        <ele>1865.3</ele>
        <time>2016-12-28T10:57:57Z</time>
      </trkpt>
      <trkpt lat="42.82342" lon="1.43387">
        <ele>1866.1</ele>
        <time>2016-12-28T10:58:01Z</time>
      </trkpt>
      <trkpt lat="42.82342" lon="1.43391">
        <ele>1866.7</ele>
        <time>2016-12-28T10:58:08Z</time>
      </trkpt>
      <trkpt lat="42.82344" lon="1.43395">
        <ele>1867.4</ele>
        <time>2016-12-28T10:58:13Z</time>
      </trkpt>
      <trkpt lat="42.82346" lon="1.43398">
        <ele>1868</ele>
        <time>2016-12-28T10:58:16Z</time>
      </trkpt>
      <trkpt lat="42.82348" lon="1.43396">
        <ele>1868.5</ele>
        <time>2016-12-28T10:58:21Z</time>
      </trkpt>
      <trkpt lat="42.82352" lon="1.43397">
        <ele>1869.2</ele>
        <time>2016-12-28T10:58:26Z</time>
      </trkpt>
      <trkpt lat="42.82355" lon="1.43395">
        <ele>1870</ele>
        <time>2016-12-28T10:58:41Z</time>
      </trkpt>
      <trkpt lat="42.82358" lon="1.43398">
        <ele>1870.6</ele>
        <time>2016-12-28T10:58:44Z</time>
      </trkpt>
      <trkpt lat="42.8236" lon="1.43401">
        <ele>1871.4</ele>
        <time>2016-12-28T10:58:50Z</time>
      </trkpt>
      <trkpt lat="42.82361" lon="1.43406">
        <ele>1872.1</ele>
        <time>2016-12-28T10:58:58Z</time>
      </trkpt>
      <trkpt lat="42.82363" lon="1.43409">
        <ele>1872.7</ele>
        <time>2016-12-28T10:59:01Z</time>
      </trkpt>
      <trkpt lat="42.82365" lon="1.43408">
        <ele>1873.3</ele>
        <time>2016-12-28T10:59:03Z</time>
      </trkpt>
      <trkpt lat="42.82363" lon="1.4341">
        <ele>1873.9</ele>
        <time>2016-12-28T10:59:11Z</time>
      </trkpt>
      <trkpt lat="42.82366" lon="1.43412">
        <ele>1874.5</ele>
        <time>2016-12-28T10:59:15Z</time>
      </trkpt>
      <trkpt lat="42.82363" lon="1.43415">
        <ele>1875.2</ele>
        <time>2016-12-28T10:59:24Z</time>
      </trkpt>
      <trkpt lat="42.82367" lon="1.43416">
        <ele>1876.1</ele>
        <time>2016-12-28T10:59:27Z</time>
      </trkpt>
      <trkpt lat="42.82367" lon="1.4342">
        <ele>1876.6</ele>
        <time>2016-12-28T10:59:32Z</time>
      </trkpt>
      <trkpt lat="42.82371" lon="1.43422">
        <ele>1877.4</ele>
        <time>2016-12-28T10:59:36Z</time>
      </trkpt>
      <trkpt lat="42.82374" lon="1.43425">
        <ele>1878.2</ele>
        <time>2016-12-28T10:59:38Z</time>
      </trkpt>
      <trkpt lat="42.82372" lon="1.43429">
        <ele>1878.9</ele>
        <time>2016-12-28T10:59:41Z</time>
      </trkpt>
      <trkpt lat="42.82376" lon="1.43427">
        <ele>1879.6</ele>
        <time>2016-12-28T10:59:51Z</time>
      </trkpt>
      <trkpt lat="42.82378" lon="1.43429">
        <ele>1880.2</ele>
        <time>2016-12-28T11:00:10Z</time>
      </trkpt>
      <trkpt lat="42.82382" lon="1.43429">
        <ele>1880.9</ele>
        <time>2016-12-28T11:00:21Z</time>
      </trkpt>
      <trkpt lat="42.82383" lon="1.43433">
        <ele>1881.5</ele>
        <time>2016-12-28T11:00:24Z</time>
      </trkpt>
      <trkpt lat="42.82387" lon="1.43434">
        <ele>1882.4</ele>
        <time>2016-12-28T11:00:26Z</time>
      </trkpt>
      <trkpt lat="42.82388" lon="1.43438">
        <ele>1883</ele>
        <time>2016-12-28T11:00:31Z</time>
      </trkpt>
      <trkpt lat="42.8239" lon="1.43443">
        <ele>1883.8</ele>
        <time>2016-12-28T11:00:36Z</time>
      </trkpt>
      <trkpt lat="42.82394" lon="1.43444">
        <ele>1884.6</ele>
        <time>2016-12-28T11:00:42Z</time>
      </trkpt>
      <trkpt lat="42.82397" lon="1.43447">
        <ele>1885.5</ele>
        <time>2016-12-28T11:00:46Z</time>
      </trkpt>
      <trkpt lat="42.82402" lon="1.43449">
        <ele>1886.5</ele>
        <time>2016-12-28T11:00:55Z</time>
      </trkpt>
      <trkpt lat="42.82404" lon="1.43453">
        <ele>1887.2</ele>
        <time>2016-12-28T11:01:00Z</time>
      </trkpt>
      <trkpt lat="42.82404" lon="1.43456">
        <ele>1887.7</ele>
        <time>2016-12-28T11:01:02Z</time>
      </trkpt>
      <trkpt lat="42.82405" lon="1.4346">
        <ele>1888.4</ele>
        <time>2016-12-28T11:01:06Z</time>
      </trkpt>
      <trkpt lat="42.82405" lon="1.43465">
        <ele>1889.1</ele>
        <time>2016-12-28T11:01:10Z</time>
      </trkpt>
      <trkpt lat="42.82405" lon="1.4347">
        <ele>1889.8</ele>
        <time>2016-12-28T11:01:12Z</time>
      </trkpt>
      <trkpt lat="42.82406" lon="1.43473">
        <ele>1890.4</ele>
        <time>2016-12-28T11:01:16Z</time>
      </trkpt>
      <trkpt lat="42.82405" lon="1.43476">
        <ele>1891.1</ele>
        <time>2016-12-28T11:01:18Z</time>
      </trkpt>
      <trkpt lat="42.82404" lon="1.43481">
        <ele>1891.8</ele>
        <time>2016-12-28T11:01:21Z</time>
      </trkpt>
      <trkpt lat="42.82407" lon="1.43485">
        <ele>1892.6</ele>
        <time>2016-12-28T11:01:24Z</time>
      </trkpt>
      <trkpt lat="42.8241" lon="1.43486">
        <ele>1893.3</ele>
        <time>2016-12-28T11:01:28Z</time>
      </trkpt>
      <trkpt lat="42.82414" lon="1.43487">
        <ele>1894.1</ele>
        <time>2016-12-28T11:01:31Z</time>
      </trkpt>
      <trkpt lat="42.82417" lon="1.43491">
        <ele>1894.9</ele>
        <time>2016-12-28T11:01:35Z</time>
      </trkpt>
      <trkpt lat="42.82419" lon="1.43495">
        <ele>1895.7</ele>
        <time>2016-12-28T11:01:41Z</time>
      </trkpt>
      <trkpt lat="42.82421" lon="1.43498">
        <ele>1896.3</ele>
        <time>2016-12-28T11:01:45Z</time>
      </trkpt>
      <trkpt lat="42.82422" lon="1.43501">
        <ele>1896.9</ele>
        <time>2016-12-28T11:01:49Z</time>
      </trkpt>
      <trkpt lat="42.82426" lon="1.43502">
        <ele>1897.6</ele>
        <time>2016-12-28T11:01:52Z</time>
      </trkpt>
      <trkpt lat="42.82427" lon="1.43505">
        <ele>1898.2</ele>
        <time>2016-12-28T11:01:57Z</time>
      </trkpt>
      <trkpt lat="42.8243" lon="1.43506">
        <ele>1898.9</ele>
        <time>2016-12-28T11:02:00Z</time>
      </trkpt>
      <trkpt lat="42.82433" lon="1.43504">
        <ele>1899.6</ele>
        <time>2016-12-28T11:02:03Z</time>
      </trkpt>
      <trkpt lat="42.82432" lon="1.43507">
        <ele>1900.2</ele>
        <time>2016-12-28T11:02:05Z</time>
      </trkpt>
      <trkpt lat="42.82432" lon="1.43513">
        <ele>1901.1</ele>
        <time>2016-12-28T11:02:08Z</time>
      </trkpt>
      <trkpt lat="42.82434" lon="1.43515">
        <ele>1901.7</ele>
        <time>2016-12-28T11:02:10Z</time>
      </trkpt>
      <trkpt lat="42.82436" lon="1.43519">
        <ele>1902.4</ele>
        <time>2016-12-28T11:02:18Z</time>
      </trkpt>
      <trkpt lat="42.82438" lon="1.43522">
        <ele>1903</ele>
        <time>2016-12-28T11:02:27Z</time>
      </trkpt>
      <trkpt lat="42.82441" lon="1.43523">
        <ele>1903.6</ele>
        <time>2016-12-28T11:02:35Z</time>
      </trkpt>
      <trkpt lat="42.82445" lon="1.43526">
        <ele>1904.6</ele>
        <time>2016-12-28T11:02:57Z</time>
      </trkpt>
      <trkpt lat="42.82445" lon="1.4353">
        <ele>1905.2</ele>
        <time>2016-12-28T11:03:11Z</time>
      </trkpt>
      <trkpt lat="42.82449" lon="1.43529">
        <ele>1906</ele>
        <time>2016-12-28T11:03:18Z</time>
      </trkpt>
      <trkpt lat="42.82451" lon="1.43532">
        <ele>1906.6</ele>
        <time>2016-12-28T11:04:58Z</time>
      </trkpt>
      <trkpt lat="42.82453" lon="1.43534">
        <ele>1907.2</ele>
        <time>2016-12-28T11:05:00Z</time>
      </trkpt>
      <trkpt lat="42.82457" lon="1.43537">
        <ele>1908.1</ele>
        <time>2016-12-28T11:05:12Z</time>
      </trkpt>
      <trkpt lat="42.82461" lon="1.43535">
        <ele>1908.8</ele>
        <time>2016-12-28T11:05:13Z</time>
      </trkpt>
      <trkpt lat="42.82463" lon="1.43542">
        <ele>1910</ele>
        <time>2016-12-28T11:05:15Z</time>
      </trkpt>
      <trkpt lat="42.82465" lon="1.43545">
        <ele>1910.6</ele>
        <time>2016-12-28T11:05:17Z</time>
      </trkpt>
      <trkpt lat="42.82468" lon="1.43546">
        <ele>1911.3</ele>
        <time>2016-12-28T11:05:19Z</time>
      </trkpt>
      <trkpt lat="42.82471" lon="1.43548">
        <ele>1912</ele>
        <time>2016-12-28T11:05:21Z</time>
      </trkpt>
      <trkpt lat="42.82473" lon="1.43552">
        <ele>1912.7</ele>
        <time>2016-12-28T11:05:27Z</time>
      </trkpt>
      <trkpt lat="42.82474" lon="1.43555">
        <ele>1913.3</ele>
        <time>2016-12-28T11:05:33Z</time>
      </trkpt>
      <trkpt lat="42.82477" lon="1.43556">
        <ele>1914</ele>
        <time>2016-12-28T11:05:42Z</time>
      </trkpt>
      <trkpt lat="42.82481" lon="1.43557">
        <ele>1914.7</ele>
        <time>2016-12-28T11:05:47Z</time>
      </trkpt>
      <trkpt lat="42.82483" lon="1.43559">
        <ele>1915.3</ele>
        <time>2016-12-28T11:05:50Z</time>
      </trkpt>
      <trkpt lat="42.82485" lon="1.43562">
        <ele>1915.9</ele>
        <time>2016-12-28T11:05:56Z</time>
      </trkpt>
      <trkpt lat="42.82485" lon="1.43566">
        <ele>1916.5</ele>
        <time>2016-12-28T11:05:59Z</time>
      </trkpt>
      <trkpt lat="42.82489" lon="1.43567">
        <ele>1917.2</ele>
        <time>2016-12-28T11:06:06Z</time>
      </trkpt>
      <trkpt lat="42.8249" lon="1.4357">
        <ele>1917.8</ele>
        <time>2016-12-28T11:06:12Z</time>
      </trkpt>
      <trkpt lat="42.82493" lon="1.43572">
        <ele>1918.4</ele>
        <time>2016-12-28T11:06:29Z</time>
      </trkpt>
      <trkpt lat="42.82495" lon="1.43574">
        <ele>1919</ele>
        <time>2016-12-28T11:06:40Z</time>
      </trkpt>
      <trkpt lat="42.82498" lon="1.43577">
        <ele>1919.7</ele>
        <time>2016-12-28T11:06:47Z</time>
      </trkpt>
      <trkpt lat="42.82499" lon="1.43573">
        <ele>1920.5</ele>
        <time>2016-12-28T11:06:49Z</time>
      </trkpt>
      <trkpt lat="42.82503" lon="1.43568">
        <ele>1921.4</ele>
        <time>2016-12-28T11:06:53Z</time>
      </trkpt>
      <trkpt lat="42.82506" lon="1.43566">
        <ele>1922.2</ele>
        <time>2016-12-28T11:06:56Z</time>
      </trkpt>
      <trkpt lat="42.82509" lon="1.43568">
        <ele>1922.9</ele>
        <time>2016-12-28T11:07:00Z</time>
      </trkpt>
      <trkpt lat="42.82511" lon="1.43572">
        <ele>1923.6</ele>
        <time>2016-12-28T11:07:04Z</time>
      </trkpt>
      <trkpt lat="42.82511" lon="1.43576">
        <ele>1924.2</ele>
        <time>2016-12-28T11:07:09Z</time>
      </trkpt>
      <trkpt lat="42.82512" lon="1.4358">
        <ele>1924.9</ele>
        <time>2016-12-28T11:07:14Z</time>
      </trkpt>
      <trkpt lat="42.82516" lon="1.43581">
        <ele>1925.7</ele>
        <time>2016-12-28T11:07:19Z</time>
      </trkpt>
      <trkpt lat="42.82519" lon="1.43583">
        <ele>1926.4</ele>
        <time>2016-12-28T11:07:25Z</time>
      </trkpt>
      <trkpt lat="42.82522" lon="1.43584">
        <ele>1927</ele>
        <time>2016-12-28T11:07:28Z</time>
      </trkpt>
      <trkpt lat="42.82524" lon="1.43584">
        <ele>1927.6</ele>
        <time>2016-12-28T11:07:32Z</time>
      </trkpt>
      <trkpt lat="42.82527" lon="1.43586">
        <ele>1928.2</ele>
        <time>2016-12-28T11:07:35Z</time>
      </trkpt>
      <trkpt lat="42.82529" lon="1.43589">
        <ele>1928.7</ele>
        <time>2016-12-28T11:07:39Z</time>
      </trkpt>
      <trkpt lat="42.82531" lon="1.4359">
        <ele>1929.3</ele>
        <time>2016-12-28T11:07:46Z</time>
      </trkpt>
      <trkpt lat="42.82534" lon="1.43593">
        <ele>1930.1</ele>
        <time>2016-12-28T11:07:57Z</time>
      </trkpt>
      <trkpt lat="42.82537" lon="1.43594">
        <ele>1930.8</ele>
        <time>2016-12-28T11:08:00Z</time>
      </trkpt>
      <trkpt lat="42.82541" lon="1.43596">
        <ele>1931.6</ele>
        <time>2016-12-28T11:08:05Z</time>
      </trkpt>
      <trkpt lat="42.82544" lon="1.43598">
        <ele>1932.2</ele>
        <time>2016-12-28T11:08:09Z</time>
      </trkpt>
      <trkpt lat="42.82547" lon="1.436">
        <ele>1932.9</ele>
        <time>2016-12-28T11:08:11Z</time>
      </trkpt>
      <trkpt lat="42.82549" lon="1.43602">
        <ele>1933.5</ele>
        <time>2016-12-28T11:08:14Z</time>
      </trkpt>
      <trkpt lat="42.82552" lon="1.43605">
        <ele>1934.2</ele>
        <time>2016-12-28T11:08:18Z</time>
      </trkpt>
      <trkpt lat="42.82555" lon="1.43606">
        <ele>1934.9</ele>
        <time>2016-12-28T11:08:21Z</time>
      </trkpt>
      <trkpt lat="42.82558" lon="1.43607">
        <ele>1935.6</ele>
        <time>2016-12-28T11:08:25Z</time>
      </trkpt>
      <trkpt lat="42.82561" lon="1.43606">
        <ele>1936.3</ele>
        <time>2016-12-28T11:08:28Z</time>
      </trkpt>
      <trkpt lat="42.82558" lon="1.43607">
        <ele>1936.9</ele>
        <time>2016-12-28T11:08:36Z</time>
      </trkpt>
      <trkpt lat="42.82555" lon="1.4361">
        <ele>1937.6</ele>
        <time>2016-12-28T11:08:38Z</time>
      </trkpt>
      <trkpt lat="42.82557" lon="1.43613">
        <ele>1938.2</ele>
        <time>2016-12-28T11:08:43Z</time>
      </trkpt>
      <trkpt lat="42.82557" lon="1.43609">
        <ele>1938.8</ele>
        <time>2016-12-28T11:08:53Z</time>
      </trkpt>
      <trkpt lat="42.82561" lon="1.43607">
        <ele>1939.8</ele>
        <time>2016-12-28T11:08:55Z</time>
      </trkpt>
      <trkpt lat="42.82564" lon="1.43605">
        <ele>1940.5</ele>
        <time>2016-12-28T11:08:59Z</time>
      </trkpt>
      <trkpt lat="42.82564" lon="1.43601">
        <ele>1941.1</ele>
        <time>2016-12-28T11:09:04Z</time>
      </trkpt>
      <trkpt lat="42.82565" lon="1.43596">
        <ele>1941.8</ele>
        <time>2016-12-28T11:09:09Z</time>
      </trkpt>
      <trkpt lat="42.82567" lon="1.43599">
        <ele>1942.4</ele>
        <time>2016-12-28T11:09:15Z</time>
      </trkpt>
      <trkpt lat="42.8257" lon="1.43599">
        <ele>1943</ele>
        <time>2016-12-28T11:09:18Z</time>
      </trkpt>
      <trkpt lat="42.82572" lon="1.436">
        <ele>1943.6</ele>
        <time>2016-12-28T11:09:21Z</time>
      </trkpt>
      <trkpt lat="42.82575" lon="1.436">
        <ele>1944.2</ele>
        <time>2016-12-28T11:09:25Z</time>
      </trkpt>
      <trkpt lat="42.82579" lon="1.43599">
        <ele>1945</ele>
        <time>2016-12-28T11:09:28Z</time>
      </trkpt>
      <trkpt lat="42.82583" lon="1.43597">
        <ele>1945.8</ele>
        <time>2016-12-28T11:09:31Z</time>
      </trkpt>
      <trkpt lat="42.82586" lon="1.43595">
        <ele>1946.6</ele>
        <time>2016-12-28T11:09:33Z</time>
      </trkpt>
      <trkpt lat="42.82589" lon="1.43594">
        <ele>1947.3</ele>
        <time>2016-12-28T11:09:35Z</time>
      </trkpt>
      <trkpt lat="42.82592" lon="1.43594">
        <ele>1947.9</ele>
        <time>2016-12-28T11:09:37Z</time>
      </trkpt>
      <trkpt lat="42.82596" lon="1.43594">
        <ele>1948.7</ele>
        <time>2016-12-28T11:09:39Z</time>
      </trkpt>
      <trkpt lat="42.82599" lon="1.43592">
        <ele>1949.4</ele>
        <time>2016-12-28T11:09:40Z</time>
      </trkpt>
      <trkpt lat="42.82603" lon="1.43591">
        <ele>1950.2</ele>
        <time>2016-12-28T11:09:42Z</time>
      </trkpt>
      <trkpt lat="42.82606" lon="1.4359">
        <ele>1950.8</ele>
        <time>2016-12-28T11:09:45Z</time>
      </trkpt>
      <trkpt lat="42.82608" lon="1.43588">
        <ele>1951.4</ele>
        <time>2016-12-28T11:09:48Z</time>
      </trkpt>
      <trkpt lat="42.82612" lon="1.43589">
        <ele>1952.3</ele>
        <time>2016-12-28T11:09:51Z</time>
      </trkpt>
      <trkpt lat="42.82616" lon="1.43588">
        <ele>1953</ele>
        <time>2016-12-28T11:09:54Z</time>
      </trkpt>
      <trkpt lat="42.82618" lon="1.4359">
        <ele>1953.6</ele>
        <time>2016-12-28T11:10:02Z</time>
      </trkpt>
      <trkpt lat="42.82621" lon="1.43588">
        <ele>1954.3</ele>
        <time>2016-12-28T11:10:05Z</time>
      </trkpt>
      <trkpt lat="42.82623" lon="1.43584">
        <ele>1955</ele>
        <time>2016-12-28T11:10:08Z</time>
      </trkpt>
      <trkpt lat="42.82626" lon="1.43582">
        <ele>1955.7</ele>
        <time>2016-12-28T11:10:10Z</time>
      </trkpt>
      <trkpt lat="42.82629" lon="1.43578">
        <ele>1956.6</ele>
        <time>2016-12-28T11:10:14Z</time>
      </trkpt>
      <trkpt lat="42.82632" lon="1.43576">
        <ele>1957.3</ele>
        <time>2016-12-28T11:10:16Z</time>
      </trkpt>
      <trkpt lat="42.82635" lon="1.43573">
        <ele>1958.1</ele>
        <time>2016-12-28T11:10:20Z</time>
      </trkpt>
      <trkpt lat="42.82635" lon="1.43568">
        <ele>1958.7</ele>
        <time>2016-12-28T11:10:24Z</time>
      </trkpt>
      <trkpt lat="42.8264" lon="1.43566">
        <ele>1959.7</ele>
        <time>2016-12-28T11:10:27Z</time>
      </trkpt>
      <trkpt lat="42.82642" lon="1.43563">
        <ele>1960.4</ele>
        <time>2016-12-28T11:10:32Z</time>
      </trkpt>
      <trkpt lat="42.82644" lon="1.4356">
        <ele>1961</ele>
        <time>2016-12-28T11:10:34Z</time>
      </trkpt>
      <trkpt lat="42.82647" lon="1.43559">
        <ele>1961.6</ele>
        <time>2016-12-28T11:10:39Z</time>
      </trkpt>
      <trkpt lat="42.82649" lon="1.43561">
        <ele>1962.2</ele>
        <time>2016-12-28T11:10:41Z</time>
      </trkpt>
      <trkpt lat="42.82653" lon="1.43561">
        <ele>1962.9</ele>
        <time>2016-12-28T11:10:43Z</time>
      </trkpt>
      <trkpt lat="42.82655" lon="1.43559">
        <ele>1963.5</ele>
        <time>2016-12-28T11:10:47Z</time>
      </trkpt>
      <trkpt lat="42.82658" lon="1.4356">
        <ele>1964.2</ele>
        <time>2016-12-28T11:10:50Z</time>
      </trkpt>
      <trkpt lat="42.82661" lon="1.43561">
        <ele>1964.8</ele>
        <time>2016-12-28T11:10:54Z</time>
      </trkpt>
      <trkpt lat="42.82665" lon="1.4356">
        <ele>1965.6</ele>
        <time>2016-12-28T11:11:11Z</time>
      </trkpt>
      <trkpt lat="42.82668" lon="1.43561">
        <ele>1966.2</ele>
        <time>2016-12-28T11:11:15Z</time>
      </trkpt>
      <trkpt lat="42.8267" lon="1.4356">
        <ele>1966.7</ele>
        <time>2016-12-28T11:11:18Z</time>
      </trkpt>
      <trkpt lat="42.82672" lon="1.43564">
        <ele>1967.4</ele>
        <time>2016-12-28T11:11:22Z</time>
      </trkpt>
      <trkpt lat="42.82676" lon="1.43564">
        <ele>1968.1</ele>
        <time>2016-12-28T11:11:26Z</time>
      </trkpt>
      <trkpt lat="42.82677" lon="1.43561">
        <ele>1968.7</ele>
        <time>2016-12-28T11:11:31Z</time>
      </trkpt>
      <trkpt lat="42.82676" lon="1.43556">
        <ele>1969.4</ele>
        <time>2016-12-28T11:11:36Z</time>
      </trkpt>
      <trkpt lat="42.82675" lon="1.43553">
        <ele>1969.9</ele>
        <time>2016-12-28T11:11:38Z</time>
      </trkpt>
      <trkpt lat="42.82676" lon="1.43549">
        <ele>1970.5</ele>
        <time>2016-12-28T11:11:42Z</time>
      </trkpt>
      <trkpt lat="42.82677" lon="1.43546">
        <ele>1971.1</ele>
        <time>2016-12-28T11:11:47Z</time>
      </trkpt>
      <trkpt lat="42.82676" lon="1.43541">
        <ele>1971.8</ele>
        <time>2016-12-28T11:11:55Z</time>
      </trkpt>
      <trkpt lat="42.82674" lon="1.43537">
        <ele>1972.6</ele>
        <time>2016-12-28T11:12:02Z</time>
      </trkpt>
      <trkpt lat="42.82674" lon="1.43533">
        <ele>1973.2</ele>
        <time>2016-12-28T11:12:14Z</time>
      </trkpt>
      <trkpt lat="42.82676" lon="1.4353">
        <ele>1973.8</ele>
        <time>2016-12-28T11:12:19Z</time>
      </trkpt>
      <trkpt lat="42.82677" lon="1.43526">
        <ele>1974.4</ele>
        <time>2016-12-28T11:12:24Z</time>
      </trkpt>
      <trkpt lat="42.82679" lon="1.43523">
        <ele>1975</ele>
        <time>2016-12-28T11:12:30Z</time>
      </trkpt>
      <trkpt lat="42.8268" lon="1.43518">
        <ele>1975.9</ele>
        <time>2016-12-28T11:12:33Z</time>
      </trkpt>
      <trkpt lat="42.82682" lon="1.43512">
        <ele>1976.9</ele>
        <time>2016-12-28T11:12:36Z</time>
      </trkpt>
      <trkpt lat="42.82683" lon="1.43507">
        <ele>1977.7</ele>
        <time>2016-12-28T11:12:39Z</time>
      </trkpt>
      <trkpt lat="42.82683" lon="1.43502">
        <ele>1978.4</ele>
        <time>2016-12-28T11:12:45Z</time>
      </trkpt>
      <trkpt lat="42.82686" lon="1.43502">
        <ele>1979</ele>
        <time>2016-12-28T11:12:52Z</time>
      </trkpt>
      <trkpt lat="42.82689" lon="1.43502">
        <ele>1979.7</ele>
        <time>2016-12-28T11:12:55Z</time>
      </trkpt>
      <trkpt lat="42.82693" lon="1.43502">
        <ele>1980.3</ele>
        <time>2016-12-28T11:12:59Z</time>
      </trkpt>
      <trkpt lat="42.82695" lon="1.43499">
        <ele>1981.1</ele>
        <time>2016-12-28T11:13:05Z</time>
      </trkpt>
      <trkpt lat="42.82698" lon="1.43498">
        <ele>1981.7</ele>
        <time>2016-12-28T11:13:10Z</time>
      </trkpt>
      <trkpt lat="42.82701" lon="1.43496">
        <ele>1982.4</ele>
        <time>2016-12-28T11:13:16Z</time>
      </trkpt>
      <trkpt lat="42.82704" lon="1.43495">
        <ele>1983</ele>
        <time>2016-12-28T11:13:20Z</time>
      </trkpt>
      <trkpt lat="42.82708" lon="1.43494">
        <ele>1983.8</ele>
        <time>2016-12-28T11:13:25Z</time>
      </trkpt>
      <trkpt lat="42.82711" lon="1.43492">
        <ele>1984.5</ele>
        <time>2016-12-28T11:13:28Z</time>
      </trkpt>
      <trkpt lat="42.82714" lon="1.43491">
        <ele>1985.1</ele>
        <time>2016-12-28T11:13:31Z</time>
      </trkpt>
      <trkpt lat="42.82717" lon="1.43484">
        <ele>1986.3</ele>
        <time>2016-12-28T11:13:36Z</time>
      </trkpt>
      <trkpt lat="42.8272" lon="1.43483">
        <ele>1986.9</ele>
        <time>2016-12-28T11:13:44Z</time>
      </trkpt>
      <trkpt lat="42.82723" lon="1.43485">
        <ele>1987.6</ele>
        <time>2016-12-28T11:13:51Z</time>
      </trkpt>
      <trkpt lat="42.82725" lon="1.43488">
        <ele>1988.3</ele>
        <time>2016-12-28T11:14:25Z</time>
      </trkpt>
      <trkpt lat="42.82729" lon="1.43488">
        <ele>1989</ele>
        <time>2016-12-28T11:14:34Z</time>
      </trkpt>
      <trkpt lat="42.82732" lon="1.43494">
        <ele>1990.1</ele>
        <time>2016-12-28T11:14:40Z</time>
      </trkpt>
      <trkpt lat="42.82734" lon="1.43497">
        <ele>1990.7</ele>
        <time>2016-12-28T11:14:46Z</time>
      </trkpt>
      <trkpt lat="42.82737" lon="1.43499">
        <ele>1991.5</ele>
        <time>2016-12-28T11:14:50Z</time>
      </trkpt>
      <trkpt lat="42.8274" lon="1.43499">
        <ele>1992.2</ele>
        <time>2016-12-28T11:14:53Z</time>
      </trkpt>
      <trkpt lat="42.82743" lon="1.435">
        <ele>1992.8</ele>
        <time>2016-12-28T11:14:57Z</time>
      </trkpt>
      <trkpt lat="42.82747" lon="1.43501">
        <ele>1993.7</ele>
        <time>2016-12-28T11:15:07Z</time>
      </trkpt>
      <trkpt lat="42.8275" lon="1.43505">
        <ele>1994.4</ele>
        <time>2016-12-28T11:15:11Z</time>
      </trkpt>
      <trkpt lat="42.82753" lon="1.43504">
        <ele>1995</ele>
        <time>2016-12-28T11:15:13Z</time>
      </trkpt>
      <trkpt lat="42.82756" lon="1.43505">
        <ele>1995.8</ele>
        <time>2016-12-28T11:15:25Z</time>
      </trkpt>
      <trkpt lat="42.82759" lon="1.43505">
        <ele>1996.5</ele>
        <time>2016-12-28T11:15:29Z</time>
      </trkpt>
      <trkpt lat="42.82763" lon="1.43505">
        <ele>1997.3</ele>
        <time>2016-12-28T11:15:32Z</time>
      </trkpt>
      <trkpt lat="42.82766" lon="1.43505">
        <ele>1997.9</ele>
        <time>2016-12-28T11:15:35Z</time>
      </trkpt>
      <trkpt lat="42.82768" lon="1.43502">
        <ele>1998.5</ele>
        <time>2016-12-28T11:15:38Z</time>
      </trkpt>
      <trkpt lat="42.82772" lon="1.43503">
        <ele>1999.3</ele>
        <time>2016-12-28T11:15:40Z</time>
      </trkpt>
      <trkpt lat="42.82774" lon="1.435">
        <ele>1999.9</ele>
        <time>2016-12-28T11:15:44Z</time>
      </trkpt>
      <trkpt lat="42.82776" lon="1.43498">
        <ele>2000.5</ele>
        <time>2016-12-28T11:15:46Z</time>
      </trkpt>
      <trkpt lat="42.8278" lon="1.43496">
        <ele>2001.4</ele>
        <time>2016-12-28T11:15:50Z</time>
      </trkpt>
      <trkpt lat="42.82784" lon="1.43494">
        <ele>2002.2</ele>
        <time>2016-12-28T11:15:53Z</time>
      </trkpt>
      <trkpt lat="42.82785" lon="1.43491">
        <ele>2002.8</ele>
        <time>2016-12-28T11:15:56Z</time>
      </trkpt>
      <trkpt lat="42.82783" lon="1.43489">
        <ele>2003.5</ele>
        <time>2016-12-28T11:16:03Z</time>
      </trkpt>
      <trkpt lat="42.82786" lon="1.43488">
        <ele>2004.1</ele>
        <time>2016-12-28T11:16:15Z</time>
      </trkpt>
      <trkpt lat="42.82789" lon="1.43489">
        <ele>2004.7</ele>
        <time>2016-12-28T11:16:16Z</time>
      </trkpt>
      <trkpt lat="42.82792" lon="1.43488">
        <ele>2005.3</ele>
        <time>2016-12-28T11:16:20Z</time>
      </trkpt>
      <trkpt lat="42.82795" lon="1.43486">
        <ele>2006</ele>
        <time>2016-12-28T11:16:25Z</time>
      </trkpt>
      <trkpt lat="42.82797" lon="1.43483">
        <ele>2006.7</ele>
        <time>2016-12-28T11:16:27Z</time>
      </trkpt>
      <trkpt lat="42.82796" lon="1.43478">
        <ele>2007.4</ele>
        <time>2016-12-28T11:16:29Z</time>
      </trkpt>
      <trkpt lat="42.82795" lon="1.43471">
        <ele>2008.5</ele>
        <time>2016-12-28T11:16:33Z</time>
      </trkpt>
      <trkpt lat="42.82793" lon="1.43468">
        <ele>2009.2</ele>
        <time>2016-12-28T11:16:34Z</time>
      </trkpt>
      <trkpt lat="42.82795" lon="1.43466">
        <ele>2009.8</ele>
        <time>2016-12-28T11:16:37Z</time>
      </trkpt>
      <trkpt lat="42.82798" lon="1.43463">
        <ele>2010.4</ele>
        <time>2016-12-28T11:16:40Z</time>
      </trkpt>
      <trkpt lat="42.828" lon="1.43461">
        <ele>2011</ele>
        <time>2016-12-28T11:16:47Z</time>
      </trkpt>
      <trkpt lat="42.82802" lon="1.43457">
        <ele>2011.7</ele>
        <time>2016-12-28T11:16:53Z</time>
      </trkpt>
      <trkpt lat="42.82805" lon="1.43452">
        <ele>2012.7</ele>
        <time>2016-12-28T11:16:58Z</time>
      </trkpt>
      <trkpt lat="42.82807" lon="1.43449">
        <ele>2013.3</ele>
        <time>2016-12-28T11:17:01Z</time>
      </trkpt>
      <trkpt lat="42.82811" lon="1.43448">
        <ele>2014.1</ele>
        <time>2016-12-28T11:17:03Z</time>
      </trkpt>
      <trkpt lat="42.82813" lon="1.43446">
        <ele>2014.8</ele>
        <time>2016-12-28T11:17:05Z</time>
      </trkpt>
      <trkpt lat="42.82817" lon="1.43446">
        <ele>2015.5</ele>
        <time>2016-12-28T11:17:10Z</time>
      </trkpt>
      <trkpt lat="42.82822" lon="1.43445">
        <ele>2016.5</ele>
        <time>2016-12-28T11:17:13Z</time>
      </trkpt>
      <trkpt lat="42.82824" lon="1.43446">
        <ele>2017</ele>
        <time>2016-12-28T11:17:14Z</time>
      </trkpt>
      <trkpt lat="42.82828" lon="1.43445">
        <ele>2017.7</ele>
        <time>2016-12-28T11:17:16Z</time>
      </trkpt>
      <trkpt lat="42.8283" lon="1.43444">
        <ele>2018.3</ele>
        <time>2016-12-28T11:17:18Z</time>
      </trkpt>
      <trkpt lat="42.82834" lon="1.43442">
        <ele>2019.1</ele>
        <time>2016-12-28T11:17:23Z</time>
      </trkpt>
      <trkpt lat="42.82837" lon="1.4344">
        <ele>2019.8</ele>
        <time>2016-12-28T11:17:25Z</time>
      </trkpt>
      <trkpt lat="42.8284" lon="1.43437">
        <ele>2020.6</ele>
        <time>2016-12-28T11:17:28Z</time>
      </trkpt>
      <trkpt lat="42.82843" lon="1.43435">
        <ele>2021.2</ele>
        <time>2016-12-28T11:17:30Z</time>
      </trkpt>
      <trkpt lat="42.82845" lon="1.43432">
        <ele>2022</ele>
        <time>2016-12-28T11:17:34Z</time>
      </trkpt>
      <trkpt lat="42.82849" lon="1.43429">
        <ele>2022.9</ele>
        <time>2016-12-28T11:17:37Z</time>
      </trkpt>
      <trkpt lat="42.82856" lon="1.4343">
        <ele>2024.2</ele>
        <time>2016-12-28T11:17:39Z</time>
      </trkpt>
      <trkpt lat="42.82859" lon="1.43431">
        <ele>2024.9</ele>
        <time>2016-12-28T11:17:42Z</time>
      </trkpt>
      <trkpt lat="42.82861" lon="1.43429">
        <ele>2025.5</ele>
        <time>2016-12-28T11:17:44Z</time>
      </trkpt>
      <trkpt lat="42.82863" lon="1.43433">
        <ele>2026.2</ele>
        <time>2016-12-28T11:17:47Z</time>
      </trkpt>
      <trkpt lat="42.82865" lon="1.43437">
        <ele>2026.9</ele>
        <time>2016-12-28T11:17:53Z</time>
      </trkpt>
      <trkpt lat="42.82868" lon="1.43436">
        <ele>2027.5</ele>
        <time>2016-12-28T11:17:58Z</time>
      </trkpt>
      <trkpt lat="42.82871" lon="1.43435">
        <ele>2028.2</ele>
        <time>2016-12-28T11:18:06Z</time>
      </trkpt>
      <trkpt lat="42.82872" lon="1.43431">
        <ele>2028.8</ele>
        <time>2016-12-28T11:18:15Z</time>
      </trkpt>
      <trkpt lat="42.82875" lon="1.43428">
        <ele>2029.6</ele>
        <time>2016-12-28T11:18:34Z</time>
      </trkpt>
      <trkpt lat="42.82878" lon="1.43426">
        <ele>2030.3</ele>
        <time>2016-12-28T11:18:35Z</time>
      </trkpt>
      <trkpt lat="42.82875" lon="1.43423">
        <ele>2030.9</ele>
        <time>2016-12-28T11:18:45Z</time>
      </trkpt>
      <trkpt lat="42.82874" lon="1.4342">
        <ele>2031.6</ele>
        <time>2016-12-28T11:18:49Z</time>
      </trkpt>
      <trkpt lat="42.82877" lon="1.43419">
        <ele>2032.3</ele>
        <time>2016-12-28T11:18:54Z</time>
      </trkpt>
      <trkpt lat="42.82878" lon="1.43415">
        <ele>2032.9</ele>
        <time>2016-12-28T11:18:58Z</time>
      </trkpt>
      <trkpt lat="42.82878" lon="1.43412">
        <ele>2033.5</ele>
        <time>2016-12-28T11:19:02Z</time>
      </trkpt>
      <trkpt lat="42.82878" lon="1.43404">
        <ele>2034.7</ele>
        <time>2016-12-28T11:19:11Z</time>
      </trkpt>
      <trkpt lat="42.82876" lon="1.43401">
        <ele>2035.3</ele>
        <time>2016-12-28T11:19:16Z</time>
      </trkpt>
      <trkpt lat="42.82876" lon="1.43396">
        <ele>2036</ele>
        <time>2016-12-28T11:19:21Z</time>
      </trkpt>
      <trkpt lat="42.82879" lon="1.43397">
        <ele>2036.6</ele>
        <time>2016-12-28T11:19:26Z</time>
      </trkpt>
      <trkpt lat="42.82879" lon="1.43393">
        <ele>2037.2</ele>
        <time>2016-12-28T11:19:34Z</time>
      </trkpt>
      <trkpt lat="42.82877" lon="1.43389">
        <ele>2038</ele>
        <time>2016-12-28T11:19:43Z</time>
      </trkpt>
      <trkpt lat="42.82878" lon="1.43385">
        <ele>2038.7</ele>
        <time>2016-12-28T11:19:47Z</time>
      </trkpt>
      <trkpt lat="42.82879" lon="1.43381">
        <ele>2039.3</ele>
        <time>2016-12-28T11:19:58Z</time>
      </trkpt>
      <trkpt lat="42.82882" lon="1.43385">
        <ele>2040</ele>
        <time>2016-12-28T11:20:02Z</time>
      </trkpt>
      <trkpt lat="42.82884" lon="1.43384">
        <ele>2040.5</ele>
        <time>2016-12-28T11:20:11Z</time>
      </trkpt>
      <trkpt lat="42.82887" lon="1.43386">
        <ele>2041.2</ele>
        <time>2016-12-28T11:20:19Z</time>
      </trkpt>
      <trkpt lat="42.82888" lon="1.4339">
        <ele>2041.9</ele>
        <time>2016-12-28T11:20:21Z</time>
      </trkpt>
      <trkpt lat="42.8289" lon="1.43393">
        <ele>2042.5</ele>
        <time>2016-12-28T11:20:29Z</time>
      </trkpt>
      <trkpt lat="42.82893" lon="1.43393">
        <ele>2043.1</ele>
        <time>2016-12-28T11:20:36Z</time>
      </trkpt>
      <trkpt lat="42.82895" lon="1.43396">
        <ele>2043.7</ele>
        <time>2016-12-28T11:20:48Z</time>
      </trkpt>
      <trkpt lat="42.82898" lon="1.43397">
        <ele>2044.3</ele>
        <time>2016-12-28T11:21:03Z</time>
      </trkpt>
      <trkpt lat="42.82902" lon="1.43399">
        <ele>2045.2</ele>
        <time>2016-12-28T11:21:08Z</time>
      </trkpt>
      <trkpt lat="42.82905" lon="1.434">
        <ele>2045.7</ele>
        <time>2016-12-28T11:21:13Z</time>
      </trkpt>
      <trkpt lat="42.82908" lon="1.434">
        <ele>2046.4</ele>
        <time>2016-12-28T11:21:20Z</time>
      </trkpt>
      <trkpt lat="42.82908" lon="1.43403">
        <ele>2046.9</ele>
        <time>2016-12-28T11:21:43Z</time>
      </trkpt>
      <trkpt lat="42.8291" lon="1.43407">
        <ele>2047.5</ele>
        <time>2016-12-28T11:21:48Z</time>
      </trkpt>
      <trkpt lat="42.82912" lon="1.43409">
        <ele>2048.1</ele>
        <time>2016-12-28T11:21:55Z</time>
      </trkpt>
      <trkpt lat="42.82912" lon="1.43413">
        <ele>2055</ele>
        <time>2016-12-28T11:21:58Z</time>
      </trkpt>
      <trkpt lat="42.82914" lon="1.43415">
        <ele>2055.6</ele>
        <time>2016-12-28T11:22:08Z</time>
      </trkpt>
      <trkpt lat="42.82917" lon="1.43416">
        <ele>2056.1</ele>
        <time>2016-12-28T11:22:11Z</time>
      </trkpt>
      <trkpt lat="42.8292" lon="1.43418">
        <ele>2056.7</ele>
        <time>2016-12-28T11:22:21Z</time>
      </trkpt>
      <trkpt lat="42.82921" lon="1.43421">
        <ele>2057.2</ele>
        <time>2016-12-28T11:25:57Z</time>
      </trkpt>
      <trkpt lat="42.82924" lon="1.43423">
        <ele>2057.8</ele>
        <time>2016-12-28T11:26:03Z</time>
      </trkpt>
      <trkpt lat="42.82928" lon="1.43424">
        <ele>2058.5</ele>
        <time>2016-12-28T11:26:06Z</time>
      </trkpt>
      <trkpt lat="42.8293" lon="1.43426">
        <ele>2059</ele>
        <time>2016-12-28T11:26:09Z</time>
      </trkpt>
      <trkpt lat="42.82932" lon="1.4343">
        <ele>2059.7</ele>
        <time>2016-12-28T11:26:12Z</time>
      </trkpt>
      <trkpt lat="42.82934" lon="1.43433">
        <ele>2060.2</ele>
        <time>2016-12-28T11:26:15Z</time>
      </trkpt>
      <trkpt lat="42.82937" lon="1.43434">
        <ele>2060.8</ele>
        <time>2016-12-28T11:26:19Z</time>
      </trkpt>
      <trkpt lat="42.82937" lon="1.43439">
        <ele>2061.4</ele>
        <time>2016-12-28T11:26:22Z</time>
      </trkpt>
      <trkpt lat="42.82938" lon="1.43443">
        <ele>2062.1</ele>
        <time>2016-12-28T11:26:27Z</time>
      </trkpt>
      <trkpt lat="42.82941" lon="1.43446">
        <ele>2062.7</ele>
        <time>2016-12-28T11:26:31Z</time>
      </trkpt>
      <trkpt lat="42.82942" lon="1.4345">
        <ele>2063.3</ele>
        <time>2016-12-28T11:26:35Z</time>
      </trkpt>
      <trkpt lat="42.82944" lon="1.43453">
        <ele>2063.9</ele>
        <time>2016-12-28T11:26:39Z</time>
      </trkpt>
      <trkpt lat="42.82946" lon="1.43456">
        <ele>2064.4</ele>
        <time>2016-12-28T11:26:47Z</time>
      </trkpt>
      <trkpt lat="42.82948" lon="1.43459">
        <ele>2065</ele>
        <time>2016-12-28T11:26:55Z</time>
      </trkpt>
      <trkpt lat="42.82946" lon="1.43462">
        <ele>2065.5</ele>
        <time>2016-12-28T11:26:58Z</time>
      </trkpt>
      <trkpt lat="42.8295" lon="1.43464">
        <ele>2066.2</ele>
        <time>2016-12-28T11:27:02Z</time>
      </trkpt>
      <trkpt lat="42.82953" lon="1.43466">
        <ele>2066.8</ele>
        <time>2016-12-28T11:27:13Z</time>
      </trkpt>
      <trkpt lat="42.82955" lon="1.43467">
        <ele>2067.3</ele>
        <time>2016-12-28T11:27:17Z</time>
      </trkpt>
      <trkpt lat="42.82955" lon="1.43471">
        <ele>2067.9</ele>
        <time>2016-12-28T11:27:21Z</time>
      </trkpt>
      <trkpt lat="42.82957" lon="1.43474">
        <ele>2068.5</ele>
        <time>2016-12-28T11:27:26Z</time>
      </trkpt>
      <trkpt lat="42.82957" lon="1.43478">
        <ele>2069.1</ele>
        <time>2016-12-28T11:27:31Z</time>
      </trkpt>
      <trkpt lat="42.8296" lon="1.43483">
        <ele>2069.9</ele>
        <time>2016-12-28T11:27:45Z</time>
      </trkpt>
      <trkpt lat="42.82963" lon="1.43482">
        <ele>2070.6</ele>
        <time>2016-12-28T11:27:58Z</time>
      </trkpt>
      <trkpt lat="42.82962" lon="1.43485">
        <ele>2071.1</ele>
        <time>2016-12-28T11:28:12Z</time>
      </trkpt>
      <trkpt lat="42.82964" lon="1.43488">
        <ele>2071.8</ele>
        <time>2016-12-28T11:28:19Z</time>
      </trkpt>
      <trkpt lat="42.82962" lon="1.43488">
        <ele>2072.3</ele>
        <time>2016-12-28T11:28:27Z</time>
      </trkpt>
      <trkpt lat="42.82965" lon="1.43487">
        <ele>2072.9</ele>
        <time>2016-12-28T11:28:30Z</time>
      </trkpt>
      <trkpt lat="42.82964" lon="1.4349">
        <ele>2073.5</ele>
        <time>2016-12-28T11:28:32Z</time>
      </trkpt>
      <trkpt lat="42.82965" lon="1.43493">
        <ele>2074</ele>
        <time>2016-12-28T11:28:38Z</time>
      </trkpt>
      <trkpt lat="42.82967" lon="1.43496">
        <ele>2074.5</ele>
        <time>2016-12-28T11:28:41Z</time>
      </trkpt>
      <trkpt lat="42.82966" lon="1.43501">
        <ele>2075.3</ele>
        <time>2016-12-28T11:28:47Z</time>
      </trkpt>
      <trkpt lat="42.82966" lon="1.43505">
        <ele>2075.9</ele>
        <time>2016-12-28T11:28:59Z</time>
      </trkpt>
      <trkpt lat="42.82964" lon="1.43508">
        <ele>2076.5</ele>
        <time>2016-12-28T11:29:03Z</time>
      </trkpt>
      <trkpt lat="42.82964" lon="1.43513">
        <ele>2077.1</ele>
        <time>2016-12-28T11:29:07Z</time>
      </trkpt>
      <trkpt lat="42.82962" lon="1.43517">
        <ele>2077.7</ele>
        <time>2016-12-28T11:29:10Z</time>
      </trkpt>
      <trkpt lat="42.8296" lon="1.43519">
        <ele>2078.3</ele>
        <time>2016-12-28T11:29:13Z</time>
      </trkpt>
      <trkpt lat="42.82957" lon="1.43522">
        <ele>2078.9</ele>
        <time>2016-12-28T11:29:16Z</time>
      </trkpt>
      <trkpt lat="42.82955" lon="1.43523">
        <ele>2079.5</ele>
        <time>2016-12-28T11:29:18Z</time>
      </trkpt>
      <trkpt lat="42.82951" lon="1.43526">
        <ele>2080.2</ele>
        <time>2016-12-28T11:29:21Z</time>
      </trkpt>
      <trkpt lat="42.82949" lon="1.43529">
        <ele>2080.8</ele>
        <time>2016-12-28T11:29:24Z</time>
      </trkpt>
      <trkpt lat="42.82949" lon="1.43533">
        <ele>2081.3</ele>
        <time>2016-12-28T11:29:28Z</time>
      </trkpt>
      <trkpt lat="42.82949" lon="1.43537">
        <ele>2081.9</ele>
        <time>2016-12-28T11:29:33Z</time>
      </trkpt>
      <trkpt lat="42.8295" lon="1.43541">
        <ele>2082.5</ele>
        <time>2016-12-28T11:29:40Z</time>
      </trkpt>
      <trkpt lat="42.82951" lon="1.43545">
        <ele>2083.1</ele>
        <time>2016-12-28T11:29:48Z</time>
      </trkpt>
      <trkpt lat="42.82953" lon="1.43549">
        <ele>2083.7</ele>
        <time>2016-12-28T11:29:53Z</time>
      </trkpt>
      <trkpt lat="42.82956" lon="1.43549">
        <ele>2084.4</ele>
        <time>2016-12-28T11:30:01Z</time>
      </trkpt>
      <trkpt lat="42.82958" lon="1.43552">
        <ele>2085</ele>
        <time>2016-12-28T11:30:06Z</time>
      </trkpt>
      <trkpt lat="42.82954" lon="1.43552">
        <ele>2085.7</ele>
        <time>2016-12-28T11:30:47Z</time>
      </trkpt>
      <trkpt lat="42.82951" lon="1.43555">
        <ele>2086.5</ele>
        <time>2016-12-28T11:30:51Z</time>
      </trkpt>
      <trkpt lat="42.82951" lon="1.43559">
        <ele>2087</ele>
        <time>2016-12-28T11:30:55Z</time>
      </trkpt>
      <trkpt lat="42.82949" lon="1.43564">
        <ele>2087.7</ele>
        <time>2016-12-28T11:30:59Z</time>
      </trkpt>
      <trkpt lat="42.82947" lon="1.43568">
        <ele>2088.4</ele>
        <time>2016-12-28T11:31:03Z</time>
      </trkpt>
      <trkpt lat="42.82946" lon="1.43572">
        <ele>2088.9</ele>
        <time>2016-12-28T11:31:05Z</time>
      </trkpt>
      <trkpt lat="42.82946" lon="1.43575">
        <ele>2089.5</ele>
        <time>2016-12-28T11:31:09Z</time>
      </trkpt>
      <trkpt lat="42.82947" lon="1.43579">
        <ele>2090</ele>
        <time>2016-12-28T11:31:12Z</time>
      </trkpt>
      <trkpt lat="42.82946" lon="1.43583">
        <ele>2090.5</ele>
        <time>2016-12-28T11:31:16Z</time>
      </trkpt>
      <trkpt lat="42.82946" lon="1.43586">
        <ele>2091</ele>
        <time>2016-12-28T11:31:21Z</time>
      </trkpt>
      <trkpt lat="42.82947" lon="1.43591">
        <ele>2091.7</ele>
        <time>2016-12-28T11:31:24Z</time>
      </trkpt>
      <trkpt lat="42.82947" lon="1.43595">
        <ele>2092.2</ele>
        <time>2016-12-28T11:31:28Z</time>
      </trkpt>
      <trkpt lat="42.82946" lon="1.436">
        <ele>2093</ele>
        <time>2016-12-28T11:31:33Z</time>
      </trkpt>
      <trkpt lat="42.82943" lon="1.43601">
        <ele>2093.5</ele>
        <time>2016-12-28T11:31:36Z</time>
      </trkpt>
      <trkpt lat="42.82945" lon="1.43605">
        <ele>2094.2</ele>
        <time>2016-12-28T11:31:40Z</time>
      </trkpt>
      <trkpt lat="42.82948" lon="1.43603">
        <ele>2094.1</ele>
        <time>2016-12-28T11:31:51Z</time>
      </trkpt>
      <trkpt lat="42.82951" lon="1.43602">
        <ele>2093.9</ele>
        <time>2016-12-28T11:32:06Z</time>
      </trkpt>
      <trkpt lat="42.82948" lon="1.43601">
        <ele>2093.7</ele>
        <time>2016-12-28T11:32:08Z</time>
      </trkpt>
      <trkpt lat="42.82951" lon="1.43598">
        <ele>2093.5</ele>
        <time>2016-12-28T11:32:17Z</time>
      </trkpt>
      <trkpt lat="42.82953" lon="1.43597">
        <ele>2093.4</ele>
        <time>2016-12-28T11:32:24Z</time>
      </trkpt>
      <trkpt lat="42.82956" lon="1.43596">
        <ele>2093.2</ele>
        <time>2016-12-28T11:32:31Z</time>
      </trkpt>
      <trkpt lat="42.82959" lon="1.43594">
        <ele>2093</ele>
        <time>2016-12-28T11:32:34Z</time>
      </trkpt>
      <trkpt lat="42.82962" lon="1.43595">
        <ele>2093.7</ele>
        <time>2016-12-28T11:32:38Z</time>
      </trkpt>
      <trkpt lat="42.82964" lon="1.43598">
        <ele>2094.4</ele>
        <time>2016-12-28T11:32:42Z</time>
      </trkpt>
      <trkpt lat="42.82965" lon="1.43602">
        <ele>2095</ele>
        <time>2016-12-28T11:33:47Z</time>
      </trkpt>
      <trkpt lat="42.82965" lon="1.43606">
        <ele>2095.6</ele>
        <time>2016-12-28T11:33:57Z</time>
      </trkpt>
      <trkpt lat="42.82966" lon="1.43603">
        <ele>2096.2</ele>
        <time>2016-12-28T11:34:35Z</time>
      </trkpt>
      <trkpt lat="42.82966" lon="1.43608">
        <ele>2097</ele>
        <time>2016-12-28T11:34:47Z</time>
      </trkpt>
      <trkpt lat="42.82965" lon="1.43612">
        <ele>2097.7</ele>
        <time>2016-12-28T11:34:50Z</time>
      </trkpt>
      <trkpt lat="42.82965" lon="1.43616">
        <ele>2098.3</ele>
        <time>2016-12-28T11:34:54Z</time>
      </trkpt>
      <trkpt lat="42.82965" lon="1.4362">
        <ele>2098.9</ele>
        <time>2016-12-28T11:34:58Z</time>
      </trkpt>
      <trkpt lat="42.82966" lon="1.43625">
        <ele>2099.6</ele>
        <time>2016-12-28T11:35:06Z</time>
      </trkpt>
      <trkpt lat="42.82966" lon="1.4363">
        <ele>2100.4</ele>
        <time>2016-12-28T11:35:11Z</time>
      </trkpt>
      <trkpt lat="42.82967" lon="1.43633">
        <ele>2101</ele>
        <time>2016-12-28T11:35:22Z</time>
      </trkpt>
      <trkpt lat="42.82969" lon="1.43636">
        <ele>2101.6</ele>
        <time>2016-12-28T11:35:28Z</time>
      </trkpt>
      <trkpt lat="42.82972" lon="1.43639">
        <ele>2102.3</ele>
        <time>2016-12-28T11:35:36Z</time>
      </trkpt>
      <trkpt lat="42.82972" lon="1.43644">
        <ele>2103.1</ele>
        <time>2016-12-28T11:35:55Z</time>
      </trkpt>
      <trkpt lat="42.82972" lon="1.43649">
        <ele>2103.9</ele>
        <time>2016-12-28T11:36:02Z</time>
      </trkpt>
      <trkpt lat="42.82974" lon="1.43652">
        <ele>2104.5</ele>
        <time>2016-12-28T11:36:06Z</time>
      </trkpt>
      <trkpt lat="42.82974" lon="1.43656">
        <ele>2105</ele>
        <time>2016-12-28T11:36:11Z</time>
      </trkpt>
      <trkpt lat="42.82974" lon="1.4366">
        <ele>2105.6</ele>
        <time>2016-12-28T11:36:16Z</time>
      </trkpt>
      <trkpt lat="42.82972" lon="1.43662">
        <ele>2106.2</ele>
        <time>2016-12-28T11:36:22Z</time>
      </trkpt>
      <trkpt lat="42.82971" lon="1.43667">
        <ele>2106.9</ele>
        <time>2016-12-28T11:36:29Z</time>
      </trkpt>
      <trkpt lat="42.82972" lon="1.43671">
        <ele>2107.6</ele>
        <time>2016-12-28T11:36:36Z</time>
      </trkpt>
      <trkpt lat="42.82971" lon="1.43674">
        <ele>2108.2</ele>
        <time>2016-12-28T11:36:42Z</time>
      </trkpt>
      <trkpt lat="42.82971" lon="1.43679">
        <ele>2108.8</ele>
        <time>2016-12-28T11:36:47Z</time>
      </trkpt>
      <trkpt lat="42.82971" lon="1.43683">
        <ele>2109.6</ele>
        <time>2016-12-28T11:36:52Z</time>
      </trkpt>
      <trkpt lat="42.82972" lon="1.43688">
        <ele>2110.2</ele>
        <time>2016-12-28T11:36:57Z</time>
      </trkpt>
      <trkpt lat="42.8297" lon="1.43691">
        <ele>2110.9</ele>
        <time>2016-12-28T11:37:00Z</time>
      </trkpt>
      <trkpt lat="42.82971" lon="1.43695">
        <ele>2111.6</ele>
        <time>2016-12-28T11:37:06Z</time>
      </trkpt>
      <trkpt lat="42.82972" lon="1.43699">
        <ele>2112.1</ele>
        <time>2016-12-28T11:37:10Z</time>
      </trkpt>
      <trkpt lat="42.82974" lon="1.437">
        <ele>2112.7</ele>
        <time>2016-12-28T11:37:12Z</time>
      </trkpt>
      <trkpt lat="42.82975" lon="1.43704">
        <ele>2113.4</ele>
        <time>2016-12-28T11:37:16Z</time>
      </trkpt>
      <trkpt lat="42.82972" lon="1.43708">
        <ele>2114.2</ele>
        <time>2016-12-28T11:37:18Z</time>
      </trkpt>
      <trkpt lat="42.8297" lon="1.43712">
        <ele>2114.9</ele>
        <time>2016-12-28T11:37:22Z</time>
      </trkpt>
      <trkpt lat="42.8297" lon="1.43717">
        <ele>2115.6</ele>
        <time>2016-12-28T11:37:25Z</time>
      </trkpt>
      <trkpt lat="42.82971" lon="1.4372">
        <ele>2116.2</ele>
        <time>2016-12-28T11:37:29Z</time>
      </trkpt>
      <trkpt lat="42.82974" lon="1.4372">
        <ele>2116.8</ele>
        <time>2016-12-28T11:37:30Z</time>
      </trkpt>
      <trkpt lat="42.82972" lon="1.43724">
        <ele>2117.5</ele>
        <time>2016-12-28T11:37:34Z</time>
      </trkpt>
      <trkpt lat="42.82972" lon="1.4373">
        <ele>2118.5</ele>
        <time>2016-12-28T11:37:39Z</time>
      </trkpt>
      <trkpt lat="42.82972" lon="1.43734">
        <ele>2119</ele>
        <time>2016-12-28T11:37:42Z</time>
      </trkpt>
      <trkpt lat="42.8297" lon="1.43738">
        <ele>2119.6</ele>
        <time>2016-12-28T11:37:46Z</time>
      </trkpt>
      <trkpt lat="42.8297" lon="1.43742">
        <ele>2120.2</ele>
        <time>2016-12-28T11:37:56Z</time>
      </trkpt>
      <trkpt lat="42.82967" lon="1.43744">
        <ele>2120.8</ele>
        <time>2016-12-28T11:37:59Z</time>
      </trkpt>
      <trkpt lat="42.82966" lon="1.43747">
        <ele>2121.4</ele>
        <time>2016-12-28T11:38:08Z</time>
      </trkpt>
      <trkpt lat="42.82965" lon="1.43752">
        <ele>2122.1</ele>
        <time>2016-12-28T11:38:13Z</time>
      </trkpt>
      <trkpt lat="42.82963" lon="1.43756">
        <ele>2122.9</ele>
        <time>2016-12-28T11:38:19Z</time>
      </trkpt>
      <trkpt lat="42.82964" lon="1.4376">
        <ele>2123.4</ele>
        <time>2016-12-28T11:38:22Z</time>
      </trkpt>
      <trkpt lat="42.82965" lon="1.43764">
        <ele>2124.1</ele>
        <time>2016-12-28T11:38:28Z</time>
      </trkpt>
      <trkpt lat="42.82964" lon="1.43768">
        <ele>2124.7</ele>
        <time>2016-12-28T11:38:31Z</time>
      </trkpt>
      <trkpt lat="42.82967" lon="1.43767">
        <ele>2125.5</ele>
        <time>2016-12-28T11:38:39Z</time>
      </trkpt>
      <trkpt lat="42.82967" lon="1.43762">
        <ele>2126.3</ele>
        <time>2016-12-28T11:38:42Z</time>
      </trkpt>
      <trkpt lat="42.82971" lon="1.43763">
        <ele>2127</ele>
        <time>2016-12-28T11:38:48Z</time>
      </trkpt>
      <trkpt lat="42.82974" lon="1.43765">
        <ele>2127.8</ele>
        <time>2016-12-28T11:38:51Z</time>
      </trkpt>
      <trkpt lat="42.82974" lon="1.4377">
        <ele>2128.4</ele>
        <time>2016-12-28T11:39:00Z</time>
      </trkpt>
      <trkpt lat="42.82975" lon="1.43773">
        <ele>2129</ele>
        <time>2016-12-28T11:39:06Z</time>
      </trkpt>
      <trkpt lat="42.82976" lon="1.43777">
        <ele>2129.6</ele>
        <time>2016-12-28T11:39:11Z</time>
      </trkpt>
      <trkpt lat="42.82976" lon="1.43781">
        <ele>2130.2</ele>
        <time>2016-12-28T11:39:15Z</time>
      </trkpt>
      <trkpt lat="42.82975" lon="1.43785">
        <ele>2130.8</ele>
        <time>2016-12-28T11:39:18Z</time>
      </trkpt>
      <trkpt lat="42.82976" lon="1.43789">
        <ele>2131.4</ele>
        <time>2016-12-28T11:39:21Z</time>
      </trkpt>
      <trkpt lat="42.82977" lon="1.43792">
        <ele>2132</ele>
        <time>2016-12-28T11:39:24Z</time>
      </trkpt>
      <trkpt lat="42.82978" lon="1.43796">
        <ele>2132.6</ele>
        <time>2016-12-28T11:39:29Z</time>
      </trkpt>
      <trkpt lat="42.82977" lon="1.438">
        <ele>2133.3</ele>
        <time>2016-12-28T11:39:34Z</time>
      </trkpt>
      <trkpt lat="42.82979" lon="1.43804">
        <ele>2134</ele>
        <time>2016-12-28T11:39:37Z</time>
      </trkpt>
      <trkpt lat="42.82978" lon="1.43808">
        <ele>2134.6</ele>
        <time>2016-12-28T11:39:41Z</time>
      </trkpt>
      <trkpt lat="42.82981" lon="1.4381">
        <ele>2135.2</ele>
        <time>2016-12-28T11:39:56Z</time>
      </trkpt>
      <trkpt lat="42.82985" lon="1.4381">
        <ele>2136</ele>
        <time>2016-12-28T11:40:10Z</time>
      </trkpt>
      <trkpt lat="42.82986" lon="1.43813">
        <ele>2136.6</ele>
        <time>2016-12-28T11:40:15Z</time>
      </trkpt>
      <trkpt lat="42.82989" lon="1.4382">
        <ele>2137.8</ele>
        <time>2016-12-28T11:40:22Z</time>
      </trkpt>
      <trkpt lat="42.8299" lon="1.43824">
        <ele>2138.4</ele>
        <time>2016-12-28T11:40:25Z</time>
      </trkpt>
      <trkpt lat="42.82991" lon="1.43828">
        <ele>2139.1</ele>
        <time>2016-12-28T11:40:29Z</time>
      </trkpt>
      <trkpt lat="42.8299" lon="1.43832">
        <ele>2139.9</ele>
        <time>2016-12-28T11:40:32Z</time>
      </trkpt>
      <trkpt lat="42.82992" lon="1.43836">
        <ele>2140.6</ele>
        <time>2016-12-28T11:40:36Z</time>
      </trkpt>
      <trkpt lat="42.82994" lon="1.4384">
        <ele>2141.3</ele>
        <time>2016-12-28T11:40:39Z</time>
      </trkpt>
      <trkpt lat="42.82995" lon="1.43843">
        <ele>2141.9</ele>
        <time>2016-12-28T11:40:44Z</time>
      </trkpt>
      <trkpt lat="42.82998" lon="1.43846">
        <ele>2142.6</ele>
        <time>2016-12-28T11:40:51Z</time>
      </trkpt>
      <trkpt lat="42.83" lon="1.4385">
        <ele>2143.2</ele>
        <time>2016-12-28T11:40:54Z</time>
      </trkpt>
      <trkpt lat="42.82998" lon="1.43853">
        <ele>2143.9</ele>
        <time>2016-12-28T11:40:58Z</time>
      </trkpt>
      <trkpt lat="42.82998" lon="1.43858">
        <ele>2144.6</ele>
        <time>2016-12-28T11:41:02Z</time>
      </trkpt>
      <trkpt lat="42.82998" lon="1.43863">
        <ele>2145.4</ele>
        <time>2016-12-28T11:41:08Z</time>
      </trkpt>
      <trkpt lat="42.82997" lon="1.43867">
        <ele>2146.1</ele>
        <time>2016-12-28T11:41:11Z</time>
      </trkpt>
      <trkpt lat="42.82999" lon="1.43869">
        <ele>2146.7</ele>
        <time>2016-12-28T11:41:17Z</time>
      </trkpt>
      <trkpt lat="42.83003" lon="1.43869">
        <ele>2147.4</ele>
        <time>2016-12-28T11:41:24Z</time>
      </trkpt>
      <trkpt lat="42.83004" lon="1.43873">
        <ele>2148</ele>
        <time>2016-12-28T11:41:28Z</time>
      </trkpt>
      <trkpt lat="42.83004" lon="1.43876">
        <ele>2148.6</ele>
        <time>2016-12-28T11:41:35Z</time>
      </trkpt>
      <trkpt lat="42.83005" lon="1.43881">
        <ele>2149.2</ele>
        <time>2016-12-28T11:41:42Z</time>
      </trkpt>
      <trkpt lat="42.83006" lon="1.43885">
        <ele>2149.9</ele>
        <time>2016-12-28T11:41:45Z</time>
      </trkpt>
      <trkpt lat="42.83007" lon="1.43888">
        <ele>2150.5</ele>
        <time>2016-12-28T11:41:51Z</time>
      </trkpt>
      <trkpt lat="42.83008" lon="1.43892">
        <ele>2151.1</ele>
        <time>2016-12-28T11:41:56Z</time>
      </trkpt>
      <trkpt lat="42.8301" lon="1.43895">
        <ele>2151.7</ele>
        <time>2016-12-28T11:42:04Z</time>
      </trkpt>
      <trkpt lat="42.83012" lon="1.43899">
        <ele>2152.5</ele>
        <time>2016-12-28T11:42:08Z</time>
      </trkpt>
      <trkpt lat="42.83012" lon="1.43904">
        <ele>2153.3</ele>
        <time>2016-12-28T11:42:10Z</time>
      </trkpt>
      <trkpt lat="42.83012" lon="1.43909">
        <ele>2154</ele>
        <time>2016-12-28T11:42:17Z</time>
      </trkpt>
      <trkpt lat="42.83011" lon="1.43913">
        <ele>2154.7</ele>
        <time>2016-12-28T11:42:21Z</time>
      </trkpt>
      <trkpt lat="42.83009" lon="1.43917">
        <ele>2155.4</ele>
        <time>2016-12-28T11:42:24Z</time>
      </trkpt>
      <trkpt lat="42.83011" lon="1.43914">
        <ele>2156.1</ele>
        <time>2016-12-28T11:42:29Z</time>
      </trkpt>
      <trkpt lat="42.83013" lon="1.43918">
        <ele>2156.7</ele>
        <time>2016-12-28T11:42:32Z</time>
      </trkpt>
      <trkpt lat="42.83016" lon="1.43921">
        <ele>2157.5</ele>
        <time>2016-12-28T11:42:42Z</time>
      </trkpt>
      <trkpt lat="42.83018" lon="1.43925">
        <ele>2158.1</ele>
        <time>2016-12-28T11:42:50Z</time>
      </trkpt>
      <trkpt lat="42.83019" lon="1.43929">
        <ele>2158.9</ele>
        <time>2016-12-28T11:42:56Z</time>
      </trkpt>
      <trkpt lat="42.83021" lon="1.43933">
        <ele>2159.5</ele>
        <time>2016-12-28T11:43:10Z</time>
      </trkpt>
      <trkpt lat="42.83022" lon="1.43937">
        <ele>2160.2</ele>
        <time>2016-12-28T11:43:13Z</time>
      </trkpt>
      <trkpt lat="42.83025" lon="1.4394">
        <ele>2160.9</ele>
        <time>2016-12-28T11:43:17Z</time>
      </trkpt>
      <trkpt lat="42.83024" lon="1.43944">
        <ele>2161.5</ele>
        <time>2016-12-28T11:43:20Z</time>
      </trkpt>
      <trkpt lat="42.83027" lon="1.43946">
        <ele>2162.1</ele>
        <time>2016-12-28T11:43:23Z</time>
      </trkpt>
      <trkpt lat="42.83028" lon="1.43952">
        <ele>2163</ele>
        <time>2016-12-28T11:43:26Z</time>
      </trkpt>
      <trkpt lat="42.83028" lon="1.43956">
        <ele>2163.6</ele>
        <time>2016-12-28T11:43:38Z</time>
      </trkpt>
      <trkpt lat="42.8303" lon="1.4396">
        <ele>2164.4</ele>
        <time>2016-12-28T11:43:42Z</time>
      </trkpt>
      <trkpt lat="42.83032" lon="1.43962">
        <ele>2164.9</ele>
        <time>2016-12-28T11:43:51Z</time>
      </trkpt>
      <trkpt lat="42.83034" lon="1.43965">
        <ele>2165.5</ele>
        <time>2016-12-28T11:43:54Z</time>
      </trkpt>
      <trkpt lat="42.83034" lon="1.43969">
        <ele>2166.1</ele>
        <time>2016-12-28T11:43:57Z</time>
      </trkpt>
      <trkpt lat="42.83035" lon="1.43973">
        <ele>2166.8</ele>
        <time>2016-12-28T11:44:01Z</time>
      </trkpt>
      <trkpt lat="42.83037" lon="1.43977">
        <ele>2167.5</ele>
        <time>2016-12-28T11:44:05Z</time>
      </trkpt>
      <trkpt lat="42.83039" lon="1.43978">
        <ele>2168.1</ele>
        <time>2016-12-28T11:44:08Z</time>
      </trkpt>
      <trkpt lat="42.83043" lon="1.43979">
        <ele>2168.8</ele>
        <time>2016-12-28T11:44:20Z</time>
      </trkpt>
      <trkpt lat="42.83044" lon="1.43983">
        <ele>2169.4</ele>
        <time>2016-12-28T11:44:22Z</time>
      </trkpt>
      <trkpt lat="42.83046" lon="1.43984">
        <ele>2170</ele>
        <time>2016-12-28T11:44:27Z</time>
      </trkpt>
      <trkpt lat="42.83048" lon="1.43989">
        <ele>2170.8</ele>
        <time>2016-12-28T11:44:31Z</time>
      </trkpt>
      <trkpt lat="42.83047" lon="1.43993">
        <ele>2171.5</ele>
        <time>2016-12-28T11:44:36Z</time>
      </trkpt>
      <trkpt lat="42.83046" lon="1.43997">
        <ele>2172.2</ele>
        <time>2016-12-28T11:44:39Z</time>
      </trkpt>
      <trkpt lat="42.83045" lon="1.44001">
        <ele>2172.8</ele>
        <time>2016-12-28T11:44:41Z</time>
      </trkpt>
      <trkpt lat="42.83049" lon="1.44003">
        <ele>2173</ele>
        <time>2016-12-28T11:44:45Z</time>
      </trkpt>
      <trkpt lat="42.8305" lon="1.43999">
        <ele>2172.4</ele>
        <time>2016-12-28T11:44:58Z</time>
      </trkpt>
      <trkpt lat="42.83047" lon="1.43998">
        <ele>2172.6</ele>
        <time>2016-12-28T11:47:06Z</time>
      </trkpt>
      <trkpt lat="42.83048" lon="1.44004">
        <ele>2172.8</ele>
        <time>2016-12-28T11:54:44Z</time>
      </trkpt>
      <trkpt lat="42.83046" lon="1.44001">
        <ele>2173</ele>
        <time>2016-12-28T11:54:55Z</time>
      </trkpt>
      <trkpt lat="42.83044" lon="1.43998">
        <ele>2172</ele>
        <time>2016-12-28T11:55:00Z</time>
      </trkpt>
      <trkpt lat="42.83042" lon="1.43993">
        <ele>2171.2</ele>
        <time>2016-12-28T11:55:04Z</time>
      </trkpt>
      <trkpt lat="42.83043" lon="1.43988">
        <ele>2170.3</ele>
        <time>2016-12-28T11:55:13Z</time>
      </trkpt>
      <trkpt lat="42.8304" lon="1.43983">
        <ele>2169.3</ele>
        <time>2016-12-28T11:55:18Z</time>
      </trkpt>
      <trkpt lat="42.83037" lon="1.43983">
        <ele>2168.6</ele>
        <time>2016-12-28T11:55:21Z</time>
      </trkpt>
      <trkpt lat="42.83035" lon="1.4398">
        <ele>2167.9</ele>
        <time>2016-12-28T11:55:23Z</time>
      </trkpt>
      <trkpt lat="42.83035" lon="1.43973">
        <ele>2166.9</ele>
        <time>2016-12-28T11:55:26Z</time>
      </trkpt>
      <trkpt lat="42.83033" lon="1.43972">
        <ele>2166.2</ele>
        <time>2016-12-28T11:55:38Z</time>
      </trkpt>
      <trkpt lat="42.83031" lon="1.43969">
        <ele>2165.6</ele>
        <time>2016-12-28T11:55:42Z</time>
      </trkpt>
      <trkpt lat="42.83029" lon="1.43966">
        <ele>2164.9</ele>
        <time>2016-12-28T11:55:56Z</time>
      </trkpt>
      <trkpt lat="42.83028" lon="1.43962">
        <ele>2164.3</ele>
        <time>2016-12-28T11:56:04Z</time>
      </trkpt>
      <trkpt lat="42.83027" lon="1.43959">
        <ele>2163.7</ele>
        <time>2016-12-28T11:56:07Z</time>
      </trkpt>
      <trkpt lat="42.83026" lon="1.43955">
        <ele>2163.1</ele>
        <time>2016-12-28T11:56:10Z</time>
      </trkpt>
      <trkpt lat="42.83025" lon="1.43948">
        <ele>2161.9</ele>
        <time>2016-12-28T11:56:13Z</time>
      </trkpt>
      <trkpt lat="42.83024" lon="1.43944">
        <ele>2161.2</ele>
        <time>2016-12-28T11:56:30Z</time>
      </trkpt>
      <trkpt lat="42.83023" lon="1.4394">
        <ele>2160.5</ele>
        <time>2016-12-28T11:56:34Z</time>
      </trkpt>
      <trkpt lat="42.83023" lon="1.43935">
        <ele>2159.7</ele>
        <time>2016-12-28T11:56:37Z</time>
      </trkpt>
      <trkpt lat="42.83023" lon="1.43931">
        <ele>2159</ele>
        <time>2016-12-28T11:56:39Z</time>
      </trkpt>
      <trkpt lat="42.83021" lon="1.43928">
        <ele>2158.3</ele>
        <time>2016-12-28T11:56:48Z</time>
      </trkpt>
      <trkpt lat="42.83019" lon="1.43924">
        <ele>2157.6</ele>
        <time>2016-12-28T11:56:52Z</time>
      </trkpt>
      <trkpt lat="42.83017" lon="1.43921">
        <ele>2156.9</ele>
        <time>2016-12-28T11:56:58Z</time>
      </trkpt>
      <trkpt lat="42.83016" lon="1.43917">
        <ele>2156.2</ele>
        <time>2016-12-28T11:57:01Z</time>
      </trkpt>
      <trkpt lat="42.83015" lon="1.43914">
        <ele>2155.6</ele>
        <time>2016-12-28T11:57:03Z</time>
      </trkpt>
      <trkpt lat="42.83014" lon="1.4391">
        <ele>2155</ele>
        <time>2016-12-28T11:57:08Z</time>
      </trkpt>
      <trkpt lat="42.83013" lon="1.43906">
        <ele>2154.3</ele>
        <time>2016-12-28T11:57:12Z</time>
      </trkpt>
      <trkpt lat="42.83013" lon="1.43902">
        <ele>2153.6</ele>
        <time>2016-12-28T11:57:15Z</time>
      </trkpt>
      <trkpt lat="42.83012" lon="1.43899">
        <ele>2153</ele>
        <time>2016-12-28T11:57:18Z</time>
      </trkpt>
      <trkpt lat="42.83013" lon="1.43894">
        <ele>2152.3</ele>
        <time>2016-12-28T11:57:21Z</time>
      </trkpt>
      <trkpt lat="42.83015" lon="1.43893">
        <ele>2151.7</ele>
        <time>2016-12-28T11:57:28Z</time>
      </trkpt>
      <trkpt lat="42.83013" lon="1.43892">
        <ele>2151.1</ele>
        <time>2016-12-28T11:57:33Z</time>
      </trkpt>
      <trkpt lat="42.83009" lon="1.4389">
        <ele>2150.3</ele>
        <time>2016-12-28T11:57:36Z</time>
      </trkpt>
      <trkpt lat="42.83008" lon="1.43887">
        <ele>2149.7</ele>
        <time>2016-12-28T11:57:44Z</time>
      </trkpt>
      <trkpt lat="42.83006" lon="1.43884">
        <ele>2149.1</ele>
        <time>2016-12-28T11:57:51Z</time>
      </trkpt>
      <trkpt lat="42.83003" lon="1.43881">
        <ele>2148.3</ele>
        <time>2016-12-28T11:57:56Z</time>
      </trkpt>
      <trkpt lat="42.83002" lon="1.43876">
        <ele>2147.4</ele>
        <time>2016-12-28T11:58:00Z</time>
      </trkpt>
      <trkpt lat="42.83001" lon="1.43872">
        <ele>2146.7</ele>
        <time>2016-12-28T11:58:02Z</time>
      </trkpt>
      <trkpt lat="42.83" lon="1.43868">
        <ele>2146</ele>
        <time>2016-12-28T11:58:11Z</time>
      </trkpt>
      <trkpt lat="42.83" lon="1.43864">
        <ele>2145.4</ele>
        <time>2016-12-28T11:58:14Z</time>
      </trkpt>
      <trkpt lat="42.82998" lon="1.4386">
        <ele>2144.6</ele>
        <time>2016-12-28T11:58:23Z</time>
      </trkpt>
      <trkpt lat="42.83" lon="1.43856">
        <ele>2143.9</ele>
        <time>2016-12-28T11:58:30Z</time>
      </trkpt>
      <trkpt lat="42.82997" lon="1.43851">
        <ele>2143</ele>
        <time>2016-12-28T11:58:37Z</time>
      </trkpt>
      <trkpt lat="42.82995" lon="1.43848">
        <ele>2142.3</ele>
        <time>2016-12-28T11:58:39Z</time>
      </trkpt>
      <trkpt lat="42.82995" lon="1.43844">
        <ele>2141.6</ele>
        <time>2016-12-28T11:58:43Z</time>
      </trkpt>
      <trkpt lat="42.82995" lon="1.4384">
        <ele>2141</ele>
        <time>2016-12-28T11:58:45Z</time>
      </trkpt>
      <trkpt lat="42.82994" lon="1.43836">
        <ele>2140.2</ele>
        <time>2016-12-28T11:58:47Z</time>
      </trkpt>
      <trkpt lat="42.82993" lon="1.4383">
        <ele>2139.4</ele>
        <time>2016-12-28T11:58:52Z</time>
      </trkpt>
      <trkpt lat="42.82994" lon="1.43825">
        <ele>2138.5</ele>
        <time>2016-12-28T11:58:54Z</time>
      </trkpt>
      <trkpt lat="42.82992" lon="1.43819">
        <ele>2137.4</ele>
        <time>2016-12-28T11:58:56Z</time>
      </trkpt>
      <trkpt lat="42.8299" lon="1.43816">
        <ele>2136.9</ele>
        <time>2016-12-28T11:59:00Z</time>
      </trkpt>
      <trkpt lat="42.82989" lon="1.43813">
        <ele>2136.4</ele>
        <time>2016-12-28T11:59:03Z</time>
      </trkpt>
      <trkpt lat="42.82988" lon="1.43811">
        <ele>2135.8</ele>
        <time>2016-12-28T11:59:06Z</time>
      </trkpt>
      <trkpt lat="42.82987" lon="1.43808">
        <ele>2135.3</ele>
        <time>2016-12-28T11:59:11Z</time>
      </trkpt>
      <trkpt lat="42.82986" lon="1.43805">
        <ele>2134.8</ele>
        <time>2016-12-28T11:59:16Z</time>
      </trkpt>
      <trkpt lat="42.82985" lon="1.43802">
        <ele>2134.3</ele>
        <time>2016-12-28T11:59:28Z</time>
      </trkpt>
      <trkpt lat="42.82983" lon="1.438">
        <ele>2133.8</ele>
        <time>2016-12-28T11:59:37Z</time>
      </trkpt>
      <trkpt lat="42.82982" lon="1.43797">
        <ele>2133.2</ele>
        <time>2016-12-28T11:59:39Z</time>
      </trkpt>
      <trkpt lat="42.82981" lon="1.43794">
        <ele>2132.7</ele>
        <time>2016-12-28T11:59:44Z</time>
      </trkpt>
      <trkpt lat="42.8298" lon="1.43791">
        <ele>2132.2</ele>
        <time>2016-12-28T11:59:45Z</time>
      </trkpt>
      <trkpt lat="42.8298" lon="1.43787">
        <ele>2131.5</ele>
        <time>2016-12-28T11:59:48Z</time>
      </trkpt>
      <trkpt lat="42.82977" lon="1.43783">
        <ele>2130.6</ele>
        <time>2016-12-28T11:59:54Z</time>
      </trkpt>
      <trkpt lat="42.82977" lon="1.43779">
        <ele>2130</ele>
        <time>2016-12-28T12:00:00Z</time>
      </trkpt>
      <trkpt lat="42.82978" lon="1.43776">
        <ele>2129.4</ele>
        <time>2016-12-28T12:00:03Z</time>
      </trkpt>
      <trkpt lat="42.82976" lon="1.43773">
        <ele>2128.7</ele>
        <time>2016-12-28T12:00:07Z</time>
      </trkpt>
      <trkpt lat="42.82973" lon="1.43773">
        <ele>2128</ele>
        <time>2016-12-28T12:00:14Z</time>
      </trkpt>
      <trkpt lat="42.82972" lon="1.4377">
        <ele>2127.4</ele>
        <time>2016-12-28T12:00:17Z</time>
      </trkpt>
      <trkpt lat="42.82969" lon="1.43771">
        <ele>2126.8</ele>
        <time>2016-12-28T12:00:19Z</time>
      </trkpt>
      <trkpt lat="42.82969" lon="1.43776">
        <ele>2126.1</ele>
        <time>2016-12-28T12:00:28Z</time>
      </trkpt>
      <trkpt lat="42.82966" lon="1.43771">
        <ele>2125.2</ele>
        <time>2016-12-28T12:00:32Z</time>
      </trkpt>
      <trkpt lat="42.82965" lon="1.43768">
        <ele>2124.6</ele>
        <time>2016-12-28T12:00:33Z</time>
      </trkpt>
      <trkpt lat="42.82965" lon="1.43764">
        <ele>2123.9</ele>
        <time>2016-12-28T12:00:36Z</time>
      </trkpt>
      <trkpt lat="42.82964" lon="1.43759">
        <ele>2123.2</ele>
        <time>2016-12-28T12:00:43Z</time>
      </trkpt>
      <trkpt lat="42.82964" lon="1.43755">
        <ele>2122.5</ele>
        <time>2016-12-28T12:00:47Z</time>
      </trkpt>
      <trkpt lat="42.82966" lon="1.43751">
        <ele>2121.6</ele>
        <time>2016-12-28T12:00:49Z</time>
      </trkpt>
      <trkpt lat="42.82966" lon="1.43746">
        <ele>2121</ele>
        <time>2016-12-28T12:00:58Z</time>
      </trkpt>
      <trkpt lat="42.82966" lon="1.43742">
        <ele>2120.1</ele>
        <time>2016-12-28T12:01:06Z</time>
      </trkpt>
      <trkpt lat="42.82968" lon="1.43737">
        <ele>2119.3</ele>
        <time>2016-12-28T12:01:22Z</time>
      </trkpt>
      <trkpt lat="42.82967" lon="1.43731">
        <ele>2118.3</ele>
        <time>2016-12-28T12:01:26Z</time>
      </trkpt>
      <trkpt lat="42.82966" lon="1.43728">
        <ele>2117.7</ele>
        <time>2016-12-28T12:01:28Z</time>
      </trkpt>
      <trkpt lat="42.82966" lon="1.43723">
        <ele>2117</ele>
        <time>2016-12-28T12:01:35Z</time>
      </trkpt>
      <trkpt lat="42.82967" lon="1.43719">
        <ele>2116.3</ele>
        <time>2016-12-28T12:01:40Z</time>
      </trkpt>
      <trkpt lat="42.82967" lon="1.43715">
        <ele>2115.6</ele>
        <time>2016-12-28T12:01:44Z</time>
      </trkpt>
      <trkpt lat="42.82968" lon="1.4371">
        <ele>2114.8</ele>
        <time>2016-12-28T12:01:47Z</time>
      </trkpt>
      <trkpt lat="42.82966" lon="1.43705">
        <ele>2113.9</ele>
        <time>2016-12-28T12:01:49Z</time>
      </trkpt>
      <trkpt lat="42.82968" lon="1.43702">
        <ele>2113.2</ele>
        <time>2016-12-28T12:01:53Z</time>
      </trkpt>
      <trkpt lat="42.82965" lon="1.43701">
        <ele>2112.4</ele>
        <time>2016-12-28T12:01:55Z</time>
      </trkpt>
      <trkpt lat="42.82966" lon="1.43698">
        <ele>2111.8</ele>
        <time>2016-12-28T12:02:08Z</time>
      </trkpt>
      <trkpt lat="42.82965" lon="1.43694">
        <ele>2111.2</ele>
        <time>2016-12-28T12:02:13Z</time>
      </trkpt>
      <trkpt lat="42.82965" lon="1.43689">
        <ele>2110.5</ele>
        <time>2016-12-28T12:02:19Z</time>
      </trkpt>
      <trkpt lat="42.82964" lon="1.43686">
        <ele>2109.8</ele>
        <time>2016-12-28T12:02:21Z</time>
      </trkpt>
      <trkpt lat="42.82965" lon="1.43681">
        <ele>2109</ele>
        <time>2016-12-28T12:02:23Z</time>
      </trkpt>
      <trkpt lat="42.82964" lon="1.43675">
        <ele>2108</ele>
        <time>2016-12-28T12:02:25Z</time>
      </trkpt>
      <trkpt lat="42.82964" lon="1.43672">
        <ele>2107.6</ele>
        <time>2016-12-28T12:02:31Z</time>
      </trkpt>
      <trkpt lat="42.82964" lon="1.4367">
        <ele>2107.3</ele>
        <time>2016-12-28T12:02:35Z</time>
      </trkpt>
      <trkpt lat="42.82963" lon="1.43668">
        <ele>2106.9</ele>
        <time>2016-12-28T12:02:38Z</time>
      </trkpt>
      <trkpt lat="42.82963" lon="1.43666">
        <ele>2106.5</ele>
        <time>2016-12-28T12:02:41Z</time>
      </trkpt>
      <trkpt lat="42.82963" lon="1.43664">
        <ele>2106.2</ele>
        <time>2016-12-28T12:02:49Z</time>
      </trkpt>
      <trkpt lat="42.82963" lon="1.43661">
        <ele>2105.8</ele>
        <time>2016-12-28T12:02:55Z</time>
      </trkpt>
      <trkpt lat="42.82962" lon="1.43659">
        <ele>2105.4</ele>
        <time>2016-12-28T12:03:03Z</time>
      </trkpt>
      <trkpt lat="42.82962" lon="1.43657">
        <ele>2105.1</ele>
        <time>2016-12-28T12:03:06Z</time>
      </trkpt>
      <trkpt lat="42.82962" lon="1.43655">
        <ele>2104.7</ele>
        <time>2016-12-28T12:03:15Z</time>
      </trkpt>
      <trkpt lat="42.82961" lon="1.43653">
        <ele>2104.4</ele>
        <time>2016-12-28T12:03:19Z</time>
      </trkpt>
      <trkpt lat="42.82961" lon="1.4365">
        <ele>2104</ele>
        <time>2016-12-28T12:03:25Z</time>
      </trkpt>
      <trkpt lat="42.82961" lon="1.43648">
        <ele>2103.6</ele>
        <time>2016-12-28T12:03:28Z</time>
      </trkpt>
      <trkpt lat="42.8296" lon="1.43646">
        <ele>2103.3</ele>
        <time>2016-12-28T12:03:31Z</time>
      </trkpt>
      <trkpt lat="42.8296" lon="1.43644">
        <ele>2102.9</ele>
        <time>2016-12-28T12:03:46Z</time>
      </trkpt>
      <trkpt lat="42.8296" lon="1.43642">
        <ele>2102.5</ele>
        <time>2016-12-28T12:03:52Z</time>
      </trkpt>
      <trkpt lat="42.8296" lon="1.4364">
        <ele>2102.2</ele>
        <time>2016-12-28T12:03:55Z</time>
      </trkpt>
      <trkpt lat="42.82959" lon="1.43637">
        <ele>2101.8</ele>
        <time>2016-12-28T12:03:57Z</time>
      </trkpt>
      <trkpt lat="42.82959" lon="1.43635">
        <ele>2101.4</ele>
        <time>2016-12-28T12:04:06Z</time>
      </trkpt>
      <trkpt lat="42.82959" lon="1.43633">
        <ele>2101.1</ele>
        <time>2016-12-28T12:04:12Z</time>
      </trkpt>
      <trkpt lat="42.82958" lon="1.43631">
        <ele>2100.7</ele>
        <time>2016-12-28T12:04:16Z</time>
      </trkpt>
      <trkpt lat="42.82958" lon="1.43629">
        <ele>2100.4</ele>
        <time>2016-12-28T12:04:18Z</time>
      </trkpt>
      <trkpt lat="42.82958" lon="1.43626">
        <ele>2100</ele>
        <time>2016-12-28T12:04:21Z</time>
      </trkpt>
      <trkpt lat="42.82957" lon="1.43624">
        <ele>2099.6</ele>
        <time>2016-12-28T12:04:27Z</time>
      </trkpt>
      <trkpt lat="42.82957" lon="1.43622">
        <ele>2099.3</ele>
        <time>2016-12-28T12:04:32Z</time>
      </trkpt>
      <trkpt lat="42.82957" lon="1.4362">
        <ele>2098.9</ele>
        <time>2016-12-28T12:04:38Z</time>
      </trkpt>
      <trkpt lat="42.82957" lon="1.43618">
        <ele>2098.5</ele>
        <time>2016-12-28T12:04:42Z</time>
      </trkpt>
      <trkpt lat="42.82956" lon="1.43615">
        <ele>2098.2</ele>
        <time>2016-12-28T12:04:46Z</time>
      </trkpt>
      <trkpt lat="42.82956" lon="1.43613">
        <ele>2097.8</ele>
        <time>2016-12-28T12:04:54Z</time>
      </trkpt>
      <trkpt lat="42.82956" lon="1.43611">
        <ele>2097.4</ele>
        <time>2016-12-28T12:05:04Z</time>
      </trkpt>
      <trkpt lat="42.82955" lon="1.43609">
        <ele>2097.1</ele>
        <time>2016-12-28T12:05:05Z</time>
      </trkpt>
      <trkpt lat="42.82952" lon="1.4361">
        <ele>2096.3</ele>
        <time>2016-12-28T12:05:10Z</time>
      </trkpt>
      <trkpt lat="42.82949" lon="1.43608">
        <ele>2095.6</ele>
        <time>2016-12-28T12:05:13Z</time>
      </trkpt>
      <trkpt lat="42.82949" lon="1.43604">
        <ele>2094.9</ele>
        <time>2016-12-28T12:05:17Z</time>
      </trkpt>
      <trkpt lat="42.8295" lon="1.43599">
        <ele>2094.2</ele>
        <time>2016-12-28T12:05:20Z</time>
      </trkpt>
      <trkpt lat="42.8295" lon="1.43594">
        <ele>2093.4</ele>
        <time>2016-12-28T12:05:23Z</time>
      </trkpt>
      <trkpt lat="42.82949" lon="1.43589">
        <ele>2092.4</ele>
        <time>2016-12-28T12:05:25Z</time>
      </trkpt>
      <trkpt lat="42.8295" lon="1.43581">
        <ele>2091.2</ele>
        <time>2016-12-28T12:05:28Z</time>
      </trkpt>
      <trkpt lat="42.8295" lon="1.43579">
        <ele>2090.8</ele>
        <time>2016-12-28T12:05:30Z</time>
      </trkpt>
      <trkpt lat="42.82951" lon="1.43576">
        <ele>2090.3</ele>
        <time>2016-12-28T12:05:33Z</time>
      </trkpt>
      <trkpt lat="42.82951" lon="1.43573">
        <ele>2089.8</ele>
        <time>2016-12-28T12:05:37Z</time>
      </trkpt>
      <trkpt lat="42.82952" lon="1.43571">
        <ele>2089.4</ele>
        <time>2016-12-28T12:05:40Z</time>
      </trkpt>
      <trkpt lat="42.82952" lon="1.43568">
        <ele>2088.9</ele>
        <time>2016-12-28T12:05:46Z</time>
      </trkpt>
      <trkpt lat="42.82953" lon="1.43565">
        <ele>2088.5</ele>
        <time>2016-12-28T12:05:49Z</time>
      </trkpt>
      <trkpt lat="42.82953" lon="1.43563">
        <ele>2088.1</ele>
        <time>2016-12-28T12:05:54Z</time>
      </trkpt>
      <trkpt lat="42.82954" lon="1.4356">
        <ele>2087.6</ele>
        <time>2016-12-28T12:05:58Z</time>
      </trkpt>
      <trkpt lat="42.82954" lon="1.43557">
        <ele>2087.1</ele>
        <time>2016-12-28T12:06:01Z</time>
      </trkpt>
      <trkpt lat="42.82955" lon="1.43554">
        <ele>2086.7</ele>
        <time>2016-12-28T12:06:37Z</time>
      </trkpt>
      <trkpt lat="42.82955" lon="1.43552">
        <ele>2086.2</ele>
        <time>2016-12-28T12:06:45Z</time>
      </trkpt>
      <trkpt lat="42.82956" lon="1.43549">
        <ele>2085.8</ele>
        <time>2016-12-28T12:07:00Z</time>
      </trkpt>
      <trkpt lat="42.82956" lon="1.43546">
        <ele>2085.3</ele>
        <time>2016-12-28T12:07:01Z</time>
      </trkpt>
      <trkpt lat="42.82954" lon="1.43542">
        <ele>2084.5</ele>
        <time>2016-12-28T12:07:05Z</time>
      </trkpt>
      <trkpt lat="42.82957" lon="1.43539">
        <ele>2083.6</ele>
        <time>2016-12-28T12:07:09Z</time>
      </trkpt>
      <trkpt lat="42.82955" lon="1.43538">
        <ele>2083</ele>
        <time>2016-12-28T12:07:14Z</time>
      </trkpt>
      <trkpt lat="42.82954" lon="1.43533">
        <ele>2082.2</ele>
        <time>2016-12-28T12:07:17Z</time>
      </trkpt>
      <trkpt lat="42.82957" lon="1.4353">
        <ele>2081.3</ele>
        <time>2016-12-28T12:07:21Z</time>
      </trkpt>
      <trkpt lat="42.82958" lon="1.43525">
        <ele>2080.4</ele>
        <time>2016-12-28T12:07:23Z</time>
      </trkpt>
      <trkpt lat="42.82957" lon="1.43522">
        <ele>2079.8</ele>
        <time>2016-12-28T12:07:28Z</time>
      </trkpt>
      <trkpt lat="42.8296" lon="1.4352">
        <ele>2079.1</ele>
        <time>2016-12-28T12:07:30Z</time>
      </trkpt>
      <trkpt lat="42.82962" lon="1.43518">
        <ele>2078.5</ele>
        <time>2016-12-28T12:07:32Z</time>
      </trkpt>
      <trkpt lat="42.82962" lon="1.43512">
        <ele>2077.6</ele>
        <time>2016-12-28T12:07:35Z</time>
      </trkpt>
      <trkpt lat="42.82963" lon="1.43508">
        <ele>2077</ele>
        <time>2016-12-28T12:07:38Z</time>
      </trkpt>
      <trkpt lat="42.82965" lon="1.43506">
        <ele>2076.3</ele>
        <time>2016-12-28T12:07:43Z</time>
      </trkpt>
      <trkpt lat="42.82966" lon="1.43502">
        <ele>2075.6</ele>
        <time>2016-12-28T12:07:54Z</time>
      </trkpt>
      <trkpt lat="42.82969" lon="1.435">
        <ele>2074.9</ele>
        <time>2016-12-28T12:08:27Z</time>
      </trkpt>
      <trkpt lat="42.82972" lon="1.43496">
        <ele>2074.1</ele>
        <time>2016-12-28T12:08:37Z</time>
      </trkpt>
      <trkpt lat="42.82969" lon="1.43494">
        <ele>2073.4</ele>
        <time>2016-12-28T12:08:42Z</time>
      </trkpt>
      <trkpt lat="42.82968" lon="1.43488">
        <ele>2072.4</ele>
        <time>2016-12-28T12:09:13Z</time>
      </trkpt>
      <trkpt lat="42.82966" lon="1.43484">
        <ele>2071.7</ele>
        <time>2016-12-28T12:09:20Z</time>
      </trkpt>
      <trkpt lat="42.82964" lon="1.43485">
        <ele>2071.1</ele>
        <time>2016-12-28T12:09:40Z</time>
      </trkpt>
      <trkpt lat="42.82961" lon="1.43482">
        <ele>2070.2</ele>
        <time>2016-12-28T12:09:48Z</time>
      </trkpt>
      <trkpt lat="42.82961" lon="1.43477">
        <ele>2069.6</ele>
        <time>2016-12-28T12:09:50Z</time>
      </trkpt>
      <trkpt lat="42.8296" lon="1.43474">
        <ele>2068.9</ele>
        <time>2016-12-28T12:09:53Z</time>
      </trkpt>
      <trkpt lat="42.82959" lon="1.4347">
        <ele>2068.2</ele>
        <time>2016-12-28T12:09:55Z</time>
      </trkpt>
      <trkpt lat="42.82957" lon="1.43467">
        <ele>2067.5</ele>
        <time>2016-12-28T12:10:00Z</time>
      </trkpt>
      <trkpt lat="42.82955" lon="1.43463">
        <ele>2066.7</ele>
        <time>2016-12-28T12:10:04Z</time>
      </trkpt>
      <trkpt lat="42.82954" lon="1.43458">
        <ele>2066</ele>
        <time>2016-12-28T12:10:07Z</time>
      </trkpt>
      <trkpt lat="42.82951" lon="1.43459">
        <ele>2065.3</ele>
        <time>2016-12-28T12:10:11Z</time>
      </trkpt>
      <trkpt lat="42.8295" lon="1.43454">
        <ele>2064.5</ele>
        <time>2016-12-28T12:10:23Z</time>
      </trkpt>
      <trkpt lat="42.82949" lon="1.43448">
        <ele>2063.5</ele>
        <time>2016-12-28T12:10:25Z</time>
      </trkpt>
      <trkpt lat="42.82947" lon="1.43444">
        <ele>2062.8</ele>
        <time>2016-12-28T12:10:28Z</time>
      </trkpt>
      <trkpt lat="42.82946" lon="1.43441">
        <ele>2062.1</ele>
        <time>2016-12-28T12:10:40Z</time>
      </trkpt>
      <trkpt lat="42.82945" lon="1.43438">
        <ele>2061.5</ele>
        <time>2016-12-28T12:10:56Z</time>
      </trkpt>
      <trkpt lat="42.82945" lon="1.43434">
        <ele>2060.8</ele>
        <time>2016-12-28T12:10:59Z</time>
      </trkpt>
      <trkpt lat="42.82944" lon="1.43428">
        <ele>2059.9</ele>
        <time>2016-12-28T12:11:02Z</time>
      </trkpt>
      <trkpt lat="42.82942" lon="1.43424">
        <ele>2059.1</ele>
        <time>2016-12-28T12:11:04Z</time>
      </trkpt>
      <trkpt lat="42.82941" lon="1.4342">
        <ele>2058.5</ele>
        <time>2016-12-28T12:11:09Z</time>
      </trkpt>
      <trkpt lat="42.8294" lon="1.43416">
        <ele>2057.7</ele>
        <time>2016-12-28T12:11:12Z</time>
      </trkpt>
      <trkpt lat="42.82938" lon="1.43411">
        <ele>2056.8</ele>
        <time>2016-12-28T12:11:16Z</time>
      </trkpt>
      <trkpt lat="42.82937" lon="1.43406">
        <ele>2055.9</ele>
        <time>2016-12-28T12:11:18Z</time>
      </trkpt>
      <trkpt lat="42.82937" lon="1.43401">
        <ele>2054.8</ele>
        <time>2016-12-28T12:11:20Z</time>
      </trkpt>
      <trkpt lat="42.82937" lon="1.43396">
        <ele>2054</ele>
        <time>2016-12-28T12:11:22Z</time>
      </trkpt>
      <trkpt lat="42.82935" lon="1.43392">
        <ele>2053.2</ele>
        <time>2016-12-28T12:11:24Z</time>
      </trkpt>
      <trkpt lat="42.82934" lon="1.43387">
        <ele>2052.4</ele>
        <time>2016-12-28T12:11:31Z</time>
      </trkpt>
      <trkpt lat="42.82933" lon="1.43383">
        <ele>2051.6</ele>
        <time>2016-12-28T12:11:34Z</time>
      </trkpt>
      <trkpt lat="42.82934" lon="1.43379">
        <ele>2050.9</ele>
        <time>2016-12-28T12:11:38Z</time>
      </trkpt>
      <trkpt lat="42.82931" lon="1.43377">
        <ele>2050.3</ele>
        <time>2016-12-28T12:11:44Z</time>
      </trkpt>
      <trkpt lat="42.82933" lon="1.43372">
        <ele>2049.5</ele>
        <time>2016-12-28T12:11:50Z</time>
      </trkpt>
      <trkpt lat="42.82933" lon="1.43369">
        <ele>2048.8</ele>
        <time>2016-12-28T12:11:54Z</time>
      </trkpt>
      <trkpt lat="42.82931" lon="1.43365">
        <ele>2048.1</ele>
        <time>2016-12-28T12:12:03Z</time>
      </trkpt>
      <trkpt lat="42.8293" lon="1.43361">
        <ele>2047.4</ele>
        <time>2016-12-28T12:12:07Z</time>
      </trkpt>
      <trkpt lat="42.82927" lon="1.43359">
        <ele>2046.5</ele>
        <time>2016-12-28T12:12:11Z</time>
      </trkpt>
      <trkpt lat="42.82924" lon="1.43356">
        <ele>2045.6</ele>
        <time>2016-12-28T12:12:13Z</time>
      </trkpt>
      <trkpt lat="42.82922" lon="1.43351">
        <ele>2044.6</ele>
        <time>2016-12-28T12:12:17Z</time>
      </trkpt>
      <trkpt lat="42.82921" lon="1.43345">
        <ele>2043.6</ele>
        <time>2016-12-28T12:12:19Z</time>
      </trkpt>
      <trkpt lat="42.82919" lon="1.43341">
        <ele>2042.7</ele>
        <time>2016-12-28T12:12:24Z</time>
      </trkpt>
      <trkpt lat="42.82916" lon="1.43339">
        <ele>2042.1</ele>
        <time>2016-12-28T12:12:27Z</time>
      </trkpt>
      <trkpt lat="42.82915" lon="1.43335">
        <ele>2041.4</ele>
        <time>2016-12-28T12:12:35Z</time>
      </trkpt>
      <trkpt lat="42.82913" lon="1.43332">
        <ele>2040.7</ele>
        <time>2016-12-28T12:12:40Z</time>
      </trkpt>
      <trkpt lat="42.82912" lon="1.43329">
        <ele>2040.1</ele>
        <time>2016-12-28T12:12:41Z</time>
      </trkpt>
      <trkpt lat="42.82912" lon="1.43323">
        <ele>2039.1</ele>
        <time>2016-12-28T12:12:43Z</time>
      </trkpt>
      <trkpt lat="42.82911" lon="1.4332">
        <ele>2038.5</ele>
        <time>2016-12-28T12:12:46Z</time>
      </trkpt>
      <trkpt lat="42.82912" lon="1.43317">
        <ele>2037.8</ele>
        <time>2016-12-28T12:12:49Z</time>
      </trkpt>
      <trkpt lat="42.82909" lon="1.43313">
        <ele>2037</ele>
        <time>2016-12-28T12:12:56Z</time>
      </trkpt>
      <trkpt lat="42.82907" lon="1.43311">
        <ele>2036.3</ele>
        <time>2016-12-28T12:13:00Z</time>
      </trkpt>
      <trkpt lat="42.82904" lon="1.43309">
        <ele>2035.6</ele>
        <time>2016-12-28T12:13:11Z</time>
      </trkpt>
      <trkpt lat="42.82904" lon="1.43303">
        <ele>2034.6</ele>
        <time>2016-12-28T12:13:13Z</time>
      </trkpt>
      <trkpt lat="42.82903" lon="1.43299">
        <ele>2033.9</ele>
        <time>2016-12-28T12:13:15Z</time>
      </trkpt>
      <trkpt lat="42.82903" lon="1.43295">
        <ele>2033.2</ele>
        <time>2016-12-28T12:13:19Z</time>
      </trkpt>
      <trkpt lat="42.829" lon="1.43297">
        <ele>2032.4</ele>
        <time>2016-12-28T12:13:21Z</time>
      </trkpt>
      <trkpt lat="42.82898" lon="1.43292">
        <ele>2031.5</ele>
        <time>2016-12-28T12:13:24Z</time>
      </trkpt>
      <trkpt lat="42.82896" lon="1.43288">
        <ele>2030.7</ele>
        <time>2016-12-28T12:13:28Z</time>
      </trkpt>
      <trkpt lat="42.82895" lon="1.43284">
        <ele>2030</ele>
        <time>2016-12-28T12:13:29Z</time>
      </trkpt>
      <trkpt lat="42.82894" lon="1.43281">
        <ele>2029.2</ele>
        <time>2016-12-28T12:13:32Z</time>
      </trkpt>
      <trkpt lat="42.82894" lon="1.43275">
        <ele>2028.3</ele>
        <time>2016-12-28T12:13:35Z</time>
      </trkpt>
      <trkpt lat="42.82895" lon="1.43271">
        <ele>2027.5</ele>
        <time>2016-12-28T12:13:37Z</time>
      </trkpt>
      <trkpt lat="42.82895" lon="1.43266">
        <ele>2026.7</ele>
        <time>2016-12-28T12:13:39Z</time>
      </trkpt>
      <trkpt lat="42.82895" lon="1.43262">
        <ele>2025.9</ele>
        <time>2016-12-28T12:13:43Z</time>
      </trkpt>
      <trkpt lat="42.82895" lon="1.43257">
        <ele>2025.1</ele>
        <time>2016-12-28T12:13:46Z</time>
      </trkpt>
      <trkpt lat="42.82895" lon="1.43254">
        <ele>2024.5</ele>
        <time>2016-12-28T12:14:02Z</time>
      </trkpt>
      <trkpt lat="42.82895" lon="1.43249">
        <ele>2023.7</ele>
        <time>2016-12-28T12:14:08Z</time>
      </trkpt>
      <trkpt lat="42.82894" lon="1.43245">
        <ele>2022.9</ele>
        <time>2016-12-28T12:14:13Z</time>
      </trkpt>
      <trkpt lat="42.82892" lon="1.43241">
        <ele>2022.1</ele>
        <time>2016-12-28T12:14:16Z</time>
      </trkpt>
      <trkpt lat="42.82893" lon="1.43237">
        <ele>2021.4</ele>
        <time>2016-12-28T12:14:18Z</time>
      </trkpt>
      <trkpt lat="42.82894" lon="1.43233">
        <ele>2020.6</ele>
        <time>2016-12-28T12:14:20Z</time>
      </trkpt>
      <trkpt lat="42.82894" lon="1.43229">
        <ele>2020</ele>
        <time>2016-12-28T12:14:22Z</time>
      </trkpt>
      <trkpt lat="42.82895" lon="1.43225">
        <ele>2019.2</ele>
        <time>2016-12-28T12:14:24Z</time>
      </trkpt>
      <trkpt lat="42.82896" lon="1.43219">
        <ele>2018.2</ele>
        <time>2016-12-28T12:14:28Z</time>
      </trkpt>
      <trkpt lat="42.82894" lon="1.43217">
        <ele>2017.6</ele>
        <time>2016-12-28T12:14:30Z</time>
      </trkpt>
      <trkpt lat="42.82893" lon="1.43211">
        <ele>2016.4</ele>
        <time>2016-12-28T12:14:33Z</time>
      </trkpt>
      <trkpt lat="42.82893" lon="1.43206">
        <ele>2015.6</ele>
        <time>2016-12-28T12:14:35Z</time>
      </trkpt>
      <trkpt lat="42.82892" lon="1.43203">
        <ele>2014.9</ele>
        <time>2016-12-28T12:14:37Z</time>
      </trkpt>
      <trkpt lat="42.82891" lon="1.43199">
        <ele>2014.2</ele>
        <time>2016-12-28T12:14:51Z</time>
      </trkpt>
      <trkpt lat="42.82891" lon="1.43195">
        <ele>2013.6</ele>
        <time>2016-12-28T12:14:58Z</time>
      </trkpt>
      <trkpt lat="42.82895" lon="1.43191">
        <ele>2011.7</ele>
        <time>2016-12-28T12:15:00Z</time>
      </trkpt>
      <trkpt lat="42.82896" lon="1.43188">
        <ele>2011.3</ele>
        <time>2016-12-28T12:15:03Z</time>
      </trkpt>
      <trkpt lat="42.82895" lon="1.43185">
        <ele>2010.9</ele>
        <time>2016-12-28T12:15:07Z</time>
      </trkpt>
      <trkpt lat="42.82898" lon="1.43181">
        <ele>2010.3</ele>
        <time>2016-12-28T12:15:10Z</time>
      </trkpt>
      <trkpt lat="42.82896" lon="1.43177">
        <ele>2009.8</ele>
        <time>2016-12-28T12:15:16Z</time>
      </trkpt>
      <trkpt lat="42.82893" lon="1.43171">
        <ele>2009</ele>
        <time>2016-12-28T12:15:18Z</time>
      </trkpt>
      <trkpt lat="42.82892" lon="1.43166">
        <ele>2008.5</ele>
        <time>2016-12-28T12:15:21Z</time>
      </trkpt>
      <trkpt lat="42.82891" lon="1.43162">
        <ele>2008</ele>
        <time>2016-12-28T12:15:24Z</time>
      </trkpt>
      <trkpt lat="42.82892" lon="1.43157">
        <ele>2007.5</ele>
        <time>2016-12-28T12:15:28Z</time>
      </trkpt>
      <trkpt lat="42.82892" lon="1.43153">
        <ele>2007</ele>
        <time>2016-12-28T12:15:34Z</time>
      </trkpt>
      <trkpt lat="42.8289" lon="1.43148">
        <ele>2006.5</ele>
        <time>2016-12-28T12:15:37Z</time>
      </trkpt>
      <trkpt lat="42.82891" lon="1.43145">
        <ele>2006.1</ele>
        <time>2016-12-28T12:15:48Z</time>
      </trkpt>
      <trkpt lat="42.82889" lon="1.43141">
        <ele>2005.6</ele>
        <time>2016-12-28T12:15:52Z</time>
      </trkpt>
      <trkpt lat="42.82887" lon="1.43137">
        <ele>2005.1</ele>
        <time>2016-12-28T12:15:54Z</time>
      </trkpt>
      <trkpt lat="42.82886" lon="1.43133">
        <ele>2004.6</ele>
        <time>2016-12-28T12:15:57Z</time>
      </trkpt>
      <trkpt lat="42.82884" lon="1.43129">
        <ele>2004.1</ele>
        <time>2016-12-28T12:16:12Z</time>
      </trkpt>
      <trkpt lat="42.82883" lon="1.43124">
        <ele>2003.6</ele>
        <time>2016-12-28T12:16:20Z</time>
      </trkpt>
      <trkpt lat="42.82881" lon="1.43121">
        <ele>2003.2</ele>
        <time>2016-12-28T12:16:26Z</time>
      </trkpt>
      <trkpt lat="42.82879" lon="1.43118">
        <ele>2002.7</ele>
        <time>2016-12-28T12:16:29Z</time>
      </trkpt>
      <trkpt lat="42.82877" lon="1.43115">
        <ele>2002.2</ele>
        <time>2016-12-28T12:16:33Z</time>
      </trkpt>
      <trkpt lat="42.82875" lon="1.43111">
        <ele>2001.8</ele>
        <time>2016-12-28T12:16:37Z</time>
      </trkpt>
      <trkpt lat="42.82875" lon="1.43107">
        <ele>2001.4</ele>
        <time>2016-12-28T12:16:39Z</time>
      </trkpt>
      <trkpt lat="42.82876" lon="1.43102">
        <ele>2000.8</ele>
        <time>2016-12-28T12:16:46Z</time>
      </trkpt>
      <trkpt lat="42.82873" lon="1.43099">
        <ele>2000.3</ele>
        <time>2016-12-28T12:16:55Z</time>
      </trkpt>
      <trkpt lat="42.82872" lon="1.43094">
        <ele>1999.8</ele>
        <time>2016-12-28T12:16:59Z</time>
      </trkpt>
      <trkpt lat="42.82871" lon="1.4309">
        <ele>1999.3</ele>
        <time>2016-12-28T12:17:02Z</time>
      </trkpt>
      <trkpt lat="42.8287" lon="1.43086">
        <ele>1998.9</ele>
        <time>2016-12-28T12:17:05Z</time>
      </trkpt>
      <trkpt lat="42.82868" lon="1.43083">
        <ele>1998.4</ele>
        <time>2016-12-28T12:17:09Z</time>
      </trkpt>
      <trkpt lat="42.82865" lon="1.4308">
        <ele>1997.9</ele>
        <time>2016-12-28T12:17:12Z</time>
      </trkpt>
      <trkpt lat="42.82864" lon="1.43076">
        <ele>1997.4</ele>
        <time>2016-12-28T12:17:14Z</time>
      </trkpt>
      <trkpt lat="42.82863" lon="1.43072">
        <ele>1997</ele>
        <time>2016-12-28T12:17:16Z</time>
      </trkpt>
      <trkpt lat="42.8286" lon="1.43069">
        <ele>1996.4</ele>
        <time>2016-12-28T12:17:20Z</time>
      </trkpt>
      <trkpt lat="42.8286" lon="1.43064">
        <ele>1996</ele>
        <time>2016-12-28T12:17:22Z</time>
      </trkpt>
      <trkpt lat="42.82859" lon="1.4306">
        <ele>1995.6</ele>
        <time>2016-12-28T12:17:27Z</time>
      </trkpt>
      <trkpt lat="42.82857" lon="1.43057">
        <ele>1995</ele>
        <time>2016-12-28T12:17:29Z</time>
      </trkpt>
      <trkpt lat="42.82855" lon="1.43052">
        <ele>1994.4</ele>
        <time>2016-12-28T12:17:31Z</time>
      </trkpt>
      <trkpt lat="42.82852" lon="1.43051">
        <ele>1994</ele>
        <time>2016-12-28T12:17:53Z</time>
      </trkpt>
      <trkpt lat="42.8285" lon="1.43048">
        <ele>1993.6</ele>
        <time>2016-12-28T12:17:56Z</time>
      </trkpt>
      <trkpt lat="42.82847" lon="1.43047">
        <ele>1993.2</ele>
        <time>2016-12-28T12:18:03Z</time>
      </trkpt>
      <trkpt lat="42.82845" lon="1.4304">
        <ele>1992.3</ele>
        <time>2016-12-28T12:18:08Z</time>
      </trkpt>
      <trkpt lat="42.82844" lon="1.43036">
        <ele>1991.9</ele>
        <time>2016-12-28T12:18:11Z</time>
      </trkpt>
      <trkpt lat="42.82843" lon="1.4303">
        <ele>1991.3</ele>
        <time>2016-12-28T12:18:15Z</time>
      </trkpt>
      <trkpt lat="42.82842" lon="1.43025">
        <ele>1990.7</ele>
        <time>2016-12-28T12:18:22Z</time>
      </trkpt>
      <trkpt lat="42.82841" lon="1.43029">
        <ele>1990.3</ele>
        <time>2016-12-28T12:18:25Z</time>
      </trkpt>
      <trkpt lat="42.82839" lon="1.43025">
        <ele>1989.8</ele>
        <time>2016-12-28T12:18:28Z</time>
      </trkpt>
      <trkpt lat="42.82838" lon="1.43021">
        <ele>1989.4</ele>
        <time>2016-12-28T12:18:32Z</time>
      </trkpt>
      <trkpt lat="42.82839" lon="1.43016">
        <ele>1988.8</ele>
        <time>2016-12-28T12:18:39Z</time>
      </trkpt>
      <trkpt lat="42.82839" lon="1.43013">
        <ele>1988.4</ele>
        <time>2016-12-28T12:18:44Z</time>
      </trkpt>
      <trkpt lat="42.82836" lon="1.4301">
        <ele>1987.9</ele>
        <time>2016-12-28T12:18:49Z</time>
      </trkpt>
      <trkpt lat="42.82835" lon="1.43006">
        <ele>1987.5</ele>
        <time>2016-12-28T12:18:51Z</time>
      </trkpt>
      <trkpt lat="42.82833" lon="1.43003">
        <ele>1987.1</ele>
        <time>2016-12-28T12:18:53Z</time>
      </trkpt>
      <trkpt lat="42.82832" lon="1.42999">
        <ele>1986.6</ele>
        <time>2016-12-28T12:18:56Z</time>
      </trkpt>
      <trkpt lat="42.82829" lon="1.42996">
        <ele>1986.1</ele>
        <time>2016-12-28T12:18:58Z</time>
      </trkpt>
      <trkpt lat="42.82827" lon="1.42997">
        <ele>1985.7</ele>
        <time>2016-12-28T12:19:15Z</time>
      </trkpt>
      <trkpt lat="42.82823" lon="1.42994">
        <ele>1985.2</ele>
        <time>2016-12-28T12:19:39Z</time>
      </trkpt>
      <trkpt lat="42.82822" lon="1.42991">
        <ele>1984.7</ele>
        <time>2016-12-28T12:19:41Z</time>
      </trkpt>
      <trkpt lat="42.82819" lon="1.42988">
        <ele>1984.2</ele>
        <time>2016-12-28T12:19:49Z</time>
      </trkpt>
      <trkpt lat="42.82816" lon="1.42984">
        <ele>1983.6</ele>
        <time>2016-12-28T12:19:59Z</time>
      </trkpt>
      <trkpt lat="42.82813" lon="1.42979">
        <ele>1982.9</ele>
        <time>2016-12-28T12:20:41Z</time>
      </trkpt>
      <trkpt lat="42.82811" lon="1.4298">
        <ele>1982.5</ele>
        <time>2016-12-28T12:20:47Z</time>
      </trkpt>
      <trkpt lat="42.82809" lon="1.42976">
        <ele>1982.1</ele>
        <time>2016-12-28T12:20:53Z</time>
      </trkpt>
      <trkpt lat="42.82809" lon="1.42972">
        <ele>1981.6</ele>
        <time>2016-12-28T12:20:56Z</time>
      </trkpt>
      <trkpt lat="42.82807" lon="1.42968">
        <ele>1981.1</ele>
        <time>2016-12-28T12:20:59Z</time>
      </trkpt>
      <trkpt lat="42.82806" lon="1.42965">
        <ele>1980.7</ele>
        <time>2016-12-28T12:21:02Z</time>
      </trkpt>
      <trkpt lat="42.82805" lon="1.42961">
        <ele>1980.3</ele>
        <time>2016-12-28T12:21:13Z</time>
      </trkpt>
      <trkpt lat="42.82803" lon="1.42956">
        <ele>1979.7</ele>
        <time>2016-12-28T12:21:18Z</time>
      </trkpt>
      <trkpt lat="42.82803" lon="1.42951">
        <ele>1979.1</ele>
        <time>2016-12-28T12:21:21Z</time>
      </trkpt>
      <trkpt lat="42.828" lon="1.42949">
        <ele>1978.7</ele>
        <time>2016-12-28T12:21:24Z</time>
      </trkpt>
      <trkpt lat="42.828" lon="1.42954">
        <ele>1978.2</ele>
        <time>2016-12-28T12:21:25Z</time>
      </trkpt>
      <trkpt lat="42.82798" lon="1.42951">
        <ele>1977.8</ele>
        <time>2016-12-28T12:21:35Z</time>
      </trkpt>
      <trkpt lat="42.82795" lon="1.42948">
        <ele>1977.3</ele>
        <time>2016-12-28T12:21:40Z</time>
      </trkpt>
      <trkpt lat="42.82793" lon="1.42945">
        <ele>1976.9</ele>
        <time>2016-12-28T12:21:45Z</time>
      </trkpt>
      <trkpt lat="42.82791" lon="1.42943">
        <ele>1976.5</ele>
        <time>2016-12-28T12:21:49Z</time>
      </trkpt>
      <trkpt lat="42.82789" lon="1.42941">
        <ele>1976</ele>
        <time>2016-12-28T12:21:53Z</time>
      </trkpt>
      <trkpt lat="42.82786" lon="1.42938">
        <ele>1975.6</ele>
        <time>2016-12-28T12:21:56Z</time>
      </trkpt>
      <trkpt lat="42.82785" lon="1.42934">
        <ele>1975.1</ele>
        <time>2016-12-28T12:22:00Z</time>
      </trkpt>
      <trkpt lat="42.82782" lon="1.42931">
        <ele>1974.7</ele>
        <time>2016-12-28T12:22:04Z</time>
      </trkpt>
      <trkpt lat="42.82779" lon="1.42932">
        <ele>1974.2</ele>
        <time>2016-12-28T12:22:08Z</time>
      </trkpt>
      <trkpt lat="42.82776" lon="1.42931">
        <ele>1973.8</ele>
        <time>2016-12-28T12:22:12Z</time>
      </trkpt>
      <trkpt lat="42.82774" lon="1.4293">
        <ele>1973.4</ele>
        <time>2016-12-28T12:22:16Z</time>
      </trkpt>
      <trkpt lat="42.82771" lon="1.4293">
        <ele>1973</ele>
        <time>2016-12-28T12:22:21Z</time>
      </trkpt>
      <trkpt lat="42.82769" lon="1.42934">
        <ele>1972.5</ele>
        <time>2016-12-28T12:22:25Z</time>
      </trkpt>
      <trkpt lat="42.82766" lon="1.42935">
        <ele>1972</ele>
        <time>2016-12-28T12:22:31Z</time>
      </trkpt>
      <trkpt lat="42.82763" lon="1.42934">
        <ele>1971.5</ele>
        <time>2016-12-28T12:22:35Z</time>
      </trkpt>
      <trkpt lat="42.8276" lon="1.42931">
        <ele>1971</ele>
        <time>2016-12-28T12:22:39Z</time>
      </trkpt>
      <trkpt lat="42.82759" lon="1.42927">
        <ele>1970.5</ele>
        <time>2016-12-28T12:22:43Z</time>
      </trkpt>
      <trkpt lat="42.82756" lon="1.42924">
        <ele>1970.1</ele>
        <time>2016-12-28T12:22:45Z</time>
      </trkpt>
      <trkpt lat="42.82754" lon="1.42924">
        <ele>1969.7</ele>
        <time>2016-12-28T12:22:50Z</time>
      </trkpt>
      <trkpt lat="42.8275" lon="1.42921">
        <ele>1969.1</ele>
        <time>2016-12-28T12:22:55Z</time>
      </trkpt>
      <trkpt lat="42.8275" lon="1.42917">
        <ele>1968.7</ele>
        <time>2016-12-28T12:23:02Z</time>
      </trkpt>
      <trkpt lat="42.82749" lon="1.42914">
        <ele>1968.3</ele>
        <time>2016-12-28T12:23:16Z</time>
      </trkpt>
      <trkpt lat="42.82749" lon="1.42909">
        <ele>1967.8</ele>
        <time>2016-12-28T12:23:19Z</time>
      </trkpt>
      <trkpt lat="42.8275" lon="1.42905">
        <ele>1967.4</ele>
        <time>2016-12-28T12:23:22Z</time>
      </trkpt>
      <trkpt lat="42.8275" lon="1.429">
        <ele>1966.9</ele>
        <time>2016-12-28T12:23:27Z</time>
      </trkpt>
      <trkpt lat="42.82748" lon="1.42899">
        <ele>1966.5</ele>
        <time>2016-12-28T12:23:42Z</time>
      </trkpt>
      <trkpt lat="42.82745" lon="1.429">
        <ele>1966</ele>
        <time>2016-12-28T12:23:46Z</time>
      </trkpt>
      <trkpt lat="42.82742" lon="1.42896">
        <ele>1965.5</ele>
        <time>2016-12-28T12:23:52Z</time>
      </trkpt>
      <trkpt lat="42.8274" lon="1.42893">
        <ele>1965</ele>
        <time>2016-12-28T12:23:55Z</time>
      </trkpt>
      <trkpt lat="42.82739" lon="1.42889">
        <ele>1964.6</ele>
        <time>2016-12-28T12:23:57Z</time>
      </trkpt>
      <trkpt lat="42.82737" lon="1.42886">
        <ele>1964.1</ele>
        <time>2016-12-28T12:24:00Z</time>
      </trkpt>
      <trkpt lat="42.82734" lon="1.42879">
        <ele>1963.3</ele>
        <time>2016-12-28T12:24:05Z</time>
      </trkpt>
      <trkpt lat="42.8273" lon="1.42878">
        <ele>1962.8</ele>
        <time>2016-12-28T12:24:07Z</time>
      </trkpt>
      <trkpt lat="42.82728" lon="1.42873">
        <ele>1962.1</ele>
        <time>2016-12-28T12:24:11Z</time>
      </trkpt>
      <trkpt lat="42.82726" lon="1.42869">
        <ele>1961.6</ele>
        <time>2016-12-28T12:24:13Z</time>
      </trkpt>
      <trkpt lat="42.82724" lon="1.42863">
        <ele>1961</ele>
        <time>2016-12-28T12:24:16Z</time>
      </trkpt>
      <trkpt lat="42.82723" lon="1.42858">
        <ele>1960.3</ele>
        <time>2016-12-28T12:24:18Z</time>
      </trkpt>
      <trkpt lat="42.82721" lon="1.42854">
        <ele>1959.9</ele>
        <time>2016-12-28T12:24:20Z</time>
      </trkpt>
      <trkpt lat="42.82721" lon="1.42849">
        <ele>1959.3</ele>
        <time>2016-12-28T12:24:21Z</time>
      </trkpt>
      <trkpt lat="42.82719" lon="1.42844">
        <ele>1958.8</ele>
        <time>2016-12-28T12:24:22Z</time>
      </trkpt>
      <trkpt lat="42.82719" lon="1.4284">
        <ele>1958.3</ele>
        <time>2016-12-28T12:24:23Z</time>
      </trkpt>
      <trkpt lat="42.82717" lon="1.42837">
        <ele>1957.9</ele>
        <time>2016-12-28T12:24:28Z</time>
      </trkpt>
      <trkpt lat="42.82715" lon="1.42832">
        <ele>1957.4</ele>
        <time>2016-12-28T12:24:30Z</time>
      </trkpt>
      <trkpt lat="42.82714" lon="1.42828">
        <ele>1956.9</ele>
        <time>2016-12-28T12:24:32Z</time>
      </trkpt>
      <trkpt lat="42.82713" lon="1.42823">
        <ele>1956.4</ele>
        <time>2016-12-28T12:24:36Z</time>
      </trkpt>
      <trkpt lat="42.82712" lon="1.42818">
        <ele>1955.8</ele>
        <time>2016-12-28T12:24:38Z</time>
      </trkpt>
      <trkpt lat="42.82711" lon="1.42813">
        <ele>1955.2</ele>
        <time>2016-12-28T12:24:40Z</time>
      </trkpt>
      <trkpt lat="42.82711" lon="1.42808">
        <ele>1954.7</ele>
        <time>2016-12-28T12:24:42Z</time>
      </trkpt>
      <trkpt lat="42.8271" lon="1.42805">
        <ele>1954.3</ele>
        <time>2016-12-28T12:24:44Z</time>
      </trkpt>
      <trkpt lat="42.82709" lon="1.42799">
        <ele>1953.6</ele>
        <time>2016-12-28T12:24:47Z</time>
      </trkpt>
      <trkpt lat="42.82708" lon="1.42793">
        <ele>1953</ele>
        <time>2016-12-28T12:24:49Z</time>
      </trkpt>
      <trkpt lat="42.82707" lon="1.42786">
        <ele>1952.2</ele>
        <time>2016-12-28T12:24:51Z</time>
      </trkpt>
      <trkpt lat="42.82706" lon="1.4278">
        <ele>1951.6</ele>
        <time>2016-12-28T12:24:53Z</time>
      </trkpt>
      <trkpt lat="42.82704" lon="1.42778">
        <ele>1951.2</ele>
        <time>2016-12-28T12:24:58Z</time>
      </trkpt>
      <trkpt lat="42.82702" lon="1.42773">
        <ele>1950.7</ele>
        <time>2016-12-28T12:25:00Z</time>
      </trkpt>
      <trkpt lat="42.82702" lon="1.42768">
        <ele>1950.1</ele>
        <time>2016-12-28T12:25:02Z</time>
      </trkpt>
      <trkpt lat="42.82701" lon="1.42764">
        <ele>1949.7</ele>
        <time>2016-12-28T12:25:06Z</time>
      </trkpt>
      <trkpt lat="42.82699" lon="1.42759">
        <ele>1949</ele>
        <time>2016-12-28T12:25:09Z</time>
      </trkpt>
      <trkpt lat="42.82697" lon="1.42755">
        <ele>1948.6</ele>
        <time>2016-12-28T12:25:11Z</time>
      </trkpt>
      <trkpt lat="42.82696" lon="1.42751">
        <ele>1948.1</ele>
        <time>2016-12-28T12:25:14Z</time>
      </trkpt>
      <trkpt lat="42.82694" lon="1.42748">
        <ele>1947.7</ele>
        <time>2016-12-28T12:25:16Z</time>
      </trkpt>
      <trkpt lat="42.82694" lon="1.42743">
        <ele>1947.1</ele>
        <time>2016-12-28T12:25:18Z</time>
      </trkpt>
      <trkpt lat="42.82693" lon="1.42738">
        <ele>1946.6</ele>
        <time>2016-12-28T12:25:20Z</time>
      </trkpt>
      <trkpt lat="42.82693" lon="1.42734">
        <ele>1946.2</ele>
        <time>2016-12-28T12:25:25Z</time>
      </trkpt>
      <trkpt lat="42.82694" lon="1.4273">
        <ele>1945.8</ele>
        <time>2016-12-28T12:25:29Z</time>
      </trkpt>
      <trkpt lat="42.82693" lon="1.42725">
        <ele>1945.2</ele>
        <time>2016-12-28T12:25:36Z</time>
      </trkpt>
      <trkpt lat="42.82693" lon="1.42721">
        <ele>1944.8</ele>
        <time>2016-12-28T12:25:40Z</time>
      </trkpt>
      <trkpt lat="42.82693" lon="1.42715">
        <ele>1944.2</ele>
        <time>2016-12-28T12:25:43Z</time>
      </trkpt>
      <trkpt lat="42.82693" lon="1.42711">
        <ele>1943.7</ele>
        <time>2016-12-28T12:25:46Z</time>
      </trkpt>
      <trkpt lat="42.82692" lon="1.42706">
        <ele>1943.2</ele>
        <time>2016-12-28T12:25:49Z</time>
      </trkpt>
      <trkpt lat="42.8269" lon="1.42702">
        <ele>1942.6</ele>
        <time>2016-12-28T12:25:57Z</time>
      </trkpt>
      <trkpt lat="42.82689" lon="1.42697">
        <ele>1942.1</ele>
        <time>2016-12-28T12:25:59Z</time>
      </trkpt>
      <trkpt lat="42.82688" lon="1.42693">
        <ele>1941.7</ele>
        <time>2016-12-28T12:26:01Z</time>
      </trkpt>
      <trkpt lat="42.82686" lon="1.4269">
        <ele>1941.1</ele>
        <time>2016-12-28T12:26:05Z</time>
      </trkpt>
      <trkpt lat="42.82685" lon="1.42686">
        <ele>1940.7</ele>
        <time>2016-12-28T12:26:07Z</time>
      </trkpt>
      <trkpt lat="42.82684" lon="1.42681">
        <ele>1940.2</ele>
        <time>2016-12-28T12:26:10Z</time>
      </trkpt>
      <trkpt lat="42.82684" lon="1.42676">
        <ele>1939.6</ele>
        <time>2016-12-28T12:26:13Z</time>
      </trkpt>
      <trkpt lat="42.82683" lon="1.42671">
        <ele>1939.1</ele>
        <time>2016-12-28T12:26:15Z</time>
      </trkpt>
      <trkpt lat="42.82682" lon="1.42667">
        <ele>1938.6</ele>
        <time>2016-12-28T12:26:17Z</time>
      </trkpt>
      <trkpt lat="42.8268" lon="1.42666">
        <ele>1938.2</ele>
        <time>2016-12-28T12:26:20Z</time>
      </trkpt>
      <trkpt lat="42.82679" lon="1.4266">
        <ele>1937.6</ele>
        <time>2016-12-28T12:26:23Z</time>
      </trkpt>
      <trkpt lat="42.82677" lon="1.42657">
        <ele>1937.2</ele>
        <time>2016-12-28T12:26:25Z</time>
      </trkpt>
      <trkpt lat="42.82677" lon="1.42653">
        <ele>1936.8</ele>
        <time>2016-12-28T12:26:27Z</time>
      </trkpt>
      <trkpt lat="42.82675" lon="1.4265">
        <ele>1936.4</ele>
        <time>2016-12-28T12:26:32Z</time>
      </trkpt>
      <trkpt lat="42.82673" lon="1.42644">
        <ele>1935.7</ele>
        <time>2016-12-28T12:26:35Z</time>
      </trkpt>
      <trkpt lat="42.82673" lon="1.4264">
        <ele>1935.2</ele>
        <time>2016-12-28T12:26:57Z</time>
      </trkpt>
      <trkpt lat="42.82671" lon="1.42637">
        <ele>1934.7</ele>
        <time>2016-12-28T12:27:08Z</time>
      </trkpt>
      <trkpt lat="42.8267" lon="1.42633">
        <ele>1934.2</ele>
        <time>2016-12-28T12:27:12Z</time>
      </trkpt>
      <trkpt lat="42.82669" lon="1.42629">
        <ele>1933.8</ele>
        <time>2016-12-28T12:27:13Z</time>
      </trkpt>
      <trkpt lat="42.82664" lon="1.42629">
        <ele>1933.1</ele>
        <time>2016-12-28T12:27:16Z</time>
      </trkpt>
      <trkpt lat="42.82662" lon="1.42626">
        <ele>1932.6</ele>
        <time>2016-12-28T12:27:18Z</time>
      </trkpt>
      <trkpt lat="42.8266" lon="1.42621">
        <ele>1932.1</ele>
        <time>2016-12-28T12:27:20Z</time>
      </trkpt>
      <trkpt lat="42.82658" lon="1.42617">
        <ele>1931.5</ele>
        <time>2016-12-28T12:27:22Z</time>
      </trkpt>
      <trkpt lat="42.82656" lon="1.42613">
        <ele>1931</ele>
        <time>2016-12-28T12:27:24Z</time>
      </trkpt>
      <trkpt lat="42.82654" lon="1.4261">
        <ele>1930.5</ele>
        <time>2016-12-28T12:27:27Z</time>
      </trkpt>
      <trkpt lat="42.82653" lon="1.42605">
        <ele>1930</ele>
        <time>2016-12-28T12:27:31Z</time>
      </trkpt>
      <trkpt lat="42.82651" lon="1.426">
        <ele>1929.4</ele>
        <time>2016-12-28T12:27:33Z</time>
      </trkpt>
      <trkpt lat="42.82649" lon="1.42597">
        <ele>1929</ele>
        <time>2016-12-28T12:27:35Z</time>
      </trkpt>
      <trkpt lat="42.82647" lon="1.42592">
        <ele>1928.4</ele>
        <time>2016-12-28T12:27:38Z</time>
      </trkpt>
      <trkpt lat="42.82645" lon="1.42588">
        <ele>1927.9</ele>
        <time>2016-12-28T12:27:41Z</time>
      </trkpt>
      <trkpt lat="42.82646" lon="1.42583">
        <ele>1927.3</ele>
        <time>2016-12-28T12:27:43Z</time>
      </trkpt>
      <trkpt lat="42.82644" lon="1.4258">
        <ele>1926.9</ele>
        <time>2016-12-28T12:27:47Z</time>
      </trkpt>
      <trkpt lat="42.8264" lon="1.42579">
        <ele>1926.3</ele>
        <time>2016-12-28T12:27:49Z</time>
      </trkpt>
      <trkpt lat="42.82638" lon="1.42574">
        <ele>1925.8</ele>
        <time>2016-12-28T12:27:52Z</time>
      </trkpt>
      <trkpt lat="42.82637" lon="1.42571">
        <ele>1925.4</ele>
        <time>2016-12-28T12:27:56Z</time>
      </trkpt>
      <trkpt lat="42.82634" lon="1.42568">
        <ele>1924.9</ele>
        <time>2016-12-28T12:27:59Z</time>
      </trkpt>
      <trkpt lat="42.82632" lon="1.42564">
        <ele>1924.4</ele>
        <time>2016-12-28T12:28:02Z</time>
      </trkpt>
      <trkpt lat="42.82631" lon="1.42561">
        <ele>1923.9</ele>
        <time>2016-12-28T12:28:04Z</time>
      </trkpt>
      <trkpt lat="42.8263" lon="1.42556">
        <ele>1923.5</ele>
        <time>2016-12-28T12:28:05Z</time>
      </trkpt>
      <trkpt lat="42.82629" lon="1.42553">
        <ele>1923.1</ele>
        <time>2016-12-28T12:28:07Z</time>
      </trkpt>
      <trkpt lat="42.82626" lon="1.42552">
        <ele>1922.7</ele>
        <time>2016-12-28T12:28:11Z</time>
      </trkpt>
      <trkpt lat="42.82625" lon="1.42547">
        <ele>1922.1</ele>
        <time>2016-12-28T12:28:15Z</time>
      </trkpt>
      <trkpt lat="42.82622" lon="1.42543">
        <ele>1921.6</ele>
        <time>2016-12-28T12:28:18Z</time>
      </trkpt>
      <trkpt lat="42.8262" lon="1.4254">
        <ele>1921.2</ele>
        <time>2016-12-28T12:28:21Z</time>
      </trkpt>
      <trkpt lat="42.82617" lon="1.42537">
        <ele>1920.6</ele>
        <time>2016-12-28T12:28:24Z</time>
      </trkpt>
      <trkpt lat="42.82615" lon="1.42531">
        <ele>1919.9</ele>
        <time>2016-12-28T12:28:27Z</time>
      </trkpt>
      <trkpt lat="42.82613" lon="1.42527">
        <ele>1919.4</ele>
        <time>2016-12-28T12:28:29Z</time>
      </trkpt>
      <trkpt lat="42.82611" lon="1.42523">
        <ele>1918.9</ele>
        <time>2016-12-28T12:28:33Z</time>
      </trkpt>
      <trkpt lat="42.82611" lon="1.42519">
        <ele>1918.5</ele>
        <time>2016-12-28T12:28:43Z</time>
      </trkpt>
      <trkpt lat="42.8261" lon="1.42513">
        <ele>1917.9</ele>
        <time>2016-12-28T12:28:46Z</time>
      </trkpt>
      <trkpt lat="42.82608" lon="1.4251">
        <ele>1917.4</ele>
        <time>2016-12-28T12:28:49Z</time>
      </trkpt>
      <trkpt lat="42.82608" lon="1.42505">
        <ele>1916.9</ele>
        <time>2016-12-28T12:28:51Z</time>
      </trkpt>
      <trkpt lat="42.82604" lon="1.42502">
        <ele>1916.3</ele>
        <time>2016-12-28T12:28:53Z</time>
      </trkpt>
      <trkpt lat="42.826" lon="1.42498">
        <ele>1915.6</ele>
        <time>2016-12-28T12:28:56Z</time>
      </trkpt>
      <trkpt lat="42.82598" lon="1.42496">
        <ele>1915.1</ele>
        <time>2016-12-28T12:29:05Z</time>
      </trkpt>
      <trkpt lat="42.82598" lon="1.4249">
        <ele>1914.5</ele>
        <time>2016-12-28T12:29:07Z</time>
      </trkpt>
      <trkpt lat="42.82595" lon="1.42485">
        <ele>1913.9</ele>
        <time>2016-12-28T12:29:09Z</time>
      </trkpt>
      <trkpt lat="42.82592" lon="1.42483">
        <ele>1913.4</ele>
        <time>2016-12-28T12:29:11Z</time>
      </trkpt>
      <trkpt lat="42.82588" lon="1.4248">
        <ele>1912.7</ele>
        <time>2016-12-28T12:29:15Z</time>
      </trkpt>
      <trkpt lat="42.82585" lon="1.42477">
        <ele>1912.2</ele>
        <time>2016-12-28T12:29:17Z</time>
      </trkpt>
      <trkpt lat="42.82583" lon="1.42474">
        <ele>1911.8</ele>
        <time>2016-12-28T12:29:20Z</time>
      </trkpt>
      <trkpt lat="42.82582" lon="1.42469">
        <ele>1911.3</ele>
        <time>2016-12-28T12:29:22Z</time>
      </trkpt>
      <trkpt lat="42.82581" lon="1.42465">
        <ele>1910.8</ele>
        <time>2016-12-28T12:29:24Z</time>
      </trkpt>
      <trkpt lat="42.82582" lon="1.4246">
        <ele>1910.3</ele>
        <time>2016-12-28T12:29:27Z</time>
      </trkpt>
      <trkpt lat="42.8258" lon="1.42457">
        <ele>1909.9</ele>
        <time>2016-12-28T12:29:30Z</time>
      </trkpt>
      <trkpt lat="42.82581" lon="1.42453">
        <ele>1909.4</ele>
        <time>2016-12-28T12:29:36Z</time>
      </trkpt>
      <trkpt lat="42.82582" lon="1.4245">
        <ele>1909</ele>
        <time>2016-12-28T12:29:40Z</time>
      </trkpt>
      <trkpt lat="42.82583" lon="1.42445">
        <ele>1908.5</ele>
        <time>2016-12-28T12:29:43Z</time>
      </trkpt>
      <trkpt lat="42.82585" lon="1.42443">
        <ele>1908.1</ele>
        <time>2016-12-28T12:29:46Z</time>
      </trkpt>
      <trkpt lat="42.82582" lon="1.42439">
        <ele>1907.6</ele>
        <time>2016-12-28T12:29:59Z</time>
      </trkpt>
      <trkpt lat="42.82581" lon="1.42435">
        <ele>1907.1</ele>
        <time>2016-12-28T12:30:03Z</time>
      </trkpt>
      <trkpt lat="42.82579" lon="1.4243">
        <ele>1906.5</ele>
        <time>2016-12-28T12:30:06Z</time>
      </trkpt>
      <trkpt lat="42.82579" lon="1.42426">
        <ele>1906</ele>
        <time>2016-12-28T12:30:09Z</time>
      </trkpt>
      <trkpt lat="42.8258" lon="1.42422">
        <ele>1905.6</ele>
        <time>2016-12-28T12:30:13Z</time>
      </trkpt>
      <trkpt lat="42.8258" lon="1.42418">
        <ele>1905.1</ele>
        <time>2016-12-28T12:30:18Z</time>
      </trkpt>
      <trkpt lat="42.82581" lon="1.42414">
        <ele>1904.7</ele>
        <time>2016-12-28T12:30:27Z</time>
      </trkpt>
      <trkpt lat="42.82581" lon="1.4241">
        <ele>1904.3</ele>
        <time>2016-12-28T12:30:31Z</time>
      </trkpt>
      <trkpt lat="42.82581" lon="1.42406">
        <ele>1903.9</ele>
        <time>2016-12-28T12:30:39Z</time>
      </trkpt>
      <trkpt lat="42.8258" lon="1.42403">
        <ele>1903.5</ele>
        <time>2016-12-28T12:30:42Z</time>
      </trkpt>
      <trkpt lat="42.82579" lon="1.42399">
        <ele>1903.1</ele>
        <time>2016-12-28T12:31:23Z</time>
      </trkpt>
      <trkpt lat="42.82578" lon="1.42395">
        <ele>1902.6</ele>
        <time>2016-12-28T12:31:27Z</time>
      </trkpt>
      <trkpt lat="42.82577" lon="1.42391">
        <ele>1902.1</ele>
        <time>2016-12-28T12:31:32Z</time>
      </trkpt>
      <trkpt lat="42.82575" lon="1.42387">
        <ele>1901.6</ele>
        <time>2016-12-28T12:31:35Z</time>
      </trkpt>
      <trkpt lat="42.82576" lon="1.42383">
        <ele>1901.2</ele>
        <time>2016-12-28T12:31:39Z</time>
      </trkpt>
      <trkpt lat="42.82576" lon="1.42379">
        <ele>1900.7</ele>
        <time>2016-12-28T12:31:41Z</time>
      </trkpt>
      <trkpt lat="42.82574" lon="1.42376">
        <ele>1900.3</ele>
        <time>2016-12-28T12:31:45Z</time>
      </trkpt>
      <trkpt lat="42.82575" lon="1.42371">
        <ele>1899.7</ele>
        <time>2016-12-28T12:31:47Z</time>
      </trkpt>
      <trkpt lat="42.82572" lon="1.42368">
        <ele>1899.2</ele>
        <time>2016-12-28T12:31:50Z</time>
      </trkpt>
      <trkpt lat="42.82572" lon="1.42362">
        <ele>1898.6</ele>
        <time>2016-12-28T12:31:53Z</time>
      </trkpt>
      <trkpt lat="42.82575" lon="1.42366">
        <ele>1897.9</ele>
        <time>2016-12-28T12:31:55Z</time>
      </trkpt>
      <trkpt lat="42.82574" lon="1.42362">
        <ele>1897.5</ele>
        <time>2016-12-28T12:31:56Z</time>
      </trkpt>
      <trkpt lat="42.82572" lon="1.42365">
        <ele>1897.1</ele>
        <time>2016-12-28T12:32:00Z</time>
      </trkpt>
      <trkpt lat="42.8257" lon="1.42362">
        <ele>1896.6</ele>
        <time>2016-12-28T12:32:02Z</time>
      </trkpt>
      <trkpt lat="42.82565" lon="1.42353">
        <ele>1895.4</ele>
        <time>2016-12-28T12:32:04Z</time>
      </trkpt>
      <trkpt lat="42.82563" lon="1.42349">
        <ele>1894.9</ele>
        <time>2016-12-28T12:32:05Z</time>
      </trkpt>
      <trkpt lat="42.82565" lon="1.42345">
        <ele>1894.4</ele>
        <time>2016-12-28T12:32:08Z</time>
      </trkpt>
      <trkpt lat="42.82562" lon="1.42339">
        <ele>1893.6</ele>
        <time>2016-12-28T12:32:10Z</time>
      </trkpt>
      <trkpt lat="42.8256" lon="1.42336">
        <ele>1893.2</ele>
        <time>2016-12-28T12:32:12Z</time>
      </trkpt>
      <trkpt lat="42.82558" lon="1.42333">
        <ele>1892.8</ele>
        <time>2016-12-28T12:32:15Z</time>
      </trkpt>
      <trkpt lat="42.82555" lon="1.42329">
        <ele>1892.1</ele>
        <time>2016-12-28T12:32:17Z</time>
      </trkpt>
      <trkpt lat="42.82555" lon="1.42324">
        <ele>1891.6</ele>
        <time>2016-12-28T12:32:19Z</time>
      </trkpt>
      <trkpt lat="42.82555" lon="1.42319">
        <ele>1891</ele>
        <time>2016-12-28T12:32:22Z</time>
      </trkpt>
      <trkpt lat="42.82553" lon="1.42314">
        <ele>1890.4</ele>
        <time>2016-12-28T12:32:25Z</time>
      </trkpt>
      <trkpt lat="42.82551" lon="1.4231">
        <ele>1889.9</ele>
        <time>2016-12-28T12:32:27Z</time>
      </trkpt>
      <trkpt lat="42.8255" lon="1.42305">
        <ele>1889.4</ele>
        <time>2016-12-28T12:32:30Z</time>
      </trkpt>
      <trkpt lat="42.82548" lon="1.42299">
        <ele>1888.7</ele>
        <time>2016-12-28T12:32:33Z</time>
      </trkpt>
      <trkpt lat="42.82547" lon="1.42295">
        <ele>1888.2</ele>
        <time>2016-12-28T12:32:35Z</time>
      </trkpt>
      <trkpt lat="42.82545" lon="1.42292">
        <ele>1887.8</ele>
        <time>2016-12-28T12:32:38Z</time>
      </trkpt>
      <trkpt lat="42.82544" lon="1.42288">
        <ele>1887.4</ele>
        <time>2016-12-28T12:32:40Z</time>
      </trkpt>
      <trkpt lat="42.82542" lon="1.42284">
        <ele>1886.8</ele>
        <time>2016-12-28T12:32:42Z</time>
      </trkpt>
      <trkpt lat="42.82539" lon="1.42279">
        <ele>1886.2</ele>
        <time>2016-12-28T12:32:46Z</time>
      </trkpt>
      <trkpt lat="42.82536" lon="1.42274">
        <ele>1885.4</ele>
        <time>2016-12-28T12:32:48Z</time>
      </trkpt>
      <trkpt lat="42.82534" lon="1.42269">
        <ele>1884.8</ele>
        <time>2016-12-28T12:32:50Z</time>
      </trkpt>
      <trkpt lat="42.82533" lon="1.42263">
        <ele>1884.2</ele>
        <time>2016-12-28T12:32:53Z</time>
      </trkpt>
      <trkpt lat="42.8253" lon="1.4226">
        <ele>1883.6</ele>
        <time>2016-12-28T12:32:56Z</time>
      </trkpt>
      <trkpt lat="42.82528" lon="1.42255">
        <ele>1883</ele>
        <time>2016-12-28T12:32:59Z</time>
      </trkpt>
      <trkpt lat="42.82527" lon="1.4225">
        <ele>1882.4</ele>
        <time>2016-12-28T12:33:02Z</time>
      </trkpt>
      <trkpt lat="42.82524" lon="1.42246">
        <ele>1881.9</ele>
        <time>2016-12-28T12:33:05Z</time>
      </trkpt>
      <trkpt lat="42.82522" lon="1.42241">
        <ele>1881.3</ele>
        <time>2016-12-28T12:33:08Z</time>
      </trkpt>
      <trkpt lat="42.82521" lon="1.42235">
        <ele>1880.7</ele>
        <time>2016-12-28T12:33:11Z</time>
      </trkpt>
      <trkpt lat="42.82519" lon="1.4223">
        <ele>1880</ele>
        <time>2016-12-28T12:33:16Z</time>
      </trkpt>
      <trkpt lat="42.82518" lon="1.42226">
        <ele>1879.6</ele>
        <time>2016-12-28T12:33:18Z</time>
      </trkpt>
      <trkpt lat="42.82515" lon="1.42223">
        <ele>1879</ele>
        <time>2016-12-28T12:33:20Z</time>
      </trkpt>
      <trkpt lat="42.82512" lon="1.42217">
        <ele>1878.3</ele>
        <time>2016-12-28T12:33:22Z</time>
      </trkpt>
      <trkpt lat="42.82512" lon="1.42213">
        <ele>1877.8</ele>
        <time>2016-12-28T12:33:24Z</time>
      </trkpt>
      <trkpt lat="42.8251" lon="1.4221">
        <ele>1877.4</ele>
        <time>2016-12-28T12:33:26Z</time>
      </trkpt>
      <trkpt lat="42.82508" lon="1.42206">
        <ele>1876.9</ele>
        <time>2016-12-28T12:33:28Z</time>
      </trkpt>
      <trkpt lat="42.82506" lon="1.42202">
        <ele>1876.4</ele>
        <time>2016-12-28T12:33:30Z</time>
      </trkpt>
      <trkpt lat="42.82505" lon="1.42198">
        <ele>1876</ele>
        <time>2016-12-28T12:33:32Z</time>
      </trkpt>
      <trkpt lat="42.82503" lon="1.42194">
        <ele>1875.5</ele>
        <time>2016-12-28T12:33:34Z</time>
      </trkpt>
      <trkpt lat="42.82502" lon="1.4219">
        <ele>1875</ele>
        <time>2016-12-28T12:33:36Z</time>
      </trkpt>
      <trkpt lat="42.825" lon="1.42185">
        <ele>1874.4</ele>
        <time>2016-12-28T12:33:38Z</time>
      </trkpt>
      <trkpt lat="42.82498" lon="1.4218">
        <ele>1873.8</ele>
        <time>2016-12-28T12:33:43Z</time>
      </trkpt>
      <trkpt lat="42.82498" lon="1.42175">
        <ele>1873.3</ele>
        <time>2016-12-28T12:33:45Z</time>
      </trkpt>
      <trkpt lat="42.82497" lon="1.4217">
        <ele>1872.7</ele>
        <time>2016-12-28T12:33:57Z</time>
      </trkpt>
      <trkpt lat="42.82496" lon="1.42166">
        <ele>1872.2</ele>
        <time>2016-12-28T12:34:02Z</time>
      </trkpt>
      <trkpt lat="42.82494" lon="1.42163">
        <ele>1871.8</ele>
        <time>2016-12-28T12:34:03Z</time>
      </trkpt>
      <trkpt lat="42.82492" lon="1.42158">
        <ele>1871.2</ele>
        <time>2016-12-28T12:34:04Z</time>
      </trkpt>
      <trkpt lat="42.82489" lon="1.42155">
        <ele>1870.7</ele>
        <time>2016-12-28T12:34:07Z</time>
      </trkpt>
      <trkpt lat="42.82488" lon="1.42147">
        <ele>1869.9</ele>
        <time>2016-12-28T12:34:10Z</time>
      </trkpt>
      <trkpt lat="42.82486" lon="1.42143">
        <ele>1869.4</ele>
        <time>2016-12-28T12:34:13Z</time>
      </trkpt>
      <trkpt lat="42.82484" lon="1.42139">
        <ele>1868.9</ele>
        <time>2016-12-28T12:34:15Z</time>
      </trkpt>
      <trkpt lat="42.82482" lon="1.42134">
        <ele>1868.2</ele>
        <time>2016-12-28T12:34:18Z</time>
      </trkpt>
      <trkpt lat="42.82479" lon="1.42131">
        <ele>1867.7</ele>
        <time>2016-12-28T12:34:20Z</time>
      </trkpt>
      <trkpt lat="42.82477" lon="1.42128">
        <ele>1867.2</ele>
        <time>2016-12-28T12:34:22Z</time>
      </trkpt>
      <trkpt lat="42.82475" lon="1.42125">
        <ele>1866.8</ele>
        <time>2016-12-28T12:34:24Z</time>
      </trkpt>
      <trkpt lat="42.82475" lon="1.42121">
        <ele>1866.4</ele>
        <time>2016-12-28T12:34:26Z</time>
      </trkpt>
      <trkpt lat="42.82473" lon="1.42116">
        <ele>1865.8</ele>
        <time>2016-12-28T12:34:28Z</time>
      </trkpt>
      <trkpt lat="42.8247" lon="1.4211">
        <ele>1865.1</ele>
        <time>2016-12-28T12:34:30Z</time>
      </trkpt>
      <trkpt lat="42.82467" lon="1.42105">
        <ele>1864.4</ele>
        <time>2016-12-28T12:34:33Z</time>
      </trkpt>
      <trkpt lat="42.82465" lon="1.42102">
        <ele>1863.9</ele>
        <time>2016-12-28T12:34:35Z</time>
      </trkpt>
      <trkpt lat="42.82463" lon="1.42098">
        <ele>1863.4</ele>
        <time>2016-12-28T12:34:38Z</time>
      </trkpt>
      <trkpt lat="42.8246" lon="1.42095">
        <ele>1862.9</ele>
        <time>2016-12-28T12:34:42Z</time>
      </trkpt>
      <trkpt lat="42.82459" lon="1.42089">
        <ele>1862.3</ele>
        <time>2016-12-28T12:34:55Z</time>
      </trkpt>
      <trkpt lat="42.82458" lon="1.42086">
        <ele>1861.8</ele>
        <time>2016-12-28T12:34:56Z</time>
      </trkpt>
      <trkpt lat="42.82454" lon="1.42082">
        <ele>1861.2</ele>
        <time>2016-12-28T12:34:58Z</time>
      </trkpt>
      <trkpt lat="42.82451" lon="1.42078">
        <ele>1860.5</ele>
        <time>2016-12-28T12:35:00Z</time>
      </trkpt>
      <trkpt lat="42.82448" lon="1.42073">
        <ele>1859.8</ele>
        <time>2016-12-28T12:35:02Z</time>
      </trkpt>
      <trkpt lat="42.82446" lon="1.42068">
        <ele>1859.3</ele>
        <time>2016-12-28T12:35:04Z</time>
      </trkpt>
      <trkpt lat="42.82444" lon="1.42065">
        <ele>1858.8</ele>
        <time>2016-12-28T12:35:06Z</time>
      </trkpt>
      <trkpt lat="42.8244" lon="1.42061">
        <ele>1858.1</ele>
        <time>2016-12-28T12:35:08Z</time>
      </trkpt>
      <trkpt lat="42.82438" lon="1.42056">
        <ele>1857.6</ele>
        <time>2016-12-28T12:35:10Z</time>
      </trkpt>
      <trkpt lat="42.82437" lon="1.4205">
        <ele>1856.9</ele>
        <time>2016-12-28T12:35:12Z</time>
      </trkpt>
      <trkpt lat="42.82435" lon="1.42047">
        <ele>1856.4</ele>
        <time>2016-12-28T12:35:14Z</time>
      </trkpt>
      <trkpt lat="42.82428" lon="1.42042">
        <ele>1855.3</ele>
        <time>2016-12-28T12:35:17Z</time>
      </trkpt>
      <trkpt lat="42.82426" lon="1.42039">
        <ele>1854.8</ele>
        <time>2016-12-28T12:35:20Z</time>
      </trkpt>
      <trkpt lat="42.82423" lon="1.42036">
        <ele>1854.3</ele>
        <time>2016-12-28T12:35:24Z</time>
      </trkpt>
      <trkpt lat="42.82422" lon="1.42032">
        <ele>1853.8</ele>
        <time>2016-12-28T12:35:26Z</time>
      </trkpt>
      <trkpt lat="42.82421" lon="1.42029">
        <ele>1853.4</ele>
        <time>2016-12-28T12:35:28Z</time>
      </trkpt>
      <trkpt lat="42.82418" lon="1.42025">
        <ele>1852.9</ele>
        <time>2016-12-28T12:35:30Z</time>
      </trkpt>
      <trkpt lat="42.82414" lon="1.42022">
        <ele>1852.2</ele>
        <time>2016-12-28T12:35:33Z</time>
      </trkpt>
      <trkpt lat="42.8241" lon="1.4202">
        <ele>1851.6</ele>
        <time>2016-12-28T12:35:35Z</time>
      </trkpt>
      <trkpt lat="42.82407" lon="1.42018">
        <ele>1851.1</ele>
        <time>2016-12-28T12:35:38Z</time>
      </trkpt>
      <trkpt lat="42.82405" lon="1.42015">
        <ele>1850.7</ele>
        <time>2016-12-28T12:35:41Z</time>
      </trkpt>
      <trkpt lat="42.82401" lon="1.42012">
        <ele>1850</ele>
        <time>2016-12-28T12:35:44Z</time>
      </trkpt>
      <trkpt lat="42.82399" lon="1.42008">
        <ele>1849.5</ele>
        <time>2016-12-28T12:35:47Z</time>
      </trkpt>
      <trkpt lat="42.82396" lon="1.42003">
        <ele>1848.9</ele>
        <time>2016-12-28T12:35:52Z</time>
      </trkpt>
      <trkpt lat="42.82393" lon="1.42">
        <ele>1848.4</ele>
        <time>2016-12-28T12:35:54Z</time>
      </trkpt>
      <trkpt lat="42.82391" lon="1.41998">
        <ele>1848</ele>
        <time>2016-12-28T12:35:56Z</time>
      </trkpt>
      <trkpt lat="42.82389" lon="1.41995">
        <ele>1847.5</ele>
        <time>2016-12-28T12:35:58Z</time>
      </trkpt>
      <trkpt lat="42.82388" lon="1.41991">
        <ele>1847.1</ele>
        <time>2016-12-28T12:36:00Z</time>
      </trkpt>
      <trkpt lat="42.82385" lon="1.41988">
        <ele>1846.5</ele>
        <time>2016-12-28T12:36:02Z</time>
      </trkpt>
      <trkpt lat="42.82383" lon="1.41985">
        <ele>1846.1</ele>
        <time>2016-12-28T12:36:04Z</time>
      </trkpt>
      <trkpt lat="42.82381" lon="1.41983">
        <ele>1845.7</ele>
        <time>2016-12-28T12:36:06Z</time>
      </trkpt>
      <trkpt lat="42.82378" lon="1.41981">
        <ele>1845.3</ele>
        <time>2016-12-28T12:36:08Z</time>
      </trkpt>
      <trkpt lat="42.82375" lon="1.4198">
        <ele>1844.9</ele>
        <time>2016-12-28T12:36:10Z</time>
      </trkpt>
      <trkpt lat="42.82372" lon="1.41978">
        <ele>1844.4</ele>
        <time>2016-12-28T12:36:12Z</time>
      </trkpt>
      <trkpt lat="42.8237" lon="1.41975">
        <ele>1843.9</ele>
        <time>2016-12-28T12:36:14Z</time>
      </trkpt>
      <trkpt lat="42.82366" lon="1.41972">
        <ele>1843.3</ele>
        <time>2016-12-28T12:36:16Z</time>
      </trkpt>
      <trkpt lat="42.82364" lon="1.4197">
        <ele>1842.9</ele>
        <time>2016-12-28T12:36:18Z</time>
      </trkpt>
      <trkpt lat="42.82361" lon="1.41968">
        <ele>1842.4</ele>
        <time>2016-12-28T12:36:20Z</time>
      </trkpt>
      <trkpt lat="42.82358" lon="1.41967">
        <ele>1841.9</ele>
        <time>2016-12-28T12:36:22Z</time>
      </trkpt>
      <trkpt lat="42.82355" lon="1.41966">
        <ele>1841.5</ele>
        <time>2016-12-28T12:36:25Z</time>
      </trkpt>
      <trkpt lat="42.82352" lon="1.41964">
        <ele>1841</ele>
        <time>2016-12-28T12:36:27Z</time>
      </trkpt>
      <trkpt lat="42.82347" lon="1.41962">
        <ele>1840.4</ele>
        <time>2016-12-28T12:36:30Z</time>
      </trkpt>
      <trkpt lat="42.82344" lon="1.41961">
        <ele>1839.9</ele>
        <time>2016-12-28T12:36:32Z</time>
      </trkpt>
      <trkpt lat="42.82341" lon="1.41961">
        <ele>1839.4</ele>
        <time>2016-12-28T12:36:34Z</time>
      </trkpt>
      <trkpt lat="42.82338" lon="1.41959">
        <ele>1838.9</ele>
        <time>2016-12-28T12:36:37Z</time>
      </trkpt>
      <trkpt lat="42.82335" lon="1.41958">
        <ele>1838.5</ele>
        <time>2016-12-28T12:36:39Z</time>
      </trkpt>
      <trkpt lat="42.82332" lon="1.41957">
        <ele>1838</ele>
        <time>2016-12-28T12:36:41Z</time>
      </trkpt>
      <trkpt lat="42.82328" lon="1.41956">
        <ele>1837.5</ele>
        <time>2016-12-28T12:36:44Z</time>
      </trkpt>
      <trkpt lat="42.82325" lon="1.41955">
        <ele>1837</ele>
        <time>2016-12-28T12:36:46Z</time>
      </trkpt>
      <trkpt lat="42.82322" lon="1.41953">
        <ele>1836.5</ele>
        <time>2016-12-28T12:36:48Z</time>
      </trkpt>
      <trkpt lat="42.82321" lon="1.41948">
        <ele>1836</ele>
        <time>2016-12-28T12:36:50Z</time>
      </trkpt>
      <trkpt lat="42.82318" lon="1.41947">
        <ele>1835.6</ele>
        <time>2016-12-28T12:36:52Z</time>
      </trkpt>
      <trkpt lat="42.82315" lon="1.41945">
        <ele>1835</ele>
        <time>2016-12-28T12:36:55Z</time>
      </trkpt>
      <trkpt lat="42.82311" lon="1.41945">
        <ele>1834.4</ele>
        <time>2016-12-28T12:36:58Z</time>
      </trkpt>
      <trkpt lat="42.82307" lon="1.41943">
        <ele>1833.9</ele>
        <time>2016-12-28T12:37:00Z</time>
      </trkpt>
      <trkpt lat="42.82304" lon="1.41943">
        <ele>1833.4</ele>
        <time>2016-12-28T12:37:02Z</time>
      </trkpt>
      <trkpt lat="42.82301" lon="1.41942">
        <ele>1833</ele>
        <time>2016-12-28T12:37:04Z</time>
      </trkpt>
      <trkpt lat="42.82298" lon="1.41942">
        <ele>1832.5</ele>
        <time>2016-12-28T12:37:06Z</time>
      </trkpt>
      <trkpt lat="42.82295" lon="1.41939">
        <ele>1831.9</ele>
        <time>2016-12-28T12:37:09Z</time>
      </trkpt>
      <trkpt lat="42.82291" lon="1.41936">
        <ele>1831.4</ele>
        <time>2016-12-28T12:37:11Z</time>
      </trkpt>
      <trkpt lat="42.82288" lon="1.41935">
        <ele>1830.9</ele>
        <time>2016-12-28T12:37:13Z</time>
      </trkpt>
      <trkpt lat="42.82286" lon="1.41937">
        <ele>1830.5</ele>
        <time>2016-12-28T12:37:15Z</time>
      </trkpt>
      <trkpt lat="42.82283" lon="1.41935">
        <ele>1830.1</ele>
        <time>2016-12-28T12:37:17Z</time>
      </trkpt>
      <trkpt lat="42.8228" lon="1.41934">
        <ele>1829.6</ele>
        <time>2016-12-28T12:37:19Z</time>
      </trkpt>
      <trkpt lat="42.82277" lon="1.41931">
        <ele>1829.1</ele>
        <time>2016-12-28T12:37:22Z</time>
      </trkpt>
      <trkpt lat="42.82273" lon="1.4193">
        <ele>1828.6</ele>
        <time>2016-12-28T12:37:24Z</time>
      </trkpt>
      <trkpt lat="42.8227" lon="1.41928">
        <ele>1828</ele>
        <time>2016-12-28T12:37:27Z</time>
      </trkpt>
      <trkpt lat="42.82267" lon="1.41928">
        <ele>1827.6</ele>
        <time>2016-12-28T12:37:29Z</time>
      </trkpt>
      <trkpt lat="42.82263" lon="1.41927">
        <ele>1827</ele>
        <time>2016-12-28T12:37:31Z</time>
      </trkpt>
      <trkpt lat="42.82261" lon="1.41927">
        <ele>1826.6</ele>
        <time>2016-12-28T12:37:34Z</time>
      </trkpt>
      <trkpt lat="42.82257" lon="1.41926">
        <ele>1826.1</ele>
        <time>2016-12-28T12:37:37Z</time>
      </trkpt>
      <trkpt lat="42.82255" lon="1.41925">
        <ele>1825.7</ele>
        <time>2016-12-28T12:37:39Z</time>
      </trkpt>
      <trkpt lat="42.82251" lon="1.41923">
        <ele>1825.2</ele>
        <time>2016-12-28T12:37:42Z</time>
      </trkpt>
      <trkpt lat="42.82248" lon="1.41921">
        <ele>1824.7</ele>
        <time>2016-12-28T12:37:44Z</time>
      </trkpt>
      <trkpt lat="42.82246" lon="1.41918">
        <ele>1824.2</ele>
        <time>2016-12-28T12:37:46Z</time>
      </trkpt>
      <trkpt lat="42.82242" lon="1.41915">
        <ele>1823.6</ele>
        <time>2016-12-28T12:37:49Z</time>
      </trkpt>
      <trkpt lat="42.82239" lon="1.41912">
        <ele>1823.1</ele>
        <time>2016-12-28T12:37:52Z</time>
      </trkpt>
      <trkpt lat="42.82237" lon="1.4191">
        <ele>1822.6</ele>
        <time>2016-12-28T12:37:55Z</time>
      </trkpt>
      <trkpt lat="42.82234" lon="1.41909">
        <ele>1822.2</ele>
        <time>2016-12-28T12:37:57Z</time>
      </trkpt>
      <trkpt lat="42.8223" lon="1.41908">
        <ele>1821.7</ele>
        <time>2016-12-28T12:38:00Z</time>
      </trkpt>
      <trkpt lat="42.82229" lon="1.41904">
        <ele>1821.3</ele>
        <time>2016-12-28T12:38:04Z</time>
      </trkpt>
      <trkpt lat="42.82226" lon="1.41903">
        <ele>1820.8</ele>
        <time>2016-12-28T12:38:08Z</time>
      </trkpt>
      <trkpt lat="42.82224" lon="1.419">
        <ele>1820.4</ele>
        <time>2016-12-28T12:38:13Z</time>
      </trkpt>
      <trkpt lat="42.82221" lon="1.419">
        <ele>1820</ele>
        <time>2016-12-28T12:38:20Z</time>
      </trkpt>
      <trkpt lat="42.82219" lon="1.41897">
        <ele>1819.6</ele>
        <time>2016-12-28T12:38:25Z</time>
      </trkpt>
      <trkpt lat="42.82216" lon="1.41897">
        <ele>1819.2</ele>
        <time>2016-12-28T12:38:30Z</time>
      </trkpt>
      <trkpt lat="42.82214" lon="1.41896">
        <ele>1818.8</ele>
        <time>2016-12-28T12:38:36Z</time>
      </trkpt>
      <trkpt lat="42.82211" lon="1.41892">
        <ele>1818.3</ele>
        <time>2016-12-28T12:38:41Z</time>
      </trkpt>
      <trkpt lat="42.82209" lon="1.4189">
        <ele>1817.9</ele>
        <time>2016-12-28T12:38:53Z</time>
      </trkpt>
      <trkpt lat="42.82206" lon="1.41892">
        <ele>1817.5</ele>
        <time>2016-12-28T12:39:12Z</time>
      </trkpt>
      <trkpt lat="42.82203" lon="1.41891">
        <ele>1817</ele>
        <time>2016-12-28T12:40:18Z</time>
      </trkpt>
      <trkpt lat="42.82201" lon="1.41892">
        <ele>1816.6</ele>
        <time>2016-12-28T12:40:21Z</time>
      </trkpt>
      <trkpt lat="42.82199" lon="1.41889">
        <ele>1816.2</ele>
        <time>2016-12-28T12:40:28Z</time>
      </trkpt>
      <trkpt lat="42.82199" lon="1.41884">
        <ele>1815.7</ele>
        <time>2016-12-28T12:40:32Z</time>
      </trkpt>
      <trkpt lat="42.82195" lon="1.41881">
        <ele>1815.1</ele>
        <time>2016-12-28T12:40:40Z</time>
      </trkpt>
      <trkpt lat="42.82192" lon="1.41878">
        <ele>1814.5</ele>
        <time>2016-12-28T12:40:49Z</time>
      </trkpt>
      <trkpt lat="42.82189" lon="1.41877">
        <ele>1814.1</ele>
        <time>2016-12-28T12:40:54Z</time>
      </trkpt>
      <trkpt lat="42.82187" lon="1.41874">
        <ele>1813.7</ele>
        <time>2016-12-28T12:40:59Z</time>
      </trkpt>
      <trkpt lat="42.82184" lon="1.41871">
        <ele>1813.2</ele>
        <time>2016-12-28T12:41:01Z</time>
      </trkpt>
      <trkpt lat="42.82182" lon="1.41868">
        <ele>1812.6</ele>
        <time>2016-12-28T12:41:04Z</time>
      </trkpt>
      <trkpt lat="42.82182" lon="1.41864">
        <ele>1812.2</ele>
        <time>2016-12-28T12:41:16Z</time>
      </trkpt>
      <trkpt lat="42.82183" lon="1.4186">
        <ele>1811.7</ele>
        <time>2016-12-28T12:41:20Z</time>
      </trkpt>
      <trkpt lat="42.8218" lon="1.41856">
        <ele>1811.1</ele>
        <time>2016-12-28T12:41:25Z</time>
      </trkpt>
      <trkpt lat="42.82178" lon="1.41853">
        <ele>1810.7</ele>
        <time>2016-12-28T12:41:29Z</time>
      </trkpt>
      <trkpt lat="42.82175" lon="1.41849">
        <ele>1810.2</ele>
        <time>2016-12-28T12:41:32Z</time>
      </trkpt>
      <trkpt lat="42.82173" lon="1.41847">
        <ele>1809.8</ele>
        <time>2016-12-28T12:41:35Z</time>
      </trkpt>
      <trkpt lat="42.8217" lon="1.41845">
        <ele>1809.3</ele>
        <time>2016-12-28T12:41:38Z</time>
      </trkpt>
      <trkpt lat="42.82167" lon="1.41844">
        <ele>1808.9</ele>
        <time>2016-12-28T12:41:42Z</time>
      </trkpt>
      <trkpt lat="42.82166" lon="1.41841">
        <ele>1808.5</ele>
        <time>2016-12-28T12:41:48Z</time>
      </trkpt>
      <trkpt lat="42.82163" lon="1.41839">
        <ele>1808.1</ele>
        <time>2016-12-28T12:41:50Z</time>
      </trkpt>
      <trkpt lat="42.82161" lon="1.41838">
        <ele>1807.6</ele>
        <time>2016-12-28T12:41:53Z</time>
      </trkpt>
      <trkpt lat="42.82159" lon="1.41835">
        <ele>1807.2</ele>
        <time>2016-12-28T12:42:05Z</time>
      </trkpt>
      <trkpt lat="42.82156" lon="1.41836">
        <ele>1806.8</ele>
        <time>2016-12-28T12:42:45Z</time>
      </trkpt>
      <trkpt lat="42.82154" lon="1.41832">
        <ele>1806.2</ele>
        <time>2016-12-28T12:42:48Z</time>
      </trkpt>
      <trkpt lat="42.82152" lon="1.41827">
        <ele>1805.6</ele>
        <time>2016-12-28T12:42:52Z</time>
      </trkpt>
      <trkpt lat="42.82149" lon="1.41827">
        <ele>1805.2</ele>
        <time>2016-12-28T12:42:57Z</time>
      </trkpt>
      <trkpt lat="42.82146" lon="1.41823">
        <ele>1804.5</ele>
        <time>2016-12-28T12:43:02Z</time>
      </trkpt>
      <trkpt lat="42.82143" lon="1.4182">
        <ele>1804.1</ele>
        <time>2016-12-28T12:43:08Z</time>
      </trkpt>
      <trkpt lat="42.82141" lon="1.41817">
        <ele>1803.6</ele>
        <time>2016-12-28T12:43:21Z</time>
      </trkpt>
      <trkpt lat="42.8214" lon="1.41814">
        <ele>1803.2</ele>
        <time>2016-12-28T12:43:26Z</time>
      </trkpt>
      <trkpt lat="42.82137" lon="1.41812">
        <ele>1802.8</ele>
        <time>2016-12-28T12:43:29Z</time>
      </trkpt>
      <trkpt lat="42.82135" lon="1.41807">
        <ele>1802.3</ele>
        <time>2016-12-28T12:43:40Z</time>
      </trkpt>
      <trkpt lat="42.82131" lon="1.41807">
        <ele>1801.7</ele>
        <time>2016-12-28T12:43:43Z</time>
      </trkpt>
      <trkpt lat="42.82128" lon="1.41806">
        <ele>1801.2</ele>
        <time>2016-12-28T12:43:46Z</time>
      </trkpt>
      <trkpt lat="42.82125" lon="1.41804">
        <ele>1800.8</ele>
        <time>2016-12-28T12:43:50Z</time>
      </trkpt>
      <trkpt lat="42.82123" lon="1.41802">
        <ele>1800.4</ele>
        <time>2016-12-28T12:43:53Z</time>
      </trkpt>
      <trkpt lat="42.8212" lon="1.418">
        <ele>1799.8</ele>
        <time>2016-12-28T12:44:00Z</time>
      </trkpt>
      <trkpt lat="42.82117" lon="1.41795">
        <ele>1799.1</ele>
        <time>2016-12-28T12:44:06Z</time>
      </trkpt>
      <trkpt lat="42.82113" lon="1.41798">
        <ele>1798.6</ele>
        <time>2016-12-28T12:44:09Z</time>
      </trkpt>
      <trkpt lat="42.82112" lon="1.41794">
        <ele>1798.1</ele>
        <time>2016-12-28T12:44:13Z</time>
      </trkpt>
      <trkpt lat="42.82111" lon="1.41791">
        <ele>1797.7</ele>
        <time>2016-12-28T12:44:14Z</time>
      </trkpt>
      <trkpt lat="42.82108" lon="1.41791">
        <ele>1797.3</ele>
        <time>2016-12-28T12:44:21Z</time>
      </trkpt>
      <trkpt lat="42.82105" lon="1.41789">
        <ele>1796.9</ele>
        <time>2016-12-28T12:44:23Z</time>
      </trkpt>
      <trkpt lat="42.82103" lon="1.41786">
        <ele>1796.5</ele>
        <time>2016-12-28T12:44:40Z</time>
      </trkpt>
      <trkpt lat="42.82102" lon="1.4178">
        <ele>1795.8</ele>
        <time>2016-12-28T12:45:47Z</time>
      </trkpt>
      <trkpt lat="42.82103" lon="1.41777">
        <ele>1795.4</ele>
        <time>2016-12-28T12:45:58Z</time>
      </trkpt>
      <trkpt lat="42.82103" lon="1.41773">
        <ele>1795</ele>
        <time>2016-12-28T12:47:45Z</time>
      </trkpt>
      <trkpt lat="42.82105" lon="1.41776">
        <ele>1794.6</ele>
        <time>2016-12-28T12:48:48Z</time>
      </trkpt>
      <trkpt lat="42.82102" lon="1.41774">
        <ele>1794.1</ele>
        <time>2016-12-28T12:49:30Z</time>
      </trkpt>
      <trkpt lat="42.821" lon="1.4177">
        <ele>1793.6</ele>
        <time>2016-12-28T12:49:31Z</time>
      </trkpt>
      <trkpt lat="42.82097" lon="1.41769">
        <ele>1793.1</ele>
        <time>2016-12-28T12:49:32Z</time>
      </trkpt>
      <trkpt lat="42.82094" lon="1.41764">
        <ele>1792.5</ele>
        <time>2016-12-28T12:49:36Z</time>
      </trkpt>
      <trkpt lat="42.8209" lon="1.4176">
        <ele>1791.8</ele>
        <time>2016-12-28T12:49:38Z</time>
      </trkpt>
      <trkpt lat="42.82087" lon="1.41756">
        <ele>1791.1</ele>
        <time>2016-12-28T12:49:41Z</time>
      </trkpt>
      <trkpt lat="42.82083" lon="1.41754">
        <ele>1790.5</ele>
        <time>2016-12-28T12:49:44Z</time>
      </trkpt>
      <trkpt lat="42.82079" lon="1.41752">
        <ele>1789.9</ele>
        <time>2016-12-28T12:49:47Z</time>
      </trkpt>
      <trkpt lat="42.82076" lon="1.41751">
        <ele>1789.4</ele>
        <time>2016-12-28T12:49:49Z</time>
      </trkpt>
      <trkpt lat="42.82072" lon="1.41748">
        <ele>1788.8</ele>
        <time>2016-12-28T12:49:51Z</time>
      </trkpt>
      <trkpt lat="42.82069" lon="1.4175">
        <ele>1788.4</ele>
        <time>2016-12-28T12:49:53Z</time>
      </trkpt>
      <trkpt lat="42.82067" lon="1.41747">
        <ele>1787.9</ele>
        <time>2016-12-28T12:49:55Z</time>
      </trkpt>
      <trkpt lat="42.82064" lon="1.41746">
        <ele>1787.4</ele>
        <time>2016-12-28T12:49:58Z</time>
      </trkpt>
      <trkpt lat="42.82061" lon="1.41744">
        <ele>1787</ele>
        <time>2016-12-28T12:50:01Z</time>
      </trkpt>
      <trkpt lat="42.82059" lon="1.4174">
        <ele>1786.4</ele>
        <time>2016-12-28T12:50:04Z</time>
      </trkpt>
      <trkpt lat="42.82056" lon="1.41736">
        <ele>1785.8</ele>
        <time>2016-12-28T12:50:06Z</time>
      </trkpt>
      <trkpt lat="42.82053" lon="1.41735">
        <ele>1785.3</ele>
        <time>2016-12-28T12:50:09Z</time>
      </trkpt>
      <trkpt lat="42.82049" lon="1.41736">
        <ele>1784.8</ele>
        <time>2016-12-28T12:50:11Z</time>
      </trkpt>
      <trkpt lat="42.82046" lon="1.41735">
        <ele>1784.4</ele>
        <time>2016-12-28T12:50:14Z</time>
      </trkpt>
      <trkpt lat="42.82043" lon="1.41731">
        <ele>1783.7</ele>
        <time>2016-12-28T12:50:18Z</time>
      </trkpt>
      <trkpt lat="42.82041" lon="1.41729">
        <ele>1783.3</ele>
        <time>2016-12-28T12:50:20Z</time>
      </trkpt>
      <trkpt lat="42.8204" lon="1.41725">
        <ele>1782.9</ele>
        <time>2016-12-28T12:50:23Z</time>
      </trkpt>
      <trkpt lat="42.82037" lon="1.41724">
        <ele>1782.5</ele>
        <time>2016-12-28T12:50:25Z</time>
      </trkpt>
      <trkpt lat="42.82035" lon="1.41719">
        <ele>1781.9</ele>
        <time>2016-12-28T12:50:29Z</time>
      </trkpt>
      <trkpt lat="42.82033" lon="1.41714">
        <ele>1781.3</ele>
        <time>2016-12-28T12:50:35Z</time>
      </trkpt>
      <trkpt lat="42.8203" lon="1.41712">
        <ele>1780.8</ele>
        <time>2016-12-28T12:50:38Z</time>
      </trkpt>
      <trkpt lat="42.82027" lon="1.41712">
        <ele>1780.4</ele>
        <time>2016-12-28T12:50:42Z</time>
      </trkpt>
      <trkpt lat="42.82023" lon="1.4171">
        <ele>1779.8</ele>
        <time>2016-12-28T12:50:44Z</time>
      </trkpt>
      <trkpt lat="42.8202" lon="1.41707">
        <ele>1779.2</ele>
        <time>2016-12-28T12:50:46Z</time>
      </trkpt>
      <trkpt lat="42.82017" lon="1.41705">
        <ele>1778.8</ele>
        <time>2016-12-28T12:50:49Z</time>
      </trkpt>
      <trkpt lat="42.82015" lon="1.41702">
        <ele>1778.4</ele>
        <time>2016-12-28T12:50:52Z</time>
      </trkpt>
      <trkpt lat="42.82015" lon="1.41698">
        <ele>1777.9</ele>
        <time>2016-12-28T12:51:05Z</time>
      </trkpt>
      <trkpt lat="42.82018" lon="1.41702">
        <ele>1777.3</ele>
        <time>2016-12-28T12:51:09Z</time>
      </trkpt>
      <trkpt lat="42.82016" lon="1.417">
        <ele>1776.9</ele>
        <time>2016-12-28T12:51:13Z</time>
      </trkpt>
      <trkpt lat="42.82015" lon="1.41697">
        <ele>1776.5</ele>
        <time>2016-12-28T12:51:19Z</time>
      </trkpt>
      <trkpt lat="42.82011" lon="1.41688">
        <ele>1775.3</ele>
        <time>2016-12-28T12:51:31Z</time>
      </trkpt>
      <trkpt lat="42.82009" lon="1.41685">
        <ele>1774.9</ele>
        <time>2016-12-28T12:51:34Z</time>
      </trkpt>
      <trkpt lat="42.82007" lon="1.41678">
        <ele>1774.2</ele>
        <time>2016-12-28T12:51:37Z</time>
      </trkpt>
      <trkpt lat="42.82005" lon="1.41675">
        <ele>1773.7</ele>
        <time>2016-12-28T12:51:39Z</time>
      </trkpt>
      <trkpt lat="42.82006" lon="1.41672">
        <ele>1773.3</ele>
        <time>2016-12-28T12:51:46Z</time>
      </trkpt>
      <trkpt lat="42.82009" lon="1.4167">
        <ele>1772.8</ele>
        <time>2016-12-28T12:51:55Z</time>
      </trkpt>
      <trkpt lat="42.82011" lon="1.41667">
        <ele>1772.4</ele>
        <time>2016-12-28T12:51:57Z</time>
      </trkpt>
      <trkpt lat="42.82011" lon="1.41663">
        <ele>1772</ele>
        <time>2016-12-28T12:52:00Z</time>
      </trkpt>
      <trkpt lat="42.82008" lon="1.41664">
        <ele>1771.5</ele>
        <time>2016-12-28T12:52:04Z</time>
      </trkpt>
      <trkpt lat="42.82005" lon="1.4166">
        <ele>1771</ele>
        <time>2016-12-28T12:52:05Z</time>
      </trkpt>
      <trkpt lat="42.82003" lon="1.4166">
        <ele>1770.6</ele>
        <time>2016-12-28T12:52:08Z</time>
      </trkpt>
      <trkpt lat="42.82" lon="1.41657">
        <ele>1770.2</ele>
        <time>2016-12-28T12:52:12Z</time>
      </trkpt>
      <trkpt lat="42.82" lon="1.41654">
        <ele>1769.8</ele>
        <time>2016-12-28T12:52:15Z</time>
      </trkpt>
      <trkpt lat="42.81997" lon="1.41652">
        <ele>1769.3</ele>
        <time>2016-12-28T12:52:32Z</time>
      </trkpt>
      <trkpt lat="42.81994" lon="1.41648">
        <ele>1768.7</ele>
        <time>2016-12-28T12:52:36Z</time>
      </trkpt>
      <trkpt lat="42.81992" lon="1.41646">
        <ele>1768.3</ele>
        <time>2016-12-28T12:52:37Z</time>
      </trkpt>
      <trkpt lat="42.81988" lon="1.4164">
        <ele>1767.5</ele>
        <time>2016-12-28T12:52:39Z</time>
      </trkpt>
      <trkpt lat="42.81985" lon="1.41637">
        <ele>1767</ele>
        <time>2016-12-28T12:52:44Z</time>
      </trkpt>
      <trkpt lat="42.81983" lon="1.41634">
        <ele>1766.5</ele>
        <time>2016-12-28T12:52:47Z</time>
      </trkpt>
      <trkpt lat="42.81979" lon="1.4163">
        <ele>1765.8</ele>
        <time>2016-12-28T12:52:49Z</time>
      </trkpt>
      <trkpt lat="42.81975" lon="1.41625">
        <ele>1765</ele>
        <time>2016-12-28T12:52:52Z</time>
      </trkpt>
      <trkpt lat="42.81972" lon="1.41621">
        <ele>1764.4</ele>
        <time>2016-12-28T12:52:55Z</time>
      </trkpt>
      <trkpt lat="42.81968" lon="1.41621">
        <ele>1763.8</ele>
        <time>2016-12-28T12:53:03Z</time>
      </trkpt>
      <trkpt lat="42.81966" lon="1.41619">
        <ele>1763.4</ele>
        <time>2016-12-28T12:53:05Z</time>
      </trkpt>
      <trkpt lat="42.81964" lon="1.41614">
        <ele>1762.8</ele>
        <time>2016-12-28T12:53:11Z</time>
      </trkpt>
      <trkpt lat="42.81961" lon="1.41609">
        <ele>1762.2</ele>
        <time>2016-12-28T12:53:17Z</time>
      </trkpt>
      <trkpt lat="42.8196" lon="1.41606">
        <ele>1761.8</ele>
        <time>2016-12-28T12:53:22Z</time>
      </trkpt>
      <trkpt lat="42.81958" lon="1.41607">
        <ele>1761.4</ele>
        <time>2016-12-28T12:53:31Z</time>
      </trkpt>
      <trkpt lat="42.81953" lon="1.41598">
        <ele>1760.3</ele>
        <time>2016-12-28T12:53:33Z</time>
      </trkpt>
      <trkpt lat="42.81951" lon="1.41594">
        <ele>1759.7</ele>
        <time>2016-12-28T12:53:35Z</time>
      </trkpt>
      <trkpt lat="42.81948" lon="1.4159">
        <ele>1759.1</ele>
        <time>2016-12-28T12:53:40Z</time>
      </trkpt>
      <trkpt lat="42.81947" lon="1.41586">
        <ele>1758.7</ele>
        <time>2016-12-28T12:54:03Z</time>
      </trkpt>
      <trkpt lat="42.81944" lon="1.41588">
        <ele>1758.3</ele>
        <time>2016-12-28T12:54:07Z</time>
      </trkpt>
      <trkpt lat="42.81943" lon="1.41592">
        <ele>1757.8</ele>
        <time>2016-12-28T12:54:11Z</time>
      </trkpt>
      <trkpt lat="42.8194" lon="1.41589">
        <ele>1757.3</ele>
        <time>2016-12-28T12:54:13Z</time>
      </trkpt>
      <trkpt lat="42.81938" lon="1.41584">
        <ele>1756.7</ele>
        <time>2016-12-28T12:54:15Z</time>
      </trkpt>
      <trkpt lat="42.81936" lon="1.41581">
        <ele>1756.2</ele>
        <time>2016-12-28T12:54:17Z</time>
      </trkpt>
      <trkpt lat="42.81934" lon="1.41578">
        <ele>1755.8</ele>
        <time>2016-12-28T12:54:18Z</time>
      </trkpt>
      <trkpt lat="42.81931" lon="1.41578">
        <ele>1755.3</ele>
        <time>2016-12-28T12:54:20Z</time>
      </trkpt>
      <trkpt lat="42.81928" lon="1.41578">
        <ele>1754.9</ele>
        <time>2016-12-28T12:54:35Z</time>
      </trkpt>
      <trkpt lat="42.81927" lon="1.41575">
        <ele>1754.5</ele>
        <time>2016-12-28T12:54:37Z</time>
      </trkpt>
      <trkpt lat="42.81922" lon="1.4158">
        <ele>1753.6</ele>
        <time>2016-12-28T12:54:40Z</time>
      </trkpt>
      <trkpt lat="42.81919" lon="1.41577">
        <ele>1753.1</ele>
        <time>2016-12-28T12:54:43Z</time>
      </trkpt>
      <trkpt lat="42.81917" lon="1.41576">
        <ele>1752.7</ele>
        <time>2016-12-28T12:54:46Z</time>
      </trkpt>
      <trkpt lat="42.81916" lon="1.41572">
        <ele>1752.2</ele>
        <time>2016-12-28T12:54:50Z</time>
      </trkpt>
      <trkpt lat="42.81914" lon="1.41567">
        <ele>1751.6</ele>
        <time>2016-12-28T12:54:54Z</time>
      </trkpt>
      <trkpt lat="42.81911" lon="1.41565">
        <ele>1751.2</ele>
        <time>2016-12-28T12:55:00Z</time>
      </trkpt>
      <trkpt lat="42.81909" lon="1.41567">
        <ele>1750.8</ele>
        <time>2016-12-28T12:55:06Z</time>
      </trkpt>
      <trkpt lat="42.81907" lon="1.41564">
        <ele>1750.4</ele>
        <time>2016-12-28T12:55:08Z</time>
      </trkpt>
      <trkpt lat="42.81903" lon="1.41563">
        <ele>1749.8</ele>
        <time>2016-12-28T12:55:12Z</time>
      </trkpt>
      <trkpt lat="42.81899" lon="1.41562">
        <ele>1749.2</ele>
        <time>2016-12-28T12:55:18Z</time>
      </trkpt>
      <trkpt lat="42.81896" lon="1.41559">
        <ele>1748.7</ele>
        <time>2016-12-28T12:55:21Z</time>
      </trkpt>
      <trkpt lat="42.81892" lon="1.41558">
        <ele>1748.2</ele>
        <time>2016-12-28T12:55:24Z</time>
      </trkpt>
      <trkpt lat="42.8189" lon="1.41555">
        <ele>1747.7</ele>
        <time>2016-12-28T12:55:28Z</time>
      </trkpt>
      <trkpt lat="42.81886" lon="1.41555">
        <ele>1747.2</ele>
        <time>2016-12-28T12:55:32Z</time>
      </trkpt>
      <trkpt lat="42.81882" lon="1.41554">
        <ele>1746.6</ele>
        <time>2016-12-28T12:55:37Z</time>
      </trkpt>
      <trkpt lat="42.8188" lon="1.41551">
        <ele>1746.1</ele>
        <time>2016-12-28T12:55:42Z</time>
      </trkpt>
      <trkpt lat="42.81878" lon="1.41548">
        <ele>1745.7</ele>
        <time>2016-12-28T12:55:48Z</time>
      </trkpt>
      <trkpt lat="42.81875" lon="1.41547">
        <ele>1745.2</ele>
        <time>2016-12-28T12:55:53Z</time>
      </trkpt>
      <trkpt lat="42.81871" lon="1.41547">
        <ele>1744.6</ele>
        <time>2016-12-28T12:55:56Z</time>
      </trkpt>
      <trkpt lat="42.81869" lon="1.41544">
        <ele>1744.3</ele>
        <time>2016-12-28T12:55:59Z</time>
      </trkpt>
      <trkpt lat="42.81865" lon="1.41543">
        <ele>1743.7</ele>
        <time>2016-12-28T12:56:01Z</time>
      </trkpt>
      <trkpt lat="42.81861" lon="1.41545">
        <ele>1743.1</ele>
        <time>2016-12-28T12:56:03Z</time>
      </trkpt>
      <trkpt lat="42.81857" lon="1.41548">
        <ele>1742.4</ele>
        <time>2016-12-28T12:56:07Z</time>
      </trkpt>
      <trkpt lat="42.81855" lon="1.41545">
        <ele>1742</ele>
        <time>2016-12-28T12:56:09Z</time>
      </trkpt>
      <trkpt lat="42.81849" lon="1.41543">
        <ele>1741.1</ele>
        <time>2016-12-28T12:56:12Z</time>
      </trkpt>
      <trkpt lat="42.81846" lon="1.41545">
        <ele>1740.7</ele>
        <time>2016-12-28T12:56:13Z</time>
      </trkpt>
      <trkpt lat="42.81844" lon="1.41544">
        <ele>1740.3</ele>
        <time>2016-12-28T12:56:16Z</time>
      </trkpt>
      <trkpt lat="42.81842" lon="1.41541">
        <ele>1739.9</ele>
        <time>2016-12-28T12:56:19Z</time>
      </trkpt>
      <trkpt lat="42.81842" lon="1.41536">
        <ele>1739.4</ele>
        <time>2016-12-28T12:56:24Z</time>
      </trkpt>
      <trkpt lat="42.81839" lon="1.41533">
        <ele>1738.9</ele>
        <time>2016-12-28T12:57:24Z</time>
      </trkpt>
      <trkpt lat="42.81836" lon="1.41531">
        <ele>1738.4</ele>
        <time>2016-12-28T12:57:28Z</time>
      </trkpt>
      <trkpt lat="42.81833" lon="1.41531">
        <ele>1738</ele>
        <time>2016-12-28T12:57:31Z</time>
      </trkpt>
      <trkpt lat="42.8183" lon="1.41531">
        <ele>1737.5</ele>
        <time>2016-12-28T12:57:34Z</time>
      </trkpt>
      <trkpt lat="42.81827" lon="1.41528">
        <ele>1736.9</ele>
        <time>2016-12-28T12:57:36Z</time>
      </trkpt>
      <trkpt lat="42.81824" lon="1.41523">
        <ele>1736.3</ele>
        <time>2016-12-28T12:57:39Z</time>
      </trkpt>
      <trkpt lat="42.81821" lon="1.41519">
        <ele>1735.7</ele>
        <time>2016-12-28T12:57:41Z</time>
      </trkpt>
      <trkpt lat="42.81818" lon="1.4152">
        <ele>1735.2</ele>
        <time>2016-12-28T12:57:44Z</time>
      </trkpt>
      <trkpt lat="42.81815" lon="1.41519">
        <ele>1734.8</ele>
        <time>2016-12-28T12:57:46Z</time>
      </trkpt>
      <trkpt lat="42.81813" lon="1.4152">
        <ele>1734.4</ele>
        <time>2016-12-28T12:57:48Z</time>
      </trkpt>
      <trkpt lat="42.81809" lon="1.41519">
        <ele>1733.9</ele>
        <time>2016-12-28T12:57:51Z</time>
      </trkpt>
      <trkpt lat="42.81809" lon="1.41514">
        <ele>1733.4</ele>
        <time>2016-12-28T12:57:53Z</time>
      </trkpt>
      <trkpt lat="42.81804" lon="1.41511">
        <ele>1732.7</ele>
        <time>2016-12-28T12:57:55Z</time>
      </trkpt>
      <trkpt lat="42.81803" lon="1.41506">
        <ele>1732.2</ele>
        <time>2016-12-28T12:57:59Z</time>
      </trkpt>
      <trkpt lat="42.81801" lon="1.41504">
        <ele>1731.7</ele>
        <time>2016-12-28T12:58:02Z</time>
      </trkpt>
      <trkpt lat="42.81797" lon="1.41506">
        <ele>1731.1</ele>
        <time>2016-12-28T12:58:09Z</time>
      </trkpt>
      <trkpt lat="42.81794" lon="1.41507">
        <ele>1730.6</ele>
        <time>2016-12-28T12:58:12Z</time>
      </trkpt>
      <trkpt lat="42.8179" lon="1.41509">
        <ele>1730.1</ele>
        <time>2016-12-28T12:58:16Z</time>
      </trkpt>
      <trkpt lat="42.81787" lon="1.41509">
        <ele>1729.6</ele>
        <time>2016-12-28T12:58:19Z</time>
      </trkpt>
      <trkpt lat="42.81786" lon="1.41506">
        <ele>1729.2</ele>
        <time>2016-12-28T12:58:22Z</time>
      </trkpt>
      <trkpt lat="42.81783" lon="1.41506">
        <ele>1728.8</ele>
        <time>2016-12-28T12:58:24Z</time>
      </trkpt>
      <trkpt lat="42.81779" lon="1.41507">
        <ele>1728.3</ele>
        <time>2016-12-28T12:58:27Z</time>
      </trkpt>
      <trkpt lat="42.81777" lon="1.41505">
        <ele>1727.9</ele>
        <time>2016-12-28T12:58:30Z</time>
      </trkpt>
      <trkpt lat="42.81773" lon="1.41506">
        <ele>1727.4</ele>
        <time>2016-12-28T12:58:33Z</time>
      </trkpt>
      <trkpt lat="42.8177" lon="1.41508">
        <ele>1726.9</ele>
        <time>2016-12-28T12:58:36Z</time>
      </trkpt>
      <trkpt lat="42.81766" lon="1.41509">
        <ele>1726.3</ele>
        <time>2016-12-28T12:58:38Z</time>
      </trkpt>
      <trkpt lat="42.81762" lon="1.41513">
        <ele>1725.7</ele>
        <time>2016-12-28T12:58:40Z</time>
      </trkpt>
      <trkpt lat="42.81759" lon="1.41514">
        <ele>1725.2</ele>
        <time>2016-12-28T12:58:47Z</time>
      </trkpt>
      <trkpt lat="42.81756" lon="1.41515">
        <ele>1724.8</ele>
        <time>2016-12-28T12:58:49Z</time>
      </trkpt>
      <trkpt lat="42.81753" lon="1.41514">
        <ele>1724.2</ele>
        <time>2016-12-28T12:58:52Z</time>
      </trkpt>
      <trkpt lat="42.8175" lon="1.41516">
        <ele>1723.8</ele>
        <time>2016-12-28T12:58:53Z</time>
      </trkpt>
      <trkpt lat="42.81748" lon="1.41513">
        <ele>1723.3</ele>
        <time>2016-12-28T12:58:55Z</time>
      </trkpt>
      <trkpt lat="42.81745" lon="1.41518">
        <ele>1722.6</ele>
        <time>2016-12-28T12:58:59Z</time>
      </trkpt>
      <trkpt lat="42.81742" lon="1.41524">
        <ele>1721.8</ele>
        <time>2016-12-28T12:59:02Z</time>
      </trkpt>
      <trkpt lat="42.81739" lon="1.41526">
        <ele>1721.4</ele>
        <time>2016-12-28T12:59:04Z</time>
      </trkpt>
      <trkpt lat="42.81735" lon="1.41525">
        <ele>1720.9</ele>
        <time>2016-12-28T12:59:07Z</time>
      </trkpt>
      <trkpt lat="42.81732" lon="1.41526">
        <ele>1720.4</ele>
        <time>2016-12-28T12:59:09Z</time>
      </trkpt>
      <trkpt lat="42.81729" lon="1.41528">
        <ele>1719.9</ele>
        <time>2016-12-28T12:59:21Z</time>
      </trkpt>
      <trkpt lat="42.81726" lon="1.4153">
        <ele>1719.4</ele>
        <time>2016-12-28T12:59:23Z</time>
      </trkpt>
      <trkpt lat="42.81721" lon="1.41532">
        <ele>1718.7</ele>
        <time>2016-12-28T12:59:25Z</time>
      </trkpt>
      <trkpt lat="42.81719" lon="1.41533">
        <ele>1718.4</ele>
        <time>2016-12-28T12:59:44Z</time>
      </trkpt>
      <trkpt lat="42.81718" lon="1.41534">
        <ele>1718.1</ele>
        <time>2016-12-28T12:59:45Z</time>
      </trkpt>
      <trkpt lat="42.81715" lon="1.41539">
        <ele>1717.4</ele>
        <time>2016-12-28T12:59:50Z</time>
      </trkpt>
      <trkpt lat="42.81712" lon="1.41544">
        <ele>1716.8</ele>
        <time>2016-12-28T12:59:52Z</time>
      </trkpt>
      <trkpt lat="42.81707" lon="1.41546">
        <ele>1716</ele>
        <time>2016-12-28T12:59:54Z</time>
      </trkpt>
      <trkpt lat="42.81703" lon="1.41551">
        <ele>1715.3</ele>
        <time>2016-12-28T12:59:56Z</time>
      </trkpt>
      <trkpt lat="42.81699" lon="1.41554">
        <ele>1714.6</ele>
        <time>2016-12-28T12:59:59Z</time>
      </trkpt>
      <trkpt lat="42.81696" lon="1.41558">
        <ele>1714</ele>
        <time>2016-12-28T13:00:01Z</time>
      </trkpt>
      <trkpt lat="42.81694" lon="1.41559">
        <ele>1713.6</ele>
        <time>2016-12-28T13:00:03Z</time>
      </trkpt>
      <trkpt lat="42.81692" lon="1.41563">
        <ele>1713.2</ele>
        <time>2016-12-28T13:00:05Z</time>
      </trkpt>
      <trkpt lat="42.81689" lon="1.41565">
        <ele>1712.7</ele>
        <time>2016-12-28T13:00:08Z</time>
      </trkpt>
      <trkpt lat="42.81686" lon="1.41568">
        <ele>1712.2</ele>
        <time>2016-12-28T13:00:09Z</time>
      </trkpt>
      <trkpt lat="42.81684" lon="1.41573">
        <ele>1711.5</ele>
        <time>2016-12-28T13:00:12Z</time>
      </trkpt>
      <trkpt lat="42.81681" lon="1.41576">
        <ele>1711</ele>
        <time>2016-12-28T13:00:15Z</time>
      </trkpt>
      <trkpt lat="42.81678" lon="1.41578">
        <ele>1710.5</ele>
        <time>2016-12-28T13:00:18Z</time>
      </trkpt>
      <trkpt lat="42.81675" lon="1.41581">
        <ele>1710</ele>
        <time>2016-12-28T13:00:21Z</time>
      </trkpt>
      <trkpt lat="42.81672" lon="1.41583">
        <ele>1709.5</ele>
        <time>2016-12-28T13:00:23Z</time>
      </trkpt>
      <trkpt lat="42.8167" lon="1.41586">
        <ele>1709.1</ele>
        <time>2016-12-28T13:00:26Z</time>
      </trkpt>
      <trkpt lat="42.81666" lon="1.41588">
        <ele>1708.5</ele>
        <time>2016-12-28T13:00:29Z</time>
      </trkpt>
      <trkpt lat="42.81664" lon="1.4159">
        <ele>1708.1</ele>
        <time>2016-12-28T13:00:30Z</time>
      </trkpt>
      <trkpt lat="42.8166" lon="1.41592">
        <ele>1707.5</ele>
        <time>2016-12-28T13:00:32Z</time>
      </trkpt>
      <trkpt lat="42.81657" lon="1.41595">
        <ele>1706.9</ele>
        <time>2016-12-28T13:00:34Z</time>
      </trkpt>
      <trkpt lat="42.81654" lon="1.41599">
        <ele>1706.3</ele>
        <time>2016-12-28T13:00:39Z</time>
      </trkpt>
      <trkpt lat="42.81652" lon="1.41602">
        <ele>1705.9</ele>
        <time>2016-12-28T13:00:42Z</time>
      </trkpt>
      <trkpt lat="42.81649" lon="1.41606">
        <ele>1705.3</ele>
        <time>2016-12-28T13:00:44Z</time>
      </trkpt>
      <trkpt lat="42.81647" lon="1.41608">
        <ele>1704.9</ele>
        <time>2016-12-28T13:00:47Z</time>
      </trkpt>
      <trkpt lat="42.81645" lon="1.4161">
        <ele>1704.5</ele>
        <time>2016-12-28T13:00:48Z</time>
      </trkpt>
      <trkpt lat="42.81641" lon="1.41612">
        <ele>1704</ele>
        <time>2016-12-28T13:00:53Z</time>
      </trkpt>
      <trkpt lat="42.81639" lon="1.41615">
        <ele>1703.5</ele>
        <time>2016-12-28T13:00:55Z</time>
      </trkpt>
      <trkpt lat="42.81637" lon="1.41619">
        <ele>1702.9</ele>
        <time>2016-12-28T13:00:58Z</time>
      </trkpt>
      <trkpt lat="42.81635" lon="1.41624">
        <ele>1703</ele>
        <time>2016-12-28T13:01:01Z</time>
      </trkpt>
      <trkpt lat="42.81632" lon="1.41627">
        <ele>1702.3</ele>
        <time>2016-12-28T13:01:03Z</time>
      </trkpt>
      <trkpt lat="42.8163" lon="1.41632">
        <ele>1701.6</ele>
        <time>2016-12-28T13:01:06Z</time>
      </trkpt>
      <trkpt lat="42.81628" lon="1.41639">
        <ele>1701.1</ele>
        <time>2016-12-28T13:01:08Z</time>
      </trkpt>
      <trkpt lat="42.81626" lon="1.41642">
        <ele>1700.8</ele>
        <time>2016-12-28T13:01:10Z</time>
      </trkpt>
      <trkpt lat="42.81626" lon="1.41646">
        <ele>1700.5</ele>
        <time>2016-12-28T13:01:13Z</time>
      </trkpt>
      <trkpt lat="42.81625" lon="1.41651">
        <ele>1699.4</ele>
        <time>2016-12-28T13:01:16Z</time>
      </trkpt>
      <trkpt lat="42.81624" lon="1.41655">
        <ele>1698.3</ele>
        <time>2016-12-28T13:01:20Z</time>
      </trkpt>
      <trkpt lat="42.81621" lon="1.4166">
        <ele>1697.7</ele>
        <time>2016-12-28T13:01:23Z</time>
      </trkpt>
      <trkpt lat="42.81619" lon="1.41663">
        <ele>1697.4</ele>
        <time>2016-12-28T13:01:27Z</time>
      </trkpt>
      <trkpt lat="42.81616" lon="1.41667">
        <ele>1696.4</ele>
        <time>2016-12-28T13:01:32Z</time>
      </trkpt>
      <trkpt lat="42.81613" lon="1.41669">
        <ele>1695.5</ele>
        <time>2016-12-28T13:01:36Z</time>
      </trkpt>
      <trkpt lat="42.81611" lon="1.41673">
        <ele>1694.8</ele>
        <time>2016-12-28T13:01:39Z</time>
      </trkpt>
      <trkpt lat="42.8161" lon="1.41678">
        <ele>1694.6</ele>
        <time>2016-12-28T13:01:50Z</time>
      </trkpt>
      <trkpt lat="42.81608" lon="1.41682">
        <ele>1694.1</ele>
        <time>2016-12-28T13:01:52Z</time>
      </trkpt>
      <trkpt lat="42.81607" lon="1.41686">
        <ele>1694</ele>
        <time>2016-12-28T13:01:55Z</time>
      </trkpt>
      <trkpt lat="42.81605" lon="1.4169">
        <ele>1693.6</ele>
        <time>2016-12-28T13:01:58Z</time>
      </trkpt>
      <trkpt lat="42.81603" lon="1.41693">
        <ele>1693.9</ele>
        <time>2016-12-28T13:02:00Z</time>
      </trkpt>
      <trkpt lat="42.81603" lon="1.41697">
        <ele>1693.8</ele>
        <time>2016-12-28T13:02:03Z</time>
      </trkpt>
      <trkpt lat="42.816" lon="1.417">
        <ele>1693.3</ele>
        <time>2016-12-28T13:02:07Z</time>
      </trkpt>
      <trkpt lat="42.81599" lon="1.41705">
        <ele>1693.2</ele>
        <time>2016-12-28T13:02:11Z</time>
      </trkpt>
      <trkpt lat="42.81597" lon="1.41708">
        <ele>1692.5</ele>
        <time>2016-12-28T13:02:15Z</time>
      </trkpt>
      <trkpt lat="42.81595" lon="1.41712">
        <ele>1691.6</ele>
        <time>2016-12-28T13:02:17Z</time>
      </trkpt>
      <trkpt lat="42.81595" lon="1.41717">
        <ele>1691.5</ele>
        <time>2016-12-28T13:02:19Z</time>
      </trkpt>
      <trkpt lat="42.81592" lon="1.41715">
        <ele>1691.5</ele>
        <time>2016-12-28T13:02:24Z</time>
      </trkpt>
      <trkpt lat="42.8159" lon="1.41716">
        <ele>1690.7</ele>
        <time>2016-12-28T13:02:28Z</time>
      </trkpt>
      <trkpt lat="42.81587" lon="1.4172">
        <ele>1690.7</ele>
        <time>2016-12-28T13:02:31Z</time>
      </trkpt>
      <trkpt lat="42.81585" lon="1.4172">
        <ele>1690.5</ele>
        <time>2016-12-28T13:02:36Z</time>
      </trkpt>
      <trkpt lat="42.81582" lon="1.41723">
        <ele>1690.4</ele>
        <time>2016-12-28T13:02:39Z</time>
      </trkpt>
      <trkpt lat="42.81581" lon="1.4172">
        <ele>1690.7</ele>
        <time>2016-12-28T13:02:46Z</time>
      </trkpt>
      <trkpt lat="42.8158" lon="1.41715">
        <ele>1690.5</ele>
        <time>2016-12-28T13:02:48Z</time>
      </trkpt>
      <trkpt lat="42.81578" lon="1.4171">
        <ele>1691</ele>
        <time>2016-12-28T13:02:51Z</time>
      </trkpt>
      <trkpt lat="42.81575" lon="1.41707">
        <ele>1690.3</ele>
        <time>2016-12-28T13:02:54Z</time>
      </trkpt>
      <trkpt lat="42.8157" lon="1.417">
        <ele>1687.7</ele>
        <time>2016-12-28T13:02:57Z</time>
      </trkpt>
      <trkpt lat="42.81569" lon="1.41696">
        <ele>1688.1</ele>
        <time>2016-12-28T13:03:01Z</time>
      </trkpt>
      <trkpt lat="42.81567" lon="1.41692">
        <ele>1686.6</ele>
        <time>2016-12-28T13:03:03Z</time>
      </trkpt>
      <trkpt lat="42.81565" lon="1.41689">
        <ele>1687</ele>
        <time>2016-12-28T13:03:04Z</time>
      </trkpt>
      <trkpt lat="42.81564" lon="1.41684">
        <ele>1685.5</ele>
        <time>2016-12-28T13:03:06Z</time>
      </trkpt>
      <trkpt lat="42.81564" lon="1.4168">
        <ele>1685.9</ele>
        <time>2016-12-28T13:03:09Z</time>
      </trkpt>
      <trkpt lat="42.81564" lon="1.41675">
        <ele>1686.4</ele>
        <time>2016-12-28T13:03:13Z</time>
      </trkpt>
      <trkpt lat="42.81564" lon="1.4167">
        <ele>1687</ele>
        <time>2016-12-28T13:03:16Z</time>
      </trkpt>
      <trkpt lat="42.81565" lon="1.41666">
        <ele>1687.5</ele>
        <time>2016-12-28T13:03:18Z</time>
      </trkpt>
      <trkpt lat="42.81563" lon="1.4166">
        <ele>1687.9</ele>
        <time>2016-12-28T13:03:21Z</time>
      </trkpt>
      <trkpt lat="42.81562" lon="1.41654">
        <ele>1688.1</ele>
        <time>2016-12-28T13:03:23Z</time>
      </trkpt>
      <trkpt lat="42.81563" lon="1.41649">
        <ele>1688.2</ele>
        <time>2016-12-28T13:03:25Z</time>
      </trkpt>
      <trkpt lat="42.81563" lon="1.41644">
        <ele>1688.2</ele>
        <time>2016-12-28T13:03:28Z</time>
      </trkpt>
      <trkpt lat="42.81563" lon="1.4164">
        <ele>1688.1</ele>
        <time>2016-12-28T13:03:31Z</time>
      </trkpt>
      <trkpt lat="42.81565" lon="1.41644">
        <ele>1690.4</ele>
        <time>2016-12-28T13:03:33Z</time>
      </trkpt>
      <trkpt lat="42.81564" lon="1.4164">
        <ele>1688.7</ele>
        <time>2016-12-28T13:03:37Z</time>
      </trkpt>
      <trkpt lat="42.81564" lon="1.41634">
        <ele>1688.6</ele>
        <time>2016-12-28T13:03:41Z</time>
      </trkpt>
      <trkpt lat="42.81563" lon="1.41631">
        <ele>1688.5</ele>
        <time>2016-12-28T13:03:42Z</time>
      </trkpt>
      <trkpt lat="42.81562" lon="1.41627">
        <ele>1688.3</ele>
        <time>2016-12-28T13:03:45Z</time>
      </trkpt>
      <trkpt lat="42.81561" lon="1.41621">
        <ele>1686.5</ele>
        <time>2016-12-28T13:03:52Z</time>
      </trkpt>
      <trkpt lat="42.8156" lon="1.41617">
        <ele>1686.3</ele>
        <time>2016-12-28T13:04:00Z</time>
      </trkpt>
      <trkpt lat="42.81559" lon="1.41614">
        <ele>1686.1</ele>
        <time>2016-12-28T13:04:02Z</time>
      </trkpt>
      <trkpt lat="42.81558" lon="1.4161">
        <ele>1686.1</ele>
        <time>2016-12-28T13:04:07Z</time>
      </trkpt>
      <trkpt lat="42.81559" lon="1.41605">
        <ele>1686.1</ele>
        <time>2016-12-28T13:04:10Z</time>
      </trkpt>
      <trkpt lat="42.81558" lon="1.416">
        <ele>1684.7</ele>
        <time>2016-12-28T13:04:13Z</time>
      </trkpt>
      <trkpt lat="42.81556" lon="1.41598">
        <ele>1684.8</ele>
        <time>2016-12-28T13:04:18Z</time>
      </trkpt>
      <trkpt lat="42.81553" lon="1.41596">
        <ele>1683.8</ele>
        <time>2016-12-28T13:04:22Z</time>
      </trkpt>
      <trkpt lat="42.81551" lon="1.41593">
        <ele>1682.6</ele>
        <time>2016-12-28T13:04:25Z</time>
      </trkpt>
      <trkpt lat="42.81549" lon="1.41588">
        <ele>1682</ele>
        <time>2016-12-28T13:04:28Z</time>
      </trkpt>
      <trkpt lat="42.81546" lon="1.41584">
        <ele>1681.4</ele>
        <time>2016-12-28T13:04:30Z</time>
      </trkpt>
      <trkpt lat="42.81544" lon="1.4158">
        <ele>1680.8</ele>
        <time>2016-12-28T13:04:35Z</time>
      </trkpt>
      <trkpt lat="42.81543" lon="1.41576">
        <ele>1680.4</ele>
        <time>2016-12-28T13:04:41Z</time>
      </trkpt>
      <trkpt lat="42.81538" lon="1.41577">
        <ele>1679.7</ele>
        <time>2016-12-28T13:04:45Z</time>
      </trkpt>
      <trkpt lat="42.81534" lon="1.4158">
        <ele>1679</ele>
        <time>2016-12-28T13:04:47Z</time>
      </trkpt>
      <trkpt lat="42.81532" lon="1.41575">
        <ele>1678.4</ele>
        <time>2016-12-28T13:04:52Z</time>
      </trkpt>
      <trkpt lat="42.8153" lon="1.41571">
        <ele>1677.9</ele>
        <time>2016-12-28T13:04:54Z</time>
      </trkpt>
      <trkpt lat="42.81529" lon="1.41567">
        <ele>1677.4</ele>
        <time>2016-12-28T13:04:56Z</time>
      </trkpt>
      <trkpt lat="42.81528" lon="1.41563">
        <ele>1677</ele>
        <time>2016-12-28T13:04:59Z</time>
      </trkpt>
      <trkpt lat="42.81524" lon="1.41562">
        <ele>1676.4</ele>
        <time>2016-12-28T13:05:04Z</time>
      </trkpt>
      <trkpt lat="42.81521" lon="1.41564">
        <ele>1675.8</ele>
        <time>2016-12-28T13:05:13Z</time>
      </trkpt>
      <trkpt lat="42.81521" lon="1.4156">
        <ele>1675.4</ele>
        <time>2016-12-28T13:05:17Z</time>
      </trkpt>
      <trkpt lat="42.8152" lon="1.41557">
        <ele>1675</ele>
        <time>2016-12-28T13:05:21Z</time>
      </trkpt>
      <trkpt lat="42.81517" lon="1.41554">
        <ele>1674.5</ele>
        <time>2016-12-28T13:05:26Z</time>
      </trkpt>
      <trkpt lat="42.81514" lon="1.41548">
        <ele>1673.7</ele>
        <time>2016-12-28T13:05:31Z</time>
      </trkpt>
      <trkpt lat="42.8151" lon="1.41549">
        <ele>1673.1</ele>
        <time>2016-12-28T13:05:37Z</time>
      </trkpt>
      <trkpt lat="42.81507" lon="1.41546">
        <ele>1672.5</ele>
        <time>2016-12-28T13:05:39Z</time>
      </trkpt>
      <trkpt lat="42.81503" lon="1.41545">
        <ele>1672</ele>
        <time>2016-12-28T13:05:42Z</time>
      </trkpt>
      <trkpt lat="42.81503" lon="1.41541">
        <ele>1671.5</ele>
        <time>2016-12-28T13:05:45Z</time>
      </trkpt>
      <trkpt lat="42.815" lon="1.41539">
        <ele>1671</ele>
        <time>2016-12-28T13:05:49Z</time>
      </trkpt>
      <trkpt lat="42.81498" lon="1.41534">
        <ele>1670.5</ele>
        <time>2016-12-28T13:05:51Z</time>
      </trkpt>
      <trkpt lat="42.81496" lon="1.41532">
        <ele>1670</ele>
        <time>2016-12-28T13:05:53Z</time>
      </trkpt>
      <trkpt lat="42.81493" lon="1.41529">
        <ele>1669.5</ele>
        <time>2016-12-28T13:07:25Z</time>
      </trkpt>
      <trkpt lat="42.81492" lon="1.41525">
        <ele>1669.1</ele>
        <time>2016-12-28T13:07:27Z</time>
      </trkpt>
      <trkpt lat="42.81492" lon="1.4152">
        <ele>1668.5</ele>
        <time>2016-12-28T13:07:30Z</time>
      </trkpt>
      <trkpt lat="42.8149" lon="1.41516">
        <ele>1668</ele>
        <time>2016-12-28T13:07:32Z</time>
      </trkpt>
      <trkpt lat="42.81487" lon="1.41514">
        <ele>1667.5</ele>
        <time>2016-12-28T13:07:35Z</time>
      </trkpt>
      <trkpt lat="42.81484" lon="1.41512">
        <ele>1667.1</ele>
        <time>2016-12-28T13:07:37Z</time>
      </trkpt>
      <trkpt lat="42.81482" lon="1.41507">
        <ele>1666.5</ele>
        <time>2016-12-28T13:07:39Z</time>
      </trkpt>
      <trkpt lat="42.81479" lon="1.41505">
        <ele>1665.9</ele>
        <time>2016-12-28T13:07:44Z</time>
      </trkpt>
      <trkpt lat="42.81477" lon="1.41501">
        <ele>1665.4</ele>
        <time>2016-12-28T13:07:47Z</time>
      </trkpt>
      <trkpt lat="42.81474" lon="1.41498">
        <ele>1664.9</ele>
        <time>2016-12-28T13:07:49Z</time>
      </trkpt>
      <trkpt lat="42.81473" lon="1.41494">
        <ele>1664.4</ele>
        <time>2016-12-28T13:07:51Z</time>
      </trkpt>
      <trkpt lat="42.81472" lon="1.41489">
        <ele>1663.9</ele>
        <time>2016-12-28T13:07:53Z</time>
      </trkpt>
      <trkpt lat="42.81469" lon="1.41485">
        <ele>1663.3</ele>
        <time>2016-12-28T13:07:55Z</time>
      </trkpt>
      <trkpt lat="42.81467" lon="1.41483">
        <ele>1662.8</ele>
        <time>2016-12-28T13:07:57Z</time>
      </trkpt>
      <trkpt lat="42.81464" lon="1.41477">
        <ele>1662</ele>
        <time>2016-12-28T13:07:59Z</time>
      </trkpt>
      <trkpt lat="42.81461" lon="1.41472">
        <ele>1661.4</ele>
        <time>2016-12-28T13:08:02Z</time>
      </trkpt>
      <trkpt lat="42.81458" lon="1.41468">
        <ele>1660.7</ele>
        <time>2016-12-28T13:08:05Z</time>
      </trkpt>
      <trkpt lat="42.81455" lon="1.41463">
        <ele>1660</ele>
        <time>2016-12-28T13:08:07Z</time>
      </trkpt>
      <trkpt lat="42.81454" lon="1.41459">
        <ele>1659.6</ele>
        <time>2016-12-28T13:08:09Z</time>
      </trkpt>
      <trkpt lat="42.81452" lon="1.41456">
        <ele>1659.2</ele>
        <time>2016-12-28T13:08:12Z</time>
      </trkpt>
      <trkpt lat="42.8145" lon="1.41453">
        <ele>1658.7</ele>
        <time>2016-12-28T13:08:13Z</time>
      </trkpt>
      <trkpt lat="42.8145" lon="1.41448">
        <ele>1658.2</ele>
        <time>2016-12-28T13:08:16Z</time>
      </trkpt>
      <trkpt lat="42.81448" lon="1.41445">
        <ele>1657.8</ele>
        <time>2016-12-28T13:08:18Z</time>
      </trkpt>
      <trkpt lat="42.81446" lon="1.4144">
        <ele>1657.2</ele>
        <time>2016-12-28T13:08:20Z</time>
      </trkpt>
      <trkpt lat="42.81444" lon="1.41436">
        <ele>1656.6</ele>
        <time>2016-12-28T13:08:22Z</time>
      </trkpt>
      <trkpt lat="42.81441" lon="1.41431">
        <ele>1655.9</ele>
        <time>2016-12-28T13:08:24Z</time>
      </trkpt>
      <trkpt lat="42.81437" lon="1.41429">
        <ele>1655.3</ele>
        <time>2016-12-28T13:08:26Z</time>
      </trkpt>
      <trkpt lat="42.81433" lon="1.41428">
        <ele>1654.7</ele>
        <time>2016-12-28T13:08:28Z</time>
      </trkpt>
      <trkpt lat="42.8143" lon="1.41429">
        <ele>1654.2</ele>
        <time>2016-12-28T13:08:29Z</time>
      </trkpt>
      <trkpt lat="42.81427" lon="1.41427">
        <ele>1653.8</ele>
        <time>2016-12-28T13:08:32Z</time>
      </trkpt>
      <trkpt lat="42.81425" lon="1.41425">
        <ele>1653.3</ele>
        <time>2016-12-28T13:08:34Z</time>
      </trkpt>
      <trkpt lat="42.81422" lon="1.41427">
        <ele>1652.8</ele>
        <time>2016-12-28T13:08:37Z</time>
      </trkpt>
      <trkpt lat="42.81419" lon="1.41427">
        <ele>1652.4</ele>
        <time>2016-12-28T13:08:39Z</time>
      </trkpt>
      <trkpt lat="42.81416" lon="1.41425">
        <ele>1651.9</ele>
        <time>2016-12-28T13:08:41Z</time>
      </trkpt>
      <trkpt lat="42.81414" lon="1.41422">
        <ele>1651.5</ele>
        <time>2016-12-28T13:08:43Z</time>
      </trkpt>
      <trkpt lat="42.81411" lon="1.41421">
        <ele>1651</ele>
        <time>2016-12-28T13:08:46Z</time>
      </trkpt>
      <trkpt lat="42.81408" lon="1.41422">
        <ele>1650.6</ele>
        <time>2016-12-28T13:08:48Z</time>
      </trkpt>
      <trkpt lat="42.81405" lon="1.41419">
        <ele>1650.1</ele>
        <time>2016-12-28T13:08:50Z</time>
      </trkpt>
      <trkpt lat="42.81403" lon="1.41414">
        <ele>1649.5</ele>
        <time>2016-12-28T13:08:52Z</time>
      </trkpt>
      <trkpt lat="42.814" lon="1.41416">
        <ele>1648.9</ele>
        <time>2016-12-28T13:08:56Z</time>
      </trkpt>
      <trkpt lat="42.81396" lon="1.41413">
        <ele>1648.3</ele>
        <time>2016-12-28T13:08:58Z</time>
      </trkpt>
      <trkpt lat="42.81394" lon="1.41409">
        <ele>1647.8</ele>
        <time>2016-12-28T13:09:00Z</time>
      </trkpt>
      <trkpt lat="42.81391" lon="1.41412">
        <ele>1647.2</ele>
        <time>2016-12-28T13:09:02Z</time>
      </trkpt>
      <trkpt lat="42.81388" lon="1.41412">
        <ele>1646.7</ele>
        <time>2016-12-28T13:09:04Z</time>
      </trkpt>
      <trkpt lat="42.81385" lon="1.4141">
        <ele>1646.2</ele>
        <time>2016-12-28T13:09:07Z</time>
      </trkpt>
      <trkpt lat="42.8138" lon="1.41408">
        <ele>1645.5</ele>
        <time>2016-12-28T13:09:09Z</time>
      </trkpt>
      <trkpt lat="42.81377" lon="1.41407">
        <ele>1644.9</ele>
        <time>2016-12-28T13:09:11Z</time>
      </trkpt>
      <trkpt lat="42.81373" lon="1.41407">
        <ele>1644.4</ele>
        <time>2016-12-28T13:09:14Z</time>
      </trkpt>
      <trkpt lat="42.8137" lon="1.41404">
        <ele>1643.8</ele>
        <time>2016-12-28T13:09:16Z</time>
      </trkpt>
      <trkpt lat="42.81368" lon="1.41402">
        <ele>1643.4</ele>
        <time>2016-12-28T13:09:19Z</time>
      </trkpt>
      <trkpt lat="42.81364" lon="1.41401">
        <ele>1642.8</ele>
        <time>2016-12-28T13:09:21Z</time>
      </trkpt>
      <trkpt lat="42.81361" lon="1.41403">
        <ele>1642.3</ele>
        <time>2016-12-28T13:09:24Z</time>
      </trkpt>
      <trkpt lat="42.81358" lon="1.41401">
        <ele>1641.8</ele>
        <time>2016-12-28T13:09:26Z</time>
      </trkpt>
      <trkpt lat="42.81356" lon="1.41397">
        <ele>1641.2</ele>
        <time>2016-12-28T13:09:29Z</time>
      </trkpt>
      <trkpt lat="42.81353" lon="1.41395">
        <ele>1640.7</ele>
        <time>2016-12-28T13:09:32Z</time>
      </trkpt>
      <trkpt lat="42.81351" lon="1.41389">
        <ele>1640</ele>
        <time>2016-12-28T13:09:34Z</time>
      </trkpt>
      <trkpt lat="42.81348" lon="1.41389">
        <ele>1639.5</ele>
        <time>2016-12-28T13:09:37Z</time>
      </trkpt>
      <trkpt lat="42.81346" lon="1.41391">
        <ele>1639.1</ele>
        <time>2016-12-28T13:09:38Z</time>
      </trkpt>
      <trkpt lat="42.81343" lon="1.41389">
        <ele>1638.7</ele>
        <time>2016-12-28T13:09:41Z</time>
      </trkpt>
      <trkpt lat="42.8134" lon="1.41388">
        <ele>1638.2</ele>
        <time>2016-12-28T13:09:44Z</time>
      </trkpt>
      <trkpt lat="42.81337" lon="1.41389">
        <ele>1637.7</ele>
        <time>2016-12-28T13:09:46Z</time>
      </trkpt>
      <trkpt lat="42.81333" lon="1.41389">
        <ele>1637.1</ele>
        <time>2016-12-28T13:09:48Z</time>
      </trkpt>
      <trkpt lat="42.8133" lon="1.41389">
        <ele>1636.6</ele>
        <time>2016-12-28T13:09:53Z</time>
      </trkpt>
      <trkpt lat="42.81329" lon="1.41383">
        <ele>1636</ele>
        <time>2016-12-28T13:09:56Z</time>
      </trkpt>
      <trkpt lat="42.81326" lon="1.41383">
        <ele>1635.5</ele>
        <time>2016-12-28T13:09:58Z</time>
      </trkpt>
      <trkpt lat="42.81323" lon="1.41384">
        <ele>1635</ele>
        <time>2016-12-28T13:10:00Z</time>
      </trkpt>
      <trkpt lat="42.81319" lon="1.41386">
        <ele>1634.4</ele>
        <time>2016-12-28T13:10:02Z</time>
      </trkpt>
      <trkpt lat="42.81316" lon="1.41384">
        <ele>1634</ele>
        <time>2016-12-28T13:10:04Z</time>
      </trkpt>
      <trkpt lat="42.81315" lon="1.4138">
        <ele>1633.5</ele>
        <time>2016-12-28T13:10:06Z</time>
      </trkpt>
      <trkpt lat="42.81312" lon="1.41379">
        <ele>1633.1</ele>
        <time>2016-12-28T13:10:08Z</time>
      </trkpt>
      <trkpt lat="42.8131" lon="1.41376">
        <ele>1632.7</ele>
        <time>2016-12-28T13:10:10Z</time>
      </trkpt>
      <trkpt lat="42.81307" lon="1.41379">
        <ele>1632.2</ele>
        <time>2016-12-28T13:10:15Z</time>
      </trkpt>
      <trkpt lat="42.81301" lon="1.41377">
        <ele>1631.3</ele>
        <time>2016-12-28T13:10:17Z</time>
      </trkpt>
      <trkpt lat="42.813" lon="1.41373">
        <ele>1630.9</ele>
        <time>2016-12-28T13:10:24Z</time>
      </trkpt>
      <trkpt lat="42.81298" lon="1.41378">
        <ele>1630.2</ele>
        <time>2016-12-28T13:11:10Z</time>
      </trkpt>
      <trkpt lat="42.81295" lon="1.4138">
        <ele>1629.8</ele>
        <time>2016-12-28T13:11:15Z</time>
      </trkpt>
      <trkpt lat="42.81293" lon="1.41376">
        <ele>1629.3</ele>
        <time>2016-12-28T13:11:17Z</time>
      </trkpt>
      <trkpt lat="42.81289" lon="1.41375">
        <ele>1628.7</ele>
        <time>2016-12-28T13:11:20Z</time>
      </trkpt>
      <trkpt lat="42.81286" lon="1.41374">
        <ele>1628.2</ele>
        <time>2016-12-28T13:11:23Z</time>
      </trkpt>
      <trkpt lat="42.81283" lon="1.41376">
        <ele>1627.7</ele>
        <time>2016-12-28T13:11:27Z</time>
      </trkpt>
      <trkpt lat="42.81282" lon="1.41372">
        <ele>1627.2</ele>
        <time>2016-12-28T13:11:29Z</time>
      </trkpt>
      <trkpt lat="42.81279" lon="1.41372">
        <ele>1626.7</ele>
        <time>2016-12-28T13:11:32Z</time>
      </trkpt>
      <trkpt lat="42.81275" lon="1.41373">
        <ele>1626.2</ele>
        <time>2016-12-28T13:11:34Z</time>
      </trkpt>
      <trkpt lat="42.81272" lon="1.41373">
        <ele>1625.7</ele>
        <time>2016-12-28T13:11:36Z</time>
      </trkpt>
      <trkpt lat="42.81269" lon="1.41373">
        <ele>1625.3</ele>
        <time>2016-12-28T13:11:38Z</time>
      </trkpt>
      <trkpt lat="42.81265" lon="1.41372">
        <ele>1624.7</ele>
        <time>2016-12-28T13:11:41Z</time>
      </trkpt>
      <trkpt lat="42.81262" lon="1.41371">
        <ele>1624.2</ele>
        <time>2016-12-28T13:11:44Z</time>
      </trkpt>
      <trkpt lat="42.81258" lon="1.41371">
        <ele>1623.7</ele>
        <time>2016-12-28T13:11:47Z</time>
      </trkpt>
      <trkpt lat="42.81255" lon="1.41372">
        <ele>1623.2</ele>
        <time>2016-12-28T13:11:49Z</time>
      </trkpt>
      <trkpt lat="42.81252" lon="1.41371">
        <ele>1622.7</ele>
        <time>2016-12-28T13:11:53Z</time>
      </trkpt>
      <trkpt lat="42.81249" lon="1.41372">
        <ele>1622.3</ele>
        <time>2016-12-28T13:11:56Z</time>
      </trkpt>
      <trkpt lat="42.81246" lon="1.41372">
        <ele>1621.8</ele>
        <time>2016-12-28T13:11:59Z</time>
      </trkpt>
      <trkpt lat="42.81243" lon="1.41374">
        <ele>1621.3</ele>
        <time>2016-12-28T13:12:01Z</time>
      </trkpt>
      <trkpt lat="42.81241" lon="1.41371">
        <ele>1620.8</ele>
        <time>2016-12-28T13:12:05Z</time>
      </trkpt>
      <trkpt lat="42.81237" lon="1.41371">
        <ele>1620.2</ele>
        <time>2016-12-28T13:12:07Z</time>
      </trkpt>
      <trkpt lat="42.81234" lon="1.4137">
        <ele>1619.8</ele>
        <time>2016-12-28T13:12:08Z</time>
      </trkpt>
      <trkpt lat="42.81231" lon="1.41369">
        <ele>1619.3</ele>
        <time>2016-12-28T13:12:10Z</time>
      </trkpt>
      <trkpt lat="42.81229" lon="1.41366">
        <ele>1618.9</ele>
        <time>2016-12-28T13:12:13Z</time>
      </trkpt>
      <trkpt lat="42.81226" lon="1.41364">
        <ele>1618.4</ele>
        <time>2016-12-28T13:12:26Z</time>
      </trkpt>
      <trkpt lat="42.81221" lon="1.41361">
        <ele>1617.5</ele>
        <time>2016-12-28T13:12:40Z</time>
      </trkpt>
      <trkpt lat="42.81217" lon="1.41362">
        <ele>1616.9</ele>
        <time>2016-12-28T13:12:41Z</time>
      </trkpt>
      <trkpt lat="42.81214" lon="1.41359">
        <ele>1616.3</ele>
        <time>2016-12-28T13:12:42Z</time>
      </trkpt>
      <trkpt lat="42.81211" lon="1.41357">
        <ele>1615.9</ele>
        <time>2016-12-28T13:12:43Z</time>
      </trkpt>
      <trkpt lat="42.81208" lon="1.41356">
        <ele>1615.4</ele>
        <time>2016-12-28T13:12:45Z</time>
      </trkpt>
      <trkpt lat="42.81205" lon="1.41355">
        <ele>1614.9</ele>
        <time>2016-12-28T13:12:47Z</time>
      </trkpt>
      <trkpt lat="42.81201" lon="1.41354">
        <ele>1614.4</ele>
        <time>2016-12-28T13:12:49Z</time>
      </trkpt>
      <trkpt lat="42.81198" lon="1.41356">
        <ele>1613.9</ele>
        <time>2016-12-28T13:12:51Z</time>
      </trkpt>
      <trkpt lat="42.81195" lon="1.41357">
        <ele>1613.5</ele>
        <time>2016-12-28T13:12:53Z</time>
      </trkpt>
      <trkpt lat="42.81193" lon="1.41358">
        <ele>1613.1</ele>
        <time>2016-12-28T13:12:56Z</time>
      </trkpt>
      <trkpt lat="42.81189" lon="1.41362">
        <ele>1612.4</ele>
        <time>2016-12-28T13:13:00Z</time>
      </trkpt>
      <trkpt lat="42.81186" lon="1.41363">
        <ele>1611.9</ele>
        <time>2016-12-28T13:13:04Z</time>
      </trkpt>
      <trkpt lat="42.81182" lon="1.41364">
        <ele>1611.3</ele>
        <time>2016-12-28T13:13:13Z</time>
      </trkpt>
      <trkpt lat="42.81182" lon="1.41369">
        <ele>1610.8</ele>
        <time>2016-12-28T13:13:15Z</time>
      </trkpt>
      <trkpt lat="42.81179" lon="1.41372">
        <ele>1610.3</ele>
        <time>2016-12-28T13:13:17Z</time>
      </trkpt>
      <trkpt lat="42.81177" lon="1.41374">
        <ele>1609.9</ele>
        <time>2016-12-28T13:13:19Z</time>
      </trkpt>
      <trkpt lat="42.81174" lon="1.41374">
        <ele>1609.5</ele>
        <time>2016-12-28T13:13:22Z</time>
      </trkpt>
      <trkpt lat="42.81172" lon="1.41374">
        <ele>1609.1</ele>
        <time>2016-12-28T13:13:25Z</time>
      </trkpt>
      <trkpt lat="42.81168" lon="1.41374">
        <ele>1608.6</ele>
        <time>2016-12-28T13:13:28Z</time>
      </trkpt>
      <trkpt lat="42.81164" lon="1.41375">
        <ele>1608</ele>
        <time>2016-12-28T13:13:31Z</time>
      </trkpt>
      <trkpt lat="42.81161" lon="1.41376">
        <ele>1607.5</ele>
        <time>2016-12-28T13:13:33Z</time>
      </trkpt>
      <trkpt lat="42.81158" lon="1.41375">
        <ele>1607</ele>
        <time>2016-12-28T13:13:35Z</time>
      </trkpt>
      <trkpt lat="42.81154" lon="1.41375">
        <ele>1606.5</ele>
        <time>2016-12-28T13:13:37Z</time>
      </trkpt>
      <trkpt lat="42.8115" lon="1.41376">
        <ele>1605.9</ele>
        <time>2016-12-28T13:13:40Z</time>
      </trkpt>
      <trkpt lat="42.81148" lon="1.41373">
        <ele>1605.4</ele>
        <time>2016-12-28T13:13:42Z</time>
      </trkpt>
      <trkpt lat="42.81143" lon="1.41375">
        <ele>1604.6</ele>
        <time>2016-12-28T13:13:44Z</time>
      </trkpt>
      <trkpt lat="42.81139" lon="1.41375">
        <ele>1604.1</ele>
        <time>2016-12-28T13:13:46Z</time>
      </trkpt>
      <trkpt lat="42.81137" lon="1.41376">
        <ele>1603.7</ele>
        <time>2016-12-28T13:13:48Z</time>
      </trkpt>
      <trkpt lat="42.81134" lon="1.41379">
        <ele>1603.2</ele>
        <time>2016-12-28T13:13:50Z</time>
      </trkpt>
      <trkpt lat="42.81132" lon="1.41378">
        <ele>1602.8</ele>
        <time>2016-12-28T13:13:52Z</time>
      </trkpt>
      <trkpt lat="42.81129" lon="1.41376">
        <ele>1602.4</ele>
        <time>2016-12-28T13:13:56Z</time>
      </trkpt>
      <trkpt lat="42.81124" lon="1.41377">
        <ele>1601.6</ele>
        <time>2016-12-28T13:14:01Z</time>
      </trkpt>
      <trkpt lat="42.81121" lon="1.4138">
        <ele>1601.1</ele>
        <time>2016-12-28T13:14:03Z</time>
      </trkpt>
      <trkpt lat="42.81117" lon="1.4138">
        <ele>1600.5</ele>
        <time>2016-12-28T13:14:05Z</time>
      </trkpt>
      <trkpt lat="42.81115" lon="1.41377">
        <ele>1600.1</ele>
        <time>2016-12-28T13:14:07Z</time>
      </trkpt>
      <trkpt lat="42.81112" lon="1.41375">
        <ele>1599.6</ele>
        <time>2016-12-28T13:14:08Z</time>
      </trkpt>
      <trkpt lat="42.81108" lon="1.41376">
        <ele>1598.9</ele>
        <time>2016-12-28T13:14:10Z</time>
      </trkpt>
      <trkpt lat="42.81104" lon="1.41377">
        <ele>1598.3</ele>
        <time>2016-12-28T13:14:13Z</time>
      </trkpt>
      <trkpt lat="42.811" lon="1.41377">
        <ele>1597.7</ele>
        <time>2016-12-28T13:14:15Z</time>
      </trkpt>
      <trkpt lat="42.81097" lon="1.41378">
        <ele>1597.2</ele>
        <time>2016-12-28T13:14:18Z</time>
      </trkpt>
      <trkpt lat="42.81095" lon="1.41381">
        <ele>1596.8</ele>
        <time>2016-12-28T13:14:25Z</time>
      </trkpt>
      <trkpt lat="42.81093" lon="1.41385">
        <ele>1596.3</ele>
        <time>2016-12-28T13:14:27Z</time>
      </trkpt>
      <trkpt lat="42.81094" lon="1.4138">
        <ele>1595.8</ele>
        <time>2016-12-28T13:14:29Z</time>
      </trkpt>
      <trkpt lat="42.81091" lon="1.41379">
        <ele>1595.3</ele>
        <time>2016-12-28T13:14:31Z</time>
      </trkpt>
      <trkpt lat="42.81089" lon="1.41376">
        <ele>1594.9</ele>
        <time>2016-12-28T13:14:38Z</time>
      </trkpt>
      <trkpt lat="42.81087" lon="1.41378">
        <ele>1594.5</ele>
        <time>2016-12-28T13:14:49Z</time>
      </trkpt>
      <trkpt lat="42.81085" lon="1.41381">
        <ele>1594.1</ele>
        <time>2016-12-28T13:15:10Z</time>
      </trkpt>
      <trkpt lat="42.81081" lon="1.41382">
        <ele>1593.4</ele>
        <time>2016-12-28T13:15:13Z</time>
      </trkpt>
      <trkpt lat="42.81079" lon="1.41385">
        <ele>1593</ele>
        <time>2016-12-28T13:15:15Z</time>
      </trkpt>
      <trkpt lat="42.81075" lon="1.41384">
        <ele>1592.5</ele>
        <time>2016-12-28T13:15:17Z</time>
      </trkpt>
      <trkpt lat="42.81071" lon="1.41386">
        <ele>1591.8</ele>
        <time>2016-12-28T13:15:20Z</time>
      </trkpt>
      <trkpt lat="42.81067" lon="1.41389">
        <ele>1591.2</ele>
        <time>2016-12-28T13:15:23Z</time>
      </trkpt>
      <trkpt lat="42.81064" lon="1.4139">
        <ele>1590.8</ele>
        <time>2016-12-28T13:15:25Z</time>
      </trkpt>
      <trkpt lat="42.81061" lon="1.4139">
        <ele>1590.2</ele>
        <time>2016-12-28T13:15:27Z</time>
      </trkpt>
      <trkpt lat="42.81057" lon="1.41391">
        <ele>1589.7</ele>
        <time>2016-12-28T13:15:30Z</time>
      </trkpt>
      <trkpt lat="42.81052" lon="1.41391">
        <ele>1588.9</ele>
        <time>2016-12-28T13:15:32Z</time>
      </trkpt>
      <trkpt lat="42.81048" lon="1.41392">
        <ele>1588.4</ele>
        <time>2016-12-28T13:15:35Z</time>
      </trkpt>
      <trkpt lat="42.81045" lon="1.41391">
        <ele>1587.9</ele>
        <time>2016-12-28T13:15:37Z</time>
      </trkpt>
      <trkpt lat="42.81041" lon="1.41393">
        <ele>1587.2</ele>
        <time>2016-12-28T13:15:40Z</time>
      </trkpt>
      <trkpt lat="42.81037" lon="1.41396">
        <ele>1586.6</ele>
        <time>2016-12-28T13:15:41Z</time>
      </trkpt>
      <trkpt lat="42.81034" lon="1.41393">
        <ele>1586</ele>
        <time>2016-12-28T13:15:43Z</time>
      </trkpt>
      <trkpt lat="42.8103" lon="1.41395">
        <ele>1585.4</ele>
        <time>2016-12-28T13:15:45Z</time>
      </trkpt>
      <trkpt lat="42.81026" lon="1.41396">
        <ele>1584.8</ele>
        <time>2016-12-28T13:15:47Z</time>
      </trkpt>
      <trkpt lat="42.81022" lon="1.41393">
        <ele>1584</ele>
        <time>2016-12-28T13:15:50Z</time>
      </trkpt>
      <trkpt lat="42.81019" lon="1.41389">
        <ele>1583.4</ele>
        <time>2016-12-28T13:15:53Z</time>
      </trkpt>
      <trkpt lat="42.81015" lon="1.41385">
        <ele>1582.7</ele>
        <time>2016-12-28T13:15:56Z</time>
      </trkpt>
      <trkpt lat="42.81012" lon="1.41383">
        <ele>1582.3</ele>
        <time>2016-12-28T13:15:58Z</time>
      </trkpt>
      <trkpt lat="42.81012" lon="1.41379">
        <ele>1581.8</ele>
        <time>2016-12-28T13:16:00Z</time>
      </trkpt>
      <trkpt lat="42.8101" lon="1.41374">
        <ele>1581.2</ele>
        <time>2016-12-28T13:16:02Z</time>
      </trkpt>
      <trkpt lat="42.81008" lon="1.4137">
        <ele>1580.7</ele>
        <time>2016-12-28T13:16:04Z</time>
      </trkpt>
      <trkpt lat="42.81004" lon="1.41367">
        <ele>1580</ele>
        <time>2016-12-28T13:16:07Z</time>
      </trkpt>
      <trkpt lat="42.81001" lon="1.41362">
        <ele>1579.4</ele>
        <time>2016-12-28T13:16:09Z</time>
      </trkpt>
      <trkpt lat="42.80999" lon="1.41359">
        <ele>1578.8</ele>
        <time>2016-12-28T13:16:12Z</time>
      </trkpt>
      <trkpt lat="42.80996" lon="1.41355">
        <ele>1578.2</ele>
        <time>2016-12-28T13:16:15Z</time>
      </trkpt>
      <trkpt lat="42.80993" lon="1.41354">
        <ele>1577.8</ele>
        <time>2016-12-28T13:16:16Z</time>
      </trkpt>
      <trkpt lat="42.80991" lon="1.4135">
        <ele>1577.3</ele>
        <time>2016-12-28T13:16:18Z</time>
      </trkpt>
      <trkpt lat="42.8099" lon="1.41345">
        <ele>1576.7</ele>
        <time>2016-12-28T13:16:19Z</time>
      </trkpt>
      <trkpt lat="42.80986" lon="1.41341">
        <ele>1576</ele>
        <time>2016-12-28T13:16:21Z</time>
      </trkpt>
      <trkpt lat="42.80983" lon="1.41337">
        <ele>1575.3</ele>
        <time>2016-12-28T13:16:24Z</time>
      </trkpt>
      <trkpt lat="42.80979" lon="1.41331">
        <ele>1574.4</ele>
        <time>2016-12-28T13:16:26Z</time>
      </trkpt>
      <trkpt lat="42.80975" lon="1.41325">
        <ele>1573.6</ele>
        <time>2016-12-28T13:16:28Z</time>
      </trkpt>
      <trkpt lat="42.80972" lon="1.41321">
        <ele>1573</ele>
        <time>2016-12-28T13:16:31Z</time>
      </trkpt>
      <trkpt lat="42.80972" lon="1.41316">
        <ele>1572.5</ele>
        <time>2016-12-28T13:16:33Z</time>
      </trkpt>
      <trkpt lat="42.8097" lon="1.41312">
        <ele>1572</ele>
        <time>2016-12-28T13:16:34Z</time>
      </trkpt>
      <trkpt lat="42.80969" lon="1.41307">
        <ele>1571.4</ele>
        <time>2016-12-28T13:16:35Z</time>
      </trkpt>
      <trkpt lat="42.80966" lon="1.41301">
        <ele>1570.6</ele>
        <time>2016-12-28T13:16:37Z</time>
      </trkpt>
      <trkpt lat="42.80963" lon="1.413">
        <ele>1570.1</ele>
        <time>2016-12-28T13:16:38Z</time>
      </trkpt>
      <trkpt lat="42.80958" lon="1.41296">
        <ele>1569.3</ele>
        <time>2016-12-28T13:16:40Z</time>
      </trkpt>
      <trkpt lat="42.80955" lon="1.41295">
        <ele>1568.8</ele>
        <time>2016-12-28T13:16:42Z</time>
      </trkpt>
      <trkpt lat="42.80952" lon="1.41294">
        <ele>1568.4</ele>
        <time>2016-12-28T13:16:44Z</time>
      </trkpt>
      <trkpt lat="42.80948" lon="1.41292">
        <ele>1567.7</ele>
        <time>2016-12-28T13:16:47Z</time>
      </trkpt>
      <trkpt lat="42.80944" lon="1.4129">
        <ele>1567.1</ele>
        <time>2016-12-28T13:16:49Z</time>
      </trkpt>
      <trkpt lat="42.80941" lon="1.41288">
        <ele>1566.6</ele>
        <time>2016-12-28T13:16:51Z</time>
      </trkpt>
      <trkpt lat="42.80937" lon="1.41284">
        <ele>1565.9</ele>
        <time>2016-12-28T13:16:53Z</time>
      </trkpt>
      <trkpt lat="42.80934" lon="1.41281">
        <ele>1565.3</ele>
        <time>2016-12-28T13:16:55Z</time>
      </trkpt>
      <trkpt lat="42.8093" lon="1.41276">
        <ele>1564.5</ele>
        <time>2016-12-28T13:16:57Z</time>
      </trkpt>
      <trkpt lat="42.80927" lon="1.41275">
        <ele>1564.1</ele>
        <time>2016-12-28T13:16:58Z</time>
      </trkpt>
      <trkpt lat="42.80925" lon="1.41272">
        <ele>1563.7</ele>
        <time>2016-12-28T13:16:59Z</time>
      </trkpt>
      <trkpt lat="42.80923" lon="1.41269">
        <ele>1563.1</ele>
        <time>2016-12-28T13:17:01Z</time>
      </trkpt>
      <trkpt lat="42.80921" lon="1.41266">
        <ele>1562.7</ele>
        <time>2016-12-28T13:17:02Z</time>
      </trkpt>
      <trkpt lat="42.80918" lon="1.41262">
        <ele>1562.1</ele>
        <time>2016-12-28T13:17:05Z</time>
      </trkpt>
      <trkpt lat="42.80917" lon="1.41258">
        <ele>1561.6</ele>
        <time>2016-12-28T13:17:06Z</time>
      </trkpt>
      <trkpt lat="42.80915" lon="1.41255">
        <ele>1561.2</ele>
        <time>2016-12-28T13:17:08Z</time>
      </trkpt>
      <trkpt lat="42.80911" lon="1.41253">
        <ele>1560.6</ele>
        <time>2016-12-28T13:17:11Z</time>
      </trkpt>
      <trkpt lat="42.80909" lon="1.41249">
        <ele>1560</ele>
        <time>2016-12-28T13:17:14Z</time>
      </trkpt>
      <trkpt lat="42.80907" lon="1.41247">
        <ele>1559.6</ele>
        <time>2016-12-28T13:17:17Z</time>
      </trkpt>
      <trkpt lat="42.80902" lon="1.41245">
        <ele>1559</ele>
        <time>2016-12-28T13:17:21Z</time>
      </trkpt>
      <trkpt lat="42.809" lon="1.41242">
        <ele>1558.5</ele>
        <time>2016-12-28T13:17:23Z</time>
      </trkpt>
      <trkpt lat="42.80898" lon="1.41238">
        <ele>1558</ele>
        <time>2016-12-28T13:17:25Z</time>
      </trkpt>
      <trkpt lat="42.80895" lon="1.41235">
        <ele>1557.5</ele>
        <time>2016-12-28T13:17:27Z</time>
      </trkpt>
      <trkpt lat="42.80891" lon="1.41234">
        <ele>1556.8</ele>
        <time>2016-12-28T13:17:29Z</time>
      </trkpt>
      <trkpt lat="42.80888" lon="1.41231">
        <ele>1556.3</ele>
        <time>2016-12-28T13:17:31Z</time>
      </trkpt>
      <trkpt lat="42.80886" lon="1.41229">
        <ele>1555.8</ele>
        <time>2016-12-28T13:17:33Z</time>
      </trkpt>
      <trkpt lat="42.80884" lon="1.41226">
        <ele>1555.4</ele>
        <time>2016-12-28T13:17:35Z</time>
      </trkpt>
      <trkpt lat="42.80881" lon="1.41225">
        <ele>1555</ele>
        <time>2016-12-28T13:17:37Z</time>
      </trkpt>
      <trkpt lat="42.80878" lon="1.41225">
        <ele>1554.5</ele>
        <time>2016-12-28T13:17:38Z</time>
      </trkpt>
      <trkpt lat="42.80874" lon="1.41221">
        <ele>1553.8</ele>
        <time>2016-12-28T13:17:40Z</time>
      </trkpt>
      <trkpt lat="42.80869" lon="1.41221">
        <ele>1553.2</ele>
        <time>2016-12-28T13:17:42Z</time>
      </trkpt>
      <trkpt lat="42.80865" lon="1.41217">
        <ele>1552.5</ele>
        <time>2016-12-28T13:17:44Z</time>
      </trkpt>
      <trkpt lat="42.80861" lon="1.41215">
        <ele>1551.8</ele>
        <time>2016-12-28T13:17:46Z</time>
      </trkpt>
      <trkpt lat="42.80857" lon="1.41214">
        <ele>1551.1</ele>
        <time>2016-12-28T13:17:48Z</time>
      </trkpt>
      <trkpt lat="42.80853" lon="1.41215">
        <ele>1550.6</ele>
        <time>2016-12-28T13:17:50Z</time>
      </trkpt>
      <trkpt lat="42.8085" lon="1.41213">
        <ele>1550.1</ele>
        <time>2016-12-28T13:17:52Z</time>
      </trkpt>
      <trkpt lat="42.80844" lon="1.41212">
        <ele>1549.2</ele>
        <time>2016-12-28T13:17:54Z</time>
      </trkpt>
      <trkpt lat="42.80841" lon="1.41212">
        <ele>1548.8</ele>
        <time>2016-12-28T13:17:57Z</time>
      </trkpt>
      <trkpt lat="42.80838" lon="1.41211">
        <ele>1548.3</ele>
        <time>2016-12-28T13:18:11Z</time>
      </trkpt>
      <trkpt lat="42.80835" lon="1.4121">
        <ele>1547.9</ele>
        <time>2016-12-28T13:18:42Z</time>
      </trkpt>
      <trkpt lat="42.80833" lon="1.41209">
        <ele>1547.5</ele>
        <time>2016-12-28T13:18:43Z</time>
      </trkpt>
      <trkpt lat="42.8083" lon="1.41209">
        <ele>1547.1</ele>
        <time>2016-12-28T13:18:44Z</time>
      </trkpt>
      <trkpt lat="42.80827" lon="1.41207">
        <ele>1546.6</ele>
        <time>2016-12-28T13:18:48Z</time>
      </trkpt>
      <trkpt lat="42.80823" lon="1.41207">
        <ele>1546</ele>
        <time>2016-12-28T13:18:52Z</time>
      </trkpt>
      <trkpt lat="42.80819" lon="1.41205">
        <ele>1545.4</ele>
        <time>2016-12-28T13:18:53Z</time>
      </trkpt>
      <trkpt lat="42.80816" lon="1.41203">
        <ele>1544.9</ele>
        <time>2016-12-28T13:18:55Z</time>
      </trkpt>
      <trkpt lat="42.80817" lon="1.412">
        <ele>1544.4</ele>
        <time>2016-12-28T13:18:57Z</time>
      </trkpt>
      <trkpt lat="42.80812" lon="1.412">
        <ele>1543.8</ele>
        <time>2016-12-28T13:18:59Z</time>
      </trkpt>
      <trkpt lat="42.80808" lon="1.41201">
        <ele>1543.2</ele>
        <time>2016-12-28T13:19:01Z</time>
      </trkpt>
      <trkpt lat="42.80804" lon="1.41204">
        <ele>1542.5</ele>
        <time>2016-12-28T13:19:03Z</time>
      </trkpt>
      <trkpt lat="42.80802" lon="1.41207">
        <ele>1542</ele>
        <time>2016-12-28T13:19:04Z</time>
      </trkpt>
      <trkpt lat="42.80798" lon="1.4121">
        <ele>1541.3</ele>
        <time>2016-12-28T13:19:06Z</time>
      </trkpt>
      <trkpt lat="42.80796" lon="1.41213">
        <ele>1540.8</ele>
        <time>2016-12-28T13:19:08Z</time>
      </trkpt>
      <trkpt lat="42.80794" lon="1.41209">
        <ele>1540.4</ele>
        <time>2016-12-28T13:19:09Z</time>
      </trkpt>
      <trkpt lat="42.80791" lon="1.41209">
        <ele>1540</ele>
        <time>2016-12-28T13:19:10Z</time>
      </trkpt>
      <trkpt lat="42.80788" lon="1.41207">
        <ele>1539.4</ele>
        <time>2016-12-28T13:19:12Z</time>
      </trkpt>
      <trkpt lat="42.80785" lon="1.41206">
        <ele>1539</ele>
        <time>2016-12-28T13:19:14Z</time>
      </trkpt>
      <trkpt lat="42.80783" lon="1.41202">
        <ele>1538.4</ele>
        <time>2016-12-28T13:19:16Z</time>
      </trkpt>
      <trkpt lat="42.80781" lon="1.41198">
        <ele>1538</ele>
        <time>2016-12-28T13:19:18Z</time>
      </trkpt>
      <trkpt lat="42.80778" lon="1.41198">
        <ele>1537.5</ele>
        <time>2016-12-28T13:19:20Z</time>
      </trkpt>
      <trkpt lat="42.80776" lon="1.41197">
        <ele>1537.1</ele>
        <time>2016-12-28T13:19:22Z</time>
      </trkpt>
      <trkpt lat="42.80773" lon="1.41197">
        <ele>1536.7</ele>
        <time>2016-12-28T13:19:24Z</time>
      </trkpt>
      <trkpt lat="42.8077" lon="1.41197">
        <ele>1536.2</ele>
        <time>2016-12-28T13:19:26Z</time>
      </trkpt>
      <trkpt lat="42.80766" lon="1.41195">
        <ele>1535.7</ele>
        <time>2016-12-28T13:19:28Z</time>
      </trkpt>
      <trkpt lat="42.80763" lon="1.41193">
        <ele>1535.2</ele>
        <time>2016-12-28T13:19:31Z</time>
      </trkpt>
      <trkpt lat="42.80761" lon="1.41194">
        <ele>1534.7</ele>
        <time>2016-12-28T13:19:34Z</time>
      </trkpt>
      <trkpt lat="42.80758" lon="1.41191">
        <ele>1534.2</ele>
        <time>2016-12-28T13:19:37Z</time>
      </trkpt>
      <trkpt lat="42.80754" lon="1.41189">
        <ele>1533.6</ele>
        <time>2016-12-28T13:19:39Z</time>
      </trkpt>
      <trkpt lat="42.80751" lon="1.41189">
        <ele>1533.1</ele>
        <time>2016-12-28T13:19:42Z</time>
      </trkpt>
      <trkpt lat="42.80749" lon="1.41185">
        <ele>1532.6</ele>
        <time>2016-12-28T13:19:45Z</time>
      </trkpt>
      <trkpt lat="42.80745" lon="1.41185">
        <ele>1531.9</ele>
        <time>2016-12-28T13:19:48Z</time>
      </trkpt>
      <trkpt lat="42.80741" lon="1.41185">
        <ele>1531.5</ele>
        <time>2016-12-28T13:19:50Z</time>
      </trkpt>
      <trkpt lat="42.80737" lon="1.41185">
        <ele>1530.8</ele>
        <time>2016-12-28T13:19:52Z</time>
      </trkpt>
      <trkpt lat="42.80734" lon="1.41186">
        <ele>1530.3</ele>
        <time>2016-12-28T13:19:54Z</time>
      </trkpt>
      <trkpt lat="42.8073" lon="1.41184">
        <ele>1529.7</ele>
        <time>2016-12-28T13:19:56Z</time>
      </trkpt>
      <trkpt lat="42.80725" lon="1.41183">
        <ele>1528.9</ele>
        <time>2016-12-28T13:19:58Z</time>
      </trkpt>
      <trkpt lat="42.80721" lon="1.41182">
        <ele>1528.4</ele>
        <time>2016-12-28T13:19:59Z</time>
      </trkpt>
      <trkpt lat="42.80715" lon="1.41182">
        <ele>1527.5</ele>
        <time>2016-12-28T13:20:01Z</time>
      </trkpt>
      <trkpt lat="42.80711" lon="1.41183">
        <ele>1526.9</ele>
        <time>2016-12-28T13:20:03Z</time>
      </trkpt>
      <trkpt lat="42.80707" lon="1.41183">
        <ele>1526.2</ele>
        <time>2016-12-28T13:20:05Z</time>
      </trkpt>
      <trkpt lat="42.80702" lon="1.41181">
        <ele>1525.4</ele>
        <time>2016-12-28T13:20:07Z</time>
      </trkpt>
      <trkpt lat="42.80698" lon="1.41178">
        <ele>1524.8</ele>
        <time>2016-12-28T13:20:08Z</time>
      </trkpt>
      <trkpt lat="42.80694" lon="1.41176">
        <ele>1524.2</ele>
        <time>2016-12-28T13:20:09Z</time>
      </trkpt>
      <trkpt lat="42.80691" lon="1.41174">
        <ele>1523.6</ele>
        <time>2016-12-28T13:20:10Z</time>
      </trkpt>
      <trkpt lat="42.80686" lon="1.4117">
        <ele>1522.8</ele>
        <time>2016-12-28T13:20:11Z</time>
      </trkpt>
      <trkpt lat="42.80683" lon="1.41166">
        <ele>1522.2</ele>
        <time>2016-12-28T13:20:12Z</time>
      </trkpt>
      <trkpt lat="42.80679" lon="1.41165">
        <ele>1521.6</ele>
        <time>2016-12-28T13:20:13Z</time>
      </trkpt>
      <trkpt lat="42.80675" lon="1.41162">
        <ele>1520.9</ele>
        <time>2016-12-28T13:20:14Z</time>
      </trkpt>
      <trkpt lat="42.8067" lon="1.41158">
        <ele>1520.1</ele>
        <time>2016-12-28T13:20:15Z</time>
      </trkpt>
      <trkpt lat="42.80667" lon="1.41156">
        <ele>1519.5</ele>
        <time>2016-12-28T13:20:16Z</time>
      </trkpt>
      <trkpt lat="42.80663" lon="1.41154">
        <ele>1519</ele>
        <time>2016-12-28T13:20:18Z</time>
      </trkpt>
      <trkpt lat="42.8066" lon="1.41156">
        <ele>1518.4</ele>
        <time>2016-12-28T13:20:21Z</time>
      </trkpt>
      <trkpt lat="42.80658" lon="1.41153">
        <ele>1518</ele>
        <time>2016-12-28T13:20:24Z</time>
      </trkpt>
      <trkpt lat="42.80655" lon="1.41149">
        <ele>1518</ele>
        <time>2016-12-28T13:20:32Z</time>
      </trkpt>
      <trkpt lat="42.80652" lon="1.4115">
        <ele>1518</ele>
        <time>2016-12-28T13:20:37Z</time>
      </trkpt>
      <trkpt lat="42.80648" lon="1.4115">
        <ele>1518</ele>
        <time>2016-12-28T13:20:41Z</time>
      </trkpt>
      <trkpt lat="42.80647" lon="1.41156">
        <ele>1518</ele>
        <time>2016-12-28T13:20:42Z</time>
      </trkpt>
      <trkpt lat="42.80649" lon="1.41151">
        <ele>1518</ele>
        <time>2016-12-28T13:20:58Z</time>
      </trkpt>
      <trkpt lat="42.80649" lon="1.41146">
        <ele>1518.1</ele>
        <time>2016-12-28T13:21:42Z</time>
      </trkpt>
      <trkpt lat="42.80647" lon="1.41144">
        <ele>1518.1</ele>
        <time>2016-12-28T13:21:45Z</time>
      </trkpt>
    </trkseg>
  </trk>
</gpx>